<?xml version="1.0" encoding="UTF-8" standalone="no" ?>
<gpx xmlns="http://www.topografix.com/GPX/1/1" xmlns:xsi="http://www.w3.org/2001/XMLSchema-instance" xsi:schemaLocation="http://www.topografix.com/GPX/1/1 http://www.topografix.com/GPX/1/1/gpx.xsd" version="1.1" creator="VisuGPX - https://www.visugpx.com">
  <metadata>
    <name>Bagnères-de-Bigorre Gravel bike</name>
  </metadata>
  <trk>
    <name><![CDATA[Bagnères-de-Bigorre Gravel bike]]></name>
    <trkseg>
      <trkpt lat="43.07399" lon="0.14233">
        <ele>531</ele>
        <time>2021-10-07T08:14:47.000Z</time>
      </trkpt>
      <trkpt lat="43.07398" lon="0.14238">
        <ele>531</ele>
        <time>2021-10-07T08:14:54.000Z</time>
      </trkpt>
      <trkpt lat="43.07401" lon="0.14256">
        <ele>531.40002441406</ele>
        <time>2021-10-07T08:14:59.000Z</time>
      </trkpt>
      <trkpt lat="43.07408" lon="0.14275">
        <ele>531.40002441406</ele>
        <time>2021-10-07T08:15:03.000Z</time>
      </trkpt>
      <trkpt lat="43.0742" lon="0.14296">
        <ele>531.59997558594</ele>
        <time>2021-10-07T08:15:08.000Z</time>
      </trkpt>
      <trkpt lat="43.07436" lon="0.14305">
        <ele>531.59997558594</ele>
        <time>2021-10-07T08:15:13.000Z</time>
      </trkpt>
      <trkpt lat="43.07439" lon="0.14308">
        <ele>531.59997558594</ele>
        <time>2021-10-07T08:15:15.000Z</time>
      </trkpt>
      <trkpt lat="43.0744" lon="0.1431">
        <ele>531.79998779297</ele>
        <time>2021-10-07T08:15:17.000Z</time>
      </trkpt>
      <trkpt lat="43.07437" lon="0.14315">
        <ele>532</ele>
        <time>2021-10-07T08:15:21.000Z</time>
      </trkpt>
      <trkpt lat="43.07435" lon="0.1432">
        <ele>531.79998779297</ele>
        <time>2021-10-07T08:15:24.000Z</time>
      </trkpt>
      <trkpt lat="43.07437" lon="0.14324">
        <ele>531.79998779297</ele>
        <time>2021-10-07T08:15:29.000Z</time>
      </trkpt>
      <trkpt lat="43.07441" lon="0.14325">
        <ele>531.79998779297</ele>
        <time>2021-10-07T08:15:30.000Z</time>
      </trkpt>
      <trkpt lat="43.07458" lon="0.14317">
        <ele>531.79998779297</ele>
        <time>2021-10-07T08:15:35.000Z</time>
      </trkpt>
      <trkpt lat="43.07488" lon="0.14299">
        <ele>531.79998779297</ele>
        <time>2021-10-07T08:15:41.000Z</time>
      </trkpt>
      <trkpt lat="43.07529" lon="0.14275">
        <ele>530.79998779297</ele>
        <time>2021-10-07T08:15:48.000Z</time>
      </trkpt>
      <trkpt lat="43.07541" lon="0.14267">
        <ele>530.40002441406</ele>
        <time>2021-10-07T08:15:50.000Z</time>
      </trkpt>
      <trkpt lat="43.0758" lon="0.14243">
        <ele>529.40002441406</ele>
        <time>2021-10-07T08:15:56.000Z</time>
      </trkpt>
      <trkpt lat="43.07632" lon="0.14212">
        <ele>528.40002441406</ele>
        <time>2021-10-07T08:16:04.000Z</time>
      </trkpt>
      <trkpt lat="43.07638" lon="0.14208">
        <ele>528.20001220703</ele>
        <time>2021-10-07T08:16:05.000Z</time>
      </trkpt>
      <trkpt lat="43.0765" lon="0.14201">
        <ele>528</ele>
        <time>2021-10-07T08:16:07.000Z</time>
      </trkpt>
      <trkpt lat="43.07685" lon="0.1418">
        <ele>527.20001220703</ele>
        <time>2021-10-07T08:16:13.000Z</time>
      </trkpt>
      <trkpt lat="43.0769" lon="0.14177">
        <ele>527</ele>
        <time>2021-10-07T08:16:14.000Z</time>
      </trkpt>
      <trkpt lat="43.07699" lon="0.14178">
        <ele>526.79998779297</ele>
        <time>2021-10-07T08:16:16.000Z</time>
      </trkpt>
      <trkpt lat="43.07703" lon="0.14181">
        <ele>526.59997558594</ele>
        <time>2021-10-07T08:16:17.000Z</time>
      </trkpt>
      <trkpt lat="43.07706" lon="0.14186">
        <ele>526.40002441406</ele>
        <time>2021-10-07T08:16:18.000Z</time>
      </trkpt>
      <trkpt lat="43.0771" lon="0.142">
        <ele>526.40002441406</ele>
        <time>2021-10-07T08:16:20.000Z</time>
      </trkpt>
      <trkpt lat="43.07715" lon="0.14222">
        <ele>526.20001220703</ele>
        <time>2021-10-07T08:16:23.000Z</time>
      </trkpt>
      <trkpt lat="43.07727" lon="0.14274">
        <ele>526</ele>
        <time>2021-10-07T08:16:30.000Z</time>
      </trkpt>
      <trkpt lat="43.07741" lon="0.14332">
        <ele>526</ele>
        <time>2021-10-07T08:16:38.000Z</time>
      </trkpt>
      <trkpt lat="43.07762" lon="0.14404">
        <ele>526.40002441406</ele>
        <time>2021-10-07T08:16:48.000Z</time>
      </trkpt>
      <trkpt lat="43.0777" lon="0.14415">
        <ele>526.40002441406</ele>
        <time>2021-10-07T08:16:50.000Z</time>
      </trkpt>
      <trkpt lat="43.07775" lon="0.14418">
        <ele>526.40002441406</ele>
        <time>2021-10-07T08:16:51.000Z</time>
      </trkpt>
      <trkpt lat="43.0778" lon="0.14421">
        <ele>526.40002441406</ele>
        <time>2021-10-07T08:16:52.000Z</time>
      </trkpt>
      <trkpt lat="43.07802" lon="0.14425">
        <ele>526.59997558594</ele>
        <time>2021-10-07T08:16:56.000Z</time>
      </trkpt>
      <trkpt lat="43.07826" lon="0.14432">
        <ele>526.59997558594</ele>
        <time>2021-10-07T08:17:00.000Z</time>
      </trkpt>
      <trkpt lat="43.07832" lon="0.14436">
        <ele>526.59997558594</ele>
        <time>2021-10-07T08:17:01.000Z</time>
      </trkpt>
      <trkpt lat="43.07836" lon="0.14442">
        <ele>526.59997558594</ele>
        <time>2021-10-07T08:17:02.000Z</time>
      </trkpt>
      <trkpt lat="43.07842" lon="0.14457">
        <ele>526.40002441406</ele>
        <time>2021-10-07T08:17:04.000Z</time>
      </trkpt>
      <trkpt lat="43.07869" lon="0.14529">
        <ele>525.59997558594</ele>
        <time>2021-10-07T08:17:13.000Z</time>
      </trkpt>
      <trkpt lat="43.07877" lon="0.14551">
        <ele>525.40002441406</ele>
        <time>2021-10-07T08:17:16.000Z</time>
      </trkpt>
      <trkpt lat="43.07888" lon="0.14576">
        <ele>525.59997558594</ele>
        <time>2021-10-07T08:17:21.000Z</time>
      </trkpt>
      <trkpt lat="43.07889" lon="0.14579">
        <ele>525.59997558594</ele>
        <time>2021-10-07T08:17:23.000Z</time>
      </trkpt>
      <trkpt lat="43.0789" lon="0.14581">
        <ele>525.59997558594</ele>
        <time>2021-10-07T08:17:25.000Z</time>
      </trkpt>
      <trkpt lat="43.07898" lon="0.14581">
        <ele>525.40002441406</ele>
        <time>2021-10-07T08:17:32.000Z</time>
      </trkpt>
      <trkpt lat="43.07899" lon="0.1458">
        <ele>525.20001220703</ele>
        <time>2021-10-07T08:17:33.000Z</time>
      </trkpt>
      <trkpt lat="43.07904" lon="0.14578">
        <ele>525</ele>
        <time>2021-10-07T08:17:40.000Z</time>
      </trkpt>
      <trkpt lat="43.07903" lon="0.1458">
        <ele>525</ele>
        <time>2021-10-07T08:17:42.000Z</time>
      </trkpt>
      <trkpt lat="43.07898" lon="0.14584">
        <ele>524.79998779297</ele>
        <time>2021-10-07T08:17:45.000Z</time>
      </trkpt>
      <trkpt lat="43.07879" lon="0.14596">
        <ele>524.79998779297</ele>
        <time>2021-10-07T08:17:52.000Z</time>
      </trkpt>
      <trkpt lat="43.07855" lon="0.14614">
        <ele>525.40002441406</ele>
        <time>2021-10-07T08:17:59.000Z</time>
      </trkpt>
      <trkpt lat="43.07821" lon="0.14628">
        <ele>526.20001220703</ele>
        <time>2021-10-07T08:18:07.000Z</time>
      </trkpt>
      <trkpt lat="43.07803" lon="0.14636">
        <ele>526.40002441406</ele>
        <time>2021-10-07T08:18:11.000Z</time>
      </trkpt>
      <trkpt lat="43.07785" lon="0.14643">
        <ele>527</ele>
        <time>2021-10-07T08:18:15.000Z</time>
      </trkpt>
      <trkpt lat="43.0775" lon="0.14658">
        <ele>527.59997558594</ele>
        <time>2021-10-07T08:18:23.000Z</time>
      </trkpt>
      <trkpt lat="43.07745" lon="0.1466">
        <ele>527.79998779297</ele>
        <time>2021-10-07T08:18:24.000Z</time>
      </trkpt>
      <trkpt lat="43.07703" lon="0.14675">
        <ele>528.40002441406</ele>
        <time>2021-10-07T08:18:33.000Z</time>
      </trkpt>
      <trkpt lat="43.07699" lon="0.14677">
        <ele>528.59997558594</ele>
        <time>2021-10-07T08:18:34.000Z</time>
      </trkpt>
      <trkpt lat="43.07655" lon="0.14701">
        <ele>529.59997558594</ele>
        <time>2021-10-07T08:18:44.000Z</time>
      </trkpt>
      <trkpt lat="43.0765" lon="0.14704">
        <ele>529.79998779297</ele>
        <time>2021-10-07T08:18:45.000Z</time>
      </trkpt>
      <trkpt lat="43.07603" lon="0.14733">
        <ele>530.79998779297</ele>
        <time>2021-10-07T08:18:56.000Z</time>
      </trkpt>
      <trkpt lat="43.0757" lon="0.14754">
        <ele>531.59997558594</ele>
        <time>2021-10-07T08:19:04.000Z</time>
      </trkpt>
      <trkpt lat="43.07545" lon="0.14772">
        <ele>532</ele>
        <time>2021-10-07T08:19:10.000Z</time>
      </trkpt>
      <trkpt lat="43.07527" lon="0.14781">
        <ele>532.20001220703</ele>
        <time>2021-10-07T08:19:14.000Z</time>
      </trkpt>
      <trkpt lat="43.07496" lon="0.14788">
        <ele>532.79998779297</ele>
        <time>2021-10-07T08:19:21.000Z</time>
      </trkpt>
      <trkpt lat="43.0749" lon="0.14788">
        <ele>533</ele>
        <time>2021-10-07T08:19:22.000Z</time>
      </trkpt>
      <trkpt lat="43.07447" lon="0.14792">
        <ele>534</ele>
        <time>2021-10-07T08:19:31.000Z</time>
      </trkpt>
      <trkpt lat="43.07441" lon="0.14792">
        <ele>534</ele>
        <time>2021-10-07T08:19:32.000Z</time>
      </trkpt>
      <trkpt lat="43.07431" lon="0.14797">
        <ele>534.20001220703</ele>
        <time>2021-10-07T08:19:35.000Z</time>
      </trkpt>
      <trkpt lat="43.07429" lon="0.14801">
        <ele>534.20001220703</ele>
        <time>2021-10-07T08:19:36.000Z</time>
      </trkpt>
      <trkpt lat="43.07426" lon="0.14813">
        <ele>534.40002441406</ele>
        <time>2021-10-07T08:19:39.000Z</time>
      </trkpt>
      <trkpt lat="43.07425" lon="0.14819">
        <ele>534.40002441406</ele>
        <time>2021-10-07T08:19:40.000Z</time>
      </trkpt>
      <trkpt lat="43.07426" lon="0.14832">
        <ele>534.59997558594</ele>
        <time>2021-10-07T08:19:42.000Z</time>
      </trkpt>
      <trkpt lat="43.07428" lon="0.14838">
        <ele>534.59997558594</ele>
        <time>2021-10-07T08:19:43.000Z</time>
      </trkpt>
      <trkpt lat="43.07444" lon="0.14895">
        <ele>534.79998779297</ele>
        <time>2021-10-07T08:19:51.000Z</time>
      </trkpt>
      <trkpt lat="43.07445" lon="0.14902">
        <ele>535</ele>
        <time>2021-10-07T08:19:52.000Z</time>
      </trkpt>
      <trkpt lat="43.07454" lon="0.14958">
        <ele>535.79998779297</ele>
        <time>2021-10-07T08:19:59.000Z</time>
      </trkpt>
      <trkpt lat="43.07456" lon="0.14977">
        <ele>535.79998779297</ele>
        <time>2021-10-07T08:20:01.000Z</time>
      </trkpt>
      <trkpt lat="43.07462" lon="0.15023">
        <ele>535.40002441406</ele>
        <time>2021-10-07T08:20:06.000Z</time>
      </trkpt>
      <trkpt lat="43.0747" lon="0.15086">
        <ele>534</ele>
        <time>2021-10-07T08:20:12.000Z</time>
      </trkpt>
      <trkpt lat="43.07472" lon="0.15107">
        <ele>533.79998779297</ele>
        <time>2021-10-07T08:20:14.000Z</time>
      </trkpt>
      <trkpt lat="43.07484" lon="0.15153">
        <ele>533.59997558594</ele>
        <time>2021-10-07T08:20:19.000Z</time>
      </trkpt>
      <trkpt lat="43.07502" lon="0.15197">
        <ele>534.20001220703</ele>
        <time>2021-10-07T08:20:25.000Z</time>
      </trkpt>
      <trkpt lat="43.07522" lon="0.15243">
        <ele>535</ele>
        <time>2021-10-07T08:20:32.000Z</time>
      </trkpt>
      <trkpt lat="43.07525" lon="0.1525">
        <ele>535.20001220703</ele>
        <time>2021-10-07T08:20:33.000Z</time>
      </trkpt>
      <trkpt lat="43.07544" lon="0.15296">
        <ele>535.59997558594</ele>
        <time>2021-10-07T08:20:41.000Z</time>
      </trkpt>
      <trkpt lat="43.0756" lon="0.15332">
        <ele>536</ele>
        <time>2021-10-07T08:20:49.000Z</time>
      </trkpt>
      <trkpt lat="43.07562" lon="0.15337">
        <ele>536</ele>
        <time>2021-10-07T08:20:50.000Z</time>
      </trkpt>
      <trkpt lat="43.0757" lon="0.15357">
        <ele>536.59997558594</ele>
        <time>2021-10-07T08:20:55.000Z</time>
      </trkpt>
      <trkpt lat="43.07572" lon="0.15358">
        <ele>536.59997558594</ele>
        <time>2021-10-07T08:20:56.000Z</time>
      </trkpt>
      <trkpt lat="43.07573" lon="0.1536">
        <ele>536.79998779297</ele>
        <time>2021-10-07T08:20:57.000Z</time>
      </trkpt>
      <trkpt lat="43.07573" lon="0.15363">
        <ele>536.79998779297</ele>
        <time>2021-10-07T08:20:59.000Z</time>
      </trkpt>
      <trkpt lat="43.07572" lon="0.15363">
        <ele>537</ele>
        <time>2021-10-07T08:21:00.000Z</time>
      </trkpt>
      <trkpt lat="43.07569" lon="0.15354">
        <ele>537.20001220703</ele>
        <time>2021-10-07T08:21:03.000Z</time>
      </trkpt>
      <trkpt lat="43.07568" lon="0.15349">
        <ele>537.20001220703</ele>
        <time>2021-10-07T08:21:04.000Z</time>
      </trkpt>
      <trkpt lat="43.07562" lon="0.15324">
        <ele>537</ele>
        <time>2021-10-07T08:21:08.000Z</time>
      </trkpt>
      <trkpt lat="43.07556" lon="0.15309">
        <ele>537</ele>
        <time>2021-10-07T08:21:10.000Z</time>
      </trkpt>
      <trkpt lat="43.07532" lon="0.15253">
        <ele>536.20001220703</ele>
        <time>2021-10-07T08:21:18.000Z</time>
      </trkpt>
      <trkpt lat="43.07527" lon="0.15239">
        <ele>536.20001220703</ele>
        <time>2021-10-07T08:21:20.000Z</time>
      </trkpt>
      <trkpt lat="43.07526" lon="0.15233">
        <ele>536.20001220703</ele>
        <time>2021-10-07T08:21:21.000Z</time>
      </trkpt>
      <trkpt lat="43.07527" lon="0.15228">
        <ele>536</ele>
        <time>2021-10-07T08:21:22.000Z</time>
      </trkpt>
      <trkpt lat="43.07533" lon="0.15217">
        <ele>535.79998779297</ele>
        <time>2021-10-07T08:21:24.000Z</time>
      </trkpt>
      <trkpt lat="43.07568" lon="0.15181">
        <ele>535.20001220703</ele>
        <time>2021-10-07T08:21:31.000Z</time>
      </trkpt>
      <trkpt lat="43.07573" lon="0.15176">
        <ele>535</ele>
        <time>2021-10-07T08:21:32.000Z</time>
      </trkpt>
      <trkpt lat="43.07601" lon="0.15148">
        <ele>533.79998779297</ele>
        <time>2021-10-07T08:21:37.000Z</time>
      </trkpt>
      <trkpt lat="43.07607" lon="0.15142">
        <ele>533.59997558594</ele>
        <time>2021-10-07T08:21:38.000Z</time>
      </trkpt>
      <trkpt lat="43.07623" lon="0.15125">
        <ele>533.20001220703</ele>
        <time>2021-10-07T08:21:41.000Z</time>
      </trkpt>
      <trkpt lat="43.07654" lon="0.15094">
        <ele>532.40002441406</ele>
        <time>2021-10-07T08:21:46.000Z</time>
      </trkpt>
      <trkpt lat="43.07666" lon="0.15082">
        <ele>532.20001220703</ele>
        <time>2021-10-07T08:21:48.000Z</time>
      </trkpt>
      <trkpt lat="43.0768" lon="0.15078">
        <ele>531.79998779297</ele>
        <time>2021-10-07T08:21:50.000Z</time>
      </trkpt>
      <trkpt lat="43.07687" lon="0.15081">
        <ele>531.40002441406</ele>
        <time>2021-10-07T08:21:51.000Z</time>
      </trkpt>
      <trkpt lat="43.07692" lon="0.15086">
        <ele>531.40002441406</ele>
        <time>2021-10-07T08:21:52.000Z</time>
      </trkpt>
      <trkpt lat="43.077" lon="0.15099">
        <ele>531.20001220703</ele>
        <time>2021-10-07T08:21:54.000Z</time>
      </trkpt>
      <trkpt lat="43.07727" lon="0.15152">
        <ele>531.59997558594</ele>
        <time>2021-10-07T08:22:02.000Z</time>
      </trkpt>
      <trkpt lat="43.07736" lon="0.15157">
        <ele>532</ele>
        <time>2021-10-07T08:22:04.000Z</time>
      </trkpt>
      <trkpt lat="43.07741" lon="0.15155">
        <ele>532.20001220703</ele>
        <time>2021-10-07T08:22:05.000Z</time>
      </trkpt>
      <trkpt lat="43.07746" lon="0.15151">
        <ele>532.20001220703</ele>
        <time>2021-10-07T08:22:06.000Z</time>
      </trkpt>
      <trkpt lat="43.07759" lon="0.15134">
        <ele>532.59997558594</ele>
        <time>2021-10-07T08:22:09.000Z</time>
      </trkpt>
      <trkpt lat="43.07788" lon="0.15082">
        <ele>532.59997558594</ele>
        <time>2021-10-07T08:22:16.000Z</time>
      </trkpt>
      <trkpt lat="43.07821" lon="0.15026">
        <ele>531.40002441406</ele>
        <time>2021-10-07T08:22:23.000Z</time>
      </trkpt>
      <trkpt lat="43.07851" lon="0.14988">
        <ele>530.20001220703</ele>
        <time>2021-10-07T08:22:28.000Z</time>
      </trkpt>
      <trkpt lat="43.07888" lon="0.14945">
        <ele>529.20001220703</ele>
        <time>2021-10-07T08:22:34.000Z</time>
      </trkpt>
      <trkpt lat="43.07894" lon="0.14938">
        <ele>528.79998779297</ele>
        <time>2021-10-07T08:22:35.000Z</time>
      </trkpt>
      <trkpt lat="43.07939" lon="0.14887">
        <ele>527.40002441406</ele>
        <time>2021-10-07T08:22:42.000Z</time>
      </trkpt>
      <trkpt lat="43.07945" lon="0.14881">
        <ele>527.20001220703</ele>
        <time>2021-10-07T08:22:43.000Z</time>
      </trkpt>
      <trkpt lat="43.07985" lon="0.14838">
        <ele>526.20001220703</ele>
        <time>2021-10-07T08:22:49.000Z</time>
      </trkpt>
      <trkpt lat="43.0801" lon="0.1481">
        <ele>525.20001220703</ele>
        <time>2021-10-07T08:22:53.000Z</time>
      </trkpt>
      <trkpt lat="43.08016" lon="0.14804">
        <ele>525.20001220703</ele>
        <time>2021-10-07T08:22:54.000Z</time>
      </trkpt>
      <trkpt lat="43.08063" lon="0.14753">
        <ele>524.59997558594</ele>
        <time>2021-10-07T08:23:02.000Z</time>
      </trkpt>
      <trkpt lat="43.08087" lon="0.1473">
        <ele>524.20001220703</ele>
        <time>2021-10-07T08:23:07.000Z</time>
      </trkpt>
      <trkpt lat="43.08096" lon="0.1472">
        <ele>524</ele>
        <time>2021-10-07T08:23:09.000Z</time>
      </trkpt>
      <trkpt lat="43.08118" lon="0.14694">
        <ele>523.59997558594</ele>
        <time>2021-10-07T08:23:15.000Z</time>
      </trkpt>
      <trkpt lat="43.08124" lon="0.14687">
        <ele>523.40002441406</ele>
        <time>2021-10-07T08:23:19.000Z</time>
      </trkpt>
      <trkpt lat="43.08125" lon="0.14685">
        <ele>523.20001220703</ele>
        <time>2021-10-07T08:23:23.000Z</time>
      </trkpt>
      <trkpt lat="43.08125" lon="0.14685">
        <ele>523</ele>
        <time>2021-10-07T08:23:28.000Z</time>
      </trkpt>
      <trkpt lat="43.08125" lon="0.14685">
        <ele>523</ele>
        <time>2021-10-07T08:23:39.000Z</time>
      </trkpt>
      <trkpt lat="43.08126" lon="0.14684">
        <ele>523</ele>
        <time>2021-10-07T08:23:44.000Z</time>
      </trkpt>
      <trkpt lat="43.08127" lon="0.14682">
        <ele>523</ele>
        <time>2021-10-07T08:24:07.000Z</time>
      </trkpt>
      <trkpt lat="43.08128" lon="0.1468">
        <ele>523.40002441406</ele>
        <time>2021-10-07T08:24:22.000Z</time>
      </trkpt>
      <trkpt lat="43.08128" lon="0.1468">
        <ele>523.40002441406</ele>
        <time>2021-10-07T08:24:25.000Z</time>
      </trkpt>
      <trkpt lat="43.08129" lon="0.14679">
        <ele>523.40002441406</ele>
        <time>2021-10-07T08:24:28.000Z</time>
      </trkpt>
      <trkpt lat="43.0813" lon="0.14677">
        <ele>523</ele>
        <time>2021-10-07T08:24:42.000Z</time>
      </trkpt>
      <trkpt lat="43.08132" lon="0.14676">
        <ele>523</ele>
        <time>2021-10-07T08:24:44.000Z</time>
      </trkpt>
      <trkpt lat="43.08133" lon="0.14675">
        <ele>523</ele>
        <time>2021-10-07T08:24:45.000Z</time>
      </trkpt>
      <trkpt lat="43.08146" lon="0.14669">
        <ele>522.79998779297</ele>
        <time>2021-10-07T08:24:51.000Z</time>
      </trkpt>
      <trkpt lat="43.08162" lon="0.14663">
        <ele>522.59997558594</ele>
        <time>2021-10-07T08:24:56.000Z</time>
      </trkpt>
      <trkpt lat="43.08182" lon="0.14653">
        <ele>522.20001220703</ele>
        <time>2021-10-07T08:25:02.000Z</time>
      </trkpt>
      <trkpt lat="43.08186" lon="0.14651">
        <ele>522</ele>
        <time>2021-10-07T08:25:03.000Z</time>
      </trkpt>
      <trkpt lat="43.08211" lon="0.14638">
        <ele>521.79998779297</ele>
        <time>2021-10-07T08:25:10.000Z</time>
      </trkpt>
      <trkpt lat="43.0823" lon="0.14625">
        <ele>522</ele>
        <time>2021-10-07T08:25:16.000Z</time>
      </trkpt>
      <trkpt lat="43.08237" lon="0.1462">
        <ele>521.79998779297</ele>
        <time>2021-10-07T08:25:21.000Z</time>
      </trkpt>
      <trkpt lat="43.08242" lon="0.14618">
        <ele>521.59997558594</ele>
        <time>2021-10-07T08:25:28.000Z</time>
      </trkpt>
      <trkpt lat="43.08244" lon="0.14618">
        <ele>521.59997558594</ele>
        <time>2021-10-07T08:25:29.000Z</time>
      </trkpt>
      <trkpt lat="43.08257" lon="0.14612">
        <ele>521.20001220703</ele>
        <time>2021-10-07T08:25:34.000Z</time>
      </trkpt>
      <trkpt lat="43.08264" lon="0.14609">
        <ele>521.20001220703</ele>
        <time>2021-10-07T08:25:36.000Z</time>
      </trkpt>
      <trkpt lat="43.08283" lon="0.14604">
        <ele>521</ele>
        <time>2021-10-07T08:25:41.000Z</time>
      </trkpt>
      <trkpt lat="43.08289" lon="0.14603">
        <ele>521</ele>
        <time>2021-10-07T08:25:43.000Z</time>
      </trkpt>
      <trkpt lat="43.08294" lon="0.14605">
        <ele>521</ele>
        <time>2021-10-07T08:25:45.000Z</time>
      </trkpt>
      <trkpt lat="43.08297" lon="0.14607">
        <ele>520.79998779297</ele>
        <time>2021-10-07T08:25:49.000Z</time>
      </trkpt>
      <trkpt lat="43.08298" lon="0.14607">
        <ele>520.79998779297</ele>
        <time>2021-10-07T08:25:55.000Z</time>
      </trkpt>
      <trkpt lat="43.08298" lon="0.14609">
        <ele>520.79998779297</ele>
        <time>2021-10-07T08:25:57.000Z</time>
      </trkpt>
      <trkpt lat="43.08298" lon="0.1461">
        <ele>520.79998779297</ele>
        <time>2021-10-07T08:25:59.000Z</time>
      </trkpt>
      <trkpt lat="43.08299" lon="0.14609">
        <ele>520.79998779297</ele>
        <time>2021-10-07T08:26:07.000Z</time>
      </trkpt>
      <trkpt lat="43.083" lon="0.14609">
        <ele>520.59997558594</ele>
        <time>2021-10-07T08:26:08.000Z</time>
      </trkpt>
      <trkpt lat="43.08301" lon="0.14608">
        <ele>520.59997558594</ele>
        <time>2021-10-07T08:26:14.000Z</time>
      </trkpt>
      <trkpt lat="43.08314" lon="0.14597">
        <ele>520.59997558594</ele>
        <time>2021-10-07T08:26:18.000Z</time>
      </trkpt>
      <trkpt lat="43.08336" lon="0.14586">
        <ele>520.20001220703</ele>
        <time>2021-10-07T08:26:23.000Z</time>
      </trkpt>
      <trkpt lat="43.08339" lon="0.14584">
        <ele>520.20001220703</ele>
        <time>2021-10-07T08:26:24.000Z</time>
      </trkpt>
      <trkpt lat="43.08349" lon="0.14579">
        <ele>520</ele>
        <time>2021-10-07T08:26:26.000Z</time>
      </trkpt>
      <trkpt lat="43.08358" lon="0.14572">
        <ele>519.79998779297</ele>
        <time>2021-10-07T08:26:28.000Z</time>
      </trkpt>
      <trkpt lat="43.08361" lon="0.14568">
        <ele>519.59997558594</ele>
        <time>2021-10-07T08:26:29.000Z</time>
      </trkpt>
      <trkpt lat="43.08384" lon="0.14542">
        <ele>519</ele>
        <time>2021-10-07T08:26:34.000Z</time>
      </trkpt>
      <trkpt lat="43.08389" lon="0.14537">
        <ele>519</ele>
        <time>2021-10-07T08:26:35.000Z</time>
      </trkpt>
      <trkpt lat="43.0841" lon="0.14514">
        <ele>518.59997558594</ele>
        <time>2021-10-07T08:26:39.000Z</time>
      </trkpt>
      <trkpt lat="43.08419" lon="0.14502">
        <ele>518.40002441406</ele>
        <time>2021-10-07T08:26:41.000Z</time>
      </trkpt>
      <trkpt lat="43.08434" lon="0.14485">
        <ele>518</ele>
        <time>2021-10-07T08:26:44.000Z</time>
      </trkpt>
      <trkpt lat="43.0846" lon="0.14456">
        <ele>517.40002441406</ele>
        <time>2021-10-07T08:26:49.000Z</time>
      </trkpt>
      <trkpt lat="43.08488" lon="0.14425">
        <ele>517</ele>
        <time>2021-10-07T08:26:54.000Z</time>
      </trkpt>
      <trkpt lat="43.08511" lon="0.144">
        <ele>516.40002441406</ele>
        <time>2021-10-07T08:26:58.000Z</time>
      </trkpt>
      <trkpt lat="43.08537" lon="0.14371">
        <ele>515.79998779297</ele>
        <time>2021-10-07T08:27:02.000Z</time>
      </trkpt>
      <trkpt lat="43.08569" lon="0.14335">
        <ele>514.79998779297</ele>
        <time>2021-10-07T08:27:07.000Z</time>
      </trkpt>
      <trkpt lat="43.08601" lon="0.14299">
        <ele>513.59997558594</ele>
        <time>2021-10-07T08:27:12.000Z</time>
      </trkpt>
      <trkpt lat="43.08633" lon="0.14264">
        <ele>513.20001220703</ele>
        <time>2021-10-07T08:27:17.000Z</time>
      </trkpt>
      <trkpt lat="43.08658" lon="0.14236">
        <ele>512.59997558594</ele>
        <time>2021-10-07T08:27:21.000Z</time>
      </trkpt>
      <trkpt lat="43.087" lon="0.14188">
        <ele>512.20001220703</ele>
        <time>2021-10-07T08:27:28.000Z</time>
      </trkpt>
      <trkpt lat="43.08735" lon="0.14146">
        <ele>511.60000610352</ele>
        <time>2021-10-07T08:27:34.000Z</time>
      </trkpt>
      <trkpt lat="43.08746" lon="0.14132">
        <ele>511.39999389648</ele>
        <time>2021-10-07T08:27:36.000Z</time>
      </trkpt>
      <trkpt lat="43.0875" lon="0.14124">
        <ele>511.39999389648</ele>
        <time>2021-10-07T08:27:37.000Z</time>
      </trkpt>
      <trkpt lat="43.08758" lon="0.14107">
        <ele>511.20001220703</ele>
        <time>2021-10-07T08:27:39.000Z</time>
      </trkpt>
      <trkpt lat="43.08761" lon="0.14098">
        <ele>511.20001220703</ele>
        <time>2021-10-07T08:27:40.000Z</time>
      </trkpt>
      <trkpt lat="43.08769" lon="0.14067">
        <ele>511.20001220703</ele>
        <time>2021-10-07T08:27:44.000Z</time>
      </trkpt>
      <trkpt lat="43.0877" lon="0.14061">
        <ele>511</ele>
        <time>2021-10-07T08:27:45.000Z</time>
      </trkpt>
      <trkpt lat="43.08769" lon="0.14048">
        <ele>511</ele>
        <time>2021-10-07T08:27:47.000Z</time>
      </trkpt>
      <trkpt lat="43.08767" lon="0.1404">
        <ele>511</ele>
        <time>2021-10-07T08:27:48.000Z</time>
      </trkpt>
      <trkpt lat="43.08757" lon="0.14009">
        <ele>510.39999389648</ele>
        <time>2021-10-07T08:27:52.000Z</time>
      </trkpt>
      <trkpt lat="43.08751" lon="0.13992">
        <ele>510.20001220703</ele>
        <time>2021-10-07T08:27:54.000Z</time>
      </trkpt>
      <trkpt lat="43.08732" lon="0.13933">
        <ele>510</ele>
        <time>2021-10-07T08:28:01.000Z</time>
      </trkpt>
      <trkpt lat="43.08706" lon="0.13863">
        <ele>511.39999389648</ele>
        <time>2021-10-07T08:28:10.000Z</time>
      </trkpt>
      <trkpt lat="43.08679" lon="0.13791">
        <ele>510.79998779297</ele>
        <time>2021-10-07T08:28:19.000Z</time>
      </trkpt>
      <trkpt lat="43.08673" lon="0.13775">
        <ele>510.79998779297</ele>
        <time>2021-10-07T08:28:21.000Z</time>
      </trkpt>
      <trkpt lat="43.08651" lon="0.13707">
        <ele>510.79998779297</ele>
        <time>2021-10-07T08:28:30.000Z</time>
      </trkpt>
      <trkpt lat="43.08649" lon="0.137">
        <ele>510.79998779297</ele>
        <time>2021-10-07T08:28:31.000Z</time>
      </trkpt>
      <trkpt lat="43.08632" lon="0.13649">
        <ele>511</ele>
        <time>2021-10-07T08:28:39.000Z</time>
      </trkpt>
      <trkpt lat="43.0863" lon="0.13643">
        <ele>511</ele>
        <time>2021-10-07T08:28:40.000Z</time>
      </trkpt>
      <trkpt lat="43.08629" lon="0.13638">
        <ele>511</ele>
        <time>2021-10-07T08:28:41.000Z</time>
      </trkpt>
      <trkpt lat="43.08624" lon="0.13628">
        <ele>511</ele>
        <time>2021-10-07T08:28:43.000Z</time>
      </trkpt>
      <trkpt lat="43.08622" lon="0.13623">
        <ele>511</ele>
        <time>2021-10-07T08:28:44.000Z</time>
      </trkpt>
      <trkpt lat="43.08618" lon="0.13613">
        <ele>511</ele>
        <time>2021-10-07T08:28:47.000Z</time>
      </trkpt>
      <trkpt lat="43.08627" lon="0.13609">
        <ele>510.79998779297</ele>
        <time>2021-10-07T08:28:50.000Z</time>
      </trkpt>
      <trkpt lat="43.08647" lon="0.13599">
        <ele>510.39999389648</ele>
        <time>2021-10-07T08:28:54.000Z</time>
      </trkpt>
      <trkpt lat="43.08685" lon="0.13574">
        <ele>509.60000610352</ele>
        <time>2021-10-07T08:29:00.000Z</time>
      </trkpt>
      <trkpt lat="43.08699" lon="0.13565">
        <ele>509.39999389648</ele>
        <time>2021-10-07T08:29:02.000Z</time>
      </trkpt>
      <trkpt lat="43.08734" lon="0.13544">
        <ele>509</ele>
        <time>2021-10-07T08:29:07.000Z</time>
      </trkpt>
      <trkpt lat="43.08783" lon="0.13511">
        <ele>508.20001220703</ele>
        <time>2021-10-07T08:29:14.000Z</time>
      </trkpt>
      <trkpt lat="43.08797" lon="0.13501">
        <ele>508</ele>
        <time>2021-10-07T08:29:16.000Z</time>
      </trkpt>
      <trkpt lat="43.08847" lon="0.13469">
        <ele>507.39999389648</ele>
        <time>2021-10-07T08:29:23.000Z</time>
      </trkpt>
      <trkpt lat="43.08862" lon="0.1346">
        <ele>507.20001220703</ele>
        <time>2021-10-07T08:29:25.000Z</time>
      </trkpt>
      <trkpt lat="43.08876" lon="0.13451">
        <ele>507</ele>
        <time>2021-10-07T08:29:27.000Z</time>
      </trkpt>
      <trkpt lat="43.08927" lon="0.13418">
        <ele>506.39999389648</ele>
        <time>2021-10-07T08:29:34.000Z</time>
      </trkpt>
      <trkpt lat="43.08934" lon="0.13413">
        <ele>506.20001220703</ele>
        <time>2021-10-07T08:29:35.000Z</time>
      </trkpt>
      <trkpt lat="43.08957" lon="0.13399">
        <ele>505.79998779297</ele>
        <time>2021-10-07T08:29:38.000Z</time>
      </trkpt>
      <trkpt lat="43.08979" lon="0.13384">
        <ele>505.60000610352</ele>
        <time>2021-10-07T08:29:41.000Z</time>
      </trkpt>
      <trkpt lat="43.09026" lon="0.13353">
        <ele>505.20001220703</ele>
        <time>2021-10-07T08:29:47.000Z</time>
      </trkpt>
      <trkpt lat="43.09042" lon="0.13343">
        <ele>504.79998779297</ele>
        <time>2021-10-07T08:29:49.000Z</time>
      </trkpt>
      <trkpt lat="43.09083" lon="0.13317">
        <ele>504</ele>
        <time>2021-10-07T08:29:54.000Z</time>
      </trkpt>
      <trkpt lat="43.09115" lon="0.13296">
        <ele>503.60000610352</ele>
        <time>2021-10-07T08:29:58.000Z</time>
      </trkpt>
      <trkpt lat="43.09157" lon="0.13269">
        <ele>502.79998779297</ele>
        <time>2021-10-07T08:30:03.000Z</time>
      </trkpt>
      <trkpt lat="43.09195" lon="0.13239">
        <ele>502</ele>
        <time>2021-10-07T08:30:08.000Z</time>
      </trkpt>
      <trkpt lat="43.09223" lon="0.13213">
        <ele>501.60000610352</ele>
        <time>2021-10-07T08:30:12.000Z</time>
      </trkpt>
      <trkpt lat="43.0923" lon="0.13208">
        <ele>501.60000610352</ele>
        <time>2021-10-07T08:30:13.000Z</time>
      </trkpt>
      <trkpt lat="43.09237" lon="0.13206">
        <ele>501.39999389648</ele>
        <time>2021-10-07T08:30:14.000Z</time>
      </trkpt>
      <trkpt lat="43.09252" lon="0.13202">
        <ele>501</ele>
        <time>2021-10-07T08:30:16.000Z</time>
      </trkpt>
      <trkpt lat="43.0926" lon="0.132">
        <ele>501</ele>
        <time>2021-10-07T08:30:17.000Z</time>
      </trkpt>
      <trkpt lat="43.09282" lon="0.13187">
        <ele>501</ele>
        <time>2021-10-07T08:30:20.000Z</time>
      </trkpt>
      <trkpt lat="43.09294" lon="0.13177">
        <ele>500.79998779297</ele>
        <time>2021-10-07T08:30:22.000Z</time>
      </trkpt>
      <trkpt lat="43.0932" lon="0.13159">
        <ele>500.39999389648</ele>
        <time>2021-10-07T08:30:26.000Z</time>
      </trkpt>
      <trkpt lat="43.09326" lon="0.13155">
        <ele>500.39999389648</ele>
        <time>2021-10-07T08:30:27.000Z</time>
      </trkpt>
      <trkpt lat="43.09361" lon="0.13134">
        <ele>499.79998779297</ele>
        <time>2021-10-07T08:30:33.000Z</time>
      </trkpt>
      <trkpt lat="43.09371" lon="0.13128">
        <ele>499.60000610352</ele>
        <time>2021-10-07T08:30:35.000Z</time>
      </trkpt>
      <trkpt lat="43.09386" lon="0.13119">
        <ele>499.39999389648</ele>
        <time>2021-10-07T08:30:38.000Z</time>
      </trkpt>
      <trkpt lat="43.09422" lon="0.13095">
        <ele>498.79998779297</ele>
        <time>2021-10-07T08:30:45.000Z</time>
      </trkpt>
      <trkpt lat="43.09428" lon="0.13091">
        <ele>498.60000610352</ele>
        <time>2021-10-07T08:30:46.000Z</time>
      </trkpt>
      <trkpt lat="43.09457" lon="0.1307">
        <ele>497.39999389648</ele>
        <time>2021-10-07T08:30:52.000Z</time>
      </trkpt>
      <trkpt lat="43.09462" lon="0.13067">
        <ele>497.39999389648</ele>
        <time>2021-10-07T08:30:53.000Z</time>
      </trkpt>
      <trkpt lat="43.09505" lon="0.1304">
        <ele>496.60000610352</ele>
        <time>2021-10-07T08:31:01.000Z</time>
      </trkpt>
      <trkpt lat="43.09522" lon="0.13029">
        <ele>496.39999389648</ele>
        <time>2021-10-07T08:31:04.000Z</time>
      </trkpt>
      <trkpt lat="43.09551" lon="0.13011">
        <ele>495.79998779297</ele>
        <time>2021-10-07T08:31:09.000Z</time>
      </trkpt>
      <trkpt lat="43.09567" lon="0.12999">
        <ele>495.39999389648</ele>
        <time>2021-10-07T08:31:12.000Z</time>
      </trkpt>
      <trkpt lat="43.09591" lon="0.12985">
        <ele>495.20001220703</ele>
        <time>2021-10-07T08:31:16.000Z</time>
      </trkpt>
      <trkpt lat="43.0964" lon="0.12956">
        <ele>494.20001220703</ele>
        <time>2021-10-07T08:31:24.000Z</time>
      </trkpt>
      <trkpt lat="43.09647" lon="0.12952">
        <ele>494.20001220703</ele>
        <time>2021-10-07T08:31:25.000Z</time>
      </trkpt>
      <trkpt lat="43.09676" lon="0.12936">
        <ele>493.20001220703</ele>
        <time>2021-10-07T08:31:30.000Z</time>
      </trkpt>
      <trkpt lat="43.09682" lon="0.12933">
        <ele>493</ele>
        <time>2021-10-07T08:31:31.000Z</time>
      </trkpt>
      <trkpt lat="43.09727" lon="0.129">
        <ele>492.39999389648</ele>
        <time>2021-10-07T08:31:39.000Z</time>
      </trkpt>
      <trkpt lat="43.09736" lon="0.12893">
        <ele>492.20001220703</ele>
        <time>2021-10-07T08:31:41.000Z</time>
      </trkpt>
      <trkpt lat="43.09747" lon="0.12886">
        <ele>492.20001220703</ele>
        <time>2021-10-07T08:31:43.000Z</time>
      </trkpt>
      <trkpt lat="43.09753" lon="0.12882">
        <ele>492.20001220703</ele>
        <time>2021-10-07T08:31:44.000Z</time>
      </trkpt>
      <trkpt lat="43.09788" lon="0.12861">
        <ele>491</ele>
        <time>2021-10-07T08:31:50.000Z</time>
      </trkpt>
      <trkpt lat="43.09803" lon="0.1285">
        <ele>490.39999389648</ele>
        <time>2021-10-07T08:31:53.000Z</time>
      </trkpt>
      <trkpt lat="43.09813" lon="0.12842">
        <ele>490</ele>
        <time>2021-10-07T08:31:55.000Z</time>
      </trkpt>
      <trkpt lat="43.09848" lon="0.12818">
        <ele>489.60000610352</ele>
        <time>2021-10-07T08:32:02.000Z</time>
      </trkpt>
      <trkpt lat="43.09888" lon="0.12792">
        <ele>489</ele>
        <time>2021-10-07T08:32:09.000Z</time>
      </trkpt>
      <trkpt lat="43.09905" lon="0.12781">
        <ele>488.79998779297</ele>
        <time>2021-10-07T08:32:12.000Z</time>
      </trkpt>
      <trkpt lat="43.09943" lon="0.12757">
        <ele>488</ele>
        <time>2021-10-07T08:32:19.000Z</time>
      </trkpt>
      <trkpt lat="43.09948" lon="0.12753">
        <ele>487.79998779297</ele>
        <time>2021-10-07T08:32:20.000Z</time>
      </trkpt>
      <trkpt lat="43.09976" lon="0.12728">
        <ele>487.39999389648</ele>
        <time>2021-10-07T08:32:26.000Z</time>
      </trkpt>
      <trkpt lat="43.09985" lon="0.1272">
        <ele>487.20001220703</ele>
        <time>2021-10-07T08:32:28.000Z</time>
      </trkpt>
      <trkpt lat="43.1" lon="0.12711">
        <ele>486.79998779297</ele>
        <time>2021-10-07T08:32:31.000Z</time>
      </trkpt>
      <trkpt lat="43.10011" lon="0.12705">
        <ele>486.79998779297</ele>
        <time>2021-10-07T08:32:33.000Z</time>
      </trkpt>
      <trkpt lat="43.10048" lon="0.12686">
        <ele>486.39999389648</ele>
        <time>2021-10-07T08:32:40.000Z</time>
      </trkpt>
      <trkpt lat="43.10081" lon="0.12667">
        <ele>486</ele>
        <time>2021-10-07T08:32:46.000Z</time>
      </trkpt>
      <trkpt lat="43.10086" lon="0.12665">
        <ele>485.79998779297</ele>
        <time>2021-10-07T08:32:47.000Z</time>
      </trkpt>
      <trkpt lat="43.10129" lon="0.12643">
        <ele>485.39999389648</ele>
        <time>2021-10-07T08:32:54.000Z</time>
      </trkpt>
      <trkpt lat="43.10158" lon="0.12629">
        <ele>485</ele>
        <time>2021-10-07T08:32:59.000Z</time>
      </trkpt>
      <trkpt lat="43.10163" lon="0.12624">
        <ele>485</ele>
        <time>2021-10-07T08:33:00.000Z</time>
      </trkpt>
      <trkpt lat="43.10167" lon="0.1262">
        <ele>484.79998779297</ele>
        <time>2021-10-07T08:33:01.000Z</time>
      </trkpt>
      <trkpt lat="43.10173" lon="0.12616">
        <ele>484.60000610352</ele>
        <time>2021-10-07T08:33:02.000Z</time>
      </trkpt>
      <trkpt lat="43.10183" lon="0.1261">
        <ele>484.60000610352</ele>
        <time>2021-10-07T08:33:04.000Z</time>
      </trkpt>
      <trkpt lat="43.10189" lon="0.12607">
        <ele>484.39999389648</ele>
        <time>2021-10-07T08:33:05.000Z</time>
      </trkpt>
      <trkpt lat="43.102" lon="0.12603">
        <ele>484.39999389648</ele>
        <time>2021-10-07T08:33:07.000Z</time>
      </trkpt>
      <trkpt lat="43.10211" lon="0.12602">
        <ele>483.79998779297</ele>
        <time>2021-10-07T08:33:09.000Z</time>
      </trkpt>
      <trkpt lat="43.10217" lon="0.12602">
        <ele>483.60000610352</ele>
        <time>2021-10-07T08:33:10.000Z</time>
      </trkpt>
      <trkpt lat="43.10229" lon="0.12606">
        <ele>483.20001220703</ele>
        <time>2021-10-07T08:33:12.000Z</time>
      </trkpt>
      <trkpt lat="43.1024" lon="0.12611">
        <ele>482.60000610352</ele>
        <time>2021-10-07T08:33:14.000Z</time>
      </trkpt>
      <trkpt lat="43.10252" lon="0.12615">
        <ele>482.20001220703</ele>
        <time>2021-10-07T08:33:16.000Z</time>
      </trkpt>
      <trkpt lat="43.10264" lon="0.12613">
        <ele>481.79998779297</ele>
        <time>2021-10-07T08:33:18.000Z</time>
      </trkpt>
      <trkpt lat="43.10275" lon="0.12608">
        <ele>481.60000610352</ele>
        <time>2021-10-07T08:33:20.000Z</time>
      </trkpt>
      <trkpt lat="43.10281" lon="0.12605">
        <ele>481.60000610352</ele>
        <time>2021-10-07T08:33:21.000Z</time>
      </trkpt>
      <trkpt lat="43.10297" lon="0.12595">
        <ele>480.79998779297</ele>
        <time>2021-10-07T08:33:24.000Z</time>
      </trkpt>
      <trkpt lat="43.10307" lon="0.12588">
        <ele>480.60000610352</ele>
        <time>2021-10-07T08:33:27.000Z</time>
      </trkpt>
      <trkpt lat="43.1031" lon="0.12588">
        <ele>480.20001220703</ele>
        <time>2021-10-07T08:33:28.000Z</time>
      </trkpt>
      <trkpt lat="43.10315" lon="0.1259">
        <ele>479.79998779297</ele>
        <time>2021-10-07T08:33:30.000Z</time>
      </trkpt>
      <trkpt lat="43.10317" lon="0.12594">
        <ele>479.60000610352</ele>
        <time>2021-10-07T08:33:31.000Z</time>
      </trkpt>
      <trkpt lat="43.1032" lon="0.12611">
        <ele>479.20001220703</ele>
        <time>2021-10-07T08:33:34.000Z</time>
      </trkpt>
      <trkpt lat="43.10322" lon="0.12618">
        <ele>478.79998779297</ele>
        <time>2021-10-07T08:33:35.000Z</time>
      </trkpt>
      <trkpt lat="43.10328" lon="0.1263">
        <ele>478.39999389648</ele>
        <time>2021-10-07T08:33:37.000Z</time>
      </trkpt>
      <trkpt lat="43.10337" lon="0.12641">
        <ele>478</ele>
        <time>2021-10-07T08:33:39.000Z</time>
      </trkpt>
      <trkpt lat="43.10366" lon="0.12674">
        <ele>477.20001220703</ele>
        <time>2021-10-07T08:33:45.000Z</time>
      </trkpt>
      <trkpt lat="43.10371" lon="0.12681">
        <ele>477</ele>
        <time>2021-10-07T08:33:46.000Z</time>
      </trkpt>
      <trkpt lat="43.10389" lon="0.1272">
        <ele>476.79998779297</ele>
        <time>2021-10-07T08:33:51.000Z</time>
      </trkpt>
      <trkpt lat="43.10417" lon="0.1278">
        <ele>476.60000610352</ele>
        <time>2021-10-07T08:33:59.000Z</time>
      </trkpt>
      <trkpt lat="43.10427" lon="0.12806">
        <ele>476.79998779297</ele>
        <time>2021-10-07T08:34:03.000Z</time>
      </trkpt>
      <trkpt lat="43.10441" lon="0.12856">
        <ele>478</ele>
        <time>2021-10-07T08:34:10.000Z</time>
      </trkpt>
      <trkpt lat="43.10445" lon="0.12873">
        <ele>478</ele>
        <time>2021-10-07T08:34:12.000Z</time>
      </trkpt>
      <trkpt lat="43.1046" lon="0.12922">
        <ele>477.79998779297</ele>
        <time>2021-10-07T08:34:18.000Z</time>
      </trkpt>
      <trkpt lat="43.10465" lon="0.12937">
        <ele>477.60000610352</ele>
        <time>2021-10-07T08:34:20.000Z</time>
      </trkpt>
      <trkpt lat="43.10473" lon="0.12947">
        <ele>477</ele>
        <time>2021-10-07T08:34:22.000Z</time>
      </trkpt>
      <trkpt lat="43.10478" lon="0.12949">
        <ele>477</ele>
        <time>2021-10-07T08:34:23.000Z</time>
      </trkpt>
      <trkpt lat="43.10484" lon="0.12948">
        <ele>476.79998779297</ele>
        <time>2021-10-07T08:34:24.000Z</time>
      </trkpt>
      <trkpt lat="43.10489" lon="0.12945">
        <ele>476.79998779297</ele>
        <time>2021-10-07T08:34:25.000Z</time>
      </trkpt>
      <trkpt lat="43.10539" lon="0.1291">
        <ele>476.79998779297</ele>
        <time>2021-10-07T08:34:34.000Z</time>
      </trkpt>
      <trkpt lat="43.10544" lon="0.12906">
        <ele>476.79998779297</ele>
        <time>2021-10-07T08:34:35.000Z</time>
      </trkpt>
      <trkpt lat="43.1055" lon="0.12903">
        <ele>476.60000610352</ele>
        <time>2021-10-07T08:34:36.000Z</time>
      </trkpt>
      <trkpt lat="43.10561" lon="0.129">
        <ele>476.60000610352</ele>
        <time>2021-10-07T08:34:38.000Z</time>
      </trkpt>
      <trkpt lat="43.10568" lon="0.12899">
        <ele>476.60000610352</ele>
        <time>2021-10-07T08:34:39.000Z</time>
      </trkpt>
      <trkpt lat="43.10591" lon="0.12901">
        <ele>476.39999389648</ele>
        <time>2021-10-07T08:34:43.000Z</time>
      </trkpt>
      <trkpt lat="43.10603" lon="0.12899">
        <ele>476.39999389648</ele>
        <time>2021-10-07T08:34:45.000Z</time>
      </trkpt>
      <trkpt lat="43.1063" lon="0.12891">
        <ele>476.60000610352</ele>
        <time>2021-10-07T08:34:50.000Z</time>
      </trkpt>
      <trkpt lat="43.10636" lon="0.12888">
        <ele>476.60000610352</ele>
        <time>2021-10-07T08:34:51.000Z</time>
      </trkpt>
      <trkpt lat="43.10666" lon="0.12856">
        <ele>476.60000610352</ele>
        <time>2021-10-07T08:34:57.000Z</time>
      </trkpt>
      <trkpt lat="43.10709" lon="0.12808">
        <ele>476.39999389648</ele>
        <time>2021-10-07T08:35:05.000Z</time>
      </trkpt>
      <trkpt lat="43.10719" lon="0.12796">
        <ele>476.20001220703</ele>
        <time>2021-10-07T08:35:07.000Z</time>
      </trkpt>
      <trkpt lat="43.10729" lon="0.12785">
        <ele>475.79998779297</ele>
        <time>2021-10-07T08:35:09.000Z</time>
      </trkpt>
      <trkpt lat="43.10769" lon="0.1274">
        <ele>475.20001220703</ele>
        <time>2021-10-07T08:35:16.000Z</time>
      </trkpt>
      <trkpt lat="43.10788" lon="0.12714">
        <ele>475</ele>
        <time>2021-10-07T08:35:20.000Z</time>
      </trkpt>
      <trkpt lat="43.10793" lon="0.12701">
        <ele>475.20001220703</ele>
        <time>2021-10-07T08:35:22.000Z</time>
      </trkpt>
      <trkpt lat="43.10796" lon="0.12685">
        <ele>475</ele>
        <time>2021-10-07T08:35:24.000Z</time>
      </trkpt>
      <trkpt lat="43.108" lon="0.12672">
        <ele>474.79998779297</ele>
        <time>2021-10-07T08:35:26.000Z</time>
      </trkpt>
      <trkpt lat="43.10803" lon="0.12666">
        <ele>474.79998779297</ele>
        <time>2021-10-07T08:35:27.000Z</time>
      </trkpt>
      <trkpt lat="43.10806" lon="0.1266">
        <ele>474.60000610352</ele>
        <time>2021-10-07T08:35:28.000Z</time>
      </trkpt>
      <trkpt lat="43.10817" lon="0.12636">
        <ele>474</ele>
        <time>2021-10-07T08:35:31.000Z</time>
      </trkpt>
      <trkpt lat="43.10825" lon="0.12618">
        <ele>473.20001220703</ele>
        <time>2021-10-07T08:35:33.000Z</time>
      </trkpt>
      <trkpt lat="43.10833" lon="0.12601">
        <ele>472.20001220703</ele>
        <time>2021-10-07T08:35:35.000Z</time>
      </trkpt>
      <trkpt lat="43.10841" lon="0.12585">
        <ele>471.39999389648</ele>
        <time>2021-10-07T08:35:37.000Z</time>
      </trkpt>
      <trkpt lat="43.10845" lon="0.12577">
        <ele>471.20001220703</ele>
        <time>2021-10-07T08:35:38.000Z</time>
      </trkpt>
      <trkpt lat="43.10854" lon="0.12564">
        <ele>471</ele>
        <time>2021-10-07T08:35:40.000Z</time>
      </trkpt>
      <trkpt lat="43.10859" lon="0.12558">
        <ele>471</ele>
        <time>2021-10-07T08:35:41.000Z</time>
      </trkpt>
      <trkpt lat="43.10865" lon="0.12554">
        <ele>471</ele>
        <time>2021-10-07T08:35:42.000Z</time>
      </trkpt>
      <trkpt lat="43.10884" lon="0.12543">
        <ele>471.60000610352</ele>
        <time>2021-10-07T08:35:45.000Z</time>
      </trkpt>
      <trkpt lat="43.10937" lon="0.1252">
        <ele>472</ele>
        <time>2021-10-07T08:35:53.000Z</time>
      </trkpt>
      <trkpt lat="43.10957" lon="0.12511">
        <ele>472</ele>
        <time>2021-10-07T08:35:56.000Z</time>
      </trkpt>
      <trkpt lat="43.1097" lon="0.12505">
        <ele>471.60000610352</ele>
        <time>2021-10-07T08:35:58.000Z</time>
      </trkpt>
      <trkpt lat="43.10982" lon="0.12496">
        <ele>471.79998779297</ele>
        <time>2021-10-07T08:36:00.000Z</time>
      </trkpt>
      <trkpt lat="43.10988" lon="0.12491">
        <ele>471.60000610352</ele>
        <time>2021-10-07T08:36:01.000Z</time>
      </trkpt>
      <trkpt lat="43.11019" lon="0.12458">
        <ele>470.79998779297</ele>
        <time>2021-10-07T08:36:07.000Z</time>
      </trkpt>
      <trkpt lat="43.11042" lon="0.1243">
        <ele>470.39999389648</ele>
        <time>2021-10-07T08:36:12.000Z</time>
      </trkpt>
      <trkpt lat="43.11052" lon="0.12419">
        <ele>470.39999389648</ele>
        <time>2021-10-07T08:36:14.000Z</time>
      </trkpt>
      <trkpt lat="43.11086" lon="0.12379">
        <ele>469.39999389648</ele>
        <time>2021-10-07T08:36:21.000Z</time>
      </trkpt>
      <trkpt lat="43.11091" lon="0.12374">
        <ele>469.39999389648</ele>
        <time>2021-10-07T08:36:22.000Z</time>
      </trkpt>
      <trkpt lat="43.11124" lon="0.12335">
        <ele>468.60000610352</ele>
        <time>2021-10-07T08:36:29.000Z</time>
      </trkpt>
      <trkpt lat="43.11138" lon="0.12321">
        <ele>468.20001220703</ele>
        <time>2021-10-07T08:36:32.000Z</time>
      </trkpt>
      <trkpt lat="43.11164" lon="0.12289">
        <ele>467.39999389648</ele>
        <time>2021-10-07T08:36:38.000Z</time>
      </trkpt>
      <trkpt lat="43.11168" lon="0.12283">
        <ele>467.20001220703</ele>
        <time>2021-10-07T08:36:39.000Z</time>
      </trkpt>
      <trkpt lat="43.1119" lon="0.12253">
        <ele>466.79998779297</ele>
        <time>2021-10-07T08:36:44.000Z</time>
      </trkpt>
      <trkpt lat="43.11205" lon="0.12236">
        <ele>466.79998779297</ele>
        <time>2021-10-07T08:36:47.000Z</time>
      </trkpt>
      <trkpt lat="43.11215" lon="0.12227">
        <ele>466.60000610352</ele>
        <time>2021-10-07T08:36:49.000Z</time>
      </trkpt>
      <trkpt lat="43.11234" lon="0.12206">
        <ele>466.20001220703</ele>
        <time>2021-10-07T08:36:53.000Z</time>
      </trkpt>
      <trkpt lat="43.1125" lon="0.12188">
        <ele>465.79998779297</ele>
        <time>2021-10-07T08:36:56.000Z</time>
      </trkpt>
      <trkpt lat="43.11265" lon="0.12173">
        <ele>465.20001220703</ele>
        <time>2021-10-07T08:36:59.000Z</time>
      </trkpt>
      <trkpt lat="43.11285" lon="0.12156">
        <ele>464.60000610352</ele>
        <time>2021-10-07T08:37:03.000Z</time>
      </trkpt>
      <trkpt lat="43.11321" lon="0.12124">
        <ele>464</ele>
        <time>2021-10-07T08:37:10.000Z</time>
      </trkpt>
      <trkpt lat="43.11326" lon="0.1212">
        <ele>464</ele>
        <time>2021-10-07T08:37:11.000Z</time>
      </trkpt>
      <trkpt lat="43.11337" lon="0.12112">
        <ele>463.39999389648</ele>
        <time>2021-10-07T08:37:13.000Z</time>
      </trkpt>
      <trkpt lat="43.11346" lon="0.12104">
        <ele>463.20001220703</ele>
        <time>2021-10-07T08:37:15.000Z</time>
      </trkpt>
      <trkpt lat="43.11355" lon="0.12094">
        <ele>463</ele>
        <time>2021-10-07T08:37:17.000Z</time>
      </trkpt>
      <trkpt lat="43.11372" lon="0.12082">
        <ele>462.60000610352</ele>
        <time>2021-10-07T08:37:20.000Z</time>
      </trkpt>
      <trkpt lat="43.11401" lon="0.12067">
        <ele>462</ele>
        <time>2021-10-07T08:37:25.000Z</time>
      </trkpt>
      <trkpt lat="43.11412" lon="0.12063">
        <ele>461.79998779297</ele>
        <time>2021-10-07T08:37:27.000Z</time>
      </trkpt>
      <trkpt lat="43.11436" lon="0.1205">
        <ele>461.60000610352</ele>
        <time>2021-10-07T08:37:32.000Z</time>
      </trkpt>
      <trkpt lat="43.11441" lon="0.12046">
        <ele>461.60000610352</ele>
        <time>2021-10-07T08:37:33.000Z</time>
      </trkpt>
      <trkpt lat="43.1145" lon="0.1204">
        <ele>461.39999389648</ele>
        <time>2021-10-07T08:37:35.000Z</time>
      </trkpt>
      <trkpt lat="43.11466" lon="0.12032">
        <ele>461.20001220703</ele>
        <time>2021-10-07T08:37:38.000Z</time>
      </trkpt>
      <trkpt lat="43.11477" lon="0.12026">
        <ele>460.79998779297</ele>
        <time>2021-10-07T08:37:40.000Z</time>
      </trkpt>
      <trkpt lat="43.11499" lon="0.12018">
        <ele>460.39999389648</ele>
        <time>2021-10-07T08:37:44.000Z</time>
      </trkpt>
      <trkpt lat="43.11535" lon="0.12006">
        <ele>460</ele>
        <time>2021-10-07T08:37:51.000Z</time>
      </trkpt>
      <trkpt lat="43.11565" lon="0.11994">
        <ele>460</ele>
        <time>2021-10-07T08:37:57.000Z</time>
      </trkpt>
      <trkpt lat="43.1157" lon="0.11993">
        <ele>460</ele>
        <time>2021-10-07T08:37:58.000Z</time>
      </trkpt>
      <trkpt lat="43.1158" lon="0.1199">
        <ele>460.20001220703</ele>
        <time>2021-10-07T08:38:00.000Z</time>
      </trkpt>
      <trkpt lat="43.11599" lon="0.11983">
        <ele>460.60000610352</ele>
        <time>2021-10-07T08:38:04.000Z</time>
      </trkpt>
      <trkpt lat="43.11637" lon="0.11969">
        <ele>461</ele>
        <time>2021-10-07T08:38:12.000Z</time>
      </trkpt>
      <trkpt lat="43.11689" lon="0.11949">
        <ele>460.60000610352</ele>
        <time>2021-10-07T08:38:22.000Z</time>
      </trkpt>
      <trkpt lat="43.11709" lon="0.11942">
        <ele>460.39999389648</ele>
        <time>2021-10-07T08:38:26.000Z</time>
      </trkpt>
      <trkpt lat="43.11718" lon="0.11938">
        <ele>460.20001220703</ele>
        <time>2021-10-07T08:38:28.000Z</time>
      </trkpt>
      <trkpt lat="43.11748" lon="0.11927">
        <ele>459.79998779297</ele>
        <time>2021-10-07T08:38:34.000Z</time>
      </trkpt>
      <trkpt lat="43.11753" lon="0.11925">
        <ele>459.79998779297</ele>
        <time>2021-10-07T08:38:35.000Z</time>
      </trkpt>
      <trkpt lat="43.11781" lon="0.11914">
        <ele>459</ele>
        <time>2021-10-07T08:38:41.000Z</time>
      </trkpt>
      <trkpt lat="43.11789" lon="0.1191">
        <ele>458.79998779297</ele>
        <time>2021-10-07T08:38:43.000Z</time>
      </trkpt>
      <trkpt lat="43.11808" lon="0.11902">
        <ele>458.60000610352</ele>
        <time>2021-10-07T08:38:47.000Z</time>
      </trkpt>
      <trkpt lat="43.11829" lon="0.11894">
        <ele>458.20001220703</ele>
        <time>2021-10-07T08:38:51.000Z</time>
      </trkpt>
      <trkpt lat="43.11854" lon="0.11883">
        <ele>457.79998779297</ele>
        <time>2021-10-07T08:38:57.000Z</time>
      </trkpt>
      <trkpt lat="43.11857" lon="0.11879">
        <ele>457.60000610352</ele>
        <time>2021-10-07T08:38:58.000Z</time>
      </trkpt>
      <trkpt lat="43.11874" lon="0.11846">
        <ele>457</ele>
        <time>2021-10-07T08:39:04.000Z</time>
      </trkpt>
      <trkpt lat="43.11886" lon="0.11828">
        <ele>457</ele>
        <time>2021-10-07T08:39:08.000Z</time>
      </trkpt>
      <trkpt lat="43.11892" lon="0.11818">
        <ele>456.79998779297</ele>
        <time>2021-10-07T08:39:10.000Z</time>
      </trkpt>
      <trkpt lat="43.11894" lon="0.11814">
        <ele>456.60000610352</ele>
        <time>2021-10-07T08:39:11.000Z</time>
      </trkpt>
      <trkpt lat="43.11912" lon="0.11785">
        <ele>456.20001220703</ele>
        <time>2021-10-07T08:39:17.000Z</time>
      </trkpt>
      <trkpt lat="43.11918" lon="0.11775">
        <ele>456</ele>
        <time>2021-10-07T08:39:19.000Z</time>
      </trkpt>
      <trkpt lat="43.11945" lon="0.11747">
        <ele>455.79998779297</ele>
        <time>2021-10-07T08:39:26.000Z</time>
      </trkpt>
      <trkpt lat="43.11952" lon="0.1174">
        <ele>455.60000610352</ele>
        <time>2021-10-07T08:39:28.000Z</time>
      </trkpt>
      <trkpt lat="43.11957" lon="0.11737">
        <ele>455.39999389648</ele>
        <time>2021-10-07T08:39:29.000Z</time>
      </trkpt>
      <trkpt lat="43.11969" lon="0.11729">
        <ele>455</ele>
        <time>2021-10-07T08:39:32.000Z</time>
      </trkpt>
      <trkpt lat="43.11986" lon="0.11719">
        <ele>454.60000610352</ele>
        <time>2021-10-07T08:39:36.000Z</time>
      </trkpt>
      <trkpt lat="43.12004" lon="0.11712">
        <ele>454.60000610352</ele>
        <time>2021-10-07T08:39:40.000Z</time>
      </trkpt>
      <trkpt lat="43.1202" lon="0.11709">
        <ele>454.39999389648</ele>
        <time>2021-10-07T08:39:43.000Z</time>
      </trkpt>
      <trkpt lat="43.12035" lon="0.11705">
        <ele>454.39999389648</ele>
        <time>2021-10-07T08:39:46.000Z</time>
      </trkpt>
      <trkpt lat="43.12066" lon="0.11692">
        <ele>453.79998779297</ele>
        <time>2021-10-07T08:39:52.000Z</time>
      </trkpt>
      <trkpt lat="43.12082" lon="0.11683">
        <ele>453.39999389648</ele>
        <time>2021-10-07T08:39:55.000Z</time>
      </trkpt>
      <trkpt lat="43.12103" lon="0.1167">
        <ele>453.20001220703</ele>
        <time>2021-10-07T08:39:59.000Z</time>
      </trkpt>
      <trkpt lat="43.12151" lon="0.11648">
        <ele>452.79998779297</ele>
        <time>2021-10-07T08:40:07.000Z</time>
      </trkpt>
      <trkpt lat="43.12177" lon="0.11636">
        <ele>452.39999389648</ele>
        <time>2021-10-07T08:40:12.000Z</time>
      </trkpt>
      <trkpt lat="43.12182" lon="0.11634">
        <ele>452.60000610352</ele>
        <time>2021-10-07T08:40:13.000Z</time>
      </trkpt>
      <trkpt lat="43.12187" lon="0.11633">
        <ele>452.60000610352</ele>
        <time>2021-10-07T08:40:14.000Z</time>
      </trkpt>
      <trkpt lat="43.12202" lon="0.11629">
        <ele>452.39999389648</ele>
        <time>2021-10-07T08:40:17.000Z</time>
      </trkpt>
      <trkpt lat="43.12208" lon="0.11628">
        <ele>452.39999389648</ele>
        <time>2021-10-07T08:40:18.000Z</time>
      </trkpt>
      <trkpt lat="43.12238" lon="0.11616">
        <ele>452</ele>
        <time>2021-10-07T08:40:23.000Z</time>
      </trkpt>
      <trkpt lat="43.12249" lon="0.11608">
        <ele>451.39999389648</ele>
        <time>2021-10-07T08:40:25.000Z</time>
      </trkpt>
      <trkpt lat="43.12265" lon="0.11594">
        <ele>451</ele>
        <time>2021-10-07T08:40:28.000Z</time>
      </trkpt>
      <trkpt lat="43.12278" lon="0.11581">
        <ele>450.39999389648</ele>
        <time>2021-10-07T08:40:31.000Z</time>
      </trkpt>
      <trkpt lat="43.12281" lon="0.11577">
        <ele>450.20001220703</ele>
        <time>2021-10-07T08:40:32.000Z</time>
      </trkpt>
      <trkpt lat="43.1229" lon="0.11565">
        <ele>450</ele>
        <time>2021-10-07T08:40:36.000Z</time>
      </trkpt>
      <trkpt lat="43.1231" lon="0.11538">
        <ele>449.39999389648</ele>
        <time>2021-10-07T08:40:45.000Z</time>
      </trkpt>
      <trkpt lat="43.12324" lon="0.11523">
        <ele>449.20001220703</ele>
        <time>2021-10-07T08:40:51.000Z</time>
      </trkpt>
      <trkpt lat="43.12334" lon="0.11513">
        <ele>448.79998779297</ele>
        <time>2021-10-07T08:40:55.000Z</time>
      </trkpt>
      <trkpt lat="43.12357" lon="0.1149">
        <ele>448.39999389648</ele>
        <time>2021-10-07T08:41:04.000Z</time>
      </trkpt>
      <trkpt lat="43.12377" lon="0.11467">
        <ele>448.20001220703</ele>
        <time>2021-10-07T08:41:12.000Z</time>
      </trkpt>
      <trkpt lat="43.1238" lon="0.11464">
        <ele>448</ele>
        <time>2021-10-07T08:41:13.000Z</time>
      </trkpt>
      <trkpt lat="43.124" lon="0.1144">
        <ele>447.79998779297</ele>
        <time>2021-10-07T08:41:20.000Z</time>
      </trkpt>
      <trkpt lat="43.12424" lon="0.11405">
        <ele>447.60000610352</ele>
        <time>2021-10-07T08:41:30.000Z</time>
      </trkpt>
      <trkpt lat="43.12431" lon="0.11389">
        <ele>447.20001220703</ele>
        <time>2021-10-07T08:41:36.000Z</time>
      </trkpt>
      <trkpt lat="43.12431" lon="0.11387">
        <ele>447.20001220703</ele>
        <time>2021-10-07T08:41:37.000Z</time>
      </trkpt>
      <trkpt lat="43.12434" lon="0.11388">
        <ele>447</ele>
        <time>2021-10-07T08:41:39.000Z</time>
      </trkpt>
      <trkpt lat="43.12436" lon="0.11389">
        <ele>447</ele>
        <time>2021-10-07T08:41:40.000Z</time>
      </trkpt>
      <trkpt lat="43.1245" lon="0.11397">
        <ele>446.79998779297</ele>
        <time>2021-10-07T08:41:45.000Z</time>
      </trkpt>
      <trkpt lat="43.12479" lon="0.11394">
        <ele>447</ele>
        <time>2021-10-07T08:41:52.000Z</time>
      </trkpt>
      <trkpt lat="43.12484" lon="0.11391">
        <ele>447</ele>
        <time>2021-10-07T08:41:53.000Z</time>
      </trkpt>
      <trkpt lat="43.12503" lon="0.11379">
        <ele>447</ele>
        <time>2021-10-07T08:41:57.000Z</time>
      </trkpt>
      <trkpt lat="43.12547" lon="0.11354">
        <ele>446.60000610352</ele>
        <time>2021-10-07T08:42:05.000Z</time>
      </trkpt>
      <trkpt lat="43.12578" lon="0.11328">
        <ele>446.20001220703</ele>
        <time>2021-10-07T08:42:11.000Z</time>
      </trkpt>
      <trkpt lat="43.12614" lon="0.11278">
        <ele>445.60000610352</ele>
        <time>2021-10-07T08:42:19.000Z</time>
      </trkpt>
      <trkpt lat="43.1263" lon="0.11255">
        <ele>445.20001220703</ele>
        <time>2021-10-07T08:42:23.000Z</time>
      </trkpt>
      <trkpt lat="43.12633" lon="0.11243">
        <ele>445.20001220703</ele>
        <time>2021-10-07T08:42:25.000Z</time>
      </trkpt>
      <trkpt lat="43.12631" lon="0.1123">
        <ele>445</ele>
        <time>2021-10-07T08:42:27.000Z</time>
      </trkpt>
      <trkpt lat="43.12627" lon="0.11208">
        <ele>444.79998779297</ele>
        <time>2021-10-07T08:42:30.000Z</time>
      </trkpt>
      <trkpt lat="43.12618" lon="0.11161">
        <ele>444.39999389648</ele>
        <time>2021-10-07T08:42:36.000Z</time>
      </trkpt>
      <trkpt lat="43.12614" lon="0.11147">
        <ele>444.39999389648</ele>
        <time>2021-10-07T08:42:38.000Z</time>
      </trkpt>
      <trkpt lat="43.12607" lon="0.11133">
        <ele>444.20001220703</ele>
        <time>2021-10-07T08:42:40.000Z</time>
      </trkpt>
      <trkpt lat="43.12604" lon="0.11127">
        <ele>444.20001220703</ele>
        <time>2021-10-07T08:42:41.000Z</time>
      </trkpt>
      <trkpt lat="43.12592" lon="0.11105">
        <ele>444.20001220703</ele>
        <time>2021-10-07T08:42:45.000Z</time>
      </trkpt>
      <trkpt lat="43.1259" lon="0.11102">
        <ele>444</ele>
        <time>2021-10-07T08:42:46.000Z</time>
      </trkpt>
      <trkpt lat="43.12589" lon="0.11099">
        <ele>444</ele>
        <time>2021-10-07T08:42:47.000Z</time>
      </trkpt>
      <trkpt lat="43.12592" lon="0.11097">
        <ele>444</ele>
        <time>2021-10-07T08:42:48.000Z</time>
      </trkpt>
      <trkpt lat="43.12605" lon="0.11091">
        <ele>444</ele>
        <time>2021-10-07T08:42:51.000Z</time>
      </trkpt>
      <trkpt lat="43.12611" lon="0.11089">
        <ele>444</ele>
        <time>2021-10-07T08:42:52.000Z</time>
      </trkpt>
      <trkpt lat="43.12636" lon="0.11081">
        <ele>443.60000610352</ele>
        <time>2021-10-07T08:42:56.000Z</time>
      </trkpt>
      <trkpt lat="43.12656" lon="0.11076">
        <ele>443.20001220703</ele>
        <time>2021-10-07T08:42:59.000Z</time>
      </trkpt>
      <trkpt lat="43.12689" lon="0.11068">
        <ele>442.20001220703</ele>
        <time>2021-10-07T08:43:04.000Z</time>
      </trkpt>
      <trkpt lat="43.12696" lon="0.11067">
        <ele>442</ele>
        <time>2021-10-07T08:43:05.000Z</time>
      </trkpt>
      <trkpt lat="43.12725" lon="0.11065">
        <ele>441</ele>
        <time>2021-10-07T08:43:09.000Z</time>
      </trkpt>
      <trkpt lat="43.12746" lon="0.11063">
        <ele>440.60000610352</ele>
        <time>2021-10-07T08:43:12.000Z</time>
      </trkpt>
      <trkpt lat="43.12753" lon="0.11062">
        <ele>440.39999389648</ele>
        <time>2021-10-07T08:43:13.000Z</time>
      </trkpt>
      <trkpt lat="43.12767" lon="0.11056">
        <ele>440.39999389648</ele>
        <time>2021-10-07T08:43:15.000Z</time>
      </trkpt>
      <trkpt lat="43.12774" lon="0.11052">
        <ele>440.39999389648</ele>
        <time>2021-10-07T08:43:16.000Z</time>
      </trkpt>
      <trkpt lat="43.12779" lon="0.11048">
        <ele>440.20001220703</ele>
        <time>2021-10-07T08:43:17.000Z</time>
      </trkpt>
      <trkpt lat="43.12795" lon="0.11033">
        <ele>440</ele>
        <time>2021-10-07T08:43:20.000Z</time>
      </trkpt>
      <trkpt lat="43.128" lon="0.11027">
        <ele>439.79998779297</ele>
        <time>2021-10-07T08:43:21.000Z</time>
      </trkpt>
      <trkpt lat="43.12821" lon="0.11003">
        <ele>438.79998779297</ele>
        <time>2021-10-07T08:43:25.000Z</time>
      </trkpt>
      <trkpt lat="43.12837" lon="0.10986">
        <ele>438.20001220703</ele>
        <time>2021-10-07T08:43:28.000Z</time>
      </trkpt>
      <trkpt lat="43.1285" lon="0.10977">
        <ele>437.60000610352</ele>
        <time>2021-10-07T08:43:30.000Z</time>
      </trkpt>
      <trkpt lat="43.1288" lon="0.10953">
        <ele>436.39999389648</ele>
        <time>2021-10-07T08:43:35.000Z</time>
      </trkpt>
      <trkpt lat="43.12886" lon="0.10948">
        <ele>436</ele>
        <time>2021-10-07T08:43:36.000Z</time>
      </trkpt>
      <trkpt lat="43.12916" lon="0.10919">
        <ele>435.39999389648</ele>
        <time>2021-10-07T08:43:41.000Z</time>
      </trkpt>
      <trkpt lat="43.12928" lon="0.10906">
        <ele>435.20001220703</ele>
        <time>2021-10-07T08:43:43.000Z</time>
      </trkpt>
      <trkpt lat="43.1294" lon="0.10895">
        <ele>434.79998779297</ele>
        <time>2021-10-07T08:43:45.000Z</time>
      </trkpt>
      <trkpt lat="43.12959" lon="0.10882">
        <ele>434.39999389648</ele>
        <time>2021-10-07T08:43:48.000Z</time>
      </trkpt>
      <trkpt lat="43.12996" lon="0.10854">
        <ele>433.60000610352</ele>
        <time>2021-10-07T08:43:54.000Z</time>
      </trkpt>
      <trkpt lat="43.13003" lon="0.10852">
        <ele>433.39999389648</ele>
        <time>2021-10-07T08:43:55.000Z</time>
      </trkpt>
      <trkpt lat="43.13016" lon="0.10854">
        <ele>433.39999389648</ele>
        <time>2021-10-07T08:43:57.000Z</time>
      </trkpt>
      <trkpt lat="43.13022" lon="0.10858">
        <ele>433.20001220703</ele>
        <time>2021-10-07T08:43:58.000Z</time>
      </trkpt>
      <trkpt lat="43.13035" lon="0.10864">
        <ele>433</ele>
        <time>2021-10-07T08:44:00.000Z</time>
      </trkpt>
      <trkpt lat="43.13048" lon="0.10869">
        <ele>433</ele>
        <time>2021-10-07T08:44:02.000Z</time>
      </trkpt>
      <trkpt lat="43.13055" lon="0.10871">
        <ele>432.79998779297</ele>
        <time>2021-10-07T08:44:03.000Z</time>
      </trkpt>
      <trkpt lat="43.13075" lon="0.1087">
        <ele>432.60000610352</ele>
        <time>2021-10-07T08:44:06.000Z</time>
      </trkpt>
      <trkpt lat="43.13101" lon="0.10863">
        <ele>432.60000610352</ele>
        <time>2021-10-07T08:44:10.000Z</time>
      </trkpt>
      <trkpt lat="43.13114" lon="0.10858">
        <ele>432.60000610352</ele>
        <time>2021-10-07T08:44:12.000Z</time>
      </trkpt>
      <trkpt lat="43.13143" lon="0.1085">
        <ele>432.39999389648</ele>
        <time>2021-10-07T08:44:17.000Z</time>
      </trkpt>
      <trkpt lat="43.13148" lon="0.10847">
        <ele>432.39999389648</ele>
        <time>2021-10-07T08:44:18.000Z</time>
      </trkpt>
      <trkpt lat="43.13158" lon="0.10841">
        <ele>432.20001220703</ele>
        <time>2021-10-07T08:44:20.000Z</time>
      </trkpt>
      <trkpt lat="43.13174" lon="0.10828">
        <ele>432</ele>
        <time>2021-10-07T08:44:23.000Z</time>
      </trkpt>
      <trkpt lat="43.13188" lon="0.10813">
        <ele>431.60000610352</ele>
        <time>2021-10-07T08:44:26.000Z</time>
      </trkpt>
      <trkpt lat="43.13198" lon="0.10807">
        <ele>431.39999389648</ele>
        <time>2021-10-07T08:44:28.000Z</time>
      </trkpt>
      <trkpt lat="43.13207" lon="0.10801">
        <ele>431.20001220703</ele>
        <time>2021-10-07T08:44:30.000Z</time>
      </trkpt>
      <trkpt lat="43.1322" lon="0.10788">
        <ele>431</ele>
        <time>2021-10-07T08:44:33.000Z</time>
      </trkpt>
      <trkpt lat="43.13236" lon="0.10759">
        <ele>431</ele>
        <time>2021-10-07T08:44:38.000Z</time>
      </trkpt>
      <trkpt lat="43.13241" lon="0.10748">
        <ele>431</ele>
        <time>2021-10-07T08:44:40.000Z</time>
      </trkpt>
      <trkpt lat="43.13248" lon="0.10738">
        <ele>431.20001220703</ele>
        <time>2021-10-07T08:44:42.000Z</time>
      </trkpt>
      <trkpt lat="43.13253" lon="0.10734">
        <ele>431.20001220703</ele>
        <time>2021-10-07T08:44:43.000Z</time>
      </trkpt>
      <trkpt lat="43.13291" lon="0.10707">
        <ele>429.20001220703</ele>
        <time>2021-10-07T08:44:50.000Z</time>
      </trkpt>
      <trkpt lat="43.13323" lon="0.1068">
        <ele>430</ele>
        <time>2021-10-07T08:44:56.000Z</time>
      </trkpt>
      <trkpt lat="43.13333" lon="0.10671">
        <ele>429.79998779297</ele>
        <time>2021-10-07T08:44:58.000Z</time>
      </trkpt>
      <trkpt lat="43.13365" lon="0.10643">
        <ele>429</ele>
        <time>2021-10-07T08:45:04.000Z</time>
      </trkpt>
      <trkpt lat="43.13387" lon="0.10625">
        <ele>428.79998779297</ele>
        <time>2021-10-07T08:45:08.000Z</time>
      </trkpt>
      <trkpt lat="43.13439" lon="0.10592">
        <ele>428.39999389648</ele>
        <time>2021-10-07T08:45:17.000Z</time>
      </trkpt>
      <trkpt lat="43.13451" lon="0.10583">
        <ele>428</ele>
        <time>2021-10-07T08:45:19.000Z</time>
      </trkpt>
      <trkpt lat="43.13488" lon="0.10562">
        <ele>427</ele>
        <time>2021-10-07T08:45:25.000Z</time>
      </trkpt>
      <trkpt lat="43.13494" lon="0.10559">
        <ele>427</ele>
        <time>2021-10-07T08:45:26.000Z</time>
      </trkpt>
      <trkpt lat="43.1354" lon="0.10536">
        <ele>426.39999389648</ele>
        <time>2021-10-07T08:45:34.000Z</time>
      </trkpt>
      <trkpt lat="43.13563" lon="0.10527">
        <ele>426</ele>
        <time>2021-10-07T08:45:38.000Z</time>
      </trkpt>
      <trkpt lat="43.13574" lon="0.10526">
        <ele>425.79998779297</ele>
        <time>2021-10-07T08:45:40.000Z</time>
      </trkpt>
      <trkpt lat="43.1358" lon="0.10527">
        <ele>425.79998779297</ele>
        <time>2021-10-07T08:45:41.000Z</time>
      </trkpt>
      <trkpt lat="43.13596" lon="0.10532">
        <ele>425.60000610352</ele>
        <time>2021-10-07T08:45:44.000Z</time>
      </trkpt>
      <trkpt lat="43.13602" lon="0.10533">
        <ele>425.60000610352</ele>
        <time>2021-10-07T08:45:45.000Z</time>
      </trkpt>
      <trkpt lat="43.13607" lon="0.10533">
        <ele>425.39999389648</ele>
        <time>2021-10-07T08:45:46.000Z</time>
      </trkpt>
      <trkpt lat="43.13617" lon="0.10526">
        <ele>425.39999389648</ele>
        <time>2021-10-07T08:45:48.000Z</time>
      </trkpt>
      <trkpt lat="43.13623" lon="0.10514">
        <ele>425.39999389648</ele>
        <time>2021-10-07T08:45:50.000Z</time>
      </trkpt>
      <trkpt lat="43.13629" lon="0.10502">
        <ele>425.20001220703</ele>
        <time>2021-10-07T08:45:52.000Z</time>
      </trkpt>
      <trkpt lat="43.13635" lon="0.10488">
        <ele>425</ele>
        <time>2021-10-07T08:45:54.000Z</time>
      </trkpt>
      <trkpt lat="43.13638" lon="0.10482">
        <ele>424.79998779297</ele>
        <time>2021-10-07T08:45:55.000Z</time>
      </trkpt>
      <trkpt lat="43.13651" lon="0.10465">
        <ele>424.39999389648</ele>
        <time>2021-10-07T08:45:58.000Z</time>
      </trkpt>
      <trkpt lat="43.13662" lon="0.10457">
        <ele>424</ele>
        <time>2021-10-07T08:46:00.000Z</time>
      </trkpt>
      <trkpt lat="43.13673" lon="0.10451">
        <ele>423.79998779297</ele>
        <time>2021-10-07T08:46:02.000Z</time>
      </trkpt>
      <trkpt lat="43.13682" lon="0.10441">
        <ele>423.60000610352</ele>
        <time>2021-10-07T08:46:04.000Z</time>
      </trkpt>
      <trkpt lat="43.13684" lon="0.10437">
        <ele>423.39999389648</ele>
        <time>2021-10-07T08:46:05.000Z</time>
      </trkpt>
      <trkpt lat="43.13683" lon="0.10431">
        <ele>423.39999389648</ele>
        <time>2021-10-07T08:46:06.000Z</time>
      </trkpt>
      <trkpt lat="43.1368" lon="0.1042">
        <ele>423.20001220703</ele>
        <time>2021-10-07T08:46:08.000Z</time>
      </trkpt>
      <trkpt lat="43.13667" lon="0.10389">
        <ele>423</ele>
        <time>2021-10-07T08:46:13.000Z</time>
      </trkpt>
      <trkpt lat="43.13663" lon="0.10369">
        <ele>423</ele>
        <time>2021-10-07T08:46:16.000Z</time>
      </trkpt>
      <trkpt lat="43.13663" lon="0.10355">
        <ele>423</ele>
        <time>2021-10-07T08:46:18.000Z</time>
      </trkpt>
      <trkpt lat="43.13662" lon="0.10348">
        <ele>423</ele>
        <time>2021-10-07T08:46:19.000Z</time>
      </trkpt>
      <trkpt lat="43.13661" lon="0.10341">
        <ele>423.20001220703</ele>
        <time>2021-10-07T08:46:20.000Z</time>
      </trkpt>
      <trkpt lat="43.13654" lon="0.10322">
        <ele>423.20001220703</ele>
        <time>2021-10-07T08:46:23.000Z</time>
      </trkpt>
      <trkpt lat="43.13636" lon="0.10279">
        <ele>423.20001220703</ele>
        <time>2021-10-07T08:46:30.000Z</time>
      </trkpt>
      <trkpt lat="43.13632" lon="0.10266">
        <ele>423.39999389648</ele>
        <time>2021-10-07T08:46:32.000Z</time>
      </trkpt>
      <trkpt lat="43.13622" lon="0.10218">
        <ele>423.79998779297</ele>
        <time>2021-10-07T08:46:39.000Z</time>
      </trkpt>
      <trkpt lat="43.13607" lon="0.1016">
        <ele>424.60000610352</ele>
        <time>2021-10-07T08:46:48.000Z</time>
      </trkpt>
      <trkpt lat="43.13603" lon="0.10142">
        <ele>424.79998779297</ele>
        <time>2021-10-07T08:46:51.000Z</time>
      </trkpt>
      <trkpt lat="43.13597" lon="0.10118">
        <ele>425.39999389648</ele>
        <time>2021-10-07T08:46:55.000Z</time>
      </trkpt>
      <trkpt lat="43.13596" lon="0.10112">
        <ele>425.60000610352</ele>
        <time>2021-10-07T08:46:56.000Z</time>
      </trkpt>
      <trkpt lat="43.13597" lon="0.10105">
        <ele>425.60000610352</ele>
        <time>2021-10-07T08:46:57.000Z</time>
      </trkpt>
      <trkpt lat="43.13602" lon="0.10094">
        <ele>425.79998779297</ele>
        <time>2021-10-07T08:46:59.000Z</time>
      </trkpt>
      <trkpt lat="43.13619" lon="0.10059">
        <ele>425.79998779297</ele>
        <time>2021-10-07T08:47:05.000Z</time>
      </trkpt>
      <trkpt lat="43.13623" lon="0.10048">
        <ele>426</ele>
        <time>2021-10-07T08:47:07.000Z</time>
      </trkpt>
      <trkpt lat="43.13626" lon="0.10017">
        <ele>426.79998779297</ele>
        <time>2021-10-07T08:47:12.000Z</time>
      </trkpt>
      <trkpt lat="43.13626" lon="0.10012">
        <ele>427</ele>
        <time>2021-10-07T08:47:13.000Z</time>
      </trkpt>
      <trkpt lat="43.13625" lon="0.09992">
        <ele>427.60000610352</ele>
        <time>2021-10-07T08:47:17.000Z</time>
      </trkpt>
      <trkpt lat="43.13625" lon="0.09984">
        <ele>428.20001220703</ele>
        <time>2021-10-07T08:47:19.000Z</time>
      </trkpt>
      <trkpt lat="43.13623" lon="0.09976">
        <ele>429.20001220703</ele>
        <time>2021-10-07T08:47:22.000Z</time>
      </trkpt>
      <trkpt lat="43.13622" lon="0.09973">
        <ele>429.39999389648</ele>
        <time>2021-10-07T08:47:23.000Z</time>
      </trkpt>
      <trkpt lat="43.1362" lon="0.09967">
        <ele>430.39999389648</ele>
        <time>2021-10-07T08:47:25.000Z</time>
      </trkpt>
      <trkpt lat="43.13619" lon="0.09965">
        <ele>431</ele>
        <time>2021-10-07T08:47:26.000Z</time>
      </trkpt>
      <trkpt lat="43.13611" lon="0.0995">
        <ele>432.20001220703</ele>
        <time>2021-10-07T08:47:31.000Z</time>
      </trkpt>
      <trkpt lat="43.1361" lon="0.09947">
        <ele>432.20001220703</ele>
        <time>2021-10-07T08:47:32.000Z</time>
      </trkpt>
      <trkpt lat="43.13608" lon="0.09932">
        <ele>433.39999389648</ele>
        <time>2021-10-07T08:47:37.000Z</time>
      </trkpt>
      <trkpt lat="43.13607" lon="0.09924">
        <ele>434.20001220703</ele>
        <time>2021-10-07T08:47:40.000Z</time>
      </trkpt>
      <trkpt lat="43.13607" lon="0.09921">
        <ele>434.39999389648</ele>
        <time>2021-10-07T08:47:41.000Z</time>
      </trkpt>
      <trkpt lat="43.13604" lon="0.0991">
        <ele>435.60000610352</ele>
        <time>2021-10-07T08:47:45.000Z</time>
      </trkpt>
      <trkpt lat="43.13602" lon="0.09901">
        <ele>436.60000610352</ele>
        <time>2021-10-07T08:47:48.000Z</time>
      </trkpt>
      <trkpt lat="43.136" lon="0.09891">
        <ele>437.60000610352</ele>
        <time>2021-10-07T08:47:51.000Z</time>
      </trkpt>
      <trkpt lat="43.136" lon="0.09888">
        <ele>438</ele>
        <time>2021-10-07T08:47:52.000Z</time>
      </trkpt>
      <trkpt lat="43.136" lon="0.09881">
        <ele>438.79998779297</ele>
        <time>2021-10-07T08:47:54.000Z</time>
      </trkpt>
      <trkpt lat="43.13594" lon="0.09868">
        <ele>440</ele>
        <time>2021-10-07T08:47:59.000Z</time>
      </trkpt>
      <trkpt lat="43.13592" lon="0.09865">
        <ele>440.20001220703</ele>
        <time>2021-10-07T08:48:00.000Z</time>
      </trkpt>
      <trkpt lat="43.13586" lon="0.09858">
        <ele>441.20001220703</ele>
        <time>2021-10-07T08:48:03.000Z</time>
      </trkpt>
      <trkpt lat="43.13575" lon="0.09848">
        <ele>442</ele>
        <time>2021-10-07T08:48:08.000Z</time>
      </trkpt>
      <trkpt lat="43.13566" lon="0.09842">
        <ele>442.39999389648</ele>
        <time>2021-10-07T08:48:11.000Z</time>
      </trkpt>
      <trkpt lat="43.13554" lon="0.09838">
        <ele>443.20001220703</ele>
        <time>2021-10-07T08:48:15.000Z</time>
      </trkpt>
      <trkpt lat="43.13547" lon="0.09837">
        <ele>443.60000610352</ele>
        <time>2021-10-07T08:48:17.000Z</time>
      </trkpt>
      <trkpt lat="43.13524" lon="0.09834">
        <ele>444.60000610352</ele>
        <time>2021-10-07T08:48:24.000Z</time>
      </trkpt>
      <trkpt lat="43.13514" lon="0.09833">
        <ele>445</ele>
        <time>2021-10-07T08:48:27.000Z</time>
      </trkpt>
      <trkpt lat="43.13496" lon="0.09833">
        <ele>445.60000610352</ele>
        <time>2021-10-07T08:48:32.000Z</time>
      </trkpt>
      <trkpt lat="43.13485" lon="0.09833">
        <ele>446.20001220703</ele>
        <time>2021-10-07T08:48:35.000Z</time>
      </trkpt>
      <trkpt lat="43.13474" lon="0.09832">
        <ele>446.60000610352</ele>
        <time>2021-10-07T08:48:38.000Z</time>
      </trkpt>
      <trkpt lat="43.1345" lon="0.0983">
        <ele>448</ele>
        <time>2021-10-07T08:48:45.000Z</time>
      </trkpt>
      <trkpt lat="43.13447" lon="0.09829">
        <ele>448</ele>
        <time>2021-10-07T08:48:46.000Z</time>
      </trkpt>
      <trkpt lat="43.13431" lon="0.09822">
        <ele>449</ele>
        <time>2021-10-07T08:48:51.000Z</time>
      </trkpt>
      <trkpt lat="43.13422" lon="0.09818">
        <ele>449.79998779297</ele>
        <time>2021-10-07T08:48:54.000Z</time>
      </trkpt>
      <trkpt lat="43.13419" lon="0.09816">
        <ele>450.20001220703</ele>
        <time>2021-10-07T08:48:55.000Z</time>
      </trkpt>
      <trkpt lat="43.13403" lon="0.09803">
        <ele>451.60000610352</ele>
        <time>2021-10-07T08:49:01.000Z</time>
      </trkpt>
      <trkpt lat="43.13396" lon="0.09797">
        <ele>452.20001220703</ele>
        <time>2021-10-07T08:49:04.000Z</time>
      </trkpt>
      <trkpt lat="43.13391" lon="0.09792">
        <ele>452.79998779297</ele>
        <time>2021-10-07T08:49:06.000Z</time>
      </trkpt>
      <trkpt lat="43.1338" lon="0.0978">
        <ele>454</ele>
        <time>2021-10-07T08:49:11.000Z</time>
      </trkpt>
      <trkpt lat="43.13375" lon="0.09775">
        <ele>454.39999389648</ele>
        <time>2021-10-07T08:49:13.000Z</time>
      </trkpt>
      <trkpt lat="43.13369" lon="0.09768">
        <ele>455.20001220703</ele>
        <time>2021-10-07T08:49:16.000Z</time>
      </trkpt>
      <trkpt lat="43.13361" lon="0.0976">
        <ele>456.20001220703</ele>
        <time>2021-10-07T08:49:20.000Z</time>
      </trkpt>
      <trkpt lat="43.13359" lon="0.09758">
        <ele>456.39999389648</ele>
        <time>2021-10-07T08:49:21.000Z</time>
      </trkpt>
      <trkpt lat="43.13354" lon="0.09753">
        <ele>457.39999389648</ele>
        <time>2021-10-07T08:49:23.000Z</time>
      </trkpt>
      <trkpt lat="43.13344" lon="0.09743">
        <ele>458.39999389648</ele>
        <time>2021-10-07T08:49:28.000Z</time>
      </trkpt>
      <trkpt lat="43.13336" lon="0.09736">
        <ele>459.60000610352</ele>
        <time>2021-10-07T08:49:32.000Z</time>
      </trkpt>
      <trkpt lat="43.13326" lon="0.09727">
        <ele>461</ele>
        <time>2021-10-07T08:49:37.000Z</time>
      </trkpt>
      <trkpt lat="43.13318" lon="0.09719">
        <ele>462.20001220703</ele>
        <time>2021-10-07T08:49:41.000Z</time>
      </trkpt>
      <trkpt lat="43.13311" lon="0.09711">
        <ele>463.20001220703</ele>
        <time>2021-10-07T08:49:45.000Z</time>
      </trkpt>
      <trkpt lat="43.13303" lon="0.09704">
        <ele>464.39999389648</ele>
        <time>2021-10-07T08:49:49.000Z</time>
      </trkpt>
      <trkpt lat="43.13297" lon="0.09699">
        <ele>465.60000610352</ele>
        <time>2021-10-07T08:49:52.000Z</time>
      </trkpt>
      <trkpt lat="43.13292" lon="0.09693">
        <ele>466.79998779297</ele>
        <time>2021-10-07T08:49:55.000Z</time>
      </trkpt>
      <trkpt lat="43.13284" lon="0.09684">
        <ele>468</ele>
        <time>2021-10-07T08:49:59.000Z</time>
      </trkpt>
      <trkpt lat="43.13283" lon="0.09683">
        <ele>468.39999389648</ele>
        <time>2021-10-07T08:50:00.000Z</time>
      </trkpt>
      <trkpt lat="43.13279" lon="0.09678">
        <ele>469</ele>
        <time>2021-10-07T08:50:02.000Z</time>
      </trkpt>
      <trkpt lat="43.13271" lon="0.09671">
        <ele>470.20001220703</ele>
        <time>2021-10-07T08:50:06.000Z</time>
      </trkpt>
      <trkpt lat="43.13267" lon="0.09666">
        <ele>470.60000610352</ele>
        <time>2021-10-07T08:50:08.000Z</time>
      </trkpt>
      <trkpt lat="43.13261" lon="0.0966">
        <ele>471.39999389648</ele>
        <time>2021-10-07T08:50:11.000Z</time>
      </trkpt>
      <trkpt lat="43.13252" lon="0.09652">
        <ele>472.60000610352</ele>
        <time>2021-10-07T08:50:16.000Z</time>
      </trkpt>
      <trkpt lat="43.13244" lon="0.09644">
        <ele>473.79998779297</ele>
        <time>2021-10-07T08:50:20.000Z</time>
      </trkpt>
      <trkpt lat="43.13236" lon="0.09634">
        <ele>475</ele>
        <time>2021-10-07T08:50:25.000Z</time>
      </trkpt>
      <trkpt lat="43.13235" lon="0.09632">
        <ele>475</ele>
        <time>2021-10-07T08:50:26.000Z</time>
      </trkpt>
      <trkpt lat="43.13229" lon="0.09626">
        <ele>476</ele>
        <time>2021-10-07T08:50:29.000Z</time>
      </trkpt>
      <trkpt lat="43.13221" lon="0.09618">
        <ele>477.20001220703</ele>
        <time>2021-10-07T08:50:33.000Z</time>
      </trkpt>
      <trkpt lat="43.13219" lon="0.09616">
        <ele>477.39999389648</ele>
        <time>2021-10-07T08:50:34.000Z</time>
      </trkpt>
      <trkpt lat="43.13214" lon="0.0961">
        <ele>478</ele>
        <time>2021-10-07T08:50:37.000Z</time>
      </trkpt>
      <trkpt lat="43.13212" lon="0.09607">
        <ele>478.20001220703</ele>
        <time>2021-10-07T08:50:38.000Z</time>
      </trkpt>
      <trkpt lat="43.13204" lon="0.09601">
        <ele>479</ele>
        <time>2021-10-07T08:50:42.000Z</time>
      </trkpt>
      <trkpt lat="43.13198" lon="0.09597">
        <ele>479.20001220703</ele>
        <time>2021-10-07T08:50:44.000Z</time>
      </trkpt>
      <trkpt lat="43.13187" lon="0.09589">
        <ele>480</ele>
        <time>2021-10-07T08:50:48.000Z</time>
      </trkpt>
      <trkpt lat="43.13179" lon="0.09587">
        <ele>480.20001220703</ele>
        <time>2021-10-07T08:50:50.000Z</time>
      </trkpt>
      <trkpt lat="43.13169" lon="0.09579">
        <ele>480.79998779297</ele>
        <time>2021-10-07T08:50:54.000Z</time>
      </trkpt>
      <trkpt lat="43.13158" lon="0.09571">
        <ele>481.39999389648</ele>
        <time>2021-10-07T08:50:58.000Z</time>
      </trkpt>
      <trkpt lat="43.1315" lon="0.09559">
        <ele>482.79998779297</ele>
        <time>2021-10-07T08:51:03.000Z</time>
      </trkpt>
      <trkpt lat="43.13146" lon="0.09554">
        <ele>483.20001220703</ele>
        <time>2021-10-07T08:51:05.000Z</time>
      </trkpt>
      <trkpt lat="43.13139" lon="0.09548">
        <ele>483.79998779297</ele>
        <time>2021-10-07T08:51:09.000Z</time>
      </trkpt>
      <trkpt lat="43.13133" lon="0.09546">
        <ele>484.39999389648</ele>
        <time>2021-10-07T08:51:12.000Z</time>
      </trkpt>
      <trkpt lat="43.13125" lon="0.09547">
        <ele>485</ele>
        <time>2021-10-07T08:51:15.000Z</time>
      </trkpt>
      <trkpt lat="43.13117" lon="0.09553">
        <ele>485.39999389648</ele>
        <time>2021-10-07T08:51:18.000Z</time>
      </trkpt>
      <trkpt lat="43.13107" lon="0.09562">
        <ele>486</ele>
        <time>2021-10-07T08:51:22.000Z</time>
      </trkpt>
      <trkpt lat="43.13095" lon="0.09575">
        <ele>486.79998779297</ele>
        <time>2021-10-07T08:51:26.000Z</time>
      </trkpt>
      <trkpt lat="43.13082" lon="0.09584">
        <ele>487</ele>
        <time>2021-10-07T08:51:31.000Z</time>
      </trkpt>
      <trkpt lat="43.13079" lon="0.09584">
        <ele>487.20001220703</ele>
        <time>2021-10-07T08:51:32.000Z</time>
      </trkpt>
      <trkpt lat="43.13063" lon="0.09584">
        <ele>488</ele>
        <time>2021-10-07T08:51:38.000Z</time>
      </trkpt>
      <trkpt lat="43.13061" lon="0.09583">
        <ele>488.20001220703</ele>
        <time>2021-10-07T08:51:39.000Z</time>
      </trkpt>
      <trkpt lat="43.13047" lon="0.09576">
        <ele>489.20001220703</ele>
        <time>2021-10-07T08:51:44.000Z</time>
      </trkpt>
      <trkpt lat="43.13044" lon="0.09574">
        <ele>489.39999389648</ele>
        <time>2021-10-07T08:51:45.000Z</time>
      </trkpt>
      <trkpt lat="43.13039" lon="0.09571">
        <ele>490.20001220703</ele>
        <time>2021-10-07T08:51:47.000Z</time>
      </trkpt>
      <trkpt lat="43.13025" lon="0.09559">
        <ele>491.20001220703</ele>
        <time>2021-10-07T08:51:52.000Z</time>
      </trkpt>
      <trkpt lat="43.13017" lon="0.09549">
        <ele>492.39999389648</ele>
        <time>2021-10-07T08:51:56.000Z</time>
      </trkpt>
      <trkpt lat="43.13015" lon="0.09547">
        <ele>492.60000610352</ele>
        <time>2021-10-07T08:51:57.000Z</time>
      </trkpt>
      <trkpt lat="43.13011" lon="0.09539">
        <ele>493.20001220703</ele>
        <time>2021-10-07T08:52:01.000Z</time>
      </trkpt>
      <trkpt lat="43.13009" lon="0.09537">
        <ele>493.39999389648</ele>
        <time>2021-10-07T08:52:02.000Z</time>
      </trkpt>
      <trkpt lat="43.12995" lon="0.09531">
        <ele>494.39999389648</ele>
        <time>2021-10-07T08:52:06.000Z</time>
      </trkpt>
      <trkpt lat="43.1299" lon="0.09529">
        <ele>494.79998779297</ele>
        <time>2021-10-07T08:52:07.000Z</time>
      </trkpt>
      <trkpt lat="43.12983" lon="0.09523">
        <ele>495.79998779297</ele>
        <time>2021-10-07T08:52:10.000Z</time>
      </trkpt>
      <trkpt lat="43.1298" lon="0.09519">
        <ele>496.60000610352</ele>
        <time>2021-10-07T08:52:12.000Z</time>
      </trkpt>
      <trkpt lat="43.12974" lon="0.09514">
        <ele>497</ele>
        <time>2021-10-07T08:52:14.000Z</time>
      </trkpt>
      <trkpt lat="43.12966" lon="0.09505">
        <ele>498.20001220703</ele>
        <time>2021-10-07T08:52:18.000Z</time>
      </trkpt>
      <trkpt lat="43.12966" lon="0.09503">
        <ele>498.39999389648</ele>
        <time>2021-10-07T08:52:19.000Z</time>
      </trkpt>
      <trkpt lat="43.12964" lon="0.09501">
        <ele>498.60000610352</ele>
        <time>2021-10-07T08:52:20.000Z</time>
      </trkpt>
      <trkpt lat="43.12961" lon="0.09496">
        <ele>499.20001220703</ele>
        <time>2021-10-07T08:52:22.000Z</time>
      </trkpt>
      <trkpt lat="43.12959" lon="0.09494">
        <ele>499.60000610352</ele>
        <time>2021-10-07T08:52:23.000Z</time>
      </trkpt>
      <trkpt lat="43.12956" lon="0.09492">
        <ele>500.39999389648</ele>
        <time>2021-10-07T08:52:25.000Z</time>
      </trkpt>
      <trkpt lat="43.12947" lon="0.09489">
        <ele>501.20001220703</ele>
        <time>2021-10-07T08:52:29.000Z</time>
      </trkpt>
      <trkpt lat="43.12944" lon="0.09488">
        <ele>501.60000610352</ele>
        <time>2021-10-07T08:52:31.000Z</time>
      </trkpt>
      <trkpt lat="43.12942" lon="0.09489">
        <ele>502</ele>
        <time>2021-10-07T08:52:32.000Z</time>
      </trkpt>
      <trkpt lat="43.12938" lon="0.0949">
        <ele>502.79998779297</ele>
        <time>2021-10-07T08:52:34.000Z</time>
      </trkpt>
      <trkpt lat="43.12937" lon="0.0949">
        <ele>503.20001220703</ele>
        <time>2021-10-07T08:52:35.000Z</time>
      </trkpt>
      <trkpt lat="43.12931" lon="0.09492">
        <ele>504</ele>
        <time>2021-10-07T08:52:38.000Z</time>
      </trkpt>
      <trkpt lat="43.12927" lon="0.09494">
        <ele>504.39999389648</ele>
        <time>2021-10-07T08:52:40.000Z</time>
      </trkpt>
      <trkpt lat="43.12923" lon="0.09494">
        <ele>504.60000610352</ele>
        <time>2021-10-07T08:52:42.000Z</time>
      </trkpt>
      <trkpt lat="43.12921" lon="0.09495">
        <ele>505</ele>
        <time>2021-10-07T08:52:43.000Z</time>
      </trkpt>
      <trkpt lat="43.12913" lon="0.09495">
        <ele>506</ele>
        <time>2021-10-07T08:52:46.000Z</time>
      </trkpt>
      <trkpt lat="43.12905" lon="0.09495">
        <ele>506.60000610352</ele>
        <time>2021-10-07T08:52:49.000Z</time>
      </trkpt>
      <trkpt lat="43.129" lon="0.09494">
        <ele>507.20001220703</ele>
        <time>2021-10-07T08:52:51.000Z</time>
      </trkpt>
      <trkpt lat="43.12885" lon="0.09485">
        <ele>508.39999389648</ele>
        <time>2021-10-07T08:52:56.000Z</time>
      </trkpt>
      <trkpt lat="43.12882" lon="0.09484">
        <ele>508.60000610352</ele>
        <time>2021-10-07T08:52:57.000Z</time>
      </trkpt>
      <trkpt lat="43.12872" lon="0.09478">
        <ele>509.39999389648</ele>
        <time>2021-10-07T08:53:01.000Z</time>
      </trkpt>
      <trkpt lat="43.1287" lon="0.09476">
        <ele>509.79998779297</ele>
        <time>2021-10-07T08:53:03.000Z</time>
      </trkpt>
      <trkpt lat="43.12857" lon="0.09465">
        <ele>510.60000610352</ele>
        <time>2021-10-07T08:53:07.000Z</time>
      </trkpt>
      <trkpt lat="43.12851" lon="0.09457">
        <ele>511.39999389648</ele>
        <time>2021-10-07T08:53:11.000Z</time>
      </trkpt>
      <trkpt lat="43.1285" lon="0.09456">
        <ele>511.60000610352</ele>
        <time>2021-10-07T08:53:12.000Z</time>
      </trkpt>
      <trkpt lat="43.1284" lon="0.09448">
        <ele>512</ele>
        <time>2021-10-07T08:53:16.000Z</time>
      </trkpt>
      <trkpt lat="43.12835" lon="0.09445">
        <ele>512</ele>
        <time>2021-10-07T08:53:17.000Z</time>
      </trkpt>
      <trkpt lat="43.12827" lon="0.09437">
        <ele>512.59997558594</ele>
        <time>2021-10-07T08:53:20.000Z</time>
      </trkpt>
      <trkpt lat="43.12825" lon="0.09434">
        <ele>512.79998779297</ele>
        <time>2021-10-07T08:53:21.000Z</time>
      </trkpt>
      <trkpt lat="43.12823" lon="0.09432">
        <ele>512.79998779297</ele>
        <time>2021-10-07T08:53:22.000Z</time>
      </trkpt>
      <trkpt lat="43.12822" lon="0.09428">
        <ele>513.20001220703</ele>
        <time>2021-10-07T08:53:24.000Z</time>
      </trkpt>
      <trkpt lat="43.12818" lon="0.09416">
        <ele>514</ele>
        <time>2021-10-07T08:53:28.000Z</time>
      </trkpt>
      <trkpt lat="43.12809" lon="0.09398">
        <ele>515</ele>
        <time>2021-10-07T08:53:33.000Z</time>
      </trkpt>
      <trkpt lat="43.12807" lon="0.09395">
        <ele>515.20001220703</ele>
        <time>2021-10-07T08:53:34.000Z</time>
      </trkpt>
      <trkpt lat="43.12801" lon="0.09379">
        <ele>515.59997558594</ele>
        <time>2021-10-07T08:53:38.000Z</time>
      </trkpt>
      <trkpt lat="43.128" lon="0.09369">
        <ele>516.20001220703</ele>
        <time>2021-10-07T08:53:41.000Z</time>
      </trkpt>
      <trkpt lat="43.12799" lon="0.09364">
        <ele>516.40002441406</ele>
        <time>2021-10-07T08:53:43.000Z</time>
      </trkpt>
      <trkpt lat="43.12797" lon="0.09359">
        <ele>517.40002441406</ele>
        <time>2021-10-07T08:53:49.000Z</time>
      </trkpt>
      <trkpt lat="43.12797" lon="0.09356">
        <ele>517.40002441406</ele>
        <time>2021-10-07T08:54:10.000Z</time>
      </trkpt>
      <trkpt lat="43.12797" lon="0.09354">
        <ele>517.40002441406</ele>
        <time>2021-10-07T08:54:11.000Z</time>
      </trkpt>
      <trkpt lat="43.12797" lon="0.09352">
        <ele>517.59997558594</ele>
        <time>2021-10-07T08:54:12.000Z</time>
      </trkpt>
      <trkpt lat="43.12796" lon="0.09348">
        <ele>517.59997558594</ele>
        <time>2021-10-07T08:54:14.000Z</time>
      </trkpt>
      <trkpt lat="43.12795" lon="0.09342">
        <ele>517.59997558594</ele>
        <time>2021-10-07T08:54:16.000Z</time>
      </trkpt>
      <trkpt lat="43.12792" lon="0.09326">
        <ele>518.40002441406</ele>
        <time>2021-10-07T08:54:22.000Z</time>
      </trkpt>
      <trkpt lat="43.12791" lon="0.09319">
        <ele>519</ele>
        <time>2021-10-07T08:54:24.000Z</time>
      </trkpt>
      <trkpt lat="43.12792" lon="0.09313">
        <ele>519.40002441406</ele>
        <time>2021-10-07T08:54:26.000Z</time>
      </trkpt>
      <trkpt lat="43.12791" lon="0.09297">
        <ele>520.59997558594</ele>
        <time>2021-10-07T08:54:30.000Z</time>
      </trkpt>
      <trkpt lat="43.12791" lon="0.09293">
        <ele>520.79998779297</ele>
        <time>2021-10-07T08:54:31.000Z</time>
      </trkpt>
      <trkpt lat="43.12791" lon="0.09276">
        <ele>521.79998779297</ele>
        <time>2021-10-07T08:54:35.000Z</time>
      </trkpt>
      <trkpt lat="43.1279" lon="0.09258">
        <ele>522.59997558594</ele>
        <time>2021-10-07T08:54:39.000Z</time>
      </trkpt>
      <trkpt lat="43.12791" lon="0.0925">
        <ele>522.79998779297</ele>
        <time>2021-10-07T08:54:41.000Z</time>
      </trkpt>
      <trkpt lat="43.12792" lon="0.09238">
        <ele>524</ele>
        <time>2021-10-07T08:54:44.000Z</time>
      </trkpt>
      <trkpt lat="43.12791" lon="0.09223">
        <ele>524.79998779297</ele>
        <time>2021-10-07T08:54:48.000Z</time>
      </trkpt>
      <trkpt lat="43.12791" lon="0.09219">
        <ele>525.20001220703</ele>
        <time>2021-10-07T08:54:49.000Z</time>
      </trkpt>
      <trkpt lat="43.12791" lon="0.09204">
        <ele>526.40002441406</ele>
        <time>2021-10-07T08:54:53.000Z</time>
      </trkpt>
      <trkpt lat="43.12791" lon="0.09192">
        <ele>527.20001220703</ele>
        <time>2021-10-07T08:54:56.000Z</time>
      </trkpt>
      <trkpt lat="43.1279" lon="0.09184">
        <ele>527.59997558594</ele>
        <time>2021-10-07T08:54:58.000Z</time>
      </trkpt>
      <trkpt lat="43.12791" lon="0.09168">
        <ele>528.40002441406</ele>
        <time>2021-10-07T08:55:02.000Z</time>
      </trkpt>
      <trkpt lat="43.12791" lon="0.0916">
        <ele>528.79998779297</ele>
        <time>2021-10-07T08:55:04.000Z</time>
      </trkpt>
      <trkpt lat="43.12791" lon="0.09131">
        <ele>530</ele>
        <time>2021-10-07T08:55:11.000Z</time>
      </trkpt>
      <trkpt lat="43.12791" lon="0.09119">
        <ele>530.40002441406</ele>
        <time>2021-10-07T08:55:14.000Z</time>
      </trkpt>
      <trkpt lat="43.12791" lon="0.09107">
        <ele>531</ele>
        <time>2021-10-07T08:55:17.000Z</time>
      </trkpt>
      <trkpt lat="43.12791" lon="0.09078">
        <ele>532</ele>
        <time>2021-10-07T08:55:24.000Z</time>
      </trkpt>
      <trkpt lat="43.12791" lon="0.09073">
        <ele>532.20001220703</ele>
        <time>2021-10-07T08:55:25.000Z</time>
      </trkpt>
      <trkpt lat="43.12791" lon="0.09048">
        <ele>533.20001220703</ele>
        <time>2021-10-07T08:55:31.000Z</time>
      </trkpt>
      <trkpt lat="43.12789" lon="0.09028">
        <ele>534.20001220703</ele>
        <time>2021-10-07T08:55:37.000Z</time>
      </trkpt>
      <trkpt lat="43.12788" lon="0.09025">
        <ele>534.79998779297</ele>
        <time>2021-10-07T08:55:38.000Z</time>
      </trkpt>
      <trkpt lat="43.12788" lon="0.09017">
        <ele>535.59997558594</ele>
        <time>2021-10-07T08:55:41.000Z</time>
      </trkpt>
      <trkpt lat="43.12788" lon="0.09013">
        <ele>535.79998779297</ele>
        <time>2021-10-07T08:55:42.000Z</time>
      </trkpt>
      <trkpt lat="43.12787" lon="0.09011">
        <ele>536</ele>
        <time>2021-10-07T08:55:43.000Z</time>
      </trkpt>
      <trkpt lat="43.12786" lon="0.08994">
        <ele>537.20001220703</ele>
        <time>2021-10-07T08:55:49.000Z</time>
      </trkpt>
      <trkpt lat="43.12785" lon="0.0899">
        <ele>537.79998779297</ele>
        <time>2021-10-07T08:55:51.000Z</time>
      </trkpt>
      <trkpt lat="43.12785" lon="0.08987">
        <ele>538.40002441406</ele>
        <time>2021-10-07T08:55:52.000Z</time>
      </trkpt>
      <trkpt lat="43.12784" lon="0.08984">
        <ele>538.40002441406</ele>
        <time>2021-10-07T08:55:53.000Z</time>
      </trkpt>
      <trkpt lat="43.12782" lon="0.08968">
        <ele>539.40002441406</ele>
        <time>2021-10-07T08:55:58.000Z</time>
      </trkpt>
      <trkpt lat="43.12782" lon="0.08956">
        <ele>539.79998779297</ele>
        <time>2021-10-07T08:56:01.000Z</time>
      </trkpt>
      <trkpt lat="43.12782" lon="0.0895">
        <ele>540.59997558594</ele>
        <time>2021-10-07T08:56:03.000Z</time>
      </trkpt>
      <trkpt lat="43.12782" lon="0.08937">
        <ele>541.79998779297</ele>
        <time>2021-10-07T08:56:07.000Z</time>
      </trkpt>
      <trkpt lat="43.12782" lon="0.08931">
        <ele>542.40002441406</ele>
        <time>2021-10-07T08:56:09.000Z</time>
      </trkpt>
      <trkpt lat="43.12782" lon="0.08926">
        <ele>542.79998779297</ele>
        <time>2021-10-07T08:56:11.000Z</time>
      </trkpt>
      <trkpt lat="43.1278" lon="0.08913">
        <ele>544</ele>
        <time>2021-10-07T08:56:15.000Z</time>
      </trkpt>
      <trkpt lat="43.1278" lon="0.08883">
        <ele>545.40002441406</ele>
        <time>2021-10-07T08:56:22.000Z</time>
      </trkpt>
      <trkpt lat="43.12781" lon="0.0888">
        <ele>545.40002441406</ele>
        <time>2021-10-07T08:56:23.000Z</time>
      </trkpt>
      <trkpt lat="43.12779" lon="0.08865">
        <ele>546.40002441406</ele>
        <time>2021-10-07T08:56:27.000Z</time>
      </trkpt>
      <trkpt lat="43.12779" lon="0.08853">
        <ele>547</ele>
        <time>2021-10-07T08:56:31.000Z</time>
      </trkpt>
      <trkpt lat="43.12779" lon="0.08846">
        <ele>547.79998779297</ele>
        <time>2021-10-07T08:56:34.000Z</time>
      </trkpt>
      <trkpt lat="43.12777" lon="0.08834">
        <ele>548.59997558594</ele>
        <time>2021-10-07T08:56:39.000Z</time>
      </trkpt>
      <trkpt lat="43.12777" lon="0.08832">
        <ele>549</ele>
        <time>2021-10-07T08:56:40.000Z</time>
      </trkpt>
      <trkpt lat="43.12776" lon="0.08822">
        <ele>549.79998779297</ele>
        <time>2021-10-07T08:56:44.000Z</time>
      </trkpt>
      <trkpt lat="43.12776" lon="0.0882">
        <ele>550.40002441406</ele>
        <time>2021-10-07T08:56:45.000Z</time>
      </trkpt>
      <trkpt lat="43.12773" lon="0.08809">
        <ele>551</ele>
        <time>2021-10-07T08:56:49.000Z</time>
      </trkpt>
      <trkpt lat="43.12772" lon="0.08806">
        <ele>551.40002441406</ele>
        <time>2021-10-07T08:56:50.000Z</time>
      </trkpt>
      <trkpt lat="43.12771" lon="0.08803">
        <ele>551.59997558594</ele>
        <time>2021-10-07T08:56:51.000Z</time>
      </trkpt>
      <trkpt lat="43.12766" lon="0.08796">
        <ele>552.79998779297</ele>
        <time>2021-10-07T08:56:54.000Z</time>
      </trkpt>
      <trkpt lat="43.12764" lon="0.08793">
        <ele>553</ele>
        <time>2021-10-07T08:56:55.000Z</time>
      </trkpt>
      <trkpt lat="43.12758" lon="0.08791">
        <ele>553.79998779297</ele>
        <time>2021-10-07T08:56:57.000Z</time>
      </trkpt>
      <trkpt lat="43.12747" lon="0.08793">
        <ele>554.79998779297</ele>
        <time>2021-10-07T08:57:01.000Z</time>
      </trkpt>
      <trkpt lat="43.1274" lon="0.08797">
        <ele>555.79998779297</ele>
        <time>2021-10-07T08:57:04.000Z</time>
      </trkpt>
      <trkpt lat="43.12729" lon="0.08802">
        <ele>556.59997558594</ele>
        <time>2021-10-07T08:57:08.000Z</time>
      </trkpt>
      <trkpt lat="43.12727" lon="0.08802">
        <ele>557</ele>
        <time>2021-10-07T08:57:09.000Z</time>
      </trkpt>
      <trkpt lat="43.12717" lon="0.08802">
        <ele>558.40002441406</ele>
        <time>2021-10-07T08:57:13.000Z</time>
      </trkpt>
      <trkpt lat="43.12715" lon="0.08801">
        <ele>558.40002441406</ele>
        <time>2021-10-07T08:57:14.000Z</time>
      </trkpt>
      <trkpt lat="43.12703" lon="0.0879">
        <ele>559.20001220703</ele>
        <time>2021-10-07T08:57:20.000Z</time>
      </trkpt>
      <trkpt lat="43.12699" lon="0.08787">
        <ele>559.40002441406</ele>
        <time>2021-10-07T08:57:22.000Z</time>
      </trkpt>
      <trkpt lat="43.12688" lon="0.08775">
        <ele>560</ele>
        <time>2021-10-07T08:57:26.000Z</time>
      </trkpt>
      <trkpt lat="43.12671" lon="0.08754">
        <ele>560.20001220703</ele>
        <time>2021-10-07T08:57:31.000Z</time>
      </trkpt>
      <trkpt lat="43.12667" lon="0.0875">
        <ele>560</ele>
        <time>2021-10-07T08:57:32.000Z</time>
      </trkpt>
      <trkpt lat="43.12658" lon="0.08739">
        <ele>560</ele>
        <time>2021-10-07T08:57:35.000Z</time>
      </trkpt>
      <trkpt lat="43.12654" lon="0.0873">
        <ele>559.59997558594</ele>
        <time>2021-10-07T08:57:37.000Z</time>
      </trkpt>
      <trkpt lat="43.12652" lon="0.08726">
        <ele>559.59997558594</ele>
        <time>2021-10-07T08:57:38.000Z</time>
      </trkpt>
      <trkpt lat="43.12645" lon="0.08706">
        <ele>559.59997558594</ele>
        <time>2021-10-07T08:57:43.000Z</time>
      </trkpt>
      <trkpt lat="43.12638" lon="0.08666">
        <ele>560.20001220703</ele>
        <time>2021-10-07T08:57:51.000Z</time>
      </trkpt>
      <trkpt lat="43.12627" lon="0.08637">
        <ele>560.20001220703</ele>
        <time>2021-10-07T08:57:57.000Z</time>
      </trkpt>
      <trkpt lat="43.12624" lon="0.08632">
        <ele>560</ele>
        <time>2021-10-07T08:57:58.000Z</time>
      </trkpt>
      <trkpt lat="43.12616" lon="0.08622">
        <ele>559.79998779297</ele>
        <time>2021-10-07T08:58:00.000Z</time>
      </trkpt>
      <trkpt lat="43.12611" lon="0.08619">
        <ele>559.79998779297</ele>
        <time>2021-10-07T08:58:01.000Z</time>
      </trkpt>
      <trkpt lat="43.12605" lon="0.08617">
        <ele>558.59997558594</ele>
        <time>2021-10-07T08:58:04.000Z</time>
      </trkpt>
      <trkpt lat="43.12605" lon="0.08617">
        <ele>558.20001220703</ele>
        <time>2021-10-07T08:58:05.000Z</time>
      </trkpt>
      <trkpt lat="43.12603" lon="0.08616">
        <ele>557.40002441406</ele>
        <time>2021-10-07T08:58:10.000Z</time>
      </trkpt>
      <trkpt lat="43.126" lon="0.08616">
        <ele>557.40002441406</ele>
        <time>2021-10-07T08:58:11.000Z</time>
      </trkpt>
      <trkpt lat="43.12595" lon="0.08614">
        <ele>557.20001220703</ele>
        <time>2021-10-07T08:58:13.000Z</time>
      </trkpt>
      <trkpt lat="43.12592" lon="0.08613">
        <ele>557.20001220703</ele>
        <time>2021-10-07T08:58:14.000Z</time>
      </trkpt>
      <trkpt lat="43.12576" lon="0.0861">
        <ele>556.59997558594</ele>
        <time>2021-10-07T08:58:18.000Z</time>
      </trkpt>
      <trkpt lat="43.12562" lon="0.08612">
        <ele>556</ele>
        <time>2021-10-07T08:58:21.000Z</time>
      </trkpt>
      <trkpt lat="43.12553" lon="0.08616">
        <ele>555.59997558594</ele>
        <time>2021-10-07T08:58:23.000Z</time>
      </trkpt>
      <trkpt lat="43.12548" lon="0.08619">
        <ele>555.40002441406</ele>
        <time>2021-10-07T08:58:24.000Z</time>
      </trkpt>
      <trkpt lat="43.12535" lon="0.08631">
        <ele>555</ele>
        <time>2021-10-07T08:58:28.000Z</time>
      </trkpt>
      <trkpt lat="43.12532" lon="0.08634">
        <ele>555</ele>
        <time>2021-10-07T08:58:29.000Z</time>
      </trkpt>
      <trkpt lat="43.12517" lon="0.08641">
        <ele>554.79998779297</ele>
        <time>2021-10-07T08:58:33.000Z</time>
      </trkpt>
      <trkpt lat="43.1249" lon="0.08645">
        <ele>556</ele>
        <time>2021-10-07T08:58:40.000Z</time>
      </trkpt>
      <trkpt lat="43.12468" lon="0.08664">
        <ele>557.20001220703</ele>
        <time>2021-10-07T08:58:47.000Z</time>
      </trkpt>
      <trkpt lat="43.12445" lon="0.0869">
        <ele>557.79998779297</ele>
        <time>2021-10-07T08:58:55.000Z</time>
      </trkpt>
      <trkpt lat="43.1243" lon="0.08704">
        <ele>558.20001220703</ele>
        <time>2021-10-07T08:59:00.000Z</time>
      </trkpt>
      <trkpt lat="43.12423" lon="0.08708">
        <ele>558.59997558594</ele>
        <time>2021-10-07T08:59:02.000Z</time>
      </trkpt>
      <trkpt lat="43.12409" lon="0.08711">
        <ele>559.20001220703</ele>
        <time>2021-10-07T08:59:07.000Z</time>
      </trkpt>
      <trkpt lat="43.12406" lon="0.08712">
        <ele>559.79998779297</ele>
        <time>2021-10-07T08:59:08.000Z</time>
      </trkpt>
      <trkpt lat="43.12396" lon="0.08709">
        <ele>560.59997558594</ele>
        <time>2021-10-07T08:59:12.000Z</time>
      </trkpt>
      <trkpt lat="43.12394" lon="0.08708">
        <ele>561</ele>
        <time>2021-10-07T08:59:13.000Z</time>
      </trkpt>
      <trkpt lat="43.12387" lon="0.08702">
        <ele>561.59997558594</ele>
        <time>2021-10-07T08:59:16.000Z</time>
      </trkpt>
      <trkpt lat="43.12385" lon="0.087">
        <ele>562</ele>
        <time>2021-10-07T08:59:17.000Z</time>
      </trkpt>
      <trkpt lat="43.12378" lon="0.0869">
        <ele>562.79998779297</ele>
        <time>2021-10-07T08:59:21.000Z</time>
      </trkpt>
      <trkpt lat="43.12375" lon="0.08685">
        <ele>563.40002441406</ele>
        <time>2021-10-07T08:59:23.000Z</time>
      </trkpt>
      <trkpt lat="43.12372" lon="0.08681">
        <ele>564</ele>
        <time>2021-10-07T08:59:25.000Z</time>
      </trkpt>
      <trkpt lat="43.1237" lon="0.08679">
        <ele>564.59997558594</ele>
        <time>2021-10-07T08:59:26.000Z</time>
      </trkpt>
      <trkpt lat="43.12355" lon="0.08669">
        <ele>565.59997558594</ele>
        <time>2021-10-07T08:59:32.000Z</time>
      </trkpt>
      <trkpt lat="43.12338" lon="0.08668">
        <ele>566.79998779297</ele>
        <time>2021-10-07T08:59:38.000Z</time>
      </trkpt>
      <trkpt lat="43.12333" lon="0.08667">
        <ele>567.40002441406</ele>
        <time>2021-10-07T08:59:40.000Z</time>
      </trkpt>
      <trkpt lat="43.12329" lon="0.08669">
        <ele>567.79998779297</ele>
        <time>2021-10-07T08:59:42.000Z</time>
      </trkpt>
      <trkpt lat="43.12321" lon="0.08669">
        <ele>569</ele>
        <time>2021-10-07T08:59:45.000Z</time>
      </trkpt>
      <trkpt lat="43.12319" lon="0.08669">
        <ele>569.40002441406</ele>
        <time>2021-10-07T08:59:46.000Z</time>
      </trkpt>
      <trkpt lat="43.12309" lon="0.08671">
        <ele>570.20001220703</ele>
        <time>2021-10-07T08:59:49.000Z</time>
      </trkpt>
      <trkpt lat="43.12299" lon="0.08676">
        <ele>570.59997558594</ele>
        <time>2021-10-07T08:59:52.000Z</time>
      </trkpt>
      <trkpt lat="43.12291" lon="0.0868">
        <ele>570.79998779297</ele>
        <time>2021-10-07T08:59:55.000Z</time>
      </trkpt>
      <trkpt lat="43.1229" lon="0.08683">
        <ele>571</ele>
        <time>2021-10-07T08:59:56.000Z</time>
      </trkpt>
      <trkpt lat="43.12284" lon="0.08692">
        <ele>571</ele>
        <time>2021-10-07T08:59:59.000Z</time>
      </trkpt>
      <trkpt lat="43.12277" lon="0.08707">
        <ele>571.20001220703</ele>
        <time>2021-10-07T09:00:03.000Z</time>
      </trkpt>
      <trkpt lat="43.12276" lon="0.0871">
        <ele>571.40002441406</ele>
        <time>2021-10-07T09:00:04.000Z</time>
      </trkpt>
      <trkpt lat="43.12275" lon="0.08714">
        <ele>571.40002441406</ele>
        <time>2021-10-07T09:00:05.000Z</time>
      </trkpt>
      <trkpt lat="43.12265" lon="0.08733">
        <ele>572.20001220703</ele>
        <time>2021-10-07T09:00:11.000Z</time>
      </trkpt>
      <trkpt lat="43.12262" lon="0.08736">
        <ele>572.40002441406</ele>
        <time>2021-10-07T09:00:12.000Z</time>
      </trkpt>
      <trkpt lat="43.1226" lon="0.08739">
        <ele>572.59997558594</ele>
        <time>2021-10-07T09:00:13.000Z</time>
      </trkpt>
      <trkpt lat="43.1225" lon="0.08751">
        <ele>573.40002441406</ele>
        <time>2021-10-07T09:00:17.000Z</time>
      </trkpt>
      <trkpt lat="43.12235" lon="0.08755">
        <ele>574.59997558594</ele>
        <time>2021-10-07T09:00:22.000Z</time>
      </trkpt>
      <trkpt lat="43.12212" lon="0.08752">
        <ele>575.79998779297</ele>
        <time>2021-10-07T09:00:27.000Z</time>
      </trkpt>
      <trkpt lat="43.12206" lon="0.08752">
        <ele>576</ele>
        <time>2021-10-07T09:00:29.000Z</time>
      </trkpt>
      <trkpt lat="43.122" lon="0.08755">
        <ele>576.20001220703</ele>
        <time>2021-10-07T09:00:31.000Z</time>
      </trkpt>
      <trkpt lat="43.12197" lon="0.08758">
        <ele>576.40002441406</ele>
        <time>2021-10-07T09:00:34.000Z</time>
      </trkpt>
      <trkpt lat="43.12194" lon="0.08761">
        <ele>576.40002441406</ele>
        <time>2021-10-07T09:00:40.000Z</time>
      </trkpt>
      <trkpt lat="43.12194" lon="0.0876">
        <ele>576.79998779297</ele>
        <time>2021-10-07T09:00:50.000Z</time>
      </trkpt>
      <trkpt lat="43.12194" lon="0.0876">
        <ele>576.79998779297</ele>
        <time>2021-10-07T09:00:51.000Z</time>
      </trkpt>
      <trkpt lat="43.12194" lon="0.0876">
        <ele>575.79998779297</ele>
        <time>2021-10-07T09:01:05.000Z</time>
      </trkpt>
      <trkpt lat="43.12194" lon="0.08761">
        <ele>576.59997558594</ele>
        <time>2021-10-07T09:01:45.000Z</time>
      </trkpt>
      <trkpt lat="43.12192" lon="0.08767">
        <ele>576.79998779297</ele>
        <time>2021-10-07T09:01:54.000Z</time>
      </trkpt>
      <trkpt lat="43.12191" lon="0.08768">
        <ele>577</ele>
        <time>2021-10-07T09:01:59.000Z</time>
      </trkpt>
      <trkpt lat="43.12191" lon="0.08768">
        <ele>577.20001220703</ele>
        <time>2021-10-07T09:02:04.000Z</time>
      </trkpt>
      <trkpt lat="43.12188" lon="0.08777">
        <ele>577.40002441406</ele>
        <time>2021-10-07T09:02:07.000Z</time>
      </trkpt>
      <trkpt lat="43.12181" lon="0.08794">
        <ele>577.79998779297</ele>
        <time>2021-10-07T09:02:12.000Z</time>
      </trkpt>
      <trkpt lat="43.1218" lon="0.08797">
        <ele>578</ele>
        <time>2021-10-07T09:02:13.000Z</time>
      </trkpt>
      <trkpt lat="43.12178" lon="0.08803">
        <ele>578.59997558594</ele>
        <time>2021-10-07T09:02:15.000Z</time>
      </trkpt>
      <trkpt lat="43.12177" lon="0.08806">
        <ele>579</ele>
        <time>2021-10-07T09:02:16.000Z</time>
      </trkpt>
      <trkpt lat="43.12173" lon="0.08816">
        <ele>580</ele>
        <time>2021-10-07T09:02:20.000Z</time>
      </trkpt>
      <trkpt lat="43.12171" lon="0.08821">
        <ele>580.40002441406</ele>
        <time>2021-10-07T09:02:22.000Z</time>
      </trkpt>
      <trkpt lat="43.12167" lon="0.08829">
        <ele>581.20001220703</ele>
        <time>2021-10-07T09:02:25.000Z</time>
      </trkpt>
      <trkpt lat="43.12164" lon="0.08836">
        <ele>582.20001220703</ele>
        <time>2021-10-07T09:02:28.000Z</time>
      </trkpt>
      <trkpt lat="43.12157" lon="0.08844">
        <ele>583</ele>
        <time>2021-10-07T09:02:32.000Z</time>
      </trkpt>
      <trkpt lat="43.12156" lon="0.08844">
        <ele>583.59997558594</ele>
        <time>2021-10-07T09:02:33.000Z</time>
      </trkpt>
      <trkpt lat="43.12152" lon="0.08846">
        <ele>584.79998779297</ele>
        <time>2021-10-07T09:02:37.000Z</time>
      </trkpt>
      <trkpt lat="43.12148" lon="0.08844">
        <ele>586</ele>
        <time>2021-10-07T09:02:40.000Z</time>
      </trkpt>
      <trkpt lat="43.12143" lon="0.08842">
        <ele>586.20001220703</ele>
        <time>2021-10-07T09:02:43.000Z</time>
      </trkpt>
      <trkpt lat="43.12137" lon="0.08841">
        <ele>587</ele>
        <time>2021-10-07T09:02:50.000Z</time>
      </trkpt>
      <trkpt lat="43.12136" lon="0.08841">
        <ele>587</ele>
        <time>2021-10-07T09:02:51.000Z</time>
      </trkpt>
      <trkpt lat="43.12127" lon="0.08838">
        <ele>587.59997558594</ele>
        <time>2021-10-07T09:02:57.000Z</time>
      </trkpt>
      <trkpt lat="43.12118" lon="0.08833">
        <ele>588.20001220703</ele>
        <time>2021-10-07T09:03:03.000Z</time>
      </trkpt>
      <trkpt lat="43.12114" lon="0.08829">
        <ele>588.40002441406</ele>
        <time>2021-10-07T09:03:05.000Z</time>
      </trkpt>
      <trkpt lat="43.12105" lon="0.08817">
        <ele>588.40002441406</ele>
        <time>2021-10-07T09:03:13.000Z</time>
      </trkpt>
      <trkpt lat="43.12102" lon="0.08813">
        <ele>588</ele>
        <time>2021-10-07T09:03:19.000Z</time>
      </trkpt>
      <trkpt lat="43.12102" lon="0.08813">
        <ele>587.79998779297</ele>
        <time>2021-10-07T09:03:35.000Z</time>
      </trkpt>
      <trkpt lat="43.12102" lon="0.08813">
        <ele>587.79998779297</ele>
        <time>2021-10-07T09:03:42.000Z</time>
      </trkpt>
      <trkpt lat="43.12099" lon="0.08803">
        <ele>587.79998779297</ele>
        <time>2021-10-07T09:03:45.000Z</time>
      </trkpt>
      <trkpt lat="43.12092" lon="0.08779">
        <ele>587.59997558594</ele>
        <time>2021-10-07T09:03:49.000Z</time>
      </trkpt>
      <trkpt lat="43.12085" lon="0.08759">
        <ele>587.20001220703</ele>
        <time>2021-10-07T09:03:52.000Z</time>
      </trkpt>
      <trkpt lat="43.12081" lon="0.08746">
        <ele>586.59997558594</ele>
        <time>2021-10-07T09:03:54.000Z</time>
      </trkpt>
      <trkpt lat="43.12074" lon="0.08734">
        <ele>586</ele>
        <time>2021-10-07T09:03:56.000Z</time>
      </trkpt>
      <trkpt lat="43.12065" lon="0.08726">
        <ele>585</ele>
        <time>2021-10-07T09:03:58.000Z</time>
      </trkpt>
      <trkpt lat="43.12059" lon="0.08723">
        <ele>584.79998779297</ele>
        <time>2021-10-07T09:03:59.000Z</time>
      </trkpt>
      <trkpt lat="43.12054" lon="0.08721">
        <ele>584.59997558594</ele>
        <time>2021-10-07T09:04:00.000Z</time>
      </trkpt>
      <trkpt lat="43.12041" lon="0.08717">
        <ele>584.20001220703</ele>
        <time>2021-10-07T09:04:03.000Z</time>
      </trkpt>
      <trkpt lat="43.12034" lon="0.08715">
        <ele>583.79998779297</ele>
        <time>2021-10-07T09:04:06.000Z</time>
      </trkpt>
      <trkpt lat="43.12032" lon="0.08714">
        <ele>583.59997558594</ele>
        <time>2021-10-07T09:04:07.000Z</time>
      </trkpt>
      <trkpt lat="43.12025" lon="0.08711">
        <ele>583.20001220703</ele>
        <time>2021-10-07T09:04:12.000Z</time>
      </trkpt>
      <trkpt lat="43.12017" lon="0.08707">
        <ele>582.59997558594</ele>
        <time>2021-10-07T09:04:17.000Z</time>
      </trkpt>
      <trkpt lat="43.12015" lon="0.08706">
        <ele>582.40002441406</ele>
        <time>2021-10-07T09:04:18.000Z</time>
      </trkpt>
      <trkpt lat="43.12001" lon="0.08693">
        <ele>582</ele>
        <time>2021-10-07T09:04:22.000Z</time>
      </trkpt>
      <trkpt lat="43.11994" lon="0.08685">
        <ele>581.59997558594</ele>
        <time>2021-10-07T09:04:24.000Z</time>
      </trkpt>
      <trkpt lat="43.11984" lon="0.08672">
        <ele>580</ele>
        <time>2021-10-07T09:04:27.000Z</time>
      </trkpt>
      <trkpt lat="43.1198" lon="0.08667">
        <ele>579.59997558594</ele>
        <time>2021-10-07T09:04:28.000Z</time>
      </trkpt>
      <trkpt lat="43.11972" lon="0.08657">
        <ele>579</ele>
        <time>2021-10-07T09:04:30.000Z</time>
      </trkpt>
      <trkpt lat="43.11965" lon="0.08648">
        <ele>577.40002441406</ele>
        <time>2021-10-07T09:04:32.000Z</time>
      </trkpt>
      <trkpt lat="43.11956" lon="0.08637">
        <ele>576.20001220703</ele>
        <time>2021-10-07T09:04:34.000Z</time>
      </trkpt>
      <trkpt lat="43.11948" lon="0.08628">
        <ele>574.59997558594</ele>
        <time>2021-10-07T09:04:36.000Z</time>
      </trkpt>
      <trkpt lat="43.11933" lon="0.0861">
        <ele>573.20001220703</ele>
        <time>2021-10-07T09:04:40.000Z</time>
      </trkpt>
      <trkpt lat="43.11929" lon="0.08607">
        <ele>572.20001220703</ele>
        <time>2021-10-07T09:04:41.000Z</time>
      </trkpt>
      <trkpt lat="43.11919" lon="0.08599">
        <ele>570.59997558594</ele>
        <time>2021-10-07T09:04:43.000Z</time>
      </trkpt>
      <trkpt lat="43.11913" lon="0.08596">
        <ele>570</ele>
        <time>2021-10-07T09:04:44.000Z</time>
      </trkpt>
      <trkpt lat="43.11907" lon="0.08592">
        <ele>569.20001220703</ele>
        <time>2021-10-07T09:04:45.000Z</time>
      </trkpt>
      <trkpt lat="43.11894" lon="0.08585">
        <ele>568.20001220703</ele>
        <time>2021-10-07T09:04:47.000Z</time>
      </trkpt>
      <trkpt lat="43.11887" lon="0.0858">
        <ele>566.79998779297</ele>
        <time>2021-10-07T09:04:48.000Z</time>
      </trkpt>
      <trkpt lat="43.11874" lon="0.08572">
        <ele>565.20001220703</ele>
        <time>2021-10-07T09:04:50.000Z</time>
      </trkpt>
      <trkpt lat="43.1186" lon="0.08564">
        <ele>563</ele>
        <time>2021-10-07T09:04:52.000Z</time>
      </trkpt>
      <trkpt lat="43.11847" lon="0.08554">
        <ele>560.79998779297</ele>
        <time>2021-10-07T09:04:54.000Z</time>
      </trkpt>
      <trkpt lat="43.11841" lon="0.08549">
        <ele>559.40002441406</ele>
        <time>2021-10-07T09:04:55.000Z</time>
      </trkpt>
      <trkpt lat="43.11836" lon="0.08544">
        <ele>558.79998779297</ele>
        <time>2021-10-07T09:04:56.000Z</time>
      </trkpt>
      <trkpt lat="43.1183" lon="0.08539">
        <ele>557.79998779297</ele>
        <time>2021-10-07T09:04:57.000Z</time>
      </trkpt>
      <trkpt lat="43.11819" lon="0.0853">
        <ele>556.59997558594</ele>
        <time>2021-10-07T09:04:59.000Z</time>
      </trkpt>
      <trkpt lat="43.11809" lon="0.08521">
        <ele>555</ele>
        <time>2021-10-07T09:05:01.000Z</time>
      </trkpt>
      <trkpt lat="43.11797" lon="0.08509">
        <ele>554.20001220703</ele>
        <time>2021-10-07T09:05:05.000Z</time>
      </trkpt>
      <trkpt lat="43.11794" lon="0.08495">
        <ele>554</ele>
        <time>2021-10-07T09:05:08.000Z</time>
      </trkpt>
      <trkpt lat="43.11802" lon="0.0846">
        <ele>553.40002441406</ele>
        <time>2021-10-07T09:05:13.000Z</time>
      </trkpt>
      <trkpt lat="43.11808" lon="0.08433">
        <ele>552.79998779297</ele>
        <time>2021-10-07T09:05:16.000Z</time>
      </trkpt>
      <trkpt lat="43.11812" lon="0.08413">
        <ele>552</ele>
        <time>2021-10-07T09:05:18.000Z</time>
      </trkpt>
      <trkpt lat="43.11814" lon="0.08404">
        <ele>551.79998779297</ele>
        <time>2021-10-07T09:05:19.000Z</time>
      </trkpt>
      <trkpt lat="43.11815" lon="0.08397">
        <ele>551.40002441406</ele>
        <time>2021-10-07T09:05:20.000Z</time>
      </trkpt>
      <trkpt lat="43.11816" lon="0.0839">
        <ele>551</ele>
        <time>2021-10-07T09:05:21.000Z</time>
      </trkpt>
      <trkpt lat="43.11815" lon="0.08387">
        <ele>550.40002441406</ele>
        <time>2021-10-07T09:05:22.000Z</time>
      </trkpt>
      <trkpt lat="43.11812" lon="0.08385">
        <ele>550</ele>
        <time>2021-10-07T09:05:23.000Z</time>
      </trkpt>
      <trkpt lat="43.11803" lon="0.08385">
        <ele>549.20001220703</ele>
        <time>2021-10-07T09:05:25.000Z</time>
      </trkpt>
      <trkpt lat="43.11793" lon="0.08387">
        <ele>548.40002441406</ele>
        <time>2021-10-07T09:05:27.000Z</time>
      </trkpt>
      <trkpt lat="43.11788" lon="0.08387">
        <ele>548.20001220703</ele>
        <time>2021-10-07T09:05:28.000Z</time>
      </trkpt>
      <trkpt lat="43.11773" lon="0.08385">
        <ele>547.20001220703</ele>
        <time>2021-10-07T09:05:31.000Z</time>
      </trkpt>
      <trkpt lat="43.11764" lon="0.08383">
        <ele>547</ele>
        <time>2021-10-07T09:05:33.000Z</time>
      </trkpt>
      <trkpt lat="43.11752" lon="0.08378">
        <ele>547.20001220703</ele>
        <time>2021-10-07T09:05:36.000Z</time>
      </trkpt>
      <trkpt lat="43.11748" lon="0.08377">
        <ele>547.59997558594</ele>
        <time>2021-10-07T09:05:37.000Z</time>
      </trkpt>
      <trkpt lat="43.1174" lon="0.08374">
        <ele>548.20001220703</ele>
        <time>2021-10-07T09:05:39.000Z</time>
      </trkpt>
      <trkpt lat="43.11736" lon="0.08372">
        <ele>548.40002441406</ele>
        <time>2021-10-07T09:05:40.000Z</time>
      </trkpt>
      <trkpt lat="43.11714" lon="0.08366">
        <ele>549.40002441406</ele>
        <time>2021-10-07T09:05:45.000Z</time>
      </trkpt>
      <trkpt lat="43.11696" lon="0.08359">
        <ele>550</ele>
        <time>2021-10-07T09:05:49.000Z</time>
      </trkpt>
      <trkpt lat="43.11686" lon="0.08356">
        <ele>550.40002441406</ele>
        <time>2021-10-07T09:05:51.000Z</time>
      </trkpt>
      <trkpt lat="43.11649" lon="0.08343">
        <ele>550.40002441406</ele>
        <time>2021-10-07T09:05:59.000Z</time>
      </trkpt>
      <trkpt lat="43.11618" lon="0.08331">
        <ele>550.79998779297</ele>
        <time>2021-10-07T09:06:06.000Z</time>
      </trkpt>
      <trkpt lat="43.11603" lon="0.08326">
        <ele>551.40002441406</ele>
        <time>2021-10-07T09:06:10.000Z</time>
      </trkpt>
      <trkpt lat="43.11589" lon="0.08322">
        <ele>552.79998779297</ele>
        <time>2021-10-07T09:06:14.000Z</time>
      </trkpt>
      <trkpt lat="43.11586" lon="0.08321">
        <ele>553.20001220703</ele>
        <time>2021-10-07T09:06:15.000Z</time>
      </trkpt>
      <trkpt lat="43.11581" lon="0.08319">
        <ele>554</ele>
        <time>2021-10-07T09:06:17.000Z</time>
      </trkpt>
      <trkpt lat="43.11573" lon="0.08316">
        <ele>555</ele>
        <time>2021-10-07T09:06:20.000Z</time>
      </trkpt>
      <trkpt lat="43.11567" lon="0.08315">
        <ele>556.20001220703</ele>
        <time>2021-10-07T09:06:22.000Z</time>
      </trkpt>
      <trkpt lat="43.1156" lon="0.08312">
        <ele>557.20001220703</ele>
        <time>2021-10-07T09:06:25.000Z</time>
      </trkpt>
      <trkpt lat="43.11545" lon="0.08307">
        <ele>558.20001220703</ele>
        <time>2021-10-07T09:06:31.000Z</time>
      </trkpt>
      <trkpt lat="43.11542" lon="0.08306">
        <ele>558.79998779297</ele>
        <time>2021-10-07T09:06:32.000Z</time>
      </trkpt>
      <trkpt lat="43.11535" lon="0.08304">
        <ele>560</ele>
        <time>2021-10-07T09:06:35.000Z</time>
      </trkpt>
      <trkpt lat="43.11528" lon="0.08301">
        <ele>561.20001220703</ele>
        <time>2021-10-07T09:06:38.000Z</time>
      </trkpt>
      <trkpt lat="43.11515" lon="0.08297">
        <ele>562.20001220703</ele>
        <time>2021-10-07T09:06:43.000Z</time>
      </trkpt>
      <trkpt lat="43.115" lon="0.08293">
        <ele>563.40002441406</ele>
        <time>2021-10-07T09:06:48.000Z</time>
      </trkpt>
      <trkpt lat="43.11479" lon="0.08286">
        <ele>563.59997558594</ele>
        <time>2021-10-07T09:06:53.000Z</time>
      </trkpt>
      <trkpt lat="43.11453" lon="0.08275">
        <ele>563.20001220703</ele>
        <time>2021-10-07T09:06:57.000Z</time>
      </trkpt>
      <trkpt lat="43.1143" lon="0.08262">
        <ele>562.20001220703</ele>
        <time>2021-10-07T09:07:00.000Z</time>
      </trkpt>
      <trkpt lat="43.11415" lon="0.08254">
        <ele>561.20001220703</ele>
        <time>2021-10-07T09:07:02.000Z</time>
      </trkpt>
      <trkpt lat="43.11409" lon="0.0825">
        <ele>560.79998779297</ele>
        <time>2021-10-07T09:07:03.000Z</time>
      </trkpt>
      <trkpt lat="43.11402" lon="0.08246">
        <ele>560.59997558594</ele>
        <time>2021-10-07T09:07:04.000Z</time>
      </trkpt>
      <trkpt lat="43.1139" lon="0.08235">
        <ele>559.79998779297</ele>
        <time>2021-10-07T09:07:06.000Z</time>
      </trkpt>
      <trkpt lat="43.11382" lon="0.08223">
        <ele>559.20001220703</ele>
        <time>2021-10-07T09:07:08.000Z</time>
      </trkpt>
      <trkpt lat="43.11379" lon="0.08215">
        <ele>559.20001220703</ele>
        <time>2021-10-07T09:07:09.000Z</time>
      </trkpt>
      <trkpt lat="43.11377" lon="0.08207">
        <ele>559.20001220703</ele>
        <time>2021-10-07T09:07:10.000Z</time>
      </trkpt>
      <trkpt lat="43.11376" lon="0.08191">
        <ele>559.20001220703</ele>
        <time>2021-10-07T09:07:12.000Z</time>
      </trkpt>
      <trkpt lat="43.11373" lon="0.0813">
        <ele>560.40002441406</ele>
        <time>2021-10-07T09:07:20.000Z</time>
      </trkpt>
      <trkpt lat="43.11371" lon="0.08115">
        <ele>560.79998779297</ele>
        <time>2021-10-07T09:07:22.000Z</time>
      </trkpt>
      <trkpt lat="43.11365" lon="0.08086">
        <ele>561.79998779297</ele>
        <time>2021-10-07T09:07:26.000Z</time>
      </trkpt>
      <trkpt lat="43.11361" lon="0.08065">
        <ele>562.40002441406</ele>
        <time>2021-10-07T09:07:29.000Z</time>
      </trkpt>
      <trkpt lat="43.11359" lon="0.08058">
        <ele>562.79998779297</ele>
        <time>2021-10-07T09:07:30.000Z</time>
      </trkpt>
      <trkpt lat="43.11351" lon="0.08023">
        <ele>564</ele>
        <time>2021-10-07T09:07:35.000Z</time>
      </trkpt>
      <trkpt lat="43.11346" lon="0.08001">
        <ele>564.40002441406</ele>
        <time>2021-10-07T09:07:38.000Z</time>
      </trkpt>
      <trkpt lat="43.11339" lon="0.07981">
        <ele>565.20001220703</ele>
        <time>2021-10-07T09:07:41.000Z</time>
      </trkpt>
      <trkpt lat="43.11325" lon="0.07948">
        <ele>565.59997558594</ele>
        <time>2021-10-07T09:07:46.000Z</time>
      </trkpt>
      <trkpt lat="43.11317" lon="0.07928">
        <ele>566.20001220703</ele>
        <time>2021-10-07T09:07:49.000Z</time>
      </trkpt>
      <trkpt lat="43.11292" lon="0.0787">
        <ele>567.40002441406</ele>
        <time>2021-10-07T09:07:58.000Z</time>
      </trkpt>
      <trkpt lat="43.11289" lon="0.07863">
        <ele>567.40002441406</ele>
        <time>2021-10-07T09:07:59.000Z</time>
      </trkpt>
      <trkpt lat="43.11268" lon="0.0783">
        <ele>568</ele>
        <time>2021-10-07T09:08:05.000Z</time>
      </trkpt>
      <trkpt lat="43.11265" lon="0.07824">
        <ele>568.20001220703</ele>
        <time>2021-10-07T09:08:06.000Z</time>
      </trkpt>
      <trkpt lat="43.11258" lon="0.07804">
        <ele>568.20001220703</ele>
        <time>2021-10-07T09:08:09.000Z</time>
      </trkpt>
      <trkpt lat="43.11257" lon="0.07797">
        <ele>568.40002441406</ele>
        <time>2021-10-07T09:08:10.000Z</time>
      </trkpt>
      <trkpt lat="43.11255" lon="0.07791">
        <ele>568.40002441406</ele>
        <time>2021-10-07T09:08:11.000Z</time>
      </trkpt>
      <trkpt lat="43.11252" lon="0.07778">
        <ele>568.40002441406</ele>
        <time>2021-10-07T09:08:13.000Z</time>
      </trkpt>
      <trkpt lat="43.11251" lon="0.07771">
        <ele>568.59997558594</ele>
        <time>2021-10-07T09:08:14.000Z</time>
      </trkpt>
      <trkpt lat="43.11252" lon="0.07764">
        <ele>568.79998779297</ele>
        <time>2021-10-07T09:08:15.000Z</time>
      </trkpt>
      <trkpt lat="43.11258" lon="0.07752">
        <ele>569</ele>
        <time>2021-10-07T09:08:17.000Z</time>
      </trkpt>
      <trkpt lat="43.11266" lon="0.07743">
        <ele>569.40002441406</ele>
        <time>2021-10-07T09:08:19.000Z</time>
      </trkpt>
      <trkpt lat="43.11268" lon="0.07739">
        <ele>569.59997558594</ele>
        <time>2021-10-07T09:08:20.000Z</time>
      </trkpt>
      <trkpt lat="43.1127" lon="0.07734">
        <ele>569.59997558594</ele>
        <time>2021-10-07T09:08:21.000Z</time>
      </trkpt>
      <trkpt lat="43.11272" lon="0.07718">
        <ele>570.20001220703</ele>
        <time>2021-10-07T09:08:24.000Z</time>
      </trkpt>
      <trkpt lat="43.11272" lon="0.07712">
        <ele>570.59997558594</ele>
        <time>2021-10-07T09:08:25.000Z</time>
      </trkpt>
      <trkpt lat="43.11271" lon="0.07706">
        <ele>571.40002441406</ele>
        <time>2021-10-07T09:08:26.000Z</time>
      </trkpt>
      <trkpt lat="43.1127" lon="0.077">
        <ele>571.79998779297</ele>
        <time>2021-10-07T09:08:27.000Z</time>
      </trkpt>
      <trkpt lat="43.1126" lon="0.07647">
        <ele>572.59997558594</ele>
        <time>2021-10-07T09:08:35.000Z</time>
      </trkpt>
      <trkpt lat="43.11251" lon="0.07588">
        <ele>572.59997558594</ele>
        <time>2021-10-07T09:08:43.000Z</time>
      </trkpt>
      <trkpt lat="43.11245" lon="0.0753">
        <ele>571.40002441406</ele>
        <time>2021-10-07T09:08:49.000Z</time>
      </trkpt>
      <trkpt lat="43.11242" lon="0.0752">
        <ele>571</ele>
        <time>2021-10-07T09:08:50.000Z</time>
      </trkpt>
      <trkpt lat="43.11239" lon="0.07511">
        <ele>570.40002441406</ele>
        <time>2021-10-07T09:08:51.000Z</time>
      </trkpt>
      <trkpt lat="43.11234" lon="0.07502">
        <ele>569.59997558594</ele>
        <time>2021-10-07T09:08:52.000Z</time>
      </trkpt>
      <trkpt lat="43.11228" lon="0.07493">
        <ele>569</ele>
        <time>2021-10-07T09:08:53.000Z</time>
      </trkpt>
      <trkpt lat="43.11219" lon="0.07479">
        <ele>567.79998779297</ele>
        <time>2021-10-07T09:08:55.000Z</time>
      </trkpt>
      <trkpt lat="43.11209" lon="0.07462">
        <ele>566.59997558594</ele>
        <time>2021-10-07T09:08:57.000Z</time>
      </trkpt>
      <trkpt lat="43.11204" lon="0.07451">
        <ele>566.20001220703</ele>
        <time>2021-10-07T09:08:58.000Z</time>
      </trkpt>
      <trkpt lat="43.112" lon="0.07442">
        <ele>565.40002441406</ele>
        <time>2021-10-07T09:08:59.000Z</time>
      </trkpt>
      <trkpt lat="43.11187" lon="0.07409">
        <ele>564</ele>
        <time>2021-10-07T09:09:03.000Z</time>
      </trkpt>
      <trkpt lat="43.11184" lon="0.07401">
        <ele>563.40002441406</ele>
        <time>2021-10-07T09:09:04.000Z</time>
      </trkpt>
      <trkpt lat="43.11178" lon="0.07387">
        <ele>563</ele>
        <time>2021-10-07T09:09:06.000Z</time>
      </trkpt>
      <trkpt lat="43.11169" lon="0.07369">
        <ele>562.20001220703</ele>
        <time>2021-10-07T09:09:09.000Z</time>
      </trkpt>
      <trkpt lat="43.11167" lon="0.07366">
        <ele>561.59997558594</ele>
        <time>2021-10-07T09:09:10.000Z</time>
      </trkpt>
      <trkpt lat="43.11163" lon="0.07362">
        <ele>560.20001220703</ele>
        <time>2021-10-07T09:09:13.000Z</time>
      </trkpt>
      <trkpt lat="43.11162" lon="0.07362">
        <ele>559.40002441406</ele>
        <time>2021-10-07T09:09:17.000Z</time>
      </trkpt>
      <trkpt lat="43.11162" lon="0.07362">
        <ele>559.20001220703</ele>
        <time>2021-10-07T09:09:20.000Z</time>
      </trkpt>
      <trkpt lat="43.11157" lon="0.07364">
        <ele>559</ele>
        <time>2021-10-07T09:09:32.000Z</time>
      </trkpt>
      <trkpt lat="43.11136" lon="0.07379">
        <ele>559.20001220703</ele>
        <time>2021-10-07T09:09:39.000Z</time>
      </trkpt>
      <trkpt lat="43.11105" lon="0.07402">
        <ele>560.40002441406</ele>
        <time>2021-10-07T09:09:48.000Z</time>
      </trkpt>
      <trkpt lat="43.11082" lon="0.07413">
        <ele>560.59997558594</ele>
        <time>2021-10-07T09:09:53.000Z</time>
      </trkpt>
      <trkpt lat="43.11048" lon="0.07424">
        <ele>560.79998779297</ele>
        <time>2021-10-07T09:10:00.000Z</time>
      </trkpt>
      <trkpt lat="43.11016" lon="0.07423">
        <ele>561.20001220703</ele>
        <time>2021-10-07T09:10:07.000Z</time>
      </trkpt>
      <trkpt lat="43.11001" lon="0.07419">
        <ele>561.59997558594</ele>
        <time>2021-10-07T09:10:10.000Z</time>
      </trkpt>
      <trkpt lat="43.10986" lon="0.07413">
        <ele>562.59997558594</ele>
        <time>2021-10-07T09:10:14.000Z</time>
      </trkpt>
      <trkpt lat="43.10979" lon="0.0741">
        <ele>563.40002441406</ele>
        <time>2021-10-07T09:10:16.000Z</time>
      </trkpt>
      <trkpt lat="43.10975" lon="0.07408">
        <ele>563.59997558594</ele>
        <time>2021-10-07T09:10:17.000Z</time>
      </trkpt>
      <trkpt lat="43.10971" lon="0.07407">
        <ele>564</ele>
        <time>2021-10-07T09:10:18.000Z</time>
      </trkpt>
      <trkpt lat="43.10959" lon="0.07403">
        <ele>565.20001220703</ele>
        <time>2021-10-07T09:10:21.000Z</time>
      </trkpt>
      <trkpt lat="43.10955" lon="0.07401">
        <ele>565.59997558594</ele>
        <time>2021-10-07T09:10:22.000Z</time>
      </trkpt>
      <trkpt lat="43.10932" lon="0.07391">
        <ele>566.79998779297</ele>
        <time>2021-10-07T09:10:28.000Z</time>
      </trkpt>
      <trkpt lat="43.10925" lon="0.07388">
        <ele>567.20001220703</ele>
        <time>2021-10-07T09:10:30.000Z</time>
      </trkpt>
      <trkpt lat="43.10918" lon="0.07385">
        <ele>568</ele>
        <time>2021-10-07T09:10:32.000Z</time>
      </trkpt>
      <trkpt lat="43.10905" lon="0.07378">
        <ele>569.20001220703</ele>
        <time>2021-10-07T09:10:36.000Z</time>
      </trkpt>
      <trkpt lat="43.10895" lon="0.07373">
        <ele>570.20001220703</ele>
        <time>2021-10-07T09:10:39.000Z</time>
      </trkpt>
      <trkpt lat="43.10892" lon="0.07372">
        <ele>570.20001220703</ele>
        <time>2021-10-07T09:10:40.000Z</time>
      </trkpt>
      <trkpt lat="43.10884" lon="0.07368">
        <ele>571.40002441406</ele>
        <time>2021-10-07T09:10:43.000Z</time>
      </trkpt>
      <trkpt lat="43.10877" lon="0.07364">
        <ele>572.40002441406</ele>
        <time>2021-10-07T09:10:46.000Z</time>
      </trkpt>
      <trkpt lat="43.10869" lon="0.0736">
        <ele>573.40002441406</ele>
        <time>2021-10-07T09:10:49.000Z</time>
      </trkpt>
      <trkpt lat="43.10858" lon="0.07354">
        <ele>574.59997558594</ele>
        <time>2021-10-07T09:10:53.000Z</time>
      </trkpt>
      <trkpt lat="43.1085" lon="0.0735">
        <ele>575.59997558594</ele>
        <time>2021-10-07T09:10:56.000Z</time>
      </trkpt>
      <trkpt lat="43.10837" lon="0.07344">
        <ele>576.79998779297</ele>
        <time>2021-10-07T09:11:01.000Z</time>
      </trkpt>
      <trkpt lat="43.10829" lon="0.0734">
        <ele>577.59997558594</ele>
        <time>2021-10-07T09:11:04.000Z</time>
      </trkpt>
      <trkpt lat="43.10826" lon="0.07338">
        <ele>577.79998779297</ele>
        <time>2021-10-07T09:11:05.000Z</time>
      </trkpt>
      <trkpt lat="43.10815" lon="0.07331">
        <ele>579</ele>
        <time>2021-10-07T09:11:09.000Z</time>
      </trkpt>
      <trkpt lat="43.10806" lon="0.07324">
        <ele>580</ele>
        <time>2021-10-07T09:11:13.000Z</time>
      </trkpt>
      <trkpt lat="43.10804" lon="0.07322">
        <ele>580.20001220703</ele>
        <time>2021-10-07T09:11:14.000Z</time>
      </trkpt>
      <trkpt lat="43.10797" lon="0.07315">
        <ele>581.59997558594</ele>
        <time>2021-10-07T09:11:17.000Z</time>
      </trkpt>
      <trkpt lat="43.10791" lon="0.07308">
        <ele>582.79998779297</ele>
        <time>2021-10-07T09:11:20.000Z</time>
      </trkpt>
      <trkpt lat="43.10786" lon="0.07304">
        <ele>583.59997558594</ele>
        <time>2021-10-07T09:11:22.000Z</time>
      </trkpt>
      <trkpt lat="43.10783" lon="0.07302">
        <ele>584</ele>
        <time>2021-10-07T09:11:23.000Z</time>
      </trkpt>
      <trkpt lat="43.10776" lon="0.07298">
        <ele>585.20001220703</ele>
        <time>2021-10-07T09:11:26.000Z</time>
      </trkpt>
      <trkpt lat="43.10765" lon="0.07291">
        <ele>586.40002441406</ele>
        <time>2021-10-07T09:11:30.000Z</time>
      </trkpt>
      <trkpt lat="43.10763" lon="0.0729">
        <ele>586.59997558594</ele>
        <time>2021-10-07T09:11:31.000Z</time>
      </trkpt>
      <trkpt lat="43.10756" lon="0.07285">
        <ele>587.40002441406</ele>
        <time>2021-10-07T09:11:34.000Z</time>
      </trkpt>
      <trkpt lat="43.10745" lon="0.07279">
        <ele>588.59997558594</ele>
        <time>2021-10-07T09:11:38.000Z</time>
      </trkpt>
      <trkpt lat="43.10742" lon="0.07277">
        <ele>588.79998779297</ele>
        <time>2021-10-07T09:11:39.000Z</time>
      </trkpt>
      <trkpt lat="43.10731" lon="0.0727">
        <ele>589.79998779297</ele>
        <time>2021-10-07T09:11:43.000Z</time>
      </trkpt>
      <trkpt lat="43.1072" lon="0.07263">
        <ele>591.20001220703</ele>
        <time>2021-10-07T09:11:47.000Z</time>
      </trkpt>
      <trkpt lat="43.10714" lon="0.0726">
        <ele>591.59997558594</ele>
        <time>2021-10-07T09:11:49.000Z</time>
      </trkpt>
      <trkpt lat="43.10697" lon="0.0725">
        <ele>592.20001220703</ele>
        <time>2021-10-07T09:11:54.000Z</time>
      </trkpt>
      <trkpt lat="43.10687" lon="0.0724">
        <ele>592.59997558594</ele>
        <time>2021-10-07T09:11:57.000Z</time>
      </trkpt>
      <trkpt lat="43.10672" lon="0.07219">
        <ele>592.79998779297</ele>
        <time>2021-10-07T09:12:03.000Z</time>
      </trkpt>
      <trkpt lat="43.10662" lon="0.07193">
        <ele>593.20001220703</ele>
        <time>2021-10-07T09:12:09.000Z</time>
      </trkpt>
      <trkpt lat="43.1066" lon="0.07187">
        <ele>593.20001220703</ele>
        <time>2021-10-07T09:12:10.000Z</time>
      </trkpt>
      <trkpt lat="43.10651" lon="0.07161">
        <ele>593.59997558594</ele>
        <time>2021-10-07T09:12:15.000Z</time>
      </trkpt>
      <trkpt lat="43.10648" lon="0.07157">
        <ele>593.59997558594</ele>
        <time>2021-10-07T09:12:16.000Z</time>
      </trkpt>
      <trkpt lat="43.10645" lon="0.07155">
        <ele>593.79998779297</ele>
        <time>2021-10-07T09:12:17.000Z</time>
      </trkpt>
      <trkpt lat="43.10636" lon="0.07151">
        <ele>593.79998779297</ele>
        <time>2021-10-07T09:12:19.000Z</time>
      </trkpt>
      <trkpt lat="43.10631" lon="0.07151">
        <ele>593.79998779297</ele>
        <time>2021-10-07T09:12:20.000Z</time>
      </trkpt>
      <trkpt lat="43.10626" lon="0.07151">
        <ele>593.79998779297</ele>
        <time>2021-10-07T09:12:21.000Z</time>
      </trkpt>
      <trkpt lat="43.10616" lon="0.07155">
        <ele>593.79998779297</ele>
        <time>2021-10-07T09:12:23.000Z</time>
      </trkpt>
      <trkpt lat="43.10607" lon="0.07161">
        <ele>593.79998779297</ele>
        <time>2021-10-07T09:12:25.000Z</time>
      </trkpt>
      <trkpt lat="43.10572" lon="0.07183">
        <ele>593.59997558594</ele>
        <time>2021-10-07T09:12:32.000Z</time>
      </trkpt>
      <trkpt lat="43.10555" lon="0.07188">
        <ele>593.59997558594</ele>
        <time>2021-10-07T09:12:35.000Z</time>
      </trkpt>
      <trkpt lat="43.10539" lon="0.07187">
        <ele>593.59997558594</ele>
        <time>2021-10-07T09:12:38.000Z</time>
      </trkpt>
      <trkpt lat="43.10507" lon="0.07173">
        <ele>593.59997558594</ele>
        <time>2021-10-07T09:12:44.000Z</time>
      </trkpt>
      <trkpt lat="43.10496" lon="0.07169">
        <ele>593.59997558594</ele>
        <time>2021-10-07T09:12:46.000Z</time>
      </trkpt>
      <trkpt lat="43.1048" lon="0.07167">
        <ele>593.79998779297</ele>
        <time>2021-10-07T09:12:49.000Z</time>
      </trkpt>
      <trkpt lat="43.10424" lon="0.0717">
        <ele>593.59997558594</ele>
        <time>2021-10-07T09:12:59.000Z</time>
      </trkpt>
      <trkpt lat="43.10419" lon="0.07171">
        <ele>593.59997558594</ele>
        <time>2021-10-07T09:13:00.000Z</time>
      </trkpt>
      <trkpt lat="43.10374" lon="0.07192">
        <ele>594</ele>
        <time>2021-10-07T09:13:09.000Z</time>
      </trkpt>
      <trkpt lat="43.10364" lon="0.07194">
        <ele>594</ele>
        <time>2021-10-07T09:13:11.000Z</time>
      </trkpt>
      <trkpt lat="43.10347" lon="0.07191">
        <ele>594.20001220703</ele>
        <time>2021-10-07T09:13:14.000Z</time>
      </trkpt>
      <trkpt lat="43.10337" lon="0.07186">
        <ele>594.20001220703</ele>
        <time>2021-10-07T09:13:16.000Z</time>
      </trkpt>
      <trkpt lat="43.10317" lon="0.07175">
        <ele>594</ele>
        <time>2021-10-07T09:13:20.000Z</time>
      </trkpt>
      <trkpt lat="43.10289" lon="0.07171">
        <ele>593.79998779297</ele>
        <time>2021-10-07T09:13:26.000Z</time>
      </trkpt>
      <trkpt lat="43.10269" lon="0.07176">
        <ele>593.79998779297</ele>
        <time>2021-10-07T09:13:31.000Z</time>
      </trkpt>
      <trkpt lat="43.1024" lon="0.0718">
        <ele>593.40002441406</ele>
        <time>2021-10-07T09:13:37.000Z</time>
      </trkpt>
      <trkpt lat="43.10188" lon="0.07189">
        <ele>592.20001220703</ele>
        <time>2021-10-07T09:13:46.000Z</time>
      </trkpt>
      <trkpt lat="43.10183" lon="0.07191">
        <ele>592</ele>
        <time>2021-10-07T09:13:47.000Z</time>
      </trkpt>
      <trkpt lat="43.10176" lon="0.072">
        <ele>591.59997558594</ele>
        <time>2021-10-07T09:13:49.000Z</time>
      </trkpt>
      <trkpt lat="43.10174" lon="0.07206">
        <ele>591.40002441406</ele>
        <time>2021-10-07T09:13:50.000Z</time>
      </trkpt>
      <trkpt lat="43.10173" lon="0.07213">
        <ele>591.20001220703</ele>
        <time>2021-10-07T09:13:51.000Z</time>
      </trkpt>
      <trkpt lat="43.10172" lon="0.0724">
        <ele>590.59997558594</ele>
        <time>2021-10-07T09:13:55.000Z</time>
      </trkpt>
      <trkpt lat="43.1017" lon="0.07314">
        <ele>591.59997558594</ele>
        <time>2021-10-07T09:14:05.000Z</time>
      </trkpt>
      <trkpt lat="43.10168" lon="0.0739">
        <ele>591.79998779297</ele>
        <time>2021-10-07T09:14:15.000Z</time>
      </trkpt>
      <trkpt lat="43.10169" lon="0.07398">
        <ele>591.79998779297</ele>
        <time>2021-10-07T09:14:16.000Z</time>
      </trkpt>
      <trkpt lat="43.10178" lon="0.07456">
        <ele>591.59997558594</ele>
        <time>2021-10-07T09:14:24.000Z</time>
      </trkpt>
      <trkpt lat="43.10188" lon="0.07496">
        <ele>591.59997558594</ele>
        <time>2021-10-07T09:14:29.000Z</time>
      </trkpt>
      <trkpt lat="43.10208" lon="0.07554">
        <ele>590.79998779297</ele>
        <time>2021-10-07T09:14:35.000Z</time>
      </trkpt>
      <trkpt lat="43.10218" lon="0.0758">
        <ele>589.59997558594</ele>
        <time>2021-10-07T09:14:37.000Z</time>
      </trkpt>
      <trkpt lat="43.10226" lon="0.076">
        <ele>588.40002441406</ele>
        <time>2021-10-07T09:14:39.000Z</time>
      </trkpt>
      <trkpt lat="43.10235" lon="0.07622">
        <ele>587</ele>
        <time>2021-10-07T09:14:41.000Z</time>
      </trkpt>
      <trkpt lat="43.10247" lon="0.07654">
        <ele>585.59997558594</ele>
        <time>2021-10-07T09:14:44.000Z</time>
      </trkpt>
      <trkpt lat="43.10256" lon="0.07676">
        <ele>584.79998779297</ele>
        <time>2021-10-07T09:14:46.000Z</time>
      </trkpt>
      <trkpt lat="43.1026" lon="0.07688">
        <ele>584.40002441406</ele>
        <time>2021-10-07T09:14:47.000Z</time>
      </trkpt>
      <trkpt lat="43.10275" lon="0.07736">
        <ele>583.40002441406</ele>
        <time>2021-10-07T09:14:51.000Z</time>
      </trkpt>
      <trkpt lat="43.10278" lon="0.07748">
        <ele>582.79998779297</ele>
        <time>2021-10-07T09:14:52.000Z</time>
      </trkpt>
      <trkpt lat="43.10284" lon="0.07772">
        <ele>582</ele>
        <time>2021-10-07T09:14:54.000Z</time>
      </trkpt>
      <trkpt lat="43.1029" lon="0.07797">
        <ele>581</ele>
        <time>2021-10-07T09:14:56.000Z</time>
      </trkpt>
      <trkpt lat="43.103" lon="0.07835">
        <ele>579.59997558594</ele>
        <time>2021-10-07T09:14:59.000Z</time>
      </trkpt>
      <trkpt lat="43.10307" lon="0.0786">
        <ele>578.40002441406</ele>
        <time>2021-10-07T09:15:01.000Z</time>
      </trkpt>
      <trkpt lat="43.10311" lon="0.07873">
        <ele>578.20001220703</ele>
        <time>2021-10-07T09:15:02.000Z</time>
      </trkpt>
      <trkpt lat="43.10319" lon="0.07897">
        <ele>577.20001220703</ele>
        <time>2021-10-07T09:15:04.000Z</time>
      </trkpt>
      <trkpt lat="43.10324" lon="0.07909">
        <ele>576.59997558594</ele>
        <time>2021-10-07T09:15:05.000Z</time>
      </trkpt>
      <trkpt lat="43.10329" lon="0.0792">
        <ele>576</ele>
        <time>2021-10-07T09:15:06.000Z</time>
      </trkpt>
      <trkpt lat="43.10346" lon="0.07955">
        <ele>575</ele>
        <time>2021-10-07T09:15:09.000Z</time>
      </trkpt>
      <trkpt lat="43.1036" lon="0.07984">
        <ele>573.79998779297</ele>
        <time>2021-10-07T09:15:12.000Z</time>
      </trkpt>
      <trkpt lat="43.10364" lon="0.07994">
        <ele>573.20001220703</ele>
        <time>2021-10-07T09:15:13.000Z</time>
      </trkpt>
      <trkpt lat="43.10369" lon="0.08005">
        <ele>572.79998779297</ele>
        <time>2021-10-07T09:15:14.000Z</time>
      </trkpt>
      <trkpt lat="43.10388" lon="0.08047">
        <ele>571.79998779297</ele>
        <time>2021-10-07T09:15:18.000Z</time>
      </trkpt>
      <trkpt lat="43.10404" lon="0.0808">
        <ele>570.79998779297</ele>
        <time>2021-10-07T09:15:21.000Z</time>
      </trkpt>
      <trkpt lat="43.10416" lon="0.08103">
        <ele>569.59997558594</ele>
        <time>2021-10-07T09:15:23.000Z</time>
      </trkpt>
      <trkpt lat="43.10426" lon="0.08121">
        <ele>568.40002441406</ele>
        <time>2021-10-07T09:15:25.000Z</time>
      </trkpt>
      <trkpt lat="43.10436" lon="0.08141">
        <ele>567</ele>
        <time>2021-10-07T09:15:27.000Z</time>
      </trkpt>
      <trkpt lat="43.1044" lon="0.08151">
        <ele>566.79998779297</ele>
        <time>2021-10-07T09:15:28.000Z</time>
      </trkpt>
      <trkpt lat="43.10454" lon="0.08195">
        <ele>566</ele>
        <time>2021-10-07T09:15:32.000Z</time>
      </trkpt>
      <trkpt lat="43.10461" lon="0.08217">
        <ele>565.40002441406</ele>
        <time>2021-10-07T09:15:34.000Z</time>
      </trkpt>
      <trkpt lat="43.10466" lon="0.08241">
        <ele>564.79998779297</ele>
        <time>2021-10-07T09:15:36.000Z</time>
      </trkpt>
      <trkpt lat="43.1047" lon="0.08267">
        <ele>563.79998779297</ele>
        <time>2021-10-07T09:15:38.000Z</time>
      </trkpt>
      <trkpt lat="43.10471" lon="0.08279">
        <ele>563.40002441406</ele>
        <time>2021-10-07T09:15:39.000Z</time>
      </trkpt>
      <trkpt lat="43.10473" lon="0.08304">
        <ele>562.40002441406</ele>
        <time>2021-10-07T09:15:41.000Z</time>
      </trkpt>
      <trkpt lat="43.10475" lon="0.08329">
        <ele>561.20001220703</ele>
        <time>2021-10-07T09:15:43.000Z</time>
      </trkpt>
      <trkpt lat="43.10477" lon="0.08354">
        <ele>559.79998779297</ele>
        <time>2021-10-07T09:15:45.000Z</time>
      </trkpt>
      <trkpt lat="43.10479" lon="0.08378">
        <ele>558.79998779297</ele>
        <time>2021-10-07T09:15:47.000Z</time>
      </trkpt>
      <trkpt lat="43.1048" lon="0.08391">
        <ele>558.40002441406</ele>
        <time>2021-10-07T09:15:48.000Z</time>
      </trkpt>
      <trkpt lat="43.10484" lon="0.08437">
        <ele>557.20001220703</ele>
        <time>2021-10-07T09:15:52.000Z</time>
      </trkpt>
      <trkpt lat="43.10487" lon="0.0846">
        <ele>556.59997558594</ele>
        <time>2021-10-07T09:15:54.000Z</time>
      </trkpt>
      <trkpt lat="43.1049" lon="0.08471">
        <ele>555.79998779297</ele>
        <time>2021-10-07T09:15:55.000Z</time>
      </trkpt>
      <trkpt lat="43.10497" lon="0.08494">
        <ele>554.79998779297</ele>
        <time>2021-10-07T09:15:57.000Z</time>
      </trkpt>
      <trkpt lat="43.10506" lon="0.08516">
        <ele>553.40002441406</ele>
        <time>2021-10-07T09:15:59.000Z</time>
      </trkpt>
      <trkpt lat="43.1051" lon="0.08526">
        <ele>553</ele>
        <time>2021-10-07T09:16:00.000Z</time>
      </trkpt>
      <trkpt lat="43.10516" lon="0.08535">
        <ele>552.20001220703</ele>
        <time>2021-10-07T09:16:01.000Z</time>
      </trkpt>
      <trkpt lat="43.10521" lon="0.08545">
        <ele>551</ele>
        <time>2021-10-07T09:16:02.000Z</time>
      </trkpt>
      <trkpt lat="43.10531" lon="0.08566">
        <ele>549.59997558594</ele>
        <time>2021-10-07T09:16:04.000Z</time>
      </trkpt>
      <trkpt lat="43.10542" lon="0.08584">
        <ele>548.40002441406</ele>
        <time>2021-10-07T09:16:06.000Z</time>
      </trkpt>
      <trkpt lat="43.10549" lon="0.08592">
        <ele>547.79998779297</ele>
        <time>2021-10-07T09:16:07.000Z</time>
      </trkpt>
      <trkpt lat="43.10555" lon="0.08598">
        <ele>546.59997558594</ele>
        <time>2021-10-07T09:16:08.000Z</time>
      </trkpt>
      <trkpt lat="43.10562" lon="0.08602">
        <ele>545.59997558594</ele>
        <time>2021-10-07T09:16:09.000Z</time>
      </trkpt>
      <trkpt lat="43.10569" lon="0.08607">
        <ele>544.40002441406</ele>
        <time>2021-10-07T09:16:10.000Z</time>
      </trkpt>
      <trkpt lat="43.10575" lon="0.08612">
        <ele>543.20001220703</ele>
        <time>2021-10-07T09:16:11.000Z</time>
      </trkpt>
      <trkpt lat="43.10591" lon="0.08628">
        <ele>541.59997558594</ele>
        <time>2021-10-07T09:16:13.000Z</time>
      </trkpt>
      <trkpt lat="43.10605" lon="0.08646">
        <ele>539.40002441406</ele>
        <time>2021-10-07T09:16:15.000Z</time>
      </trkpt>
      <trkpt lat="43.10612" lon="0.08655">
        <ele>537.79998779297</ele>
        <time>2021-10-07T09:16:16.000Z</time>
      </trkpt>
      <trkpt lat="43.10618" lon="0.08665">
        <ele>536.79998779297</ele>
        <time>2021-10-07T09:16:17.000Z</time>
      </trkpt>
      <trkpt lat="43.10623" lon="0.08674">
        <ele>534.79998779297</ele>
        <time>2021-10-07T09:16:18.000Z</time>
      </trkpt>
      <trkpt lat="43.10628" lon="0.08684">
        <ele>533.40002441406</ele>
        <time>2021-10-07T09:16:19.000Z</time>
      </trkpt>
      <trkpt lat="43.1063" lon="0.08692">
        <ele>531.20001220703</ele>
        <time>2021-10-07T09:16:20.000Z</time>
      </trkpt>
      <trkpt lat="43.10633" lon="0.08705">
        <ele>528.79998779297</ele>
        <time>2021-10-07T09:16:21.000Z</time>
      </trkpt>
      <trkpt lat="43.10637" lon="0.08728">
        <ele>526</ele>
        <time>2021-10-07T09:16:23.000Z</time>
      </trkpt>
      <trkpt lat="43.10638" lon="0.08739">
        <ele>524.79998779297</ele>
        <time>2021-10-07T09:16:24.000Z</time>
      </trkpt>
      <trkpt lat="43.10639" lon="0.08749">
        <ele>523.20001220703</ele>
        <time>2021-10-07T09:16:25.000Z</time>
      </trkpt>
      <trkpt lat="43.10641" lon="0.08774">
        <ele>520.79998779297</ele>
        <time>2021-10-07T09:16:27.000Z</time>
      </trkpt>
      <trkpt lat="43.10642" lon="0.08785">
        <ele>518.59997558594</ele>
        <time>2021-10-07T09:16:28.000Z</time>
      </trkpt>
      <trkpt lat="43.10642" lon="0.08805">
        <ele>516.59997558594</ele>
        <time>2021-10-07T09:16:30.000Z</time>
      </trkpt>
      <trkpt lat="43.10638" lon="0.08823">
        <ele>514.20001220703</ele>
        <time>2021-10-07T09:16:32.000Z</time>
      </trkpt>
      <trkpt lat="43.10635" lon="0.08831">
        <ele>513.20001220703</ele>
        <time>2021-10-07T09:16:33.000Z</time>
      </trkpt>
      <trkpt lat="43.1063" lon="0.08838">
        <ele>511.20001220703</ele>
        <time>2021-10-07T09:16:34.000Z</time>
      </trkpt>
      <trkpt lat="43.10626" lon="0.08844">
        <ele>509.20001220703</ele>
        <time>2021-10-07T09:16:35.000Z</time>
      </trkpt>
      <trkpt lat="43.10621" lon="0.08849">
        <ele>508.20001220703</ele>
        <time>2021-10-07T09:16:36.000Z</time>
      </trkpt>
      <trkpt lat="43.10615" lon="0.08853">
        <ele>506.60000610352</ele>
        <time>2021-10-07T09:16:37.000Z</time>
      </trkpt>
      <trkpt lat="43.1061" lon="0.08856">
        <ele>505.60000610352</ele>
        <time>2021-10-07T09:16:38.000Z</time>
      </trkpt>
      <trkpt lat="43.10605" lon="0.08858">
        <ele>504.60000610352</ele>
        <time>2021-10-07T09:16:39.000Z</time>
      </trkpt>
      <trkpt lat="43.10595" lon="0.0886">
        <ele>502.20001220703</ele>
        <time>2021-10-07T09:16:41.000Z</time>
      </trkpt>
      <trkpt lat="43.10591" lon="0.08859">
        <ele>501.20001220703</ele>
        <time>2021-10-07T09:16:42.000Z</time>
      </trkpt>
      <trkpt lat="43.10585" lon="0.08857">
        <ele>500.20001220703</ele>
        <time>2021-10-07T09:16:43.000Z</time>
      </trkpt>
      <trkpt lat="43.1058" lon="0.08853">
        <ele>499</ele>
        <time>2021-10-07T09:16:44.000Z</time>
      </trkpt>
      <trkpt lat="43.10569" lon="0.08843">
        <ele>497.39999389648</ele>
        <time>2021-10-07T09:16:46.000Z</time>
      </trkpt>
      <trkpt lat="43.10558" lon="0.08833">
        <ele>496</ele>
        <time>2021-10-07T09:16:48.000Z</time>
      </trkpt>
      <trkpt lat="43.10549" lon="0.08823">
        <ele>494.79998779297</ele>
        <time>2021-10-07T09:16:50.000Z</time>
      </trkpt>
      <trkpt lat="43.10533" lon="0.08799">
        <ele>494</ele>
        <time>2021-10-07T09:16:53.000Z</time>
      </trkpt>
      <trkpt lat="43.10528" lon="0.08793">
        <ele>494</ele>
        <time>2021-10-07T09:16:54.000Z</time>
      </trkpt>
      <trkpt lat="43.1052" lon="0.0879">
        <ele>493.79998779297</ele>
        <time>2021-10-07T09:16:55.000Z</time>
      </trkpt>
      <trkpt lat="43.10513" lon="0.0879">
        <ele>493.60000610352</ele>
        <time>2021-10-07T09:16:56.000Z</time>
      </trkpt>
      <trkpt lat="43.10484" lon="0.08792">
        <ele>492.60000610352</ele>
        <time>2021-10-07T09:17:00.000Z</time>
      </trkpt>
      <trkpt lat="43.10477" lon="0.0879">
        <ele>492.60000610352</ele>
        <time>2021-10-07T09:17:01.000Z</time>
      </trkpt>
      <trkpt lat="43.10464" lon="0.08789">
        <ele>491.79998779297</ele>
        <time>2021-10-07T09:17:03.000Z</time>
      </trkpt>
      <trkpt lat="43.10456" lon="0.0879">
        <ele>491.79998779297</ele>
        <time>2021-10-07T09:17:04.000Z</time>
      </trkpt>
      <trkpt lat="43.10447" lon="0.08793">
        <ele>491.60000610352</ele>
        <time>2021-10-07T09:17:05.000Z</time>
      </trkpt>
      <trkpt lat="43.1044" lon="0.08797">
        <ele>491.20001220703</ele>
        <time>2021-10-07T09:17:06.000Z</time>
      </trkpt>
      <trkpt lat="43.10426" lon="0.08805">
        <ele>491</ele>
        <time>2021-10-07T09:17:08.000Z</time>
      </trkpt>
      <trkpt lat="43.10412" lon="0.08813">
        <ele>490.60000610352</ele>
        <time>2021-10-07T09:17:10.000Z</time>
      </trkpt>
      <trkpt lat="43.10403" lon="0.08816">
        <ele>490</ele>
        <time>2021-10-07T09:17:11.000Z</time>
      </trkpt>
      <trkpt lat="43.10395" lon="0.08815">
        <ele>489.60000610352</ele>
        <time>2021-10-07T09:17:12.000Z</time>
      </trkpt>
      <trkpt lat="43.10382" lon="0.08807">
        <ele>489</ele>
        <time>2021-10-07T09:17:14.000Z</time>
      </trkpt>
      <trkpt lat="43.10377" lon="0.088">
        <ele>489</ele>
        <time>2021-10-07T09:17:15.000Z</time>
      </trkpt>
      <trkpt lat="43.10374" lon="0.08792">
        <ele>488.39999389648</ele>
        <time>2021-10-07T09:17:16.000Z</time>
      </trkpt>
      <trkpt lat="43.10372" lon="0.08783">
        <ele>488.20001220703</ele>
        <time>2021-10-07T09:17:17.000Z</time>
      </trkpt>
      <trkpt lat="43.1037" lon="0.08774">
        <ele>487.79998779297</ele>
        <time>2021-10-07T09:17:18.000Z</time>
      </trkpt>
      <trkpt lat="43.10367" lon="0.08758">
        <ele>487.79998779297</ele>
        <time>2021-10-07T09:17:20.000Z</time>
      </trkpt>
      <trkpt lat="43.10364" lon="0.08751">
        <ele>487.79998779297</ele>
        <time>2021-10-07T09:17:21.000Z</time>
      </trkpt>
      <trkpt lat="43.1036" lon="0.08745">
        <ele>487.60000610352</ele>
        <time>2021-10-07T09:17:22.000Z</time>
      </trkpt>
      <trkpt lat="43.10346" lon="0.08731">
        <ele>487.60000610352</ele>
        <time>2021-10-07T09:17:25.000Z</time>
      </trkpt>
      <trkpt lat="43.10326" lon="0.08715">
        <ele>488</ele>
        <time>2021-10-07T09:17:29.000Z</time>
      </trkpt>
      <trkpt lat="43.10314" lon="0.0871">
        <ele>488</ele>
        <time>2021-10-07T09:17:31.000Z</time>
      </trkpt>
      <trkpt lat="43.10282" lon="0.08708">
        <ele>487.39999389648</ele>
        <time>2021-10-07T09:17:35.000Z</time>
      </trkpt>
      <trkpt lat="43.10274" lon="0.0871">
        <ele>487.39999389648</ele>
        <time>2021-10-07T09:17:36.000Z</time>
      </trkpt>
      <trkpt lat="43.10259" lon="0.08717">
        <ele>486.60000610352</ele>
        <time>2021-10-07T09:17:38.000Z</time>
      </trkpt>
      <trkpt lat="43.10247" lon="0.08731">
        <ele>485.39999389648</ele>
        <time>2021-10-07T09:17:40.000Z</time>
      </trkpt>
      <trkpt lat="43.10243" lon="0.08741">
        <ele>485</ele>
        <time>2021-10-07T09:17:41.000Z</time>
      </trkpt>
      <trkpt lat="43.10239" lon="0.0875">
        <ele>484.20001220703</ele>
        <time>2021-10-07T09:17:42.000Z</time>
      </trkpt>
      <trkpt lat="43.10236" lon="0.08757">
        <ele>484</ele>
        <time>2021-10-07T09:17:43.000Z</time>
      </trkpt>
      <trkpt lat="43.10226" lon="0.08768">
        <ele>483.39999389648</ele>
        <time>2021-10-07T09:17:45.000Z</time>
      </trkpt>
      <trkpt lat="43.1022" lon="0.0877">
        <ele>483.20001220703</ele>
        <time>2021-10-07T09:17:46.000Z</time>
      </trkpt>
      <trkpt lat="43.10213" lon="0.0877">
        <ele>483.20001220703</ele>
        <time>2021-10-07T09:17:47.000Z</time>
      </trkpt>
      <trkpt lat="43.10209" lon="0.0877">
        <ele>483.20001220703</ele>
        <time>2021-10-07T09:17:48.000Z</time>
      </trkpt>
      <trkpt lat="43.10203" lon="0.0877">
        <ele>483</ele>
        <time>2021-10-07T09:17:49.000Z</time>
      </trkpt>
      <trkpt lat="43.10194" lon="0.08769">
        <ele>483.20001220703</ele>
        <time>2021-10-07T09:17:51.000Z</time>
      </trkpt>
      <trkpt lat="43.1019" lon="0.0877">
        <ele>483.20001220703</ele>
        <time>2021-10-07T09:17:52.000Z</time>
      </trkpt>
      <trkpt lat="43.10171" lon="0.08776">
        <ele>484.39999389648</ele>
        <time>2021-10-07T09:17:57.000Z</time>
      </trkpt>
      <trkpt lat="43.10149" lon="0.08792">
        <ele>485.39999389648</ele>
        <time>2021-10-07T09:18:03.000Z</time>
      </trkpt>
      <trkpt lat="43.10145" lon="0.08796">
        <ele>485.60000610352</ele>
        <time>2021-10-07T09:18:04.000Z</time>
      </trkpt>
      <trkpt lat="43.10131" lon="0.08804">
        <ele>486</ele>
        <time>2021-10-07T09:18:07.000Z</time>
      </trkpt>
      <trkpt lat="43.1012" lon="0.08805">
        <ele>486.20001220703</ele>
        <time>2021-10-07T09:18:10.000Z</time>
      </trkpt>
      <trkpt lat="43.10109" lon="0.08804">
        <ele>487.39999389648</ele>
        <time>2021-10-07T09:18:13.000Z</time>
      </trkpt>
      <trkpt lat="43.10106" lon="0.08802">
        <ele>487.39999389648</ele>
        <time>2021-10-07T09:18:14.000Z</time>
      </trkpt>
      <trkpt lat="43.10098" lon="0.0879">
        <ele>488.60000610352</ele>
        <time>2021-10-07T09:18:17.000Z</time>
      </trkpt>
      <trkpt lat="43.10096" lon="0.08786">
        <ele>488.60000610352</ele>
        <time>2021-10-07T09:18:18.000Z</time>
      </trkpt>
      <trkpt lat="43.1009" lon="0.08774">
        <ele>489.60000610352</ele>
        <time>2021-10-07T09:18:21.000Z</time>
      </trkpt>
      <trkpt lat="43.10086" lon="0.08767">
        <ele>490.20001220703</ele>
        <time>2021-10-07T09:18:23.000Z</time>
      </trkpt>
      <trkpt lat="43.10082" lon="0.08754">
        <ele>491.20001220703</ele>
        <time>2021-10-07T09:18:26.000Z</time>
      </trkpt>
      <trkpt lat="43.10077" lon="0.08736">
        <ele>492.60000610352</ele>
        <time>2021-10-07T09:18:30.000Z</time>
      </trkpt>
      <trkpt lat="43.10072" lon="0.08723">
        <ele>494</ele>
        <time>2021-10-07T09:18:33.000Z</time>
      </trkpt>
      <trkpt lat="43.10071" lon="0.08719">
        <ele>494.20001220703</ele>
        <time>2021-10-07T09:18:34.000Z</time>
      </trkpt>
      <trkpt lat="43.1007" lon="0.08715">
        <ele>494.79998779297</ele>
        <time>2021-10-07T09:18:35.000Z</time>
      </trkpt>
      <trkpt lat="43.10069" lon="0.08711">
        <ele>495.20001220703</ele>
        <time>2021-10-07T09:18:36.000Z</time>
      </trkpt>
      <trkpt lat="43.10068" lon="0.08707">
        <ele>495.39999389648</ele>
        <time>2021-10-07T09:18:37.000Z</time>
      </trkpt>
      <trkpt lat="43.10068" lon="0.08704">
        <ele>495.79998779297</ele>
        <time>2021-10-07T09:18:38.000Z</time>
      </trkpt>
      <trkpt lat="43.10067" lon="0.08693">
        <ele>496.60000610352</ele>
        <time>2021-10-07T09:18:41.000Z</time>
      </trkpt>
      <trkpt lat="43.10064" lon="0.08682">
        <ele>497.79998779297</ele>
        <time>2021-10-07T09:18:44.000Z</time>
      </trkpt>
      <trkpt lat="43.10064" lon="0.08675">
        <ele>498.39999389648</ele>
        <time>2021-10-07T09:18:46.000Z</time>
      </trkpt>
      <trkpt lat="43.10063" lon="0.08671">
        <ele>499</ele>
        <time>2021-10-07T09:18:47.000Z</time>
      </trkpt>
      <trkpt lat="43.10064" lon="0.08667">
        <ele>499.20001220703</ele>
        <time>2021-10-07T09:18:48.000Z</time>
      </trkpt>
      <trkpt lat="43.10062" lon="0.0866">
        <ele>500</ele>
        <time>2021-10-07T09:18:50.000Z</time>
      </trkpt>
      <trkpt lat="43.10059" lon="0.08655">
        <ele>500.39999389648</ele>
        <time>2021-10-07T09:18:51.000Z</time>
      </trkpt>
      <trkpt lat="43.10052" lon="0.08643">
        <ele>501.60000610352</ele>
        <time>2021-10-07T09:18:54.000Z</time>
      </trkpt>
      <trkpt lat="43.10051" lon="0.08639">
        <ele>502</ele>
        <time>2021-10-07T09:18:55.000Z</time>
      </trkpt>
      <trkpt lat="43.10046" lon="0.08631">
        <ele>502.60000610352</ele>
        <time>2021-10-07T09:18:57.000Z</time>
      </trkpt>
      <trkpt lat="43.10043" lon="0.08625">
        <ele>504</ele>
        <time>2021-10-07T09:18:59.000Z</time>
      </trkpt>
      <trkpt lat="43.10036" lon="0.0862">
        <ele>504.79998779297</ele>
        <time>2021-10-07T09:19:01.000Z</time>
      </trkpt>
      <trkpt lat="43.10032" lon="0.08619">
        <ele>505.20001220703</ele>
        <time>2021-10-07T09:19:02.000Z</time>
      </trkpt>
      <trkpt lat="43.10021" lon="0.08617">
        <ele>506.39999389648</ele>
        <time>2021-10-07T09:19:05.000Z</time>
      </trkpt>
      <trkpt lat="43.10015" lon="0.08618">
        <ele>507.20001220703</ele>
        <time>2021-10-07T09:19:07.000Z</time>
      </trkpt>
      <trkpt lat="43.1001" lon="0.08619">
        <ele>507.60000610352</ele>
        <time>2021-10-07T09:19:08.000Z</time>
      </trkpt>
      <trkpt lat="43.10003" lon="0.08621">
        <ele>508.60000610352</ele>
        <time>2021-10-07T09:19:11.000Z</time>
      </trkpt>
      <trkpt lat="43.09992" lon="0.08626">
        <ele>510</ele>
        <time>2021-10-07T09:19:15.000Z</time>
      </trkpt>
      <trkpt lat="43.09979" lon="0.08632">
        <ele>511.39999389648</ele>
        <time>2021-10-07T09:19:20.000Z</time>
      </trkpt>
      <trkpt lat="43.09969" lon="0.08637">
        <ele>512</ele>
        <time>2021-10-07T09:19:23.000Z</time>
      </trkpt>
      <trkpt lat="43.09964" lon="0.08642">
        <ele>512.40002441406</ele>
        <time>2021-10-07T09:19:25.000Z</time>
      </trkpt>
      <trkpt lat="43.09944" lon="0.08656">
        <ele>513.40002441406</ele>
        <time>2021-10-07T09:19:31.000Z</time>
      </trkpt>
      <trkpt lat="43.09942" lon="0.0866">
        <ele>513.40002441406</ele>
        <time>2021-10-07T09:19:32.000Z</time>
      </trkpt>
      <trkpt lat="43.09923" lon="0.08687">
        <ele>514</ele>
        <time>2021-10-07T09:19:39.000Z</time>
      </trkpt>
      <trkpt lat="43.09915" lon="0.08702">
        <ele>514.59997558594</ele>
        <time>2021-10-07T09:19:43.000Z</time>
      </trkpt>
      <trkpt lat="43.09911" lon="0.08712">
        <ele>515</ele>
        <time>2021-10-07T09:19:45.000Z</time>
      </trkpt>
      <trkpt lat="43.09902" lon="0.08729">
        <ele>515.59997558594</ele>
        <time>2021-10-07T09:19:49.000Z</time>
      </trkpt>
      <trkpt lat="43.09896" lon="0.08737">
        <ele>516.20001220703</ele>
        <time>2021-10-07T09:19:51.000Z</time>
      </trkpt>
      <trkpt lat="43.09892" lon="0.08743">
        <ele>516.59997558594</ele>
        <time>2021-10-07T09:19:53.000Z</time>
      </trkpt>
      <trkpt lat="43.0989" lon="0.08745">
        <ele>517</ele>
        <time>2021-10-07T09:19:54.000Z</time>
      </trkpt>
      <trkpt lat="43.09886" lon="0.08745">
        <ele>517</ele>
        <time>2021-10-07T09:19:55.000Z</time>
      </trkpt>
      <trkpt lat="43.09885" lon="0.08743">
        <ele>517.40002441406</ele>
        <time>2021-10-07T09:19:56.000Z</time>
      </trkpt>
      <trkpt lat="43.09885" lon="0.08739">
        <ele>517.79998779297</ele>
        <time>2021-10-07T09:19:57.000Z</time>
      </trkpt>
      <trkpt lat="43.09884" lon="0.0873">
        <ele>518</ele>
        <time>2021-10-07T09:19:59.000Z</time>
      </trkpt>
      <trkpt lat="43.09884" lon="0.08727">
        <ele>518.20001220703</ele>
        <time>2021-10-07T09:20:00.000Z</time>
      </trkpt>
      <trkpt lat="43.09883" lon="0.08719">
        <ele>518.79998779297</ele>
        <time>2021-10-07T09:20:02.000Z</time>
      </trkpt>
      <trkpt lat="43.09883" lon="0.08715">
        <ele>519.20001220703</ele>
        <time>2021-10-07T09:20:03.000Z</time>
      </trkpt>
      <trkpt lat="43.09883" lon="0.08709">
        <ele>519.59997558594</ele>
        <time>2021-10-07T09:20:05.000Z</time>
      </trkpt>
      <trkpt lat="43.09877" lon="0.08688">
        <ele>520.20001220703</ele>
        <time>2021-10-07T09:20:10.000Z</time>
      </trkpt>
      <trkpt lat="43.09876" lon="0.08684">
        <ele>520.40002441406</ele>
        <time>2021-10-07T09:20:11.000Z</time>
      </trkpt>
      <trkpt lat="43.0986" lon="0.08663">
        <ele>521.40002441406</ele>
        <time>2021-10-07T09:20:17.000Z</time>
      </trkpt>
      <trkpt lat="43.09843" lon="0.08656">
        <ele>522.40002441406</ele>
        <time>2021-10-07T09:20:22.000Z</time>
      </trkpt>
      <trkpt lat="43.0984" lon="0.08656">
        <ele>522.59997558594</ele>
        <time>2021-10-07T09:20:23.000Z</time>
      </trkpt>
      <trkpt lat="43.09827" lon="0.08655">
        <ele>523.79998779297</ele>
        <time>2021-10-07T09:20:27.000Z</time>
      </trkpt>
      <trkpt lat="43.09815" lon="0.08655">
        <ele>524.59997558594</ele>
        <time>2021-10-07T09:20:31.000Z</time>
      </trkpt>
      <trkpt lat="43.09811" lon="0.08655">
        <ele>524.79998779297</ele>
        <time>2021-10-07T09:20:32.000Z</time>
      </trkpt>
      <trkpt lat="43.09802" lon="0.08654">
        <ele>525.59997558594</ele>
        <time>2021-10-07T09:20:35.000Z</time>
      </trkpt>
      <trkpt lat="43.09799" lon="0.08654">
        <ele>526</ele>
        <time>2021-10-07T09:20:36.000Z</time>
      </trkpt>
      <trkpt lat="43.09787" lon="0.08653">
        <ele>526.79998779297</ele>
        <time>2021-10-07T09:20:40.000Z</time>
      </trkpt>
      <trkpt lat="43.09784" lon="0.08653">
        <ele>527.20001220703</ele>
        <time>2021-10-07T09:20:41.000Z</time>
      </trkpt>
      <trkpt lat="43.09772" lon="0.08652">
        <ele>528.59997558594</ele>
        <time>2021-10-07T09:20:45.000Z</time>
      </trkpt>
      <trkpt lat="43.0976" lon="0.08651">
        <ele>530</ele>
        <time>2021-10-07T09:20:49.000Z</time>
      </trkpt>
      <trkpt lat="43.09749" lon="0.08648">
        <ele>531</ele>
        <time>2021-10-07T09:20:53.000Z</time>
      </trkpt>
      <trkpt lat="43.09744" lon="0.08646">
        <ele>531.59997558594</ele>
        <time>2021-10-07T09:20:55.000Z</time>
      </trkpt>
      <trkpt lat="43.09739" lon="0.08641">
        <ele>532.20001220703</ele>
        <time>2021-10-07T09:20:57.000Z</time>
      </trkpt>
      <trkpt lat="43.09735" lon="0.0863">
        <ele>532.79998779297</ele>
        <time>2021-10-07T09:21:00.000Z</time>
      </trkpt>
      <trkpt lat="43.09736" lon="0.08623">
        <ele>533.59997558594</ele>
        <time>2021-10-07T09:21:02.000Z</time>
      </trkpt>
      <trkpt lat="43.0974" lon="0.08611">
        <ele>534.79998779297</ele>
        <time>2021-10-07T09:21:06.000Z</time>
      </trkpt>
      <trkpt lat="43.09743" lon="0.08603">
        <ele>536.20001220703</ele>
        <time>2021-10-07T09:21:09.000Z</time>
      </trkpt>
      <trkpt lat="43.09744" lon="0.08597">
        <ele>537</ele>
        <time>2021-10-07T09:21:11.000Z</time>
      </trkpt>
      <trkpt lat="43.09746" lon="0.08591">
        <ele>537.40002441406</ele>
        <time>2021-10-07T09:21:13.000Z</time>
      </trkpt>
      <trkpt lat="43.09749" lon="0.08581">
        <ele>538.20001220703</ele>
        <time>2021-10-07T09:21:16.000Z</time>
      </trkpt>
      <trkpt lat="43.09751" lon="0.08573">
        <ele>539</ele>
        <time>2021-10-07T09:21:18.000Z</time>
      </trkpt>
      <trkpt lat="43.09754" lon="0.08565">
        <ele>539.59997558594</ele>
        <time>2021-10-07T09:21:20.000Z</time>
      </trkpt>
      <trkpt lat="43.0976" lon="0.08552">
        <ele>540.59997558594</ele>
        <time>2021-10-07T09:21:24.000Z</time>
      </trkpt>
      <trkpt lat="43.09762" lon="0.08549">
        <ele>541</ele>
        <time>2021-10-07T09:21:25.000Z</time>
      </trkpt>
      <trkpt lat="43.09771" lon="0.08536">
        <ele>542.40002441406</ele>
        <time>2021-10-07T09:21:30.000Z</time>
      </trkpt>
      <trkpt lat="43.09778" lon="0.08524">
        <ele>543.40002441406</ele>
        <time>2021-10-07T09:21:34.000Z</time>
      </trkpt>
      <trkpt lat="43.09784" lon="0.08515">
        <ele>544.59997558594</ele>
        <time>2021-10-07T09:21:37.000Z</time>
      </trkpt>
      <trkpt lat="43.09785" lon="0.08511">
        <ele>544.79998779297</ele>
        <time>2021-10-07T09:21:38.000Z</time>
      </trkpt>
      <trkpt lat="43.09788" lon="0.08496">
        <ele>545.59997558594</ele>
        <time>2021-10-07T09:21:42.000Z</time>
      </trkpt>
      <trkpt lat="43.09788" lon="0.08491">
        <ele>545.79998779297</ele>
        <time>2021-10-07T09:21:43.000Z</time>
      </trkpt>
      <trkpt lat="43.09789" lon="0.08477">
        <ele>546.40002441406</ele>
        <time>2021-10-07T09:21:46.000Z</time>
      </trkpt>
      <trkpt lat="43.09789" lon="0.08466">
        <ele>546.79998779297</ele>
        <time>2021-10-07T09:21:48.000Z</time>
      </trkpt>
      <trkpt lat="43.0978" lon="0.08438">
        <ele>547.59997558594</ele>
        <time>2021-10-07T09:21:54.000Z</time>
      </trkpt>
      <trkpt lat="43.09778" lon="0.08434">
        <ele>547.79998779297</ele>
        <time>2021-10-07T09:21:55.000Z</time>
      </trkpt>
      <trkpt lat="43.09765" lon="0.08417">
        <ele>548.79998779297</ele>
        <time>2021-10-07T09:22:00.000Z</time>
      </trkpt>
      <trkpt lat="43.09762" lon="0.08415">
        <ele>548.79998779297</ele>
        <time>2021-10-07T09:22:01.000Z</time>
      </trkpt>
      <trkpt lat="43.09732" lon="0.08386">
        <ele>549.79998779297</ele>
        <time>2021-10-07T09:22:10.000Z</time>
      </trkpt>
      <trkpt lat="43.09703" lon="0.08356">
        <ele>550.79998779297</ele>
        <time>2021-10-07T09:22:18.000Z</time>
      </trkpt>
      <trkpt lat="43.09699" lon="0.08353">
        <ele>551</ele>
        <time>2021-10-07T09:22:19.000Z</time>
      </trkpt>
      <trkpt lat="43.09695" lon="0.08352">
        <ele>551.20001220703</ele>
        <time>2021-10-07T09:22:20.000Z</time>
      </trkpt>
      <trkpt lat="43.09685" lon="0.08351">
        <ele>551.79998779297</ele>
        <time>2021-10-07T09:22:23.000Z</time>
      </trkpt>
      <trkpt lat="43.09682" lon="0.08353">
        <ele>552</ele>
        <time>2021-10-07T09:22:24.000Z</time>
      </trkpt>
      <trkpt lat="43.0967" lon="0.0836">
        <ele>553</ele>
        <time>2021-10-07T09:22:28.000Z</time>
      </trkpt>
      <trkpt lat="43.09664" lon="0.08367">
        <ele>553.40002441406</ele>
        <time>2021-10-07T09:22:30.000Z</time>
      </trkpt>
      <trkpt lat="43.09657" lon="0.08379">
        <ele>553.59997558594</ele>
        <time>2021-10-07T09:22:32.000Z</time>
      </trkpt>
      <trkpt lat="43.09635" lon="0.08412">
        <ele>554.40002441406</ele>
        <time>2021-10-07T09:22:39.000Z</time>
      </trkpt>
      <trkpt lat="43.09632" lon="0.08417">
        <ele>554.40002441406</ele>
        <time>2021-10-07T09:22:40.000Z</time>
      </trkpt>
      <trkpt lat="43.09616" lon="0.08446">
        <ele>555.20001220703</ele>
        <time>2021-10-07T09:22:45.000Z</time>
      </trkpt>
      <trkpt lat="43.09614" lon="0.08453">
        <ele>555.40002441406</ele>
        <time>2021-10-07T09:22:46.000Z</time>
      </trkpt>
      <trkpt lat="43.09611" lon="0.08459">
        <ele>555.59997558594</ele>
        <time>2021-10-07T09:22:47.000Z</time>
      </trkpt>
      <trkpt lat="43.09603" lon="0.0849">
        <ele>556.40002441406</ele>
        <time>2021-10-07T09:22:52.000Z</time>
      </trkpt>
      <trkpt lat="43.09602" lon="0.08495">
        <ele>556.40002441406</ele>
        <time>2021-10-07T09:22:53.000Z</time>
      </trkpt>
      <trkpt lat="43.09602" lon="0.085">
        <ele>556.59997558594</ele>
        <time>2021-10-07T09:22:54.000Z</time>
      </trkpt>
      <trkpt lat="43.09598" lon="0.08513">
        <ele>556.79998779297</ele>
        <time>2021-10-07T09:22:56.000Z</time>
      </trkpt>
      <trkpt lat="43.09593" lon="0.08527">
        <ele>556.79998779297</ele>
        <time>2021-10-07T09:22:58.000Z</time>
      </trkpt>
      <trkpt lat="43.09588" lon="0.08548">
        <ele>557</ele>
        <time>2021-10-07T09:23:01.000Z</time>
      </trkpt>
      <trkpt lat="43.09584" lon="0.08562">
        <ele>557.20001220703</ele>
        <time>2021-10-07T09:23:03.000Z</time>
      </trkpt>
      <trkpt lat="43.09576" lon="0.08587">
        <ele>557.40002441406</ele>
        <time>2021-10-07T09:23:07.000Z</time>
      </trkpt>
      <trkpt lat="43.09569" lon="0.08598">
        <ele>557.40002441406</ele>
        <time>2021-10-07T09:23:09.000Z</time>
      </trkpt>
      <trkpt lat="43.09558" lon="0.08603">
        <ele>557.59997558594</ele>
        <time>2021-10-07T09:23:11.000Z</time>
      </trkpt>
      <trkpt lat="43.09552" lon="0.08604">
        <ele>557.59997558594</ele>
        <time>2021-10-07T09:23:12.000Z</time>
      </trkpt>
      <trkpt lat="43.09546" lon="0.08603">
        <ele>557.79998779297</ele>
        <time>2021-10-07T09:23:13.000Z</time>
      </trkpt>
      <trkpt lat="43.09534" lon="0.08596">
        <ele>557.59997558594</ele>
        <time>2021-10-07T09:23:15.000Z</time>
      </trkpt>
      <trkpt lat="43.0952" lon="0.0858">
        <ele>557.59997558594</ele>
        <time>2021-10-07T09:23:18.000Z</time>
      </trkpt>
      <trkpt lat="43.09517" lon="0.08574">
        <ele>557.40002441406</ele>
        <time>2021-10-07T09:23:19.000Z</time>
      </trkpt>
      <trkpt lat="43.09498" lon="0.08548">
        <ele>556.59997558594</ele>
        <time>2021-10-07T09:23:23.000Z</time>
      </trkpt>
      <trkpt lat="43.09493" lon="0.08544">
        <ele>556</ele>
        <time>2021-10-07T09:23:24.000Z</time>
      </trkpt>
      <trkpt lat="43.09486" lon="0.0854">
        <ele>555.59997558594</ele>
        <time>2021-10-07T09:23:25.000Z</time>
      </trkpt>
      <trkpt lat="43.09471" lon="0.08536">
        <ele>554.59997558594</ele>
        <time>2021-10-07T09:23:27.000Z</time>
      </trkpt>
      <trkpt lat="43.09452" lon="0.08537">
        <ele>553.20001220703</ele>
        <time>2021-10-07T09:23:29.000Z</time>
      </trkpt>
      <trkpt lat="43.09434" lon="0.08541">
        <ele>551.79998779297</ele>
        <time>2021-10-07T09:23:31.000Z</time>
      </trkpt>
      <trkpt lat="43.09418" lon="0.08544">
        <ele>550.59997558594</ele>
        <time>2021-10-07T09:23:33.000Z</time>
      </trkpt>
      <trkpt lat="43.09403" lon="0.0855">
        <ele>549.40002441406</ele>
        <time>2021-10-07T09:23:35.000Z</time>
      </trkpt>
      <trkpt lat="43.09395" lon="0.08553">
        <ele>549</ele>
        <time>2021-10-07T09:23:36.000Z</time>
      </trkpt>
      <trkpt lat="43.09372" lon="0.08557">
        <ele>548.20001220703</ele>
        <time>2021-10-07T09:23:39.000Z</time>
      </trkpt>
      <trkpt lat="43.09366" lon="0.08557">
        <ele>548</ele>
        <time>2021-10-07T09:23:40.000Z</time>
      </trkpt>
      <trkpt lat="43.09359" lon="0.08557">
        <ele>548</ele>
        <time>2021-10-07T09:23:41.000Z</time>
      </trkpt>
      <trkpt lat="43.09334" lon="0.08553">
        <ele>548.40002441406</ele>
        <time>2021-10-07T09:23:46.000Z</time>
      </trkpt>
      <trkpt lat="43.09325" lon="0.08552">
        <ele>549.59997558594</ele>
        <time>2021-10-07T09:23:48.000Z</time>
      </trkpt>
      <trkpt lat="43.0932" lon="0.08551">
        <ele>549.79998779297</ele>
        <time>2021-10-07T09:23:49.000Z</time>
      </trkpt>
      <trkpt lat="43.09313" lon="0.08546">
        <ele>550.20001220703</ele>
        <time>2021-10-07T09:23:51.000Z</time>
      </trkpt>
      <trkpt lat="43.09309" lon="0.08536">
        <ele>550.79998779297</ele>
        <time>2021-10-07T09:23:53.000Z</time>
      </trkpt>
      <trkpt lat="43.0931" lon="0.0853">
        <ele>551.20001220703</ele>
        <time>2021-10-07T09:23:54.000Z</time>
      </trkpt>
      <trkpt lat="43.09312" lon="0.08525">
        <ele>551.40002441406</ele>
        <time>2021-10-07T09:23:55.000Z</time>
      </trkpt>
      <trkpt lat="43.09319" lon="0.08519">
        <ele>552</ele>
        <time>2021-10-07T09:23:57.000Z</time>
      </trkpt>
      <trkpt lat="43.09323" lon="0.08517">
        <ele>552</ele>
        <time>2021-10-07T09:23:58.000Z</time>
      </trkpt>
      <trkpt lat="43.09335" lon="0.08509">
        <ele>553</ele>
        <time>2021-10-07T09:24:01.000Z</time>
      </trkpt>
      <trkpt lat="43.0934" lon="0.08504">
        <ele>553.59997558594</ele>
        <time>2021-10-07T09:24:03.000Z</time>
      </trkpt>
      <trkpt lat="43.09351" lon="0.08497">
        <ele>554.20001220703</ele>
        <time>2021-10-07T09:24:06.000Z</time>
      </trkpt>
      <trkpt lat="43.09359" lon="0.08492">
        <ele>554.59997558594</ele>
        <time>2021-10-07T09:24:08.000Z</time>
      </trkpt>
      <trkpt lat="43.09366" lon="0.08483">
        <ele>555.20001220703</ele>
        <time>2021-10-07T09:24:10.000Z</time>
      </trkpt>
      <trkpt lat="43.0937" lon="0.08479">
        <ele>555.40002441406</ele>
        <time>2021-10-07T09:24:11.000Z</time>
      </trkpt>
      <trkpt lat="43.09373" lon="0.08475">
        <ele>555.40002441406</ele>
        <time>2021-10-07T09:24:12.000Z</time>
      </trkpt>
      <trkpt lat="43.09381" lon="0.08462">
        <ele>556</ele>
        <time>2021-10-07T09:24:15.000Z</time>
      </trkpt>
      <trkpt lat="43.09384" lon="0.08459">
        <ele>556.40002441406</ele>
        <time>2021-10-07T09:24:16.000Z</time>
      </trkpt>
      <trkpt lat="43.09388" lon="0.08454">
        <ele>556.40002441406</ele>
        <time>2021-10-07T09:24:17.000Z</time>
      </trkpt>
      <trkpt lat="43.09398" lon="0.08442">
        <ele>556.59997558594</ele>
        <time>2021-10-07T09:24:20.000Z</time>
      </trkpt>
      <trkpt lat="43.09401" lon="0.08438">
        <ele>556.79998779297</ele>
        <time>2021-10-07T09:24:21.000Z</time>
      </trkpt>
      <trkpt lat="43.09415" lon="0.08415">
        <ele>557.20001220703</ele>
        <time>2021-10-07T09:24:26.000Z</time>
      </trkpt>
      <trkpt lat="43.09417" lon="0.0841">
        <ele>557.40002441406</ele>
        <time>2021-10-07T09:24:27.000Z</time>
      </trkpt>
      <trkpt lat="43.09426" lon="0.08381">
        <ele>558.20001220703</ele>
        <time>2021-10-07T09:24:32.000Z</time>
      </trkpt>
      <trkpt lat="43.09428" lon="0.08375">
        <ele>558.40002441406</ele>
        <time>2021-10-07T09:24:33.000Z</time>
      </trkpt>
      <trkpt lat="43.09431" lon="0.08371">
        <ele>558.40002441406</ele>
        <time>2021-10-07T09:24:34.000Z</time>
      </trkpt>
      <trkpt lat="43.09436" lon="0.08356">
        <ele>558.59997558594</ele>
        <time>2021-10-07T09:24:37.000Z</time>
      </trkpt>
      <trkpt lat="43.09437" lon="0.0835">
        <ele>558.59997558594</ele>
        <time>2021-10-07T09:24:38.000Z</time>
      </trkpt>
      <trkpt lat="43.09438" lon="0.08328">
        <ele>559.20001220703</ele>
        <time>2021-10-07T09:24:42.000Z</time>
      </trkpt>
      <trkpt lat="43.09438" lon="0.08323">
        <ele>559.40002441406</ele>
        <time>2021-10-07T09:24:43.000Z</time>
      </trkpt>
      <trkpt lat="43.09438" lon="0.08317">
        <ele>559.59997558594</ele>
        <time>2021-10-07T09:24:44.000Z</time>
      </trkpt>
      <trkpt lat="43.09436" lon="0.08289">
        <ele>560.40002441406</ele>
        <time>2021-10-07T09:24:49.000Z</time>
      </trkpt>
      <trkpt lat="43.09436" lon="0.08276">
        <ele>561</ele>
        <time>2021-10-07T09:24:51.000Z</time>
      </trkpt>
      <trkpt lat="43.09436" lon="0.0827">
        <ele>561.20001220703</ele>
        <time>2021-10-07T09:24:52.000Z</time>
      </trkpt>
      <trkpt lat="43.09435" lon="0.08259">
        <ele>561.40002441406</ele>
        <time>2021-10-07T09:24:54.000Z</time>
      </trkpt>
      <trkpt lat="43.09432" lon="0.08243">
        <ele>562.20001220703</ele>
        <time>2021-10-07T09:24:57.000Z</time>
      </trkpt>
      <trkpt lat="43.09429" lon="0.08232">
        <ele>562.40002441406</ele>
        <time>2021-10-07T09:24:59.000Z</time>
      </trkpt>
      <trkpt lat="43.09423" lon="0.08214">
        <ele>563.59997558594</ele>
        <time>2021-10-07T09:25:03.000Z</time>
      </trkpt>
      <trkpt lat="43.09419" lon="0.08207">
        <ele>564.20001220703</ele>
        <time>2021-10-07T09:25:05.000Z</time>
      </trkpt>
      <trkpt lat="43.09415" lon="0.08201">
        <ele>565</ele>
        <time>2021-10-07T09:25:07.000Z</time>
      </trkpt>
      <trkpt lat="43.09409" lon="0.08199">
        <ele>565.59997558594</ele>
        <time>2021-10-07T09:25:09.000Z</time>
      </trkpt>
      <trkpt lat="43.09406" lon="0.08199">
        <ele>566</ele>
        <time>2021-10-07T09:25:10.000Z</time>
      </trkpt>
      <trkpt lat="43.09396" lon="0.08201">
        <ele>567.40002441406</ele>
        <time>2021-10-07T09:25:14.000Z</time>
      </trkpt>
      <trkpt lat="43.09391" lon="0.08202">
        <ele>568.20001220703</ele>
        <time>2021-10-07T09:25:16.000Z</time>
      </trkpt>
      <trkpt lat="43.09387" lon="0.08204">
        <ele>568.59997558594</ele>
        <time>2021-10-07T09:25:18.000Z</time>
      </trkpt>
      <trkpt lat="43.09379" lon="0.08207">
        <ele>569.59997558594</ele>
        <time>2021-10-07T09:25:21.000Z</time>
      </trkpt>
      <trkpt lat="43.09366" lon="0.08211">
        <ele>570.79998779297</ele>
        <time>2021-10-07T09:25:26.000Z</time>
      </trkpt>
      <trkpt lat="43.09363" lon="0.08212">
        <ele>570.79998779297</ele>
        <time>2021-10-07T09:25:27.000Z</time>
      </trkpt>
      <trkpt lat="43.09351" lon="0.08219">
        <ele>572.20001220703</ele>
        <time>2021-10-07T09:25:32.000Z</time>
      </trkpt>
      <trkpt lat="43.09346" lon="0.08221">
        <ele>573</ele>
        <time>2021-10-07T09:25:34.000Z</time>
      </trkpt>
      <trkpt lat="43.0934" lon="0.08224">
        <ele>573.79998779297</ele>
        <time>2021-10-07T09:25:37.000Z</time>
      </trkpt>
      <trkpt lat="43.09326" lon="0.0823">
        <ele>575</ele>
        <time>2021-10-07T09:25:42.000Z</time>
      </trkpt>
      <trkpt lat="43.09317" lon="0.08236">
        <ele>576.40002441406</ele>
        <time>2021-10-07T09:25:46.000Z</time>
      </trkpt>
      <trkpt lat="43.09309" lon="0.0824">
        <ele>577.40002441406</ele>
        <time>2021-10-07T09:25:49.000Z</time>
      </trkpt>
      <trkpt lat="43.09304" lon="0.08243">
        <ele>578</ele>
        <time>2021-10-07T09:25:51.000Z</time>
      </trkpt>
      <trkpt lat="43.09298" lon="0.08245">
        <ele>578.79998779297</ele>
        <time>2021-10-07T09:25:53.000Z</time>
      </trkpt>
      <trkpt lat="43.09289" lon="0.08251">
        <ele>579.79998779297</ele>
        <time>2021-10-07T09:25:57.000Z</time>
      </trkpt>
      <trkpt lat="43.09287" lon="0.08252">
        <ele>579.79998779297</ele>
        <time>2021-10-07T09:25:58.000Z</time>
      </trkpt>
      <trkpt lat="43.09282" lon="0.08254">
        <ele>580.79998779297</ele>
        <time>2021-10-07T09:26:00.000Z</time>
      </trkpt>
      <trkpt lat="43.09277" lon="0.08259">
        <ele>581.79998779297</ele>
        <time>2021-10-07T09:26:03.000Z</time>
      </trkpt>
      <trkpt lat="43.09271" lon="0.08261">
        <ele>582.20001220703</ele>
        <time>2021-10-07T09:26:05.000Z</time>
      </trkpt>
      <trkpt lat="43.09262" lon="0.08267">
        <ele>583</ele>
        <time>2021-10-07T09:26:09.000Z</time>
      </trkpt>
      <trkpt lat="43.09256" lon="0.08269">
        <ele>583.40002441406</ele>
        <time>2021-10-07T09:26:11.000Z</time>
      </trkpt>
      <trkpt lat="43.09249" lon="0.08274">
        <ele>584</ele>
        <time>2021-10-07T09:26:14.000Z</time>
      </trkpt>
      <trkpt lat="43.09235" lon="0.08284">
        <ele>584.79998779297</ele>
        <time>2021-10-07T09:26:19.000Z</time>
      </trkpt>
      <trkpt lat="43.09224" lon="0.08289">
        <ele>585.20001220703</ele>
        <time>2021-10-07T09:26:22.000Z</time>
      </trkpt>
      <trkpt lat="43.0921" lon="0.08296">
        <ele>585.40002441406</ele>
        <time>2021-10-07T09:26:26.000Z</time>
      </trkpt>
      <trkpt lat="43.09187" lon="0.08306">
        <ele>585.40002441406</ele>
        <time>2021-10-07T09:26:33.000Z</time>
      </trkpt>
      <trkpt lat="43.0917" lon="0.08312">
        <ele>586</ele>
        <time>2021-10-07T09:26:38.000Z</time>
      </trkpt>
      <trkpt lat="43.09154" lon="0.0832">
        <ele>587</ele>
        <time>2021-10-07T09:26:44.000Z</time>
      </trkpt>
      <trkpt lat="43.09152" lon="0.08321">
        <ele>587.20001220703</ele>
        <time>2021-10-07T09:26:45.000Z</time>
      </trkpt>
      <trkpt lat="43.09143" lon="0.08326">
        <ele>588.40002441406</ele>
        <time>2021-10-07T09:26:50.000Z</time>
      </trkpt>
      <trkpt lat="43.09133" lon="0.0833">
        <ele>589.40002441406</ele>
        <time>2021-10-07T09:26:54.000Z</time>
      </trkpt>
      <trkpt lat="43.09121" lon="0.08332">
        <ele>590.40002441406</ele>
        <time>2021-10-07T09:26:58.000Z</time>
      </trkpt>
      <trkpt lat="43.09118" lon="0.08333">
        <ele>590.79998779297</ele>
        <time>2021-10-07T09:26:59.000Z</time>
      </trkpt>
      <trkpt lat="43.09113" lon="0.08335">
        <ele>591.20001220703</ele>
        <time>2021-10-07T09:27:01.000Z</time>
      </trkpt>
      <trkpt lat="43.0911" lon="0.08336">
        <ele>591.40002441406</ele>
        <time>2021-10-07T09:27:02.000Z</time>
      </trkpt>
      <trkpt lat="43.09107" lon="0.08336">
        <ele>591.79998779297</ele>
        <time>2021-10-07T09:27:03.000Z</time>
      </trkpt>
      <trkpt lat="43.09093" lon="0.08335">
        <ele>593</ele>
        <time>2021-10-07T09:27:07.000Z</time>
      </trkpt>
      <trkpt lat="43.09089" lon="0.08334">
        <ele>593.40002441406</ele>
        <time>2021-10-07T09:27:08.000Z</time>
      </trkpt>
      <trkpt lat="43.09082" lon="0.08329">
        <ele>593.79998779297</ele>
        <time>2021-10-07T09:27:10.000Z</time>
      </trkpt>
      <trkpt lat="43.0908" lon="0.08326">
        <ele>594.40002441406</ele>
        <time>2021-10-07T09:27:11.000Z</time>
      </trkpt>
      <trkpt lat="43.0908" lon="0.08321">
        <ele>594.59997558594</ele>
        <time>2021-10-07T09:27:12.000Z</time>
      </trkpt>
      <trkpt lat="43.09086" lon="0.08299">
        <ele>595.20001220703</ele>
        <time>2021-10-07T09:27:17.000Z</time>
      </trkpt>
      <trkpt lat="43.09089" lon="0.08295">
        <ele>595.20001220703</ele>
        <time>2021-10-07T09:27:18.000Z</time>
      </trkpt>
      <trkpt lat="43.09101" lon="0.08277">
        <ele>595.40002441406</ele>
        <time>2021-10-07T09:27:22.000Z</time>
      </trkpt>
      <trkpt lat="43.0911" lon="0.0826">
        <ele>595.40002441406</ele>
        <time>2021-10-07T09:27:26.000Z</time>
      </trkpt>
      <trkpt lat="43.0912" lon="0.08232">
        <ele>595.59997558594</ele>
        <time>2021-10-07T09:27:31.000Z</time>
      </trkpt>
      <trkpt lat="43.09127" lon="0.08213">
        <ele>595.79998779297</ele>
        <time>2021-10-07T09:27:34.000Z</time>
      </trkpt>
      <trkpt lat="43.09128" lon="0.08207">
        <ele>596</ele>
        <time>2021-10-07T09:27:35.000Z</time>
      </trkpt>
      <trkpt lat="43.09129" lon="0.082">
        <ele>596</ele>
        <time>2021-10-07T09:27:36.000Z</time>
      </trkpt>
      <trkpt lat="43.0913" lon="0.08186">
        <ele>595.79998779297</ele>
        <time>2021-10-07T09:27:38.000Z</time>
      </trkpt>
      <trkpt lat="43.09127" lon="0.08171">
        <ele>595.79998779297</ele>
        <time>2021-10-07T09:27:40.000Z</time>
      </trkpt>
      <trkpt lat="43.09123" lon="0.08157">
        <ele>595.59997558594</ele>
        <time>2021-10-07T09:27:42.000Z</time>
      </trkpt>
      <trkpt lat="43.09115" lon="0.08143">
        <ele>595.40002441406</ele>
        <time>2021-10-07T09:27:44.000Z</time>
      </trkpt>
      <trkpt lat="43.09091" lon="0.08121">
        <ele>594.20001220703</ele>
        <time>2021-10-07T09:27:48.000Z</time>
      </trkpt>
      <trkpt lat="43.09084" lon="0.08116">
        <ele>594</ele>
        <time>2021-10-07T09:27:49.000Z</time>
      </trkpt>
      <trkpt lat="43.09066" lon="0.08103">
        <ele>592.40002441406</ele>
        <time>2021-10-07T09:27:52.000Z</time>
      </trkpt>
      <trkpt lat="43.0905" lon="0.08091">
        <ele>591.79998779297</ele>
        <time>2021-10-07T09:27:55.000Z</time>
      </trkpt>
      <trkpt lat="43.09044" lon="0.08087">
        <ele>591.59997558594</ele>
        <time>2021-10-07T09:27:56.000Z</time>
      </trkpt>
      <trkpt lat="43.09039" lon="0.08074">
        <ele>591.40002441406</ele>
        <time>2021-10-07T09:27:58.000Z</time>
      </trkpt>
      <trkpt lat="43.09039" lon="0.08069">
        <ele>591.40002441406</ele>
        <time>2021-10-07T09:27:59.000Z</time>
      </trkpt>
      <trkpt lat="43.09041" lon="0.08061">
        <ele>591.20001220703</ele>
        <time>2021-10-07T09:28:00.000Z</time>
      </trkpt>
      <trkpt lat="43.09043" lon="0.08056">
        <ele>591.20001220703</ele>
        <time>2021-10-07T09:28:01.000Z</time>
      </trkpt>
      <trkpt lat="43.09046" lon="0.08052">
        <ele>591.20001220703</ele>
        <time>2021-10-07T09:28:02.000Z</time>
      </trkpt>
      <trkpt lat="43.09056" lon="0.08039">
        <ele>591.40002441406</ele>
        <time>2021-10-07T09:28:05.000Z</time>
      </trkpt>
      <trkpt lat="43.09059" lon="0.08035">
        <ele>591.40002441406</ele>
        <time>2021-10-07T09:28:06.000Z</time>
      </trkpt>
      <trkpt lat="43.09073" lon="0.08014">
        <ele>592.59997558594</ele>
        <time>2021-10-07T09:28:11.000Z</time>
      </trkpt>
      <trkpt lat="43.09075" lon="0.0801">
        <ele>592.79998779297</ele>
        <time>2021-10-07T09:28:12.000Z</time>
      </trkpt>
      <trkpt lat="43.0908" lon="0.08004">
        <ele>593.79998779297</ele>
        <time>2021-10-07T09:28:14.000Z</time>
      </trkpt>
      <trkpt lat="43.09091" lon="0.07992">
        <ele>594.59997558594</ele>
        <time>2021-10-07T09:28:18.000Z</time>
      </trkpt>
      <trkpt lat="43.09095" lon="0.07989">
        <ele>594.79998779297</ele>
        <time>2021-10-07T09:28:19.000Z</time>
      </trkpt>
      <trkpt lat="43.091" lon="0.07984">
        <ele>596</ele>
        <time>2021-10-07T09:28:21.000Z</time>
      </trkpt>
      <trkpt lat="43.09106" lon="0.07979">
        <ele>596.59997558594</ele>
        <time>2021-10-07T09:28:23.000Z</time>
      </trkpt>
      <trkpt lat="43.09112" lon="0.07974">
        <ele>597.20001220703</ele>
        <time>2021-10-07T09:28:25.000Z</time>
      </trkpt>
      <trkpt lat="43.09119" lon="0.07971">
        <ele>598.40002441406</ele>
        <time>2021-10-07T09:28:28.000Z</time>
      </trkpt>
      <trkpt lat="43.09129" lon="0.07965">
        <ele>599.59997558594</ele>
        <time>2021-10-07T09:28:32.000Z</time>
      </trkpt>
      <trkpt lat="43.09133" lon="0.07961">
        <ele>600.59997558594</ele>
        <time>2021-10-07T09:28:34.000Z</time>
      </trkpt>
      <trkpt lat="43.09137" lon="0.07953">
        <ele>602.20001220703</ele>
        <time>2021-10-07T09:28:37.000Z</time>
      </trkpt>
      <trkpt lat="43.09137" lon="0.07949">
        <ele>602.59997558594</ele>
        <time>2021-10-07T09:28:38.000Z</time>
      </trkpt>
      <trkpt lat="43.09137" lon="0.07945">
        <ele>603.40002441406</ele>
        <time>2021-10-07T09:28:39.000Z</time>
      </trkpt>
      <trkpt lat="43.09134" lon="0.07932">
        <ele>604.59997558594</ele>
        <time>2021-10-07T09:28:42.000Z</time>
      </trkpt>
      <trkpt lat="43.09132" lon="0.07924">
        <ele>605.20001220703</ele>
        <time>2021-10-07T09:28:44.000Z</time>
      </trkpt>
      <trkpt lat="43.0913" lon="0.07917">
        <ele>605.79998779297</ele>
        <time>2021-10-07T09:28:46.000Z</time>
      </trkpt>
      <trkpt lat="43.09125" lon="0.07908">
        <ele>606.79998779297</ele>
        <time>2021-10-07T09:28:49.000Z</time>
      </trkpt>
      <trkpt lat="43.09121" lon="0.07899">
        <ele>607.59997558594</ele>
        <time>2021-10-07T09:28:52.000Z</time>
      </trkpt>
      <trkpt lat="43.09119" lon="0.07895">
        <ele>608</ele>
        <time>2021-10-07T09:28:53.000Z</time>
      </trkpt>
      <trkpt lat="43.09114" lon="0.07884">
        <ele>609</ele>
        <time>2021-10-07T09:28:56.000Z</time>
      </trkpt>
      <trkpt lat="43.0911" lon="0.07869">
        <ele>610</ele>
        <time>2021-10-07T09:29:00.000Z</time>
      </trkpt>
      <trkpt lat="43.09109" lon="0.07865">
        <ele>610.20001220703</ele>
        <time>2021-10-07T09:29:01.000Z</time>
      </trkpt>
      <trkpt lat="43.09102" lon="0.0784">
        <ele>611.40002441406</ele>
        <time>2021-10-07T09:29:07.000Z</time>
      </trkpt>
      <trkpt lat="43.09098" lon="0.07823">
        <ele>612.20001220703</ele>
        <time>2021-10-07T09:29:11.000Z</time>
      </trkpt>
      <trkpt lat="43.09095" lon="0.07807">
        <ele>612.59997558594</ele>
        <time>2021-10-07T09:29:14.000Z</time>
      </trkpt>
      <trkpt lat="43.0909" lon="0.0779">
        <ele>612.79998779297</ele>
        <time>2021-10-07T09:29:17.000Z</time>
      </trkpt>
      <trkpt lat="43.09071" lon="0.07759">
        <ele>613</ele>
        <time>2021-10-07T09:29:23.000Z</time>
      </trkpt>
      <trkpt lat="43.09063" lon="0.07751">
        <ele>613</ele>
        <time>2021-10-07T09:29:25.000Z</time>
      </trkpt>
      <trkpt lat="43.09055" lon="0.07746">
        <ele>613</ele>
        <time>2021-10-07T09:29:27.000Z</time>
      </trkpt>
      <trkpt lat="43.0905" lon="0.07744">
        <ele>613.20001220703</ele>
        <time>2021-10-07T09:29:28.000Z</time>
      </trkpt>
      <trkpt lat="43.09046" lon="0.07743">
        <ele>613.40002441406</ele>
        <time>2021-10-07T09:29:29.000Z</time>
      </trkpt>
      <trkpt lat="43.09025" lon="0.0774">
        <ele>613.59997558594</ele>
        <time>2021-10-07T09:29:33.000Z</time>
      </trkpt>
      <trkpt lat="43.09015" lon="0.07742">
        <ele>613.79998779297</ele>
        <time>2021-10-07T09:29:35.000Z</time>
      </trkpt>
      <trkpt lat="43.09" lon="0.07747">
        <ele>614</ele>
        <time>2021-10-07T09:29:39.000Z</time>
      </trkpt>
      <trkpt lat="43.08987" lon="0.07755">
        <ele>614.79998779297</ele>
        <time>2021-10-07T09:29:43.000Z</time>
      </trkpt>
      <trkpt lat="43.08984" lon="0.07756">
        <ele>615.20001220703</ele>
        <time>2021-10-07T09:29:44.000Z</time>
      </trkpt>
      <trkpt lat="43.08978" lon="0.07762">
        <ele>616.59997558594</ele>
        <time>2021-10-07T09:29:47.000Z</time>
      </trkpt>
      <trkpt lat="43.08972" lon="0.07766">
        <ele>617.79998779297</ele>
        <time>2021-10-07T09:29:50.000Z</time>
      </trkpt>
      <trkpt lat="43.08969" lon="0.07767">
        <ele>618</ele>
        <time>2021-10-07T09:29:51.000Z</time>
      </trkpt>
      <trkpt lat="43.08964" lon="0.0777">
        <ele>619.20001220703</ele>
        <time>2021-10-07T09:29:54.000Z</time>
      </trkpt>
      <trkpt lat="43.08959" lon="0.07772">
        <ele>620</ele>
        <time>2021-10-07T09:29:56.000Z</time>
      </trkpt>
      <trkpt lat="43.08957" lon="0.07774">
        <ele>620.20001220703</ele>
        <time>2021-10-07T09:29:57.000Z</time>
      </trkpt>
      <trkpt lat="43.0895" lon="0.0778">
        <ele>621.59997558594</ele>
        <time>2021-10-07T09:30:01.000Z</time>
      </trkpt>
      <trkpt lat="43.08946" lon="0.07783">
        <ele>622.59997558594</ele>
        <time>2021-10-07T09:30:03.000Z</time>
      </trkpt>
      <trkpt lat="43.08944" lon="0.07784">
        <ele>623</ele>
        <time>2021-10-07T09:30:04.000Z</time>
      </trkpt>
      <trkpt lat="43.0894" lon="0.07788">
        <ele>624</ele>
        <time>2021-10-07T09:30:07.000Z</time>
      </trkpt>
      <trkpt lat="43.08936" lon="0.07791">
        <ele>624.59997558594</ele>
        <time>2021-10-07T09:30:09.000Z</time>
      </trkpt>
      <trkpt lat="43.08935" lon="0.07793">
        <ele>625.20001220703</ele>
        <time>2021-10-07T09:30:10.000Z</time>
      </trkpt>
      <trkpt lat="43.08929" lon="0.07796">
        <ele>626.40002441406</ele>
        <time>2021-10-07T09:30:13.000Z</time>
      </trkpt>
      <trkpt lat="43.08925" lon="0.07798">
        <ele>627.20001220703</ele>
        <time>2021-10-07T09:30:15.000Z</time>
      </trkpt>
      <trkpt lat="43.08921" lon="0.07801">
        <ele>627.79998779297</ele>
        <time>2021-10-07T09:30:17.000Z</time>
      </trkpt>
      <trkpt lat="43.08912" lon="0.07808">
        <ele>628.79998779297</ele>
        <time>2021-10-07T09:30:21.000Z</time>
      </trkpt>
      <trkpt lat="43.08903" lon="0.07811">
        <ele>630.20001220703</ele>
        <time>2021-10-07T09:30:26.000Z</time>
      </trkpt>
      <trkpt lat="43.08898" lon="0.07811">
        <ele>630.59997558594</ele>
        <time>2021-10-07T09:30:28.000Z</time>
      </trkpt>
      <trkpt lat="43.08893" lon="0.07814">
        <ele>631.40002441406</ele>
        <time>2021-10-07T09:30:31.000Z</time>
      </trkpt>
      <trkpt lat="43.08886" lon="0.07815">
        <ele>632.59997558594</ele>
        <time>2021-10-07T09:30:35.000Z</time>
      </trkpt>
      <trkpt lat="43.08884" lon="0.07815">
        <ele>633</ele>
        <time>2021-10-07T09:30:36.000Z</time>
      </trkpt>
      <trkpt lat="43.08876" lon="0.07812">
        <ele>633.79998779297</ele>
        <time>2021-10-07T09:30:40.000Z</time>
      </trkpt>
      <trkpt lat="43.08872" lon="0.0781">
        <ele>634.40002441406</ele>
        <time>2021-10-07T09:30:42.000Z</time>
      </trkpt>
      <trkpt lat="43.08871" lon="0.07808">
        <ele>635</ele>
        <time>2021-10-07T09:30:43.000Z</time>
      </trkpt>
      <trkpt lat="43.08864" lon="0.07803">
        <ele>636.20001220703</ele>
        <time>2021-10-07T09:30:47.000Z</time>
      </trkpt>
      <trkpt lat="43.08857" lon="0.078">
        <ele>637.20001220703</ele>
        <time>2021-10-07T09:30:51.000Z</time>
      </trkpt>
      <trkpt lat="43.08852" lon="0.07799">
        <ele>638.20001220703</ele>
        <time>2021-10-07T09:30:54.000Z</time>
      </trkpt>
      <trkpt lat="43.08844" lon="0.07798">
        <ele>639.40002441406</ele>
        <time>2021-10-07T09:30:58.000Z</time>
      </trkpt>
      <trkpt lat="43.08843" lon="0.07798">
        <ele>639.59997558594</ele>
        <time>2021-10-07T09:30:59.000Z</time>
      </trkpt>
      <trkpt lat="43.08835" lon="0.07802">
        <ele>640.59997558594</ele>
        <time>2021-10-07T09:31:03.000Z</time>
      </trkpt>
      <trkpt lat="43.0883" lon="0.07806">
        <ele>641.59997558594</ele>
        <time>2021-10-07T09:31:06.000Z</time>
      </trkpt>
      <trkpt lat="43.08829" lon="0.07808">
        <ele>641.79998779297</ele>
        <time>2021-10-07T09:31:07.000Z</time>
      </trkpt>
      <trkpt lat="43.08822" lon="0.07813">
        <ele>642.79998779297</ele>
        <time>2021-10-07T09:31:11.000Z</time>
      </trkpt>
      <trkpt lat="43.0882" lon="0.07815">
        <ele>643.20001220703</ele>
        <time>2021-10-07T09:31:13.000Z</time>
      </trkpt>
      <trkpt lat="43.08817" lon="0.07818">
        <ele>643.79998779297</ele>
        <time>2021-10-07T09:31:16.000Z</time>
      </trkpt>
      <trkpt lat="43.0881" lon="0.07824">
        <ele>644.20001220703</ele>
        <time>2021-10-07T09:31:21.000Z</time>
      </trkpt>
      <trkpt lat="43.08806" lon="0.07829">
        <ele>645</ele>
        <time>2021-10-07T09:31:25.000Z</time>
      </trkpt>
      <trkpt lat="43.08801" lon="0.07834">
        <ele>645.40002441406</ele>
        <time>2021-10-07T09:31:30.000Z</time>
      </trkpt>
      <trkpt lat="43.08798" lon="0.07838">
        <ele>646</ele>
        <time>2021-10-07T09:31:34.000Z</time>
      </trkpt>
      <trkpt lat="43.08789" lon="0.07843">
        <ele>647.20001220703</ele>
        <time>2021-10-07T09:31:41.000Z</time>
      </trkpt>
      <trkpt lat="43.08788" lon="0.07843">
        <ele>647.40002441406</ele>
        <time>2021-10-07T09:31:42.000Z</time>
      </trkpt>
      <trkpt lat="43.08783" lon="0.07844">
        <ele>648.20001220703</ele>
        <time>2021-10-07T09:31:46.000Z</time>
      </trkpt>
      <trkpt lat="43.08775" lon="0.07846">
        <ele>649.40002441406</ele>
        <time>2021-10-07T09:31:52.000Z</time>
      </trkpt>
      <trkpt lat="43.08774" lon="0.07846">
        <ele>649.79998779297</ele>
        <time>2021-10-07T09:31:53.000Z</time>
      </trkpt>
      <trkpt lat="43.08769" lon="0.07847">
        <ele>650.40002441406</ele>
        <time>2021-10-07T09:31:56.000Z</time>
      </trkpt>
      <trkpt lat="43.08764" lon="0.07846">
        <ele>651.40002441406</ele>
        <time>2021-10-07T09:32:00.000Z</time>
      </trkpt>
      <trkpt lat="43.08761" lon="0.07845">
        <ele>651.79998779297</ele>
        <time>2021-10-07T09:32:02.000Z</time>
      </trkpt>
      <trkpt lat="43.0875" lon="0.07834">
        <ele>652.40002441406</ele>
        <time>2021-10-07T09:32:10.000Z</time>
      </trkpt>
      <trkpt lat="43.0874" lon="0.0782">
        <ele>653.40002441406</ele>
        <time>2021-10-07T09:32:18.000Z</time>
      </trkpt>
      <trkpt lat="43.08726" lon="0.07812">
        <ele>654.20001220703</ele>
        <time>2021-10-07T09:32:26.000Z</time>
      </trkpt>
      <trkpt lat="43.08721" lon="0.0781">
        <ele>654.40002441406</ele>
        <time>2021-10-07T09:32:29.000Z</time>
      </trkpt>
      <trkpt lat="43.08712" lon="0.07808">
        <ele>655.59997558594</ele>
        <time>2021-10-07T09:32:34.000Z</time>
      </trkpt>
      <trkpt lat="43.0871" lon="0.07808">
        <ele>655.79998779297</ele>
        <time>2021-10-07T09:32:35.000Z</time>
      </trkpt>
      <trkpt lat="43.08702" lon="0.07807">
        <ele>656.59997558594</ele>
        <time>2021-10-07T09:32:40.000Z</time>
      </trkpt>
      <trkpt lat="43.08694" lon="0.07806">
        <ele>657.59997558594</ele>
        <time>2021-10-07T09:32:44.000Z</time>
      </trkpt>
      <trkpt lat="43.08685" lon="0.07805">
        <ele>658.79998779297</ele>
        <time>2021-10-07T09:32:49.000Z</time>
      </trkpt>
      <trkpt lat="43.08678" lon="0.07805">
        <ele>659.59997558594</ele>
        <time>2021-10-07T09:32:53.000Z</time>
      </trkpt>
      <trkpt lat="43.08676" lon="0.07805">
        <ele>659.79998779297</ele>
        <time>2021-10-07T09:32:54.000Z</time>
      </trkpt>
      <trkpt lat="43.08663" lon="0.07804">
        <ele>660.79998779297</ele>
        <time>2021-10-07T09:33:01.000Z</time>
      </trkpt>
      <trkpt lat="43.08655" lon="0.07803">
        <ele>661.40002441406</ele>
        <time>2021-10-07T09:33:05.000Z</time>
      </trkpt>
      <trkpt lat="43.08646" lon="0.078">
        <ele>661.79998779297</ele>
        <time>2021-10-07T09:33:09.000Z</time>
      </trkpt>
      <trkpt lat="43.08632" lon="0.07794">
        <ele>662.40002441406</ele>
        <time>2021-10-07T09:33:16.000Z</time>
      </trkpt>
      <trkpt lat="43.08626" lon="0.07788">
        <ele>663</ele>
        <time>2021-10-07T09:33:19.000Z</time>
      </trkpt>
      <trkpt lat="43.08619" lon="0.07777">
        <ele>663</ele>
        <time>2021-10-07T09:33:24.000Z</time>
      </trkpt>
      <trkpt lat="43.08612" lon="0.07763">
        <ele>663.79998779297</ele>
        <time>2021-10-07T09:33:30.000Z</time>
      </trkpt>
      <trkpt lat="43.08609" lon="0.07757">
        <ele>664</ele>
        <time>2021-10-07T09:33:32.000Z</time>
      </trkpt>
      <trkpt lat="43.08601" lon="0.07736">
        <ele>664</ele>
        <time>2021-10-07T09:33:40.000Z</time>
      </trkpt>
      <trkpt lat="43.08599" lon="0.07723">
        <ele>663.79998779297</ele>
        <time>2021-10-07T09:33:45.000Z</time>
      </trkpt>
      <trkpt lat="43.08599" lon="0.07714">
        <ele>663.59997558594</ele>
        <time>2021-10-07T09:33:49.000Z</time>
      </trkpt>
      <trkpt lat="43.086" lon="0.0771">
        <ele>663.59997558594</ele>
        <time>2021-10-07T09:33:51.000Z</time>
      </trkpt>
      <trkpt lat="43.08603" lon="0.07694">
        <ele>663.59997558594</ele>
        <time>2021-10-07T09:33:58.000Z</time>
      </trkpt>
      <trkpt lat="43.08604" lon="0.0769">
        <ele>663.59997558594</ele>
        <time>2021-10-07T09:34:00.000Z</time>
      </trkpt>
      <trkpt lat="43.08608" lon="0.07687">
        <ele>663.59997558594</ele>
        <time>2021-10-07T09:34:04.000Z</time>
      </trkpt>
      <trkpt lat="43.08608" lon="0.07687">
        <ele>663</ele>
        <time>2021-10-07T09:34:11.000Z</time>
      </trkpt>
      <trkpt lat="43.08608" lon="0.07687">
        <ele>663</ele>
        <time>2021-10-07T09:34:33.000Z</time>
      </trkpt>
      <trkpt lat="43.08609" lon="0.07684">
        <ele>662.79998779297</ele>
        <time>2021-10-07T09:35:09.000Z</time>
      </trkpt>
      <trkpt lat="43.0861" lon="0.07683">
        <ele>662.79998779297</ele>
        <time>2021-10-07T09:35:10.000Z</time>
      </trkpt>
      <trkpt lat="43.08611" lon="0.0768">
        <ele>662.79998779297</ele>
        <time>2021-10-07T09:35:14.000Z</time>
      </trkpt>
      <trkpt lat="43.08612" lon="0.07678">
        <ele>662.79998779297</ele>
        <time>2021-10-07T09:35:15.000Z</time>
      </trkpt>
      <trkpt lat="43.08615" lon="0.07668">
        <ele>662.40002441406</ele>
        <time>2021-10-07T09:35:20.000Z</time>
      </trkpt>
      <trkpt lat="43.08615" lon="0.07665">
        <ele>662.20001220703</ele>
        <time>2021-10-07T09:35:21.000Z</time>
      </trkpt>
      <trkpt lat="43.08618" lon="0.07659">
        <ele>662</ele>
        <time>2021-10-07T09:35:24.000Z</time>
      </trkpt>
      <trkpt lat="43.08619" lon="0.07654">
        <ele>661.59997558594</ele>
        <time>2021-10-07T09:35:27.000Z</time>
      </trkpt>
      <trkpt lat="43.0862" lon="0.07652">
        <ele>661.20001220703</ele>
        <time>2021-10-07T09:35:29.000Z</time>
      </trkpt>
      <trkpt lat="43.08621" lon="0.07649">
        <ele>661</ele>
        <time>2021-10-07T09:35:31.000Z</time>
      </trkpt>
      <trkpt lat="43.08623" lon="0.07644">
        <ele>660.59997558594</ele>
        <time>2021-10-07T09:35:33.000Z</time>
      </trkpt>
      <trkpt lat="43.08626" lon="0.07627">
        <ele>660</ele>
        <time>2021-10-07T09:35:39.000Z</time>
      </trkpt>
      <trkpt lat="43.08631" lon="0.07605">
        <ele>659</ele>
        <time>2021-10-07T09:35:46.000Z</time>
      </trkpt>
      <trkpt lat="43.08632" lon="0.07602">
        <ele>659</ele>
        <time>2021-10-07T09:35:47.000Z</time>
      </trkpt>
      <trkpt lat="43.08634" lon="0.07585">
        <ele>658</ele>
        <time>2021-10-07T09:35:52.000Z</time>
      </trkpt>
      <trkpt lat="43.08635" lon="0.07583">
        <ele>658</ele>
        <time>2021-10-07T09:35:53.000Z</time>
      </trkpt>
      <trkpt lat="43.08636" lon="0.07559">
        <ele>657.20001220703</ele>
        <time>2021-10-07T09:35:58.000Z</time>
      </trkpt>
      <trkpt lat="43.08635" lon="0.07548">
        <ele>656.79998779297</ele>
        <time>2021-10-07T09:36:00.000Z</time>
      </trkpt>
      <trkpt lat="43.08635" lon="0.07542">
        <ele>656.79998779297</ele>
        <time>2021-10-07T09:36:01.000Z</time>
      </trkpt>
      <trkpt lat="43.08639" lon="0.0753">
        <ele>656.40002441406</ele>
        <time>2021-10-07T09:36:03.000Z</time>
      </trkpt>
      <trkpt lat="43.08645" lon="0.07524">
        <ele>656</ele>
        <time>2021-10-07T09:36:05.000Z</time>
      </trkpt>
      <trkpt lat="43.08649" lon="0.0752">
        <ele>655.79998779297</ele>
        <time>2021-10-07T09:36:06.000Z</time>
      </trkpt>
      <trkpt lat="43.08652" lon="0.07517">
        <ele>655.59997558594</ele>
        <time>2021-10-07T09:36:07.000Z</time>
      </trkpt>
      <trkpt lat="43.08682" lon="0.07494">
        <ele>655.40002441406</ele>
        <time>2021-10-07T09:36:15.000Z</time>
      </trkpt>
      <trkpt lat="43.08695" lon="0.07483">
        <ele>656.40002441406</ele>
        <time>2021-10-07T09:36:19.000Z</time>
      </trkpt>
      <trkpt lat="43.08703" lon="0.07478">
        <ele>656.59997558594</ele>
        <time>2021-10-07T09:36:21.000Z</time>
      </trkpt>
      <trkpt lat="43.08713" lon="0.07465">
        <ele>657.40002441406</ele>
        <time>2021-10-07T09:36:25.000Z</time>
      </trkpt>
      <trkpt lat="43.08716" lon="0.07458">
        <ele>657.79998779297</ele>
        <time>2021-10-07T09:36:27.000Z</time>
      </trkpt>
      <trkpt lat="43.08719" lon="0.07443">
        <ele>658</ele>
        <time>2021-10-07T09:36:31.000Z</time>
      </trkpt>
      <trkpt lat="43.08722" lon="0.0741">
        <ele>658</ele>
        <time>2021-10-07T09:36:39.000Z</time>
      </trkpt>
      <trkpt lat="43.0872" lon="0.07379">
        <ele>657.59997558594</ele>
        <time>2021-10-07T09:36:45.000Z</time>
      </trkpt>
      <trkpt lat="43.08718" lon="0.07363">
        <ele>657</ele>
        <time>2021-10-07T09:36:48.000Z</time>
      </trkpt>
      <trkpt lat="43.08718" lon="0.07326">
        <ele>656.20001220703</ele>
        <time>2021-10-07T09:36:54.000Z</time>
      </trkpt>
      <trkpt lat="43.08719" lon="0.07314">
        <ele>655.79998779297</ele>
        <time>2021-10-07T09:36:56.000Z</time>
      </trkpt>
      <trkpt lat="43.08724" lon="0.0728">
        <ele>655.40002441406</ele>
        <time>2021-10-07T09:37:01.000Z</time>
      </trkpt>
      <trkpt lat="43.08726" lon="0.07269">
        <ele>654.79998779297</ele>
        <time>2021-10-07T09:37:03.000Z</time>
      </trkpt>
      <trkpt lat="43.08728" lon="0.07257">
        <ele>654</ele>
        <time>2021-10-07T09:37:06.000Z</time>
      </trkpt>
      <trkpt lat="43.08727" lon="0.07254">
        <ele>653.59997558594</ele>
        <time>2021-10-07T09:37:07.000Z</time>
      </trkpt>
      <trkpt lat="43.08726" lon="0.07252">
        <ele>653.59997558594</ele>
        <time>2021-10-07T09:37:08.000Z</time>
      </trkpt>
      <trkpt lat="43.08721" lon="0.07252">
        <ele>653.40002441406</ele>
        <time>2021-10-07T09:37:10.000Z</time>
      </trkpt>
      <trkpt lat="43.08709" lon="0.07261">
        <ele>653.40002441406</ele>
        <time>2021-10-07T09:37:16.000Z</time>
      </trkpt>
      <trkpt lat="43.08701" lon="0.0727">
        <ele>654.79998779297</ele>
        <time>2021-10-07T09:37:22.000Z</time>
      </trkpt>
      <trkpt lat="43.08691" lon="0.07284">
        <ele>655.79998779297</ele>
        <time>2021-10-07T09:37:28.000Z</time>
      </trkpt>
      <trkpt lat="43.08686" lon="0.07292">
        <ele>656.20001220703</ele>
        <time>2021-10-07T09:37:31.000Z</time>
      </trkpt>
      <trkpt lat="43.08681" lon="0.073">
        <ele>656.79998779297</ele>
        <time>2021-10-07T09:37:34.000Z</time>
      </trkpt>
      <trkpt lat="43.08674" lon="0.0731">
        <ele>658.20001220703</ele>
        <time>2021-10-07T09:37:38.000Z</time>
      </trkpt>
      <trkpt lat="43.08673" lon="0.07312">
        <ele>658.59997558594</ele>
        <time>2021-10-07T09:37:39.000Z</time>
      </trkpt>
      <trkpt lat="43.08669" lon="0.0732">
        <ele>659.59997558594</ele>
        <time>2021-10-07T09:37:42.000Z</time>
      </trkpt>
      <trkpt lat="43.08666" lon="0.07325">
        <ele>660.20001220703</ele>
        <time>2021-10-07T09:37:44.000Z</time>
      </trkpt>
      <trkpt lat="43.08661" lon="0.07332">
        <ele>660.59997558594</ele>
        <time>2021-10-07T09:37:47.000Z</time>
      </trkpt>
      <trkpt lat="43.08655" lon="0.07342">
        <ele>662</ele>
        <time>2021-10-07T09:37:51.000Z</time>
      </trkpt>
      <trkpt lat="43.08647" lon="0.07354">
        <ele>663</ele>
        <time>2021-10-07T09:37:56.000Z</time>
      </trkpt>
      <trkpt lat="43.08645" lon="0.07359">
        <ele>664</ele>
        <time>2021-10-07T09:37:58.000Z</time>
      </trkpt>
      <trkpt lat="43.08644" lon="0.07362">
        <ele>664.40002441406</ele>
        <time>2021-10-07T09:37:59.000Z</time>
      </trkpt>
      <trkpt lat="43.08638" lon="0.07375">
        <ele>665.40002441406</ele>
        <time>2021-10-07T09:38:04.000Z</time>
      </trkpt>
      <trkpt lat="43.08634" lon="0.07386">
        <ele>666.79998779297</ele>
        <time>2021-10-07T09:38:08.000Z</time>
      </trkpt>
      <trkpt lat="43.08633" lon="0.07388">
        <ele>667</ele>
        <time>2021-10-07T09:38:09.000Z</time>
      </trkpt>
      <trkpt lat="43.08629" lon="0.07397">
        <ele>668</ele>
        <time>2021-10-07T09:38:12.000Z</time>
      </trkpt>
      <trkpt lat="43.08623" lon="0.0741">
        <ele>669</ele>
        <time>2021-10-07T09:38:17.000Z</time>
      </trkpt>
      <trkpt lat="43.08622" lon="0.07412">
        <ele>669.20001220703</ele>
        <time>2021-10-07T09:38:18.000Z</time>
      </trkpt>
      <trkpt lat="43.08618" lon="0.07418">
        <ele>670.20001220703</ele>
        <time>2021-10-07T09:38:21.000Z</time>
      </trkpt>
      <trkpt lat="43.08615" lon="0.07425">
        <ele>671.40002441406</ele>
        <time>2021-10-07T09:38:24.000Z</time>
      </trkpt>
      <trkpt lat="43.08613" lon="0.07433">
        <ele>672</ele>
        <time>2021-10-07T09:38:27.000Z</time>
      </trkpt>
      <trkpt lat="43.08612" lon="0.07437">
        <ele>672.59997558594</ele>
        <time>2021-10-07T09:38:29.000Z</time>
      </trkpt>
      <trkpt lat="43.08608" lon="0.07449">
        <ele>673.79998779297</ele>
        <time>2021-10-07T09:38:34.000Z</time>
      </trkpt>
      <trkpt lat="43.08607" lon="0.07451">
        <ele>674</ele>
        <time>2021-10-07T09:38:35.000Z</time>
      </trkpt>
      <trkpt lat="43.08606" lon="0.07456">
        <ele>675</ele>
        <time>2021-10-07T09:38:37.000Z</time>
      </trkpt>
      <trkpt lat="43.08603" lon="0.07462">
        <ele>676.59997558594</ele>
        <time>2021-10-07T09:38:40.000Z</time>
      </trkpt>
      <trkpt lat="43.08601" lon="0.07468">
        <ele>677.79998779297</ele>
        <time>2021-10-07T09:38:43.000Z</time>
      </trkpt>
      <trkpt lat="43.08597" lon="0.0748">
        <ele>679</ele>
        <time>2021-10-07T09:38:48.000Z</time>
      </trkpt>
      <trkpt lat="43.08594" lon="0.07489">
        <ele>679.79998779297</ele>
        <time>2021-10-07T09:38:52.000Z</time>
      </trkpt>
      <trkpt lat="43.08593" lon="0.07491">
        <ele>680</ele>
        <time>2021-10-07T09:38:53.000Z</time>
      </trkpt>
      <trkpt lat="43.08591" lon="0.07498">
        <ele>681.20001220703</ele>
        <time>2021-10-07T09:38:56.000Z</time>
      </trkpt>
      <trkpt lat="43.08587" lon="0.07505">
        <ele>682</ele>
        <time>2021-10-07T09:39:00.000Z</time>
      </trkpt>
      <trkpt lat="43.08586" lon="0.07507">
        <ele>682.59997558594</ele>
        <time>2021-10-07T09:39:01.000Z</time>
      </trkpt>
      <trkpt lat="43.08583" lon="0.07513">
        <ele>683.59997558594</ele>
        <time>2021-10-07T09:39:04.000Z</time>
      </trkpt>
      <trkpt lat="43.0858" lon="0.0752">
        <ele>684.79998779297</ele>
        <time>2021-10-07T09:39:08.000Z</time>
      </trkpt>
      <trkpt lat="43.08579" lon="0.07523">
        <ele>685</ele>
        <time>2021-10-07T09:39:09.000Z</time>
      </trkpt>
      <trkpt lat="43.08577" lon="0.07532">
        <ele>685.79998779297</ele>
        <time>2021-10-07T09:39:13.000Z</time>
      </trkpt>
      <trkpt lat="43.08575" lon="0.07536">
        <ele>686.59997558594</ele>
        <time>2021-10-07T09:39:15.000Z</time>
      </trkpt>
      <trkpt lat="43.08575" lon="0.07538">
        <ele>687</ele>
        <time>2021-10-07T09:39:16.000Z</time>
      </trkpt>
      <trkpt lat="43.08571" lon="0.07546">
        <ele>688.59997558594</ele>
        <time>2021-10-07T09:39:20.000Z</time>
      </trkpt>
      <trkpt lat="43.0857" lon="0.0755">
        <ele>689</ele>
        <time>2021-10-07T09:39:22.000Z</time>
      </trkpt>
      <trkpt lat="43.08568" lon="0.07557">
        <ele>689.79998779297</ele>
        <time>2021-10-07T09:39:25.000Z</time>
      </trkpt>
      <trkpt lat="43.08564" lon="0.07571">
        <ele>690.79998779297</ele>
        <time>2021-10-07T09:39:31.000Z</time>
      </trkpt>
      <trkpt lat="43.08562" lon="0.07576">
        <ele>691.40002441406</ele>
        <time>2021-10-07T09:39:33.000Z</time>
      </trkpt>
      <trkpt lat="43.0856" lon="0.07583">
        <ele>692</ele>
        <time>2021-10-07T09:39:36.000Z</time>
      </trkpt>
      <trkpt lat="43.08555" lon="0.076">
        <ele>693.20001220703</ele>
        <time>2021-10-07T09:39:42.000Z</time>
      </trkpt>
      <trkpt lat="43.08549" lon="0.07616">
        <ele>694.20001220703</ele>
        <time>2021-10-07T09:39:47.000Z</time>
      </trkpt>
      <trkpt lat="43.08546" lon="0.07631">
        <ele>695</ele>
        <time>2021-10-07T09:39:51.000Z</time>
      </trkpt>
      <trkpt lat="43.08539" lon="0.0766">
        <ele>695.40002441406</ele>
        <time>2021-10-07T09:39:57.000Z</time>
      </trkpt>
      <trkpt lat="43.08531" lon="0.077">
        <ele>694.40002441406</ele>
        <time>2021-10-07T09:40:04.000Z</time>
      </trkpt>
      <trkpt lat="43.08529" lon="0.07722">
        <ele>694</ele>
        <time>2021-10-07T09:40:07.000Z</time>
      </trkpt>
      <trkpt lat="43.0853" lon="0.07735">
        <ele>693.79998779297</ele>
        <time>2021-10-07T09:40:09.000Z</time>
      </trkpt>
      <trkpt lat="43.08532" lon="0.07752">
        <ele>693.20001220703</ele>
        <time>2021-10-07T09:40:12.000Z</time>
      </trkpt>
      <trkpt lat="43.08534" lon="0.07761">
        <ele>693</ele>
        <time>2021-10-07T09:40:14.000Z</time>
      </trkpt>
      <trkpt lat="43.08546" lon="0.07791">
        <ele>692.59997558594</ele>
        <time>2021-10-07T09:40:20.000Z</time>
      </trkpt>
      <trkpt lat="43.08568" lon="0.07834">
        <ele>692.79998779297</ele>
        <time>2021-10-07T09:40:29.000Z</time>
      </trkpt>
      <trkpt lat="43.08595" lon="0.07871">
        <ele>693.40002441406</ele>
        <time>2021-10-07T09:40:38.000Z</time>
      </trkpt>
      <trkpt lat="43.0861" lon="0.07887">
        <ele>694.20001220703</ele>
        <time>2021-10-07T09:40:44.000Z</time>
      </trkpt>
      <trkpt lat="43.08612" lon="0.0789">
        <ele>694.59997558594</ele>
        <time>2021-10-07T09:40:45.000Z</time>
      </trkpt>
      <trkpt lat="43.08615" lon="0.07892">
        <ele>695.40002441406</ele>
        <time>2021-10-07T09:40:46.000Z</time>
      </trkpt>
      <trkpt lat="43.08623" lon="0.07902">
        <ele>696.59997558594</ele>
        <time>2021-10-07T09:40:50.000Z</time>
      </trkpt>
      <trkpt lat="43.08632" lon="0.07911">
        <ele>698</ele>
        <time>2021-10-07T09:40:54.000Z</time>
      </trkpt>
      <trkpt lat="43.0864" lon="0.0792">
        <ele>699</ele>
        <time>2021-10-07T09:40:58.000Z</time>
      </trkpt>
      <trkpt lat="43.08646" lon="0.07927">
        <ele>700.59997558594</ele>
        <time>2021-10-07T09:41:01.000Z</time>
      </trkpt>
      <trkpt lat="43.08652" lon="0.07934">
        <ele>701.20001220703</ele>
        <time>2021-10-07T09:41:04.000Z</time>
      </trkpt>
      <trkpt lat="43.08657" lon="0.0794">
        <ele>702</ele>
        <time>2021-10-07T09:41:07.000Z</time>
      </trkpt>
      <trkpt lat="43.08664" lon="0.07949">
        <ele>702.79998779297</ele>
        <time>2021-10-07T09:41:11.000Z</time>
      </trkpt>
      <trkpt lat="43.08666" lon="0.07952">
        <ele>703.20001220703</ele>
        <time>2021-10-07T09:41:12.000Z</time>
      </trkpt>
      <trkpt lat="43.08675" lon="0.07963">
        <ele>704.59997558594</ele>
        <time>2021-10-07T09:41:17.000Z</time>
      </trkpt>
      <trkpt lat="43.08679" lon="0.07967">
        <ele>705</ele>
        <time>2021-10-07T09:41:19.000Z</time>
      </trkpt>
      <trkpt lat="43.08685" lon="0.07973">
        <ele>706</ele>
        <time>2021-10-07T09:41:22.000Z</time>
      </trkpt>
      <trkpt lat="43.08688" lon="0.07978">
        <ele>706.40002441406</ele>
        <time>2021-10-07T09:41:24.000Z</time>
      </trkpt>
      <trkpt lat="43.08692" lon="0.07983">
        <ele>706.79998779297</ele>
        <time>2021-10-07T09:41:26.000Z</time>
      </trkpt>
      <trkpt lat="43.08694" lon="0.07985">
        <ele>707</ele>
        <time>2021-10-07T09:41:27.000Z</time>
      </trkpt>
      <trkpt lat="43.08704" lon="0.07997">
        <ele>708</ele>
        <time>2021-10-07T09:41:32.000Z</time>
      </trkpt>
      <trkpt lat="43.08711" lon="0.08006">
        <ele>709.20001220703</ele>
        <time>2021-10-07T09:41:36.000Z</time>
      </trkpt>
      <trkpt lat="43.08713" lon="0.08008">
        <ele>709.20001220703</ele>
        <time>2021-10-07T09:41:37.000Z</time>
      </trkpt>
      <trkpt lat="43.08721" lon="0.08017">
        <ele>710.40002441406</ele>
        <time>2021-10-07T09:41:41.000Z</time>
      </trkpt>
      <trkpt lat="43.08734" lon="0.08034">
        <ele>710.79998779297</ele>
        <time>2021-10-07T09:41:47.000Z</time>
      </trkpt>
      <trkpt lat="43.08745" lon="0.0805">
        <ele>711.40002441406</ele>
        <time>2021-10-07T09:41:52.000Z</time>
      </trkpt>
      <trkpt lat="43.08754" lon="0.08063">
        <ele>712</ele>
        <time>2021-10-07T09:41:56.000Z</time>
      </trkpt>
      <trkpt lat="43.08767" lon="0.08078">
        <ele>712.40002441406</ele>
        <time>2021-10-07T09:42:01.000Z</time>
      </trkpt>
      <trkpt lat="43.08775" lon="0.08087">
        <ele>712.79998779297</ele>
        <time>2021-10-07T09:42:04.000Z</time>
      </trkpt>
      <trkpt lat="43.08785" lon="0.08102">
        <ele>713.20001220703</ele>
        <time>2021-10-07T09:42:08.000Z</time>
      </trkpt>
      <trkpt lat="43.08788" lon="0.08122">
        <ele>713.20001220703</ele>
        <time>2021-10-07T09:42:12.000Z</time>
      </trkpt>
      <trkpt lat="43.08787" lon="0.08128">
        <ele>713.40002441406</ele>
        <time>2021-10-07T09:42:13.000Z</time>
      </trkpt>
      <trkpt lat="43.08781" lon="0.08156">
        <ele>713.59997558594</ele>
        <time>2021-10-07T09:42:19.000Z</time>
      </trkpt>
      <trkpt lat="43.08776" lon="0.08181">
        <ele>714.79998779297</ele>
        <time>2021-10-07T09:42:24.000Z</time>
      </trkpt>
      <trkpt lat="43.08774" lon="0.08193">
        <ele>715.40002441406</ele>
        <time>2021-10-07T09:42:27.000Z</time>
      </trkpt>
      <trkpt lat="43.08773" lon="0.08207">
        <ele>715.79998779297</ele>
        <time>2021-10-07T09:42:30.000Z</time>
      </trkpt>
      <trkpt lat="43.08774" lon="0.08228">
        <ele>715.79998779297</ele>
        <time>2021-10-07T09:42:34.000Z</time>
      </trkpt>
      <trkpt lat="43.0878" lon="0.08256">
        <ele>715</ele>
        <time>2021-10-07T09:42:39.000Z</time>
      </trkpt>
      <trkpt lat="43.08786" lon="0.08264">
        <ele>714.59997558594</ele>
        <time>2021-10-07T09:42:41.000Z</time>
      </trkpt>
      <trkpt lat="43.08796" lon="0.08274">
        <ele>713.20001220703</ele>
        <time>2021-10-07T09:42:44.000Z</time>
      </trkpt>
      <trkpt lat="43.08807" lon="0.08283">
        <ele>711.79998779297</ele>
        <time>2021-10-07T09:42:46.000Z</time>
      </trkpt>
      <trkpt lat="43.08815" lon="0.08295">
        <ele>709.79998779297</ele>
        <time>2021-10-07T09:42:48.000Z</time>
      </trkpt>
      <trkpt lat="43.08819" lon="0.08305">
        <ele>708.79998779297</ele>
        <time>2021-10-07T09:42:49.000Z</time>
      </trkpt>
      <trkpt lat="43.08823" lon="0.08318">
        <ele>707.40002441406</ele>
        <time>2021-10-07T09:42:50.000Z</time>
      </trkpt>
      <trkpt lat="43.08826" lon="0.08337">
        <ele>705.79998779297</ele>
        <time>2021-10-07T09:42:52.000Z</time>
      </trkpt>
      <trkpt lat="43.08827" lon="0.08348">
        <ele>704</ele>
        <time>2021-10-07T09:42:53.000Z</time>
      </trkpt>
      <trkpt lat="43.08828" lon="0.08368">
        <ele>702.20001220703</ele>
        <time>2021-10-07T09:42:55.000Z</time>
      </trkpt>
      <trkpt lat="43.08828" lon="0.08383">
        <ele>700.40002441406</ele>
        <time>2021-10-07T09:42:57.000Z</time>
      </trkpt>
      <trkpt lat="43.08828" lon="0.08402">
        <ele>699</ele>
        <time>2021-10-07T09:42:59.000Z</time>
      </trkpt>
      <trkpt lat="43.08829" lon="0.08417">
        <ele>697.79998779297</ele>
        <time>2021-10-07T09:43:01.000Z</time>
      </trkpt>
      <trkpt lat="43.08829" lon="0.08424">
        <ele>696.79998779297</ele>
        <time>2021-10-07T09:43:02.000Z</time>
      </trkpt>
      <trkpt lat="43.0883" lon="0.08432">
        <ele>696.20001220703</ele>
        <time>2021-10-07T09:43:03.000Z</time>
      </trkpt>
      <trkpt lat="43.08833" lon="0.0844">
        <ele>695.40002441406</ele>
        <time>2021-10-07T09:43:04.000Z</time>
      </trkpt>
      <trkpt lat="43.0884" lon="0.08454">
        <ele>694.59997558594</ele>
        <time>2021-10-07T09:43:06.000Z</time>
      </trkpt>
      <trkpt lat="43.08844" lon="0.08462">
        <ele>694.20001220703</ele>
        <time>2021-10-07T09:43:07.000Z</time>
      </trkpt>
      <trkpt lat="43.08851" lon="0.08481">
        <ele>693</ele>
        <time>2021-10-07T09:43:09.000Z</time>
      </trkpt>
      <trkpt lat="43.08852" lon="0.08489">
        <ele>692.40002441406</ele>
        <time>2021-10-07T09:43:10.000Z</time>
      </trkpt>
      <trkpt lat="43.08853" lon="0.08496">
        <ele>691.40002441406</ele>
        <time>2021-10-07T09:43:11.000Z</time>
      </trkpt>
      <trkpt lat="43.08858" lon="0.08519">
        <ele>690.20001220703</ele>
        <time>2021-10-07T09:43:14.000Z</time>
      </trkpt>
      <trkpt lat="43.08859" lon="0.08525">
        <ele>690</ele>
        <time>2021-10-07T09:43:15.000Z</time>
      </trkpt>
      <trkpt lat="43.08867" lon="0.0855">
        <ele>689.20001220703</ele>
        <time>2021-10-07T09:43:19.000Z</time>
      </trkpt>
      <trkpt lat="43.08872" lon="0.08569">
        <ele>688.79998779297</ele>
        <time>2021-10-07T09:43:22.000Z</time>
      </trkpt>
      <trkpt lat="43.08876" lon="0.08585">
        <ele>688.40002441406</ele>
        <time>2021-10-07T09:43:25.000Z</time>
      </trkpt>
      <trkpt lat="43.08881" lon="0.08595">
        <ele>688</ele>
        <time>2021-10-07T09:43:27.000Z</time>
      </trkpt>
      <trkpt lat="43.08885" lon="0.08601">
        <ele>688</ele>
        <time>2021-10-07T09:43:28.000Z</time>
      </trkpt>
      <trkpt lat="43.08897" lon="0.08611">
        <ele>687.40002441406</ele>
        <time>2021-10-07T09:43:31.000Z</time>
      </trkpt>
      <trkpt lat="43.08902" lon="0.08615">
        <ele>687</ele>
        <time>2021-10-07T09:43:32.000Z</time>
      </trkpt>
      <trkpt lat="43.08924" lon="0.08631">
        <ele>686.40002441406</ele>
        <time>2021-10-07T09:43:37.000Z</time>
      </trkpt>
      <trkpt lat="43.08932" lon="0.08635">
        <ele>686.40002441406</ele>
        <time>2021-10-07T09:43:39.000Z</time>
      </trkpt>
      <trkpt lat="43.0895" lon="0.08649">
        <ele>687.40002441406</ele>
        <time>2021-10-07T09:43:45.000Z</time>
      </trkpt>
      <trkpt lat="43.08961" lon="0.08659">
        <ele>688.40002441406</ele>
        <time>2021-10-07T09:43:49.000Z</time>
      </trkpt>
      <trkpt lat="43.08964" lon="0.08663">
        <ele>688.59997558594</ele>
        <time>2021-10-07T09:43:51.000Z</time>
      </trkpt>
      <trkpt lat="43.08971" lon="0.08674">
        <ele>688.40002441406</ele>
        <time>2021-10-07T09:43:56.000Z</time>
      </trkpt>
      <trkpt lat="43.08986" lon="0.08695">
        <ele>687</ele>
        <time>2021-10-07T09:44:01.000Z</time>
      </trkpt>
      <trkpt lat="43.08991" lon="0.08703">
        <ele>685.59997558594</ele>
        <time>2021-10-07T09:44:03.000Z</time>
      </trkpt>
      <trkpt lat="43.08996" lon="0.08714">
        <ele>684.40002441406</ele>
        <time>2021-10-07T09:44:05.000Z</time>
      </trkpt>
      <trkpt lat="43.09001" lon="0.08724">
        <ele>683.20001220703</ele>
        <time>2021-10-07T09:44:07.000Z</time>
      </trkpt>
      <trkpt lat="43.09004" lon="0.0873">
        <ele>682.59997558594</ele>
        <time>2021-10-07T09:44:08.000Z</time>
      </trkpt>
      <trkpt lat="43.0901" lon="0.08742">
        <ele>681.59997558594</ele>
        <time>2021-10-07T09:44:10.000Z</time>
      </trkpt>
      <trkpt lat="43.09016" lon="0.08752">
        <ele>679.59997558594</ele>
        <time>2021-10-07T09:44:12.000Z</time>
      </trkpt>
      <trkpt lat="43.0902" lon="0.08758">
        <ele>679</ele>
        <time>2021-10-07T09:44:13.000Z</time>
      </trkpt>
      <trkpt lat="43.09024" lon="0.08764">
        <ele>677.59997558594</ele>
        <time>2021-10-07T09:44:14.000Z</time>
      </trkpt>
      <trkpt lat="43.09027" lon="0.08769">
        <ele>676.59997558594</ele>
        <time>2021-10-07T09:44:15.000Z</time>
      </trkpt>
      <trkpt lat="43.0903" lon="0.08772">
        <ele>676.20001220703</ele>
        <time>2021-10-07T09:44:16.000Z</time>
      </trkpt>
      <trkpt lat="43.09037" lon="0.08781">
        <ele>674.79998779297</ele>
        <time>2021-10-07T09:44:18.000Z</time>
      </trkpt>
      <trkpt lat="43.09039" lon="0.08786">
        <ele>673.59997558594</ele>
        <time>2021-10-07T09:44:19.000Z</time>
      </trkpt>
      <trkpt lat="43.09046" lon="0.08802">
        <ele>672.20001220703</ele>
        <time>2021-10-07T09:44:22.000Z</time>
      </trkpt>
      <trkpt lat="43.09052" lon="0.08815">
        <ele>671.40002441406</ele>
        <time>2021-10-07T09:44:24.000Z</time>
      </trkpt>
      <trkpt lat="43.09054" lon="0.0882">
        <ele>670.79998779297</ele>
        <time>2021-10-07T09:44:25.000Z</time>
      </trkpt>
      <trkpt lat="43.09057" lon="0.08824">
        <ele>669.20001220703</ele>
        <time>2021-10-07T09:44:26.000Z</time>
      </trkpt>
      <trkpt lat="43.09063" lon="0.08836">
        <ele>667.59997558594</ele>
        <time>2021-10-07T09:44:28.000Z</time>
      </trkpt>
      <trkpt lat="43.09067" lon="0.08841">
        <ele>665.79998779297</ele>
        <time>2021-10-07T09:44:29.000Z</time>
      </trkpt>
      <trkpt lat="43.0907" lon="0.08846">
        <ele>665.40002441406</ele>
        <time>2021-10-07T09:44:30.000Z</time>
      </trkpt>
      <trkpt lat="43.09074" lon="0.08853">
        <ele>664.20001220703</ele>
        <time>2021-10-07T09:44:31.000Z</time>
      </trkpt>
      <trkpt lat="43.09082" lon="0.08869">
        <ele>662</ele>
        <time>2021-10-07T09:44:33.000Z</time>
      </trkpt>
      <trkpt lat="43.09086" lon="0.08878">
        <ele>661.40002441406</ele>
        <time>2021-10-07T09:44:34.000Z</time>
      </trkpt>
      <trkpt lat="43.0909" lon="0.08884">
        <ele>660.79998779297</ele>
        <time>2021-10-07T09:44:35.000Z</time>
      </trkpt>
      <trkpt lat="43.09103" lon="0.08912">
        <ele>659.59997558594</ele>
        <time>2021-10-07T09:44:38.000Z</time>
      </trkpt>
      <trkpt lat="43.09111" lon="0.08927">
        <ele>658.79998779297</ele>
        <time>2021-10-07T09:44:40.000Z</time>
      </trkpt>
      <trkpt lat="43.09116" lon="0.08937">
        <ele>658.40002441406</ele>
        <time>2021-10-07T09:44:41.000Z</time>
      </trkpt>
      <trkpt lat="43.09124" lon="0.08952">
        <ele>657.20001220703</ele>
        <time>2021-10-07T09:44:43.000Z</time>
      </trkpt>
      <trkpt lat="43.09136" lon="0.08972">
        <ele>656.20001220703</ele>
        <time>2021-10-07T09:44:46.000Z</time>
      </trkpt>
      <trkpt lat="43.09141" lon="0.08977">
        <ele>655.79998779297</ele>
        <time>2021-10-07T09:44:47.000Z</time>
      </trkpt>
      <trkpt lat="43.09158" lon="0.09001">
        <ele>654.79998779297</ele>
        <time>2021-10-07T09:44:52.000Z</time>
      </trkpt>
      <trkpt lat="43.09159" lon="0.09002">
        <ele>654.59997558594</ele>
        <time>2021-10-07T09:44:53.000Z</time>
      </trkpt>
      <trkpt lat="43.09163" lon="0.09006">
        <ele>654</ele>
        <time>2021-10-07T09:44:57.000Z</time>
      </trkpt>
      <trkpt lat="43.09163" lon="0.09006">
        <ele>653.79998779297</ele>
        <time>2021-10-07T09:44:59.000Z</time>
      </trkpt>
      <trkpt lat="43.09163" lon="0.09006">
        <ele>653.40002441406</ele>
        <time>2021-10-07T09:45:47.000Z</time>
      </trkpt>
      <trkpt lat="43.09163" lon="0.09006">
        <ele>653.40002441406</ele>
        <time>2021-10-07T09:46:39.000Z</time>
      </trkpt>
      <trkpt lat="43.09167" lon="0.09011">
        <ele>653.40002441406</ele>
        <time>2021-10-07T09:46:41.000Z</time>
      </trkpt>
      <trkpt lat="43.09174" lon="0.09019">
        <ele>653.40002441406</ele>
        <time>2021-10-07T09:46:44.000Z</time>
      </trkpt>
      <trkpt lat="43.0918" lon="0.09025">
        <ele>653.20001220703</ele>
        <time>2021-10-07T09:46:46.000Z</time>
      </trkpt>
      <trkpt lat="43.09196" lon="0.09042">
        <ele>651.79998779297</ele>
        <time>2021-10-07T09:46:51.000Z</time>
      </trkpt>
      <trkpt lat="43.09199" lon="0.09046">
        <ele>651.40002441406</ele>
        <time>2021-10-07T09:46:52.000Z</time>
      </trkpt>
      <trkpt lat="43.09203" lon="0.0905">
        <ele>650.40002441406</ele>
        <time>2021-10-07T09:46:53.000Z</time>
      </trkpt>
      <trkpt lat="43.0921" lon="0.09062">
        <ele>649.20001220703</ele>
        <time>2021-10-07T09:46:55.000Z</time>
      </trkpt>
      <trkpt lat="43.09214" lon="0.09069">
        <ele>648.59997558594</ele>
        <time>2021-10-07T09:46:56.000Z</time>
      </trkpt>
      <trkpt lat="43.09221" lon="0.09084">
        <ele>647</ele>
        <time>2021-10-07T09:46:58.000Z</time>
      </trkpt>
      <trkpt lat="43.09229" lon="0.09108">
        <ele>645</ele>
        <time>2021-10-07T09:47:01.000Z</time>
      </trkpt>
      <trkpt lat="43.09231" lon="0.09117">
        <ele>644</ele>
        <time>2021-10-07T09:47:02.000Z</time>
      </trkpt>
      <trkpt lat="43.09234" lon="0.09138">
        <ele>642.79998779297</ele>
        <time>2021-10-07T09:47:04.000Z</time>
      </trkpt>
      <trkpt lat="43.09236" lon="0.09148">
        <ele>641.40002441406</ele>
        <time>2021-10-07T09:47:05.000Z</time>
      </trkpt>
      <trkpt lat="43.09243" lon="0.09168">
        <ele>640</ele>
        <time>2021-10-07T09:47:07.000Z</time>
      </trkpt>
      <trkpt lat="43.09251" lon="0.09187">
        <ele>639</ele>
        <time>2021-10-07T09:47:09.000Z</time>
      </trkpt>
      <trkpt lat="43.09255" lon="0.09197">
        <ele>638</ele>
        <time>2021-10-07T09:47:10.000Z</time>
      </trkpt>
      <trkpt lat="43.09259" lon="0.09207">
        <ele>637.79998779297</ele>
        <time>2021-10-07T09:47:11.000Z</time>
      </trkpt>
      <trkpt lat="43.09261" lon="0.09217">
        <ele>637</ele>
        <time>2021-10-07T09:47:12.000Z</time>
      </trkpt>
      <trkpt lat="43.09265" lon="0.09239">
        <ele>636.40002441406</ele>
        <time>2021-10-07T09:47:14.000Z</time>
      </trkpt>
      <trkpt lat="43.09269" lon="0.09268">
        <ele>636</ele>
        <time>2021-10-07T09:47:17.000Z</time>
      </trkpt>
      <trkpt lat="43.09271" lon="0.09292">
        <ele>636.20001220703</ele>
        <time>2021-10-07T09:47:20.000Z</time>
      </trkpt>
      <trkpt lat="43.09274" lon="0.09313">
        <ele>636.79998779297</ele>
        <time>2021-10-07T09:47:23.000Z</time>
      </trkpt>
      <trkpt lat="43.09276" lon="0.09319">
        <ele>637.20001220703</ele>
        <time>2021-10-07T09:47:24.000Z</time>
      </trkpt>
      <trkpt lat="43.09279" lon="0.09332">
        <ele>637.40002441406</ele>
        <time>2021-10-07T09:47:26.000Z</time>
      </trkpt>
      <trkpt lat="43.09283" lon="0.09355">
        <ele>638.40002441406</ele>
        <time>2021-10-07T09:47:30.000Z</time>
      </trkpt>
      <trkpt lat="43.09285" lon="0.09371">
        <ele>638.79998779297</ele>
        <time>2021-10-07T09:47:33.000Z</time>
      </trkpt>
      <trkpt lat="43.09286" lon="0.09376">
        <ele>639</ele>
        <time>2021-10-07T09:47:34.000Z</time>
      </trkpt>
      <trkpt lat="43.09291" lon="0.09396">
        <ele>639.40002441406</ele>
        <time>2021-10-07T09:47:38.000Z</time>
      </trkpt>
      <trkpt lat="43.09294" lon="0.09409">
        <ele>640</ele>
        <time>2021-10-07T09:47:41.000Z</time>
      </trkpt>
      <trkpt lat="43.09298" lon="0.09422">
        <ele>640.79998779297</ele>
        <time>2021-10-07T09:47:44.000Z</time>
      </trkpt>
      <trkpt lat="43.09301" lon="0.09434">
        <ele>642</ele>
        <time>2021-10-07T09:47:47.000Z</time>
      </trkpt>
      <trkpt lat="43.09303" lon="0.09442">
        <ele>643</ele>
        <time>2021-10-07T09:47:49.000Z</time>
      </trkpt>
      <trkpt lat="43.09303" lon="0.09446">
        <ele>643.20001220703</ele>
        <time>2021-10-07T09:47:50.000Z</time>
      </trkpt>
      <trkpt lat="43.09303" lon="0.09454">
        <ele>644.20001220703</ele>
        <time>2021-10-07T09:47:52.000Z</time>
      </trkpt>
      <trkpt lat="43.09304" lon="0.09472">
        <ele>645.40002441406</ele>
        <time>2021-10-07T09:47:56.000Z</time>
      </trkpt>
      <trkpt lat="43.09305" lon="0.09508">
        <ele>646</ele>
        <time>2021-10-07T09:48:02.000Z</time>
      </trkpt>
      <trkpt lat="43.09306" lon="0.09514">
        <ele>646.20001220703</ele>
        <time>2021-10-07T09:48:03.000Z</time>
      </trkpt>
      <trkpt lat="43.09311" lon="0.09543">
        <ele>646.40002441406</ele>
        <time>2021-10-07T09:48:08.000Z</time>
      </trkpt>
      <trkpt lat="43.09313" lon="0.09555">
        <ele>646.59997558594</ele>
        <time>2021-10-07T09:48:10.000Z</time>
      </trkpt>
      <trkpt lat="43.09321" lon="0.09601">
        <ele>647.20001220703</ele>
        <time>2021-10-07T09:48:18.000Z</time>
      </trkpt>
      <trkpt lat="43.09333" lon="0.09653">
        <ele>647.59997558594</ele>
        <time>2021-10-07T09:48:27.000Z</time>
      </trkpt>
      <trkpt lat="43.09346" lon="0.09708">
        <ele>648.59997558594</ele>
        <time>2021-10-07T09:48:37.000Z</time>
      </trkpt>
      <trkpt lat="43.09357" lon="0.09744">
        <ele>649.79998779297</ele>
        <time>2021-10-07T09:48:44.000Z</time>
      </trkpt>
      <trkpt lat="43.09362" lon="0.0976">
        <ele>650</ele>
        <time>2021-10-07T09:48:47.000Z</time>
      </trkpt>
      <trkpt lat="43.09366" lon="0.0977">
        <ele>650.20001220703</ele>
        <time>2021-10-07T09:48:49.000Z</time>
      </trkpt>
      <trkpt lat="43.09373" lon="0.0979">
        <ele>650.79998779297</ele>
        <time>2021-10-07T09:48:53.000Z</time>
      </trkpt>
      <trkpt lat="43.0938" lon="0.0981">
        <ele>651</ele>
        <time>2021-10-07T09:48:57.000Z</time>
      </trkpt>
      <trkpt lat="43.09384" lon="0.0982">
        <ele>651</ele>
        <time>2021-10-07T09:48:59.000Z</time>
      </trkpt>
      <trkpt lat="43.0939" lon="0.09835">
        <ele>651.20001220703</ele>
        <time>2021-10-07T09:49:02.000Z</time>
      </trkpt>
      <trkpt lat="43.0941" lon="0.09897">
        <ele>650.79998779297</ele>
        <time>2021-10-07T09:49:12.000Z</time>
      </trkpt>
      <trkpt lat="43.09426" lon="0.0995">
        <ele>650</ele>
        <time>2021-10-07T09:49:20.000Z</time>
      </trkpt>
      <trkpt lat="43.09431" lon="0.0999">
        <ele>649.59997558594</ele>
        <time>2021-10-07T09:49:24.000Z</time>
      </trkpt>
      <trkpt lat="43.09433" lon="0.10015">
        <ele>648.79998779297</ele>
        <time>2021-10-07T09:49:26.000Z</time>
      </trkpt>
      <trkpt lat="43.09434" lon="0.10027">
        <ele>647.40002441406</ele>
        <time>2021-10-07T09:49:27.000Z</time>
      </trkpt>
      <trkpt lat="43.09438" lon="0.10063">
        <ele>645.59997558594</ele>
        <time>2021-10-07T09:49:30.000Z</time>
      </trkpt>
      <trkpt lat="43.09439" lon="0.10087">
        <ele>644.79998779297</ele>
        <time>2021-10-07T09:49:32.000Z</time>
      </trkpt>
      <trkpt lat="43.09436" lon="0.10111">
        <ele>644</ele>
        <time>2021-10-07T09:49:34.000Z</time>
      </trkpt>
      <trkpt lat="43.09433" lon="0.10123">
        <ele>643.59997558594</ele>
        <time>2021-10-07T09:49:35.000Z</time>
      </trkpt>
      <trkpt lat="43.09429" lon="0.10144">
        <ele>642.40002441406</ele>
        <time>2021-10-07T09:49:37.000Z</time>
      </trkpt>
      <trkpt lat="43.09428" lon="0.10155">
        <ele>642</ele>
        <time>2021-10-07T09:49:38.000Z</time>
      </trkpt>
      <trkpt lat="43.09428" lon="0.10169">
        <ele>641.40002441406</ele>
        <time>2021-10-07T09:49:39.000Z</time>
      </trkpt>
      <trkpt lat="43.09432" lon="0.10191">
        <ele>640.59997558594</ele>
        <time>2021-10-07T09:49:41.000Z</time>
      </trkpt>
      <trkpt lat="43.09436" lon="0.10211">
        <ele>639.79998779297</ele>
        <time>2021-10-07T09:49:43.000Z</time>
      </trkpt>
      <trkpt lat="43.09443" lon="0.10241">
        <ele>638.40002441406</ele>
        <time>2021-10-07T09:49:46.000Z</time>
      </trkpt>
      <trkpt lat="43.09444" lon="0.10251">
        <ele>638.20001220703</ele>
        <time>2021-10-07T09:49:47.000Z</time>
      </trkpt>
      <trkpt lat="43.09454" lon="0.10312">
        <ele>637.20001220703</ele>
        <time>2021-10-07T09:49:53.000Z</time>
      </trkpt>
      <trkpt lat="43.09456" lon="0.10322">
        <ele>637.20001220703</ele>
        <time>2021-10-07T09:49:54.000Z</time>
      </trkpt>
      <trkpt lat="43.09467" lon="0.10374">
        <ele>637.59997558594</ele>
        <time>2021-10-07T09:50:00.000Z</time>
      </trkpt>
      <trkpt lat="43.09473" lon="0.10394">
        <ele>638</ele>
        <time>2021-10-07T09:50:04.000Z</time>
      </trkpt>
      <trkpt lat="43.09476" lon="0.10401">
        <ele>638.59997558594</ele>
        <time>2021-10-07T09:50:06.000Z</time>
      </trkpt>
      <trkpt lat="43.0948" lon="0.1041">
        <ele>639.79998779297</ele>
        <time>2021-10-07T09:50:09.000Z</time>
      </trkpt>
      <trkpt lat="43.09482" lon="0.10414">
        <ele>640</ele>
        <time>2021-10-07T09:50:10.000Z</time>
      </trkpt>
      <trkpt lat="43.09498" lon="0.10441">
        <ele>640.79998779297</ele>
        <time>2021-10-07T09:50:16.000Z</time>
      </trkpt>
      <trkpt lat="43.09518" lon="0.10473">
        <ele>640.20001220703</ele>
        <time>2021-10-07T09:50:21.000Z</time>
      </trkpt>
      <trkpt lat="43.09543" lon="0.10513">
        <ele>638.40002441406</ele>
        <time>2021-10-07T09:50:26.000Z</time>
      </trkpt>
      <trkpt lat="43.09553" lon="0.10529">
        <ele>637.40002441406</ele>
        <time>2021-10-07T09:50:28.000Z</time>
      </trkpt>
      <trkpt lat="43.09569" lon="0.10555">
        <ele>636.20001220703</ele>
        <time>2021-10-07T09:50:31.000Z</time>
      </trkpt>
      <trkpt lat="43.09575" lon="0.10563">
        <ele>636</ele>
        <time>2021-10-07T09:50:32.000Z</time>
      </trkpt>
      <trkpt lat="43.09587" lon="0.10575">
        <ele>635.20001220703</ele>
        <time>2021-10-07T09:50:34.000Z</time>
      </trkpt>
      <trkpt lat="43.09617" lon="0.10606">
        <ele>634.40002441406</ele>
        <time>2021-10-07T09:50:39.000Z</time>
      </trkpt>
      <trkpt lat="43.09622" lon="0.10613">
        <ele>634.20001220703</ele>
        <time>2021-10-07T09:50:40.000Z</time>
      </trkpt>
      <trkpt lat="43.09636" lon="0.10644">
        <ele>633.59997558594</ele>
        <time>2021-10-07T09:50:44.000Z</time>
      </trkpt>
      <trkpt lat="43.09646" lon="0.1069">
        <ele>633</ele>
        <time>2021-10-07T09:50:49.000Z</time>
      </trkpt>
      <trkpt lat="43.09647" lon="0.10699">
        <ele>633</ele>
        <time>2021-10-07T09:50:50.000Z</time>
      </trkpt>
      <trkpt lat="43.09651" lon="0.1074">
        <ele>631.79998779297</ele>
        <time>2021-10-07T09:50:54.000Z</time>
      </trkpt>
      <trkpt lat="43.09651" lon="0.10752">
        <ele>631.59997558594</ele>
        <time>2021-10-07T09:50:55.000Z</time>
      </trkpt>
      <trkpt lat="43.09648" lon="0.10787">
        <ele>630.40002441406</ele>
        <time>2021-10-07T09:50:58.000Z</time>
      </trkpt>
      <trkpt lat="43.09646" lon="0.10799">
        <ele>630</ele>
        <time>2021-10-07T09:50:59.000Z</time>
      </trkpt>
      <trkpt lat="43.09643" lon="0.1081">
        <ele>629.40002441406</ele>
        <time>2021-10-07T09:51:00.000Z</time>
      </trkpt>
      <trkpt lat="43.09642" lon="0.10822">
        <ele>628.40002441406</ele>
        <time>2021-10-07T09:51:01.000Z</time>
      </trkpt>
      <trkpt lat="43.09641" lon="0.10834">
        <ele>628</ele>
        <time>2021-10-07T09:51:02.000Z</time>
      </trkpt>
      <trkpt lat="43.09641" lon="0.10846">
        <ele>627.40002441406</ele>
        <time>2021-10-07T09:51:03.000Z</time>
      </trkpt>
      <trkpt lat="43.09642" lon="0.10857">
        <ele>626.79998779297</ele>
        <time>2021-10-07T09:51:04.000Z</time>
      </trkpt>
      <trkpt lat="43.09642" lon="0.10894">
        <ele>625.59997558594</ele>
        <time>2021-10-07T09:51:07.000Z</time>
      </trkpt>
      <trkpt lat="43.09642" lon="0.10942">
        <ele>624.59997558594</ele>
        <time>2021-10-07T09:51:11.000Z</time>
      </trkpt>
      <trkpt lat="43.09642" lon="0.10954">
        <ele>623.59997558594</ele>
        <time>2021-10-07T09:51:12.000Z</time>
      </trkpt>
      <trkpt lat="43.09642" lon="0.10967">
        <ele>623.20001220703</ele>
        <time>2021-10-07T09:51:13.000Z</time>
      </trkpt>
      <trkpt lat="43.09641" lon="0.11003">
        <ele>622</ele>
        <time>2021-10-07T09:51:16.000Z</time>
      </trkpt>
      <trkpt lat="43.09641" lon="0.11014">
        <ele>621.79998779297</ele>
        <time>2021-10-07T09:51:17.000Z</time>
      </trkpt>
      <trkpt lat="43.09642" lon="0.11062">
        <ele>620.79998779297</ele>
        <time>2021-10-07T09:51:21.000Z</time>
      </trkpt>
      <trkpt lat="43.09643" lon="0.11073">
        <ele>620.40002441406</ele>
        <time>2021-10-07T09:51:22.000Z</time>
      </trkpt>
      <trkpt lat="43.09648" lon="0.11092">
        <ele>619.40002441406</ele>
        <time>2021-10-07T09:51:24.000Z</time>
      </trkpt>
      <trkpt lat="43.09649" lon="0.11099">
        <ele>619</ele>
        <time>2021-10-07T09:51:25.000Z</time>
      </trkpt>
      <trkpt lat="43.09647" lon="0.11111">
        <ele>618.20001220703</ele>
        <time>2021-10-07T09:51:27.000Z</time>
      </trkpt>
      <trkpt lat="43.09637" lon="0.11112">
        <ele>616.79998779297</ele>
        <time>2021-10-07T09:51:29.000Z</time>
      </trkpt>
      <trkpt lat="43.09625" lon="0.11105">
        <ele>615.79998779297</ele>
        <time>2021-10-07T09:51:31.000Z</time>
      </trkpt>
      <trkpt lat="43.0962" lon="0.11101">
        <ele>615.59997558594</ele>
        <time>2021-10-07T09:51:32.000Z</time>
      </trkpt>
      <trkpt lat="43.0961" lon="0.11095">
        <ele>614.40002441406</ele>
        <time>2021-10-07T09:51:34.000Z</time>
      </trkpt>
      <trkpt lat="43.09605" lon="0.11101">
        <ele>613.20001220703</ele>
        <time>2021-10-07T09:51:36.000Z</time>
      </trkpt>
      <trkpt lat="43.09609" lon="0.11115">
        <ele>612.59997558594</ele>
        <time>2021-10-07T09:51:38.000Z</time>
      </trkpt>
      <trkpt lat="43.09613" lon="0.11122">
        <ele>612.40002441406</ele>
        <time>2021-10-07T09:51:39.000Z</time>
      </trkpt>
      <trkpt lat="43.09622" lon="0.11136">
        <ele>611.40002441406</ele>
        <time>2021-10-07T09:51:41.000Z</time>
      </trkpt>
      <trkpt lat="43.09631" lon="0.11154">
        <ele>610</ele>
        <time>2021-10-07T09:51:43.000Z</time>
      </trkpt>
      <trkpt lat="43.09636" lon="0.11163">
        <ele>609.59997558594</ele>
        <time>2021-10-07T09:51:44.000Z</time>
      </trkpt>
      <trkpt lat="43.09641" lon="0.11171">
        <ele>608.79998779297</ele>
        <time>2021-10-07T09:51:45.000Z</time>
      </trkpt>
      <trkpt lat="43.09657" lon="0.11192">
        <ele>607.40002441406</ele>
        <time>2021-10-07T09:51:48.000Z</time>
      </trkpt>
      <trkpt lat="43.09662" lon="0.11199">
        <ele>607</ele>
        <time>2021-10-07T09:51:49.000Z</time>
      </trkpt>
      <trkpt lat="43.09666" lon="0.11208">
        <ele>606.20001220703</ele>
        <time>2021-10-07T09:51:50.000Z</time>
      </trkpt>
      <trkpt lat="43.09668" lon="0.11219">
        <ele>605.79998779297</ele>
        <time>2021-10-07T09:51:51.000Z</time>
      </trkpt>
      <trkpt lat="43.0967" lon="0.1123">
        <ele>605</ele>
        <time>2021-10-07T09:51:52.000Z</time>
      </trkpt>
      <trkpt lat="43.09669" lon="0.11251">
        <ele>603.59997558594</ele>
        <time>2021-10-07T09:51:54.000Z</time>
      </trkpt>
      <trkpt lat="43.0967" lon="0.11262">
        <ele>602.40002441406</ele>
        <time>2021-10-07T09:51:55.000Z</time>
      </trkpt>
      <trkpt lat="43.09669" lon="0.11286">
        <ele>600.59997558594</ele>
        <time>2021-10-07T09:51:57.000Z</time>
      </trkpt>
      <trkpt lat="43.09669" lon="0.11312">
        <ele>599</ele>
        <time>2021-10-07T09:51:59.000Z</time>
      </trkpt>
      <trkpt lat="43.09668" lon="0.11326">
        <ele>598.79998779297</ele>
        <time>2021-10-07T09:52:00.000Z</time>
      </trkpt>
      <trkpt lat="43.09668" lon="0.1134">
        <ele>597.79998779297</ele>
        <time>2021-10-07T09:52:01.000Z</time>
      </trkpt>
      <trkpt lat="43.09668" lon="0.11367">
        <ele>596</ele>
        <time>2021-10-07T09:52:03.000Z</time>
      </trkpt>
      <trkpt lat="43.09668" lon="0.11381">
        <ele>595</ele>
        <time>2021-10-07T09:52:04.000Z</time>
      </trkpt>
      <trkpt lat="43.09669" lon="0.11408">
        <ele>593.59997558594</ele>
        <time>2021-10-07T09:52:06.000Z</time>
      </trkpt>
      <trkpt lat="43.09671" lon="0.11433">
        <ele>591.79998779297</ele>
        <time>2021-10-07T09:52:08.000Z</time>
      </trkpt>
      <trkpt lat="43.09672" lon="0.1147">
        <ele>589.79998779297</ele>
        <time>2021-10-07T09:52:11.000Z</time>
      </trkpt>
      <trkpt lat="43.09675" lon="0.11492">
        <ele>588.59997558594</ele>
        <time>2021-10-07T09:52:13.000Z</time>
      </trkpt>
      <trkpt lat="43.09681" lon="0.1151">
        <ele>586.79998779297</ele>
        <time>2021-10-07T09:52:15.000Z</time>
      </trkpt>
      <trkpt lat="43.09685" lon="0.11526">
        <ele>584.40002441406</ele>
        <time>2021-10-07T09:52:18.000Z</time>
      </trkpt>
      <trkpt lat="43.0968" lon="0.11533">
        <ele>583.20001220703</ele>
        <time>2021-10-07T09:52:20.000Z</time>
      </trkpt>
      <trkpt lat="43.09675" lon="0.11533">
        <ele>583</ele>
        <time>2021-10-07T09:52:21.000Z</time>
      </trkpt>
      <trkpt lat="43.09669" lon="0.11531">
        <ele>582.40002441406</ele>
        <time>2021-10-07T09:52:22.000Z</time>
      </trkpt>
      <trkpt lat="43.09665" lon="0.11528">
        <ele>581.20001220703</ele>
        <time>2021-10-07T09:52:23.000Z</time>
      </trkpt>
      <trkpt lat="43.09661" lon="0.11527">
        <ele>580.79998779297</ele>
        <time>2021-10-07T09:52:24.000Z</time>
      </trkpt>
      <trkpt lat="43.09657" lon="0.11527">
        <ele>579.79998779297</ele>
        <time>2021-10-07T09:52:25.000Z</time>
      </trkpt>
      <trkpt lat="43.09654" lon="0.11531">
        <ele>579.59997558594</ele>
        <time>2021-10-07T09:52:26.000Z</time>
      </trkpt>
      <trkpt lat="43.09651" lon="0.11535">
        <ele>578.59997558594</ele>
        <time>2021-10-07T09:52:27.000Z</time>
      </trkpt>
      <trkpt lat="43.09651" lon="0.11539">
        <ele>578.20001220703</ele>
        <time>2021-10-07T09:52:28.000Z</time>
      </trkpt>
      <trkpt lat="43.09653" lon="0.11544">
        <ele>577.59997558594</ele>
        <time>2021-10-07T09:52:29.000Z</time>
      </trkpt>
      <trkpt lat="43.09657" lon="0.11549">
        <ele>577</ele>
        <time>2021-10-07T09:52:30.000Z</time>
      </trkpt>
      <trkpt lat="43.09658" lon="0.11554">
        <ele>576.59997558594</ele>
        <time>2021-10-07T09:52:31.000Z</time>
      </trkpt>
      <trkpt lat="43.09659" lon="0.1156">
        <ele>575.79998779297</ele>
        <time>2021-10-07T09:52:32.000Z</time>
      </trkpt>
      <trkpt lat="43.09656" lon="0.11566">
        <ele>575.40002441406</ele>
        <time>2021-10-07T09:52:33.000Z</time>
      </trkpt>
      <trkpt lat="43.09651" lon="0.11569">
        <ele>574.59997558594</ele>
        <time>2021-10-07T09:52:34.000Z</time>
      </trkpt>
      <trkpt lat="43.09647" lon="0.1157">
        <ele>574.20001220703</ele>
        <time>2021-10-07T09:52:35.000Z</time>
      </trkpt>
      <trkpt lat="43.09642" lon="0.11567">
        <ele>573.59997558594</ele>
        <time>2021-10-07T09:52:36.000Z</time>
      </trkpt>
      <trkpt lat="43.09635" lon="0.11564">
        <ele>572.40002441406</ele>
        <time>2021-10-07T09:52:37.000Z</time>
      </trkpt>
      <trkpt lat="43.09628" lon="0.11558">
        <ele>572</ele>
        <time>2021-10-07T09:52:38.000Z</time>
      </trkpt>
      <trkpt lat="43.09623" lon="0.11551">
        <ele>570.79998779297</ele>
        <time>2021-10-07T09:52:39.000Z</time>
      </trkpt>
      <trkpt lat="43.09618" lon="0.11543">
        <ele>570.40002441406</ele>
        <time>2021-10-07T09:52:40.000Z</time>
      </trkpt>
      <trkpt lat="43.0961" lon="0.11522">
        <ele>569.40002441406</ele>
        <time>2021-10-07T09:52:42.000Z</time>
      </trkpt>
      <trkpt lat="43.09602" lon="0.11497">
        <ele>567.59997558594</ele>
        <time>2021-10-07T09:52:44.000Z</time>
      </trkpt>
      <trkpt lat="43.09597" lon="0.11471">
        <ele>566.40002441406</ele>
        <time>2021-10-07T09:52:46.000Z</time>
      </trkpt>
      <trkpt lat="43.09593" lon="0.11428">
        <ele>565</ele>
        <time>2021-10-07T09:52:49.000Z</time>
      </trkpt>
      <trkpt lat="43.09592" lon="0.11413">
        <ele>563.79998779297</ele>
        <time>2021-10-07T09:52:50.000Z</time>
      </trkpt>
      <trkpt lat="43.09592" lon="0.11399">
        <ele>562.79998779297</ele>
        <time>2021-10-07T09:52:51.000Z</time>
      </trkpt>
      <trkpt lat="43.09593" lon="0.11384">
        <ele>562.20001220703</ele>
        <time>2021-10-07T09:52:52.000Z</time>
      </trkpt>
      <trkpt lat="43.09593" lon="0.1137">
        <ele>560.79998779297</ele>
        <time>2021-10-07T09:52:53.000Z</time>
      </trkpt>
      <trkpt lat="43.09593" lon="0.11344">
        <ele>559.40002441406</ele>
        <time>2021-10-07T09:52:55.000Z</time>
      </trkpt>
      <trkpt lat="43.09592" lon="0.11332">
        <ele>559</ele>
        <time>2021-10-07T09:52:56.000Z</time>
      </trkpt>
      <trkpt lat="43.09591" lon="0.11322">
        <ele>558.40002441406</ele>
        <time>2021-10-07T09:52:57.000Z</time>
      </trkpt>
      <trkpt lat="43.09588" lon="0.11302">
        <ele>557</ele>
        <time>2021-10-07T09:52:59.000Z</time>
      </trkpt>
      <trkpt lat="43.09587" lon="0.11294">
        <ele>556.20001220703</ele>
        <time>2021-10-07T09:53:00.000Z</time>
      </trkpt>
      <trkpt lat="43.09583" lon="0.11288">
        <ele>555.59997558594</ele>
        <time>2021-10-07T09:53:01.000Z</time>
      </trkpt>
      <trkpt lat="43.09579" lon="0.11283">
        <ele>554.59997558594</ele>
        <time>2021-10-07T09:53:02.000Z</time>
      </trkpt>
      <trkpt lat="43.09574" lon="0.11281">
        <ele>553.79998779297</ele>
        <time>2021-10-07T09:53:03.000Z</time>
      </trkpt>
      <trkpt lat="43.0957" lon="0.1128">
        <ele>552.59997558594</ele>
        <time>2021-10-07T09:53:04.000Z</time>
      </trkpt>
      <trkpt lat="43.09565" lon="0.11282">
        <ele>551.20001220703</ele>
        <time>2021-10-07T09:53:06.000Z</time>
      </trkpt>
      <trkpt lat="43.09564" lon="0.11288">
        <ele>549.59997558594</ele>
        <time>2021-10-07T09:53:08.000Z</time>
      </trkpt>
      <trkpt lat="43.09564" lon="0.1129">
        <ele>549</ele>
        <time>2021-10-07T09:53:09.000Z</time>
      </trkpt>
      <trkpt lat="43.09565" lon="0.11292">
        <ele>548.20001220703</ele>
        <time>2021-10-07T09:53:10.000Z</time>
      </trkpt>
      <trkpt lat="43.09568" lon="0.11298">
        <ele>547</ele>
        <time>2021-10-07T09:53:13.000Z</time>
      </trkpt>
      <trkpt lat="43.09569" lon="0.11302">
        <ele>546.59997558594</ele>
        <time>2021-10-07T09:53:14.000Z</time>
      </trkpt>
      <trkpt lat="43.09571" lon="0.1132">
        <ele>545.59997558594</ele>
        <time>2021-10-07T09:53:17.000Z</time>
      </trkpt>
      <trkpt lat="43.09557" lon="0.11345">
        <ele>544.59997558594</ele>
        <time>2021-10-07T09:53:20.000Z</time>
      </trkpt>
      <trkpt lat="43.09542" lon="0.11362">
        <ele>543.40002441406</ele>
        <time>2021-10-07T09:53:22.000Z</time>
      </trkpt>
      <trkpt lat="43.09534" lon="0.11369">
        <ele>542.20001220703</ele>
        <time>2021-10-07T09:53:23.000Z</time>
      </trkpt>
      <trkpt lat="43.09529" lon="0.11375">
        <ele>540.59997558594</ele>
        <time>2021-10-07T09:53:24.000Z</time>
      </trkpt>
      <trkpt lat="43.09517" lon="0.11389">
        <ele>539</ele>
        <time>2021-10-07T09:53:26.000Z</time>
      </trkpt>
      <trkpt lat="43.09513" lon="0.11394">
        <ele>538</ele>
        <time>2021-10-07T09:53:27.000Z</time>
      </trkpt>
      <trkpt lat="43.0951" lon="0.11399">
        <ele>536</ele>
        <time>2021-10-07T09:53:28.000Z</time>
      </trkpt>
      <trkpt lat="43.09506" lon="0.11407">
        <ele>533.79998779297</ele>
        <time>2021-10-07T09:53:30.000Z</time>
      </trkpt>
      <trkpt lat="43.09505" lon="0.11409">
        <ele>531.79998779297</ele>
        <time>2021-10-07T09:53:31.000Z</time>
      </trkpt>
      <trkpt lat="43.09504" lon="0.11411">
        <ele>530.59997558594</ele>
        <time>2021-10-07T09:53:32.000Z</time>
      </trkpt>
      <trkpt lat="43.09503" lon="0.11413">
        <ele>529.20001220703</ele>
        <time>2021-10-07T09:53:33.000Z</time>
      </trkpt>
      <trkpt lat="43.095" lon="0.11419">
        <ele>527.59997558594</ele>
        <time>2021-10-07T09:53:35.000Z</time>
      </trkpt>
      <trkpt lat="43.09499" lon="0.11424">
        <ele>527.40002441406</ele>
        <time>2021-10-07T09:53:36.000Z</time>
      </trkpt>
      <trkpt lat="43.09496" lon="0.11435">
        <ele>526.40002441406</ele>
        <time>2021-10-07T09:53:38.000Z</time>
      </trkpt>
      <trkpt lat="43.09493" lon="0.11451">
        <ele>525.59997558594</ele>
        <time>2021-10-07T09:53:40.000Z</time>
      </trkpt>
      <trkpt lat="43.09491" lon="0.11461">
        <ele>525.20001220703</ele>
        <time>2021-10-07T09:53:41.000Z</time>
      </trkpt>
      <trkpt lat="43.09487" lon="0.11481">
        <ele>524</ele>
        <time>2021-10-07T09:53:43.000Z</time>
      </trkpt>
      <trkpt lat="43.09486" lon="0.1149">
        <ele>523.20001220703</ele>
        <time>2021-10-07T09:53:44.000Z</time>
      </trkpt>
      <trkpt lat="43.09484" lon="0.11501">
        <ele>522.79998779297</ele>
        <time>2021-10-07T09:53:45.000Z</time>
      </trkpt>
      <trkpt lat="43.09481" lon="0.11546">
        <ele>521.20001220703</ele>
        <time>2021-10-07T09:53:49.000Z</time>
      </trkpt>
      <trkpt lat="43.0948" lon="0.11567">
        <ele>520</ele>
        <time>2021-10-07T09:53:51.000Z</time>
      </trkpt>
      <trkpt lat="43.09482" lon="0.11579">
        <ele>518.79998779297</ele>
        <time>2021-10-07T09:53:52.000Z</time>
      </trkpt>
      <trkpt lat="43.09484" lon="0.11587">
        <ele>518.20001220703</ele>
        <time>2021-10-07T09:53:53.000Z</time>
      </trkpt>
      <trkpt lat="43.09487" lon="0.11597">
        <ele>517.20001220703</ele>
        <time>2021-10-07T09:53:54.000Z</time>
      </trkpt>
      <trkpt lat="43.09494" lon="0.11619">
        <ele>515.40002441406</ele>
        <time>2021-10-07T09:53:56.000Z</time>
      </trkpt>
      <trkpt lat="43.09498" lon="0.11628">
        <ele>515.20001220703</ele>
        <time>2021-10-07T09:53:57.000Z</time>
      </trkpt>
      <trkpt lat="43.09502" lon="0.11638">
        <ele>514</ele>
        <time>2021-10-07T09:53:58.000Z</time>
      </trkpt>
      <trkpt lat="43.09506" lon="0.11645">
        <ele>512.79998779297</ele>
        <time>2021-10-07T09:53:59.000Z</time>
      </trkpt>
      <trkpt lat="43.09511" lon="0.11654">
        <ele>511.79998779297</ele>
        <time>2021-10-07T09:54:00.000Z</time>
      </trkpt>
      <trkpt lat="43.09516" lon="0.11662">
        <ele>510.39999389648</ele>
        <time>2021-10-07T09:54:01.000Z</time>
      </trkpt>
      <trkpt lat="43.09525" lon="0.11678">
        <ele>508.60000610352</ele>
        <time>2021-10-07T09:54:03.000Z</time>
      </trkpt>
      <trkpt lat="43.09531" lon="0.11694">
        <ele>507.20001220703</ele>
        <time>2021-10-07T09:54:05.000Z</time>
      </trkpt>
      <trkpt lat="43.09534" lon="0.11713">
        <ele>506</ele>
        <time>2021-10-07T09:54:07.000Z</time>
      </trkpt>
      <trkpt lat="43.09535" lon="0.11721">
        <ele>505</ele>
        <time>2021-10-07T09:54:08.000Z</time>
      </trkpt>
      <trkpt lat="43.09535" lon="0.1173">
        <ele>504.39999389648</ele>
        <time>2021-10-07T09:54:09.000Z</time>
      </trkpt>
      <trkpt lat="43.09535" lon="0.11738">
        <ele>503</ele>
        <time>2021-10-07T09:54:10.000Z</time>
      </trkpt>
      <trkpt lat="43.09534" lon="0.11765">
        <ele>501.79998779297</ele>
        <time>2021-10-07T09:54:12.000Z</time>
      </trkpt>
      <trkpt lat="43.09537" lon="0.1179">
        <ele>500.39999389648</ele>
        <time>2021-10-07T09:54:14.000Z</time>
      </trkpt>
      <trkpt lat="43.09539" lon="0.11804">
        <ele>499</ele>
        <time>2021-10-07T09:54:15.000Z</time>
      </trkpt>
      <trkpt lat="43.09542" lon="0.11816">
        <ele>498.39999389648</ele>
        <time>2021-10-07T09:54:16.000Z</time>
      </trkpt>
      <trkpt lat="43.09544" lon="0.1183">
        <ele>497.20001220703</ele>
        <time>2021-10-07T09:54:17.000Z</time>
      </trkpt>
      <trkpt lat="43.09546" lon="0.1184">
        <ele>495.60000610352</ele>
        <time>2021-10-07T09:54:18.000Z</time>
      </trkpt>
      <trkpt lat="43.09548" lon="0.11856">
        <ele>493.79998779297</ele>
        <time>2021-10-07T09:54:20.000Z</time>
      </trkpt>
      <trkpt lat="43.09549" lon="0.11862">
        <ele>493.39999389648</ele>
        <time>2021-10-07T09:54:21.000Z</time>
      </trkpt>
      <trkpt lat="43.09549" lon="0.11869">
        <ele>492.60000610352</ele>
        <time>2021-10-07T09:54:22.000Z</time>
      </trkpt>
      <trkpt lat="43.09547" lon="0.11875">
        <ele>492.39999389648</ele>
        <time>2021-10-07T09:54:23.000Z</time>
      </trkpt>
      <trkpt lat="43.09542" lon="0.1189">
        <ele>491.20001220703</ele>
        <time>2021-10-07T09:54:26.000Z</time>
      </trkpt>
      <trkpt lat="43.09535" lon="0.11912">
        <ele>490.60000610352</ele>
        <time>2021-10-07T09:54:30.000Z</time>
      </trkpt>
      <trkpt lat="43.09531" lon="0.11921">
        <ele>490.20001220703</ele>
        <time>2021-10-07T09:54:32.000Z</time>
      </trkpt>
      <trkpt lat="43.09527" lon="0.11934">
        <ele>490</ele>
        <time>2021-10-07T09:54:35.000Z</time>
      </trkpt>
      <trkpt lat="43.09517" lon="0.11954">
        <ele>490.39999389648</ele>
        <time>2021-10-07T09:54:41.000Z</time>
      </trkpt>
      <trkpt lat="43.09513" lon="0.11956">
        <ele>490.39999389648</ele>
        <time>2021-10-07T09:54:42.000Z</time>
      </trkpt>
      <trkpt lat="43.09507" lon="0.11953">
        <ele>490.39999389648</ele>
        <time>2021-10-07T09:54:44.000Z</time>
      </trkpt>
      <trkpt lat="43.09494" lon="0.11935">
        <ele>490.20001220703</ele>
        <time>2021-10-07T09:54:48.000Z</time>
      </trkpt>
      <trkpt lat="43.09491" lon="0.11929">
        <ele>490.20001220703</ele>
        <time>2021-10-07T09:54:49.000Z</time>
      </trkpt>
      <trkpt lat="43.09467" lon="0.11891">
        <ele>490</ele>
        <time>2021-10-07T09:54:56.000Z</time>
      </trkpt>
      <trkpt lat="43.09442" lon="0.11857">
        <ele>490.20001220703</ele>
        <time>2021-10-07T09:55:03.000Z</time>
      </trkpt>
      <trkpt lat="43.09423" lon="0.11848">
        <ele>490.39999389648</ele>
        <time>2021-10-07T09:55:07.000Z</time>
      </trkpt>
      <trkpt lat="43.09388" lon="0.11842">
        <ele>491.39999389648</ele>
        <time>2021-10-07T09:55:15.000Z</time>
      </trkpt>
      <trkpt lat="43.09384" lon="0.11842">
        <ele>491.39999389648</ele>
        <time>2021-10-07T09:55:16.000Z</time>
      </trkpt>
      <trkpt lat="43.09362" lon="0.11834">
        <ele>492.60000610352</ele>
        <time>2021-10-07T09:55:22.000Z</time>
      </trkpt>
      <trkpt lat="43.09349" lon="0.11823">
        <ele>493.60000610352</ele>
        <time>2021-10-07T09:55:26.000Z</time>
      </trkpt>
      <trkpt lat="43.09341" lon="0.11812">
        <ele>494.20001220703</ele>
        <time>2021-10-07T09:55:29.000Z</time>
      </trkpt>
      <trkpt lat="43.09334" lon="0.11804">
        <ele>494.79998779297</ele>
        <time>2021-10-07T09:55:32.000Z</time>
      </trkpt>
      <trkpt lat="43.09325" lon="0.118">
        <ele>495.39999389648</ele>
        <time>2021-10-07T09:55:35.000Z</time>
      </trkpt>
      <trkpt lat="43.09319" lon="0.11797">
        <ele>496</ele>
        <time>2021-10-07T09:55:37.000Z</time>
      </trkpt>
      <trkpt lat="43.09307" lon="0.11794">
        <ele>497.39999389648</ele>
        <time>2021-10-07T09:55:41.000Z</time>
      </trkpt>
      <trkpt lat="43.09295" lon="0.11792">
        <ele>498.20001220703</ele>
        <time>2021-10-07T09:55:45.000Z</time>
      </trkpt>
      <trkpt lat="43.09293" lon="0.11794">
        <ele>498.60000610352</ele>
        <time>2021-10-07T09:55:46.000Z</time>
      </trkpt>
      <trkpt lat="43.09288" lon="0.11809">
        <ele>499.79998779297</ele>
        <time>2021-10-07T09:55:50.000Z</time>
      </trkpt>
      <trkpt lat="43.09289" lon="0.11825">
        <ele>500.79998779297</ele>
        <time>2021-10-07T09:55:54.000Z</time>
      </trkpt>
      <trkpt lat="43.09288" lon="0.11829">
        <ele>501.20001220703</ele>
        <time>2021-10-07T09:55:55.000Z</time>
      </trkpt>
      <trkpt lat="43.09281" lon="0.11847">
        <ele>502</ele>
        <time>2021-10-07T09:56:00.000Z</time>
      </trkpt>
      <trkpt lat="43.09278" lon="0.11853">
        <ele>502.39999389648</ele>
        <time>2021-10-07T09:56:02.000Z</time>
      </trkpt>
      <trkpt lat="43.09273" lon="0.11864">
        <ele>503</ele>
        <time>2021-10-07T09:56:06.000Z</time>
      </trkpt>
      <trkpt lat="43.09271" lon="0.11866">
        <ele>503.20001220703</ele>
        <time>2021-10-07T09:56:07.000Z</time>
      </trkpt>
      <trkpt lat="43.09267" lon="0.11871">
        <ele>503.20001220703</ele>
        <time>2021-10-07T09:56:09.000Z</time>
      </trkpt>
      <trkpt lat="43.09262" lon="0.11873">
        <ele>504</ele>
        <time>2021-10-07T09:56:12.000Z</time>
      </trkpt>
      <trkpt lat="43.09257" lon="0.11876">
        <ele>504.20001220703</ele>
        <time>2021-10-07T09:56:14.000Z</time>
      </trkpt>
      <trkpt lat="43.09251" lon="0.11875">
        <ele>504.39999389648</ele>
        <time>2021-10-07T09:56:17.000Z</time>
      </trkpt>
      <trkpt lat="43.09249" lon="0.11872">
        <ele>504.60000610352</ele>
        <time>2021-10-07T09:56:18.000Z</time>
      </trkpt>
      <trkpt lat="43.09248" lon="0.11869">
        <ele>505</ele>
        <time>2021-10-07T09:56:19.000Z</time>
      </trkpt>
      <trkpt lat="43.09248" lon="0.11867">
        <ele>505</ele>
        <time>2021-10-07T09:56:20.000Z</time>
      </trkpt>
      <trkpt lat="43.09248" lon="0.11862">
        <ele>505.39999389648</ele>
        <time>2021-10-07T09:56:22.000Z</time>
      </trkpt>
      <trkpt lat="43.0925" lon="0.11855">
        <ele>506.20001220703</ele>
        <time>2021-10-07T09:56:25.000Z</time>
      </trkpt>
      <trkpt lat="43.09253" lon="0.11844">
        <ele>506.79998779297</ele>
        <time>2021-10-07T09:56:29.000Z</time>
      </trkpt>
      <trkpt lat="43.09253" lon="0.11843">
        <ele>507</ele>
        <time>2021-10-07T09:56:30.000Z</time>
      </trkpt>
      <trkpt lat="43.09252" lon="0.1184">
        <ele>507.20001220703</ele>
        <time>2021-10-07T09:56:32.000Z</time>
      </trkpt>
      <trkpt lat="43.09252" lon="0.11838">
        <ele>507.60000610352</ele>
        <time>2021-10-07T09:56:33.000Z</time>
      </trkpt>
      <trkpt lat="43.09253" lon="0.11836">
        <ele>507.79998779297</ele>
        <time>2021-10-07T09:56:34.000Z</time>
      </trkpt>
      <trkpt lat="43.09253" lon="0.11827">
        <ele>508.60000610352</ele>
        <time>2021-10-07T09:56:37.000Z</time>
      </trkpt>
      <trkpt lat="43.09252" lon="0.11804">
        <ele>509.60000610352</ele>
        <time>2021-10-07T09:56:43.000Z</time>
      </trkpt>
      <trkpt lat="43.09252" lon="0.118">
        <ele>510</ele>
        <time>2021-10-07T09:56:45.000Z</time>
      </trkpt>
      <trkpt lat="43.09249" lon="0.11792">
        <ele>510.60000610352</ele>
        <time>2021-10-07T09:56:49.000Z</time>
      </trkpt>
      <trkpt lat="43.09246" lon="0.11789">
        <ele>511</ele>
        <time>2021-10-07T09:56:51.000Z</time>
      </trkpt>
      <trkpt lat="43.09243" lon="0.11788">
        <ele>511.60000610352</ele>
        <time>2021-10-07T09:56:53.000Z</time>
      </trkpt>
      <trkpt lat="43.09241" lon="0.11789">
        <ele>512</ele>
        <time>2021-10-07T09:56:54.000Z</time>
      </trkpt>
      <trkpt lat="43.09239" lon="0.11791">
        <ele>512.40002441406</ele>
        <time>2021-10-07T09:56:56.000Z</time>
      </trkpt>
      <trkpt lat="43.09238" lon="0.11794">
        <ele>513</ele>
        <time>2021-10-07T09:56:58.000Z</time>
      </trkpt>
      <trkpt lat="43.09234" lon="0.11799">
        <ele>514.20001220703</ele>
        <time>2021-10-07T09:57:02.000Z</time>
      </trkpt>
      <trkpt lat="43.09232" lon="0.11803">
        <ele>514.79998779297</ele>
        <time>2021-10-07T09:57:04.000Z</time>
      </trkpt>
      <trkpt lat="43.09231" lon="0.11806">
        <ele>515.20001220703</ele>
        <time>2021-10-07T09:57:06.000Z</time>
      </trkpt>
      <trkpt lat="43.09229" lon="0.11808">
        <ele>515.40002441406</ele>
        <time>2021-10-07T09:57:07.000Z</time>
      </trkpt>
      <trkpt lat="43.09224" lon="0.11818">
        <ele>516.59997558594</ele>
        <time>2021-10-07T09:57:12.000Z</time>
      </trkpt>
      <trkpt lat="43.09224" lon="0.1182">
        <ele>516.59997558594</ele>
        <time>2021-10-07T09:57:13.000Z</time>
      </trkpt>
      <trkpt lat="43.09223" lon="0.11822">
        <ele>517</ele>
        <time>2021-10-07T09:57:14.000Z</time>
      </trkpt>
      <trkpt lat="43.09219" lon="0.11828">
        <ele>517.79998779297</ele>
        <time>2021-10-07T09:57:17.000Z</time>
      </trkpt>
      <trkpt lat="43.09213" lon="0.11835">
        <ele>519</ele>
        <time>2021-10-07T09:57:21.000Z</time>
      </trkpt>
      <trkpt lat="43.0921" lon="0.11836">
        <ele>519.20001220703</ele>
        <time>2021-10-07T09:57:22.000Z</time>
      </trkpt>
      <trkpt lat="43.09205" lon="0.11837">
        <ele>520</ele>
        <time>2021-10-07T09:57:25.000Z</time>
      </trkpt>
      <trkpt lat="43.092" lon="0.11833">
        <ele>520.79998779297</ele>
        <time>2021-10-07T09:57:28.000Z</time>
      </trkpt>
      <trkpt lat="43.09199" lon="0.11832">
        <ele>521</ele>
        <time>2021-10-07T09:57:29.000Z</time>
      </trkpt>
      <trkpt lat="43.09198" lon="0.11823">
        <ele>522</ele>
        <time>2021-10-07T09:57:33.000Z</time>
      </trkpt>
      <trkpt lat="43.09198" lon="0.11818">
        <ele>522.59997558594</ele>
        <time>2021-10-07T09:57:36.000Z</time>
      </trkpt>
      <trkpt lat="43.09197" lon="0.11817">
        <ele>523</ele>
        <time>2021-10-07T09:57:37.000Z</time>
      </trkpt>
      <trkpt lat="43.09197" lon="0.11814">
        <ele>523.20001220703</ele>
        <time>2021-10-07T09:57:38.000Z</time>
      </trkpt>
      <trkpt lat="43.09196" lon="0.11809">
        <ele>524.20001220703</ele>
        <time>2021-10-07T09:57:41.000Z</time>
      </trkpt>
      <trkpt lat="43.09196" lon="0.11807">
        <ele>524.40002441406</ele>
        <time>2021-10-07T09:57:42.000Z</time>
      </trkpt>
      <trkpt lat="43.09194" lon="0.11801">
        <ele>525.59997558594</ele>
        <time>2021-10-07T09:57:45.000Z</time>
      </trkpt>
      <trkpt lat="43.09192" lon="0.11791">
        <ele>526.40002441406</ele>
        <time>2021-10-07T09:57:50.000Z</time>
      </trkpt>
      <trkpt lat="43.09192" lon="0.11788">
        <ele>526.79998779297</ele>
        <time>2021-10-07T09:57:52.000Z</time>
      </trkpt>
      <trkpt lat="43.09185" lon="0.11778">
        <ele>527.59997558594</ele>
        <time>2021-10-07T09:57:57.000Z</time>
      </trkpt>
      <trkpt lat="43.09184" lon="0.11776">
        <ele>527.79998779297</ele>
        <time>2021-10-07T09:57:58.000Z</time>
      </trkpt>
      <trkpt lat="43.09182" lon="0.11769">
        <ele>529</ele>
        <time>2021-10-07T09:58:02.000Z</time>
      </trkpt>
      <trkpt lat="43.09181" lon="0.11765">
        <ele>529.40002441406</ele>
        <time>2021-10-07T09:58:04.000Z</time>
      </trkpt>
      <trkpt lat="43.09177" lon="0.11758">
        <ele>530.40002441406</ele>
        <time>2021-10-07T09:58:08.000Z</time>
      </trkpt>
      <trkpt lat="43.09177" lon="0.11757">
        <ele>530.59997558594</ele>
        <time>2021-10-07T09:58:09.000Z</time>
      </trkpt>
      <trkpt lat="43.09176" lon="0.11755">
        <ele>531.20001220703</ele>
        <time>2021-10-07T09:58:11.000Z</time>
      </trkpt>
      <trkpt lat="43.09176" lon="0.11754">
        <ele>531.59997558594</ele>
        <time>2021-10-07T09:58:12.000Z</time>
      </trkpt>
      <trkpt lat="43.09174" lon="0.11753">
        <ele>531.79998779297</ele>
        <time>2021-10-07T09:58:13.000Z</time>
      </trkpt>
      <trkpt lat="43.0917" lon="0.11748">
        <ele>532.20001220703</ele>
        <time>2021-10-07T09:58:15.000Z</time>
      </trkpt>
      <trkpt lat="43.09168" lon="0.11747">
        <ele>532.40002441406</ele>
        <time>2021-10-07T09:58:16.000Z</time>
      </trkpt>
      <trkpt lat="43.09167" lon="0.11746">
        <ele>532.59997558594</ele>
        <time>2021-10-07T09:58:17.000Z</time>
      </trkpt>
      <trkpt lat="43.09163" lon="0.11737">
        <ele>533</ele>
        <time>2021-10-07T09:58:21.000Z</time>
      </trkpt>
      <trkpt lat="43.09156" lon="0.11729">
        <ele>533.79998779297</ele>
        <time>2021-10-07T09:58:25.000Z</time>
      </trkpt>
      <trkpt lat="43.09154" lon="0.11726">
        <ele>534.20001220703</ele>
        <time>2021-10-07T09:58:27.000Z</time>
      </trkpt>
      <trkpt lat="43.09148" lon="0.1172">
        <ele>534.79998779297</ele>
        <time>2021-10-07T09:58:30.000Z</time>
      </trkpt>
      <trkpt lat="43.09147" lon="0.11718">
        <ele>534.79998779297</ele>
        <time>2021-10-07T09:58:31.000Z</time>
      </trkpt>
      <trkpt lat="43.09144" lon="0.11717">
        <ele>535.20001220703</ele>
        <time>2021-10-07T09:58:33.000Z</time>
      </trkpt>
      <trkpt lat="43.09142" lon="0.11715">
        <ele>535.79998779297</ele>
        <time>2021-10-07T09:58:34.000Z</time>
      </trkpt>
      <trkpt lat="43.09141" lon="0.11715">
        <ele>536</ele>
        <time>2021-10-07T09:58:35.000Z</time>
      </trkpt>
      <trkpt lat="43.09139" lon="0.11717">
        <ele>537</ele>
        <time>2021-10-07T09:58:38.000Z</time>
      </trkpt>
      <trkpt lat="43.09138" lon="0.11718">
        <ele>537</ele>
        <time>2021-10-07T09:58:39.000Z</time>
      </trkpt>
      <trkpt lat="43.09138" lon="0.11719">
        <ele>537.20001220703</ele>
        <time>2021-10-07T09:58:40.000Z</time>
      </trkpt>
      <trkpt lat="43.09137" lon="0.11723">
        <ele>538</ele>
        <time>2021-10-07T09:58:42.000Z</time>
      </trkpt>
      <trkpt lat="43.09136" lon="0.11726">
        <ele>538.79998779297</ele>
        <time>2021-10-07T09:58:45.000Z</time>
      </trkpt>
      <trkpt lat="43.09137" lon="0.11728">
        <ele>539</ele>
        <time>2021-10-07T09:58:46.000Z</time>
      </trkpt>
      <trkpt lat="43.09137" lon="0.11729">
        <ele>539.20001220703</ele>
        <time>2021-10-07T09:58:47.000Z</time>
      </trkpt>
      <trkpt lat="43.09135" lon="0.11733">
        <ele>540.40002441406</ele>
        <time>2021-10-07T09:58:50.000Z</time>
      </trkpt>
      <trkpt lat="43.09133" lon="0.11738">
        <ele>541.20001220703</ele>
        <time>2021-10-07T09:58:53.000Z</time>
      </trkpt>
      <trkpt lat="43.09132" lon="0.11741">
        <ele>541.59997558594</ele>
        <time>2021-10-07T09:58:55.000Z</time>
      </trkpt>
      <trkpt lat="43.09132" lon="0.11744">
        <ele>542.59997558594</ele>
        <time>2021-10-07T09:58:58.000Z</time>
      </trkpt>
      <trkpt lat="43.09129" lon="0.11753">
        <ele>543.40002441406</ele>
        <time>2021-10-07T09:59:02.000Z</time>
      </trkpt>
      <trkpt lat="43.09126" lon="0.11758">
        <ele>543.79998779297</ele>
        <time>2021-10-07T09:59:04.000Z</time>
      </trkpt>
      <trkpt lat="43.09125" lon="0.11761">
        <ele>544.40002441406</ele>
        <time>2021-10-07T09:59:06.000Z</time>
      </trkpt>
      <trkpt lat="43.09123" lon="0.11766">
        <ele>545</ele>
        <time>2021-10-07T09:59:08.000Z</time>
      </trkpt>
      <trkpt lat="43.09122" lon="0.1177">
        <ele>545</ele>
        <time>2021-10-07T09:59:09.000Z</time>
      </trkpt>
      <trkpt lat="43.09121" lon="0.11773">
        <ele>545.40002441406</ele>
        <time>2021-10-07T09:59:10.000Z</time>
      </trkpt>
      <trkpt lat="43.09119" lon="0.11779">
        <ele>545.79998779297</ele>
        <time>2021-10-07T09:59:13.000Z</time>
      </trkpt>
      <trkpt lat="43.09118" lon="0.1178">
        <ele>546</ele>
        <time>2021-10-07T09:59:14.000Z</time>
      </trkpt>
      <trkpt lat="43.09113" lon="0.11787">
        <ele>547.20001220703</ele>
        <time>2021-10-07T09:59:17.000Z</time>
      </trkpt>
      <trkpt lat="43.09111" lon="0.11791">
        <ele>547.79998779297</ele>
        <time>2021-10-07T09:59:20.000Z</time>
      </trkpt>
      <trkpt lat="43.09109" lon="0.11798">
        <ele>548.20001220703</ele>
        <time>2021-10-07T09:59:23.000Z</time>
      </trkpt>
      <trkpt lat="43.09107" lon="0.11801">
        <ele>548.79998779297</ele>
        <time>2021-10-07T09:59:25.000Z</time>
      </trkpt>
      <trkpt lat="43.09104" lon="0.11804">
        <ele>549</ele>
        <time>2021-10-07T09:59:27.000Z</time>
      </trkpt>
      <trkpt lat="43.09102" lon="0.11805">
        <ele>549.40002441406</ele>
        <time>2021-10-07T09:59:28.000Z</time>
      </trkpt>
      <trkpt lat="43.09098" lon="0.11811">
        <ele>550.40002441406</ele>
        <time>2021-10-07T09:59:32.000Z</time>
      </trkpt>
      <trkpt lat="43.09094" lon="0.11813">
        <ele>551</ele>
        <time>2021-10-07T09:59:35.000Z</time>
      </trkpt>
      <trkpt lat="43.09091" lon="0.11812">
        <ele>551.59997558594</ele>
        <time>2021-10-07T09:59:37.000Z</time>
      </trkpt>
      <trkpt lat="43.09089" lon="0.11807">
        <ele>552.59997558594</ele>
        <time>2021-10-07T09:59:40.000Z</time>
      </trkpt>
      <trkpt lat="43.09088" lon="0.11804">
        <ele>553.20001220703</ele>
        <time>2021-10-07T09:59:42.000Z</time>
      </trkpt>
      <trkpt lat="43.09089" lon="0.11798">
        <ele>554.20001220703</ele>
        <time>2021-10-07T09:59:45.000Z</time>
      </trkpt>
      <trkpt lat="43.0909" lon="0.11796">
        <ele>554.59997558594</ele>
        <time>2021-10-07T09:59:46.000Z</time>
      </trkpt>
      <trkpt lat="43.0909" lon="0.11789">
        <ele>555.20001220703</ele>
        <time>2021-10-07T09:59:49.000Z</time>
      </trkpt>
      <trkpt lat="43.0909" lon="0.11787">
        <ele>555.40002441406</ele>
        <time>2021-10-07T09:59:50.000Z</time>
      </trkpt>
      <trkpt lat="43.0909" lon="0.11781">
        <ele>556.20001220703</ele>
        <time>2021-10-07T09:59:53.000Z</time>
      </trkpt>
      <trkpt lat="43.09091" lon="0.11778">
        <ele>556.59997558594</ele>
        <time>2021-10-07T09:59:55.000Z</time>
      </trkpt>
      <trkpt lat="43.0909" lon="0.11778">
        <ele>556.79998779297</ele>
        <time>2021-10-07T09:59:57.000Z</time>
      </trkpt>
      <trkpt lat="43.0909" lon="0.1178">
        <ele>556.79998779297</ele>
        <time>2021-10-07T09:59:58.000Z</time>
      </trkpt>
      <trkpt lat="43.0909" lon="0.1178">
        <ele>557.40002441406</ele>
        <time>2021-10-07T10:00:00.000Z</time>
      </trkpt>
      <trkpt lat="43.0909" lon="0.11779">
        <ele>557.40002441406</ele>
        <time>2021-10-07T10:00:01.000Z</time>
      </trkpt>
      <trkpt lat="43.0909" lon="0.11777">
        <ele>557.59997558594</ele>
        <time>2021-10-07T10:00:03.000Z</time>
      </trkpt>
      <trkpt lat="43.0909" lon="0.11771">
        <ele>557.79998779297</ele>
        <time>2021-10-07T10:00:08.000Z</time>
      </trkpt>
      <trkpt lat="43.09091" lon="0.11766">
        <ele>557.79998779297</ele>
        <time>2021-10-07T10:00:10.000Z</time>
      </trkpt>
      <trkpt lat="43.09091" lon="0.1176">
        <ele>558</ele>
        <time>2021-10-07T10:00:12.000Z</time>
      </trkpt>
      <trkpt lat="43.09088" lon="0.11742">
        <ele>558.79998779297</ele>
        <time>2021-10-07T10:00:18.000Z</time>
      </trkpt>
      <trkpt lat="43.09088" lon="0.1174">
        <ele>558.79998779297</ele>
        <time>2021-10-07T10:00:19.000Z</time>
      </trkpt>
      <trkpt lat="43.09088" lon="0.11738">
        <ele>559.20001220703</ele>
        <time>2021-10-07T10:00:20.000Z</time>
      </trkpt>
      <trkpt lat="43.09084" lon="0.11729">
        <ele>559.79998779297</ele>
        <time>2021-10-07T10:00:23.000Z</time>
      </trkpt>
      <trkpt lat="43.09084" lon="0.11727">
        <ele>559.79998779297</ele>
        <time>2021-10-07T10:00:24.000Z</time>
      </trkpt>
      <trkpt lat="43.09084" lon="0.11722">
        <ele>560.40002441406</ele>
        <time>2021-10-07T10:00:27.000Z</time>
      </trkpt>
      <trkpt lat="43.09083" lon="0.11719">
        <ele>560.79998779297</ele>
        <time>2021-10-07T10:00:29.000Z</time>
      </trkpt>
      <trkpt lat="43.09083" lon="0.11718">
        <ele>561</ele>
        <time>2021-10-07T10:00:30.000Z</time>
      </trkpt>
      <trkpt lat="43.09081" lon="0.11711">
        <ele>561.79998779297</ele>
        <time>2021-10-07T10:00:34.000Z</time>
      </trkpt>
      <trkpt lat="43.09081" lon="0.11709">
        <ele>561.79998779297</ele>
        <time>2021-10-07T10:00:35.000Z</time>
      </trkpt>
      <trkpt lat="43.09073" lon="0.11697">
        <ele>563.20001220703</ele>
        <time>2021-10-07T10:00:39.000Z</time>
      </trkpt>
      <trkpt lat="43.09072" lon="0.11695">
        <ele>563.40002441406</ele>
        <time>2021-10-07T10:00:40.000Z</time>
      </trkpt>
      <trkpt lat="43.0907" lon="0.11686">
        <ele>564.40002441406</ele>
        <time>2021-10-07T10:00:43.000Z</time>
      </trkpt>
      <trkpt lat="43.09067" lon="0.11679">
        <ele>565.59997558594</ele>
        <time>2021-10-07T10:00:46.000Z</time>
      </trkpt>
      <trkpt lat="43.09067" lon="0.11677">
        <ele>565.79998779297</ele>
        <time>2021-10-07T10:00:47.000Z</time>
      </trkpt>
      <trkpt lat="43.09066" lon="0.11675">
        <ele>566</ele>
        <time>2021-10-07T10:00:48.000Z</time>
      </trkpt>
      <trkpt lat="43.09065" lon="0.1167">
        <ele>566.20001220703</ele>
        <time>2021-10-07T10:00:50.000Z</time>
      </trkpt>
      <trkpt lat="43.09064" lon="0.11668">
        <ele>566.79998779297</ele>
        <time>2021-10-07T10:00:51.000Z</time>
      </trkpt>
      <trkpt lat="43.09064" lon="0.11666">
        <ele>567</ele>
        <time>2021-10-07T10:00:52.000Z</time>
      </trkpt>
      <trkpt lat="43.09063" lon="0.11664">
        <ele>568</ele>
        <time>2021-10-07T10:00:54.000Z</time>
      </trkpt>
      <trkpt lat="43.09061" lon="0.11661">
        <ele>568.40002441406</ele>
        <time>2021-10-07T10:00:56.000Z</time>
      </trkpt>
      <trkpt lat="43.09059" lon="0.11658">
        <ele>569</ele>
        <time>2021-10-07T10:00:58.000Z</time>
      </trkpt>
      <trkpt lat="43.09056" lon="0.11652">
        <ele>570</ele>
        <time>2021-10-07T10:01:01.000Z</time>
      </trkpt>
      <trkpt lat="43.09054" lon="0.1165">
        <ele>570.40002441406</ele>
        <time>2021-10-07T10:01:02.000Z</time>
      </trkpt>
      <trkpt lat="43.09053" lon="0.11648">
        <ele>570.59997558594</ele>
        <time>2021-10-07T10:01:03.000Z</time>
      </trkpt>
      <trkpt lat="43.0905" lon="0.11641">
        <ele>572</ele>
        <time>2021-10-07T10:01:07.000Z</time>
      </trkpt>
      <trkpt lat="43.09045" lon="0.11635">
        <ele>572.79998779297</ele>
        <time>2021-10-07T10:01:10.000Z</time>
      </trkpt>
      <trkpt lat="43.09042" lon="0.11631">
        <ele>573</ele>
        <time>2021-10-07T10:01:13.000Z</time>
      </trkpt>
      <trkpt lat="43.09039" lon="0.11627">
        <ele>573.79998779297</ele>
        <time>2021-10-07T10:01:15.000Z</time>
      </trkpt>
      <trkpt lat="43.09038" lon="0.11625">
        <ele>574.20001220703</ele>
        <time>2021-10-07T10:01:16.000Z</time>
      </trkpt>
      <trkpt lat="43.09037" lon="0.11623">
        <ele>574.40002441406</ele>
        <time>2021-10-07T10:01:17.000Z</time>
      </trkpt>
      <trkpt lat="43.09035" lon="0.11618">
        <ele>575.40002441406</ele>
        <time>2021-10-07T10:01:20.000Z</time>
      </trkpt>
      <trkpt lat="43.09034" lon="0.11616">
        <ele>576</ele>
        <time>2021-10-07T10:01:21.000Z</time>
      </trkpt>
      <trkpt lat="43.09032" lon="0.11615">
        <ele>576.40002441406</ele>
        <time>2021-10-07T10:01:22.000Z</time>
      </trkpt>
      <trkpt lat="43.0903" lon="0.11613">
        <ele>576.79998779297</ele>
        <time>2021-10-07T10:01:23.000Z</time>
      </trkpt>
      <trkpt lat="43.09025" lon="0.11606">
        <ele>577.79998779297</ele>
        <time>2021-10-07T10:01:27.000Z</time>
      </trkpt>
      <trkpt lat="43.0902" lon="0.11602">
        <ele>579</ele>
        <time>2021-10-07T10:01:31.000Z</time>
      </trkpt>
      <trkpt lat="43.09013" lon="0.11597">
        <ele>579.40002441406</ele>
        <time>2021-10-07T10:01:34.000Z</time>
      </trkpt>
      <trkpt lat="43.0901" lon="0.11596">
        <ele>579.79998779297</ele>
        <time>2021-10-07T10:01:36.000Z</time>
      </trkpt>
      <trkpt lat="43.09009" lon="0.11595">
        <ele>580</ele>
        <time>2021-10-07T10:01:37.000Z</time>
      </trkpt>
      <trkpt lat="43.09005" lon="0.11593">
        <ele>580.40002441406</ele>
        <time>2021-10-07T10:01:40.000Z</time>
      </trkpt>
      <trkpt lat="43.09002" lon="0.11591">
        <ele>581</ele>
        <time>2021-10-07T10:01:42.000Z</time>
      </trkpt>
      <trkpt lat="43.08995" lon="0.11585">
        <ele>582.20001220703</ele>
        <time>2021-10-07T10:01:48.000Z</time>
      </trkpt>
      <trkpt lat="43.08993" lon="0.11584">
        <ele>582.40002441406</ele>
        <time>2021-10-07T10:01:49.000Z</time>
      </trkpt>
      <trkpt lat="43.08987" lon="0.11582">
        <ele>582.79998779297</ele>
        <time>2021-10-07T10:01:53.000Z</time>
      </trkpt>
      <trkpt lat="43.08982" lon="0.11582">
        <ele>583.40002441406</ele>
        <time>2021-10-07T10:01:56.000Z</time>
      </trkpt>
      <trkpt lat="43.08975" lon="0.1158">
        <ele>584.20001220703</ele>
        <time>2021-10-07T10:02:00.000Z</time>
      </trkpt>
      <trkpt lat="43.08972" lon="0.11578">
        <ele>584.59997558594</ele>
        <time>2021-10-07T10:02:02.000Z</time>
      </trkpt>
      <trkpt lat="43.08971" lon="0.11577">
        <ele>584.79998779297</ele>
        <time>2021-10-07T10:02:03.000Z</time>
      </trkpt>
      <trkpt lat="43.08964" lon="0.11574">
        <ele>585.59997558594</ele>
        <time>2021-10-07T10:02:07.000Z</time>
      </trkpt>
      <trkpt lat="43.08959" lon="0.11573">
        <ele>585.79998779297</ele>
        <time>2021-10-07T10:02:10.000Z</time>
      </trkpt>
      <trkpt lat="43.08952" lon="0.11576">
        <ele>586.59997558594</ele>
        <time>2021-10-07T10:02:14.000Z</time>
      </trkpt>
      <trkpt lat="43.08949" lon="0.11577">
        <ele>586.79998779297</ele>
        <time>2021-10-07T10:02:16.000Z</time>
      </trkpt>
      <trkpt lat="43.08948" lon="0.11578">
        <ele>587</ele>
        <time>2021-10-07T10:02:17.000Z</time>
      </trkpt>
      <trkpt lat="43.08945" lon="0.1158">
        <ele>587.59997558594</ele>
        <time>2021-10-07T10:02:19.000Z</time>
      </trkpt>
      <trkpt lat="43.08937" lon="0.11583">
        <ele>588.59997558594</ele>
        <time>2021-10-07T10:02:24.000Z</time>
      </trkpt>
      <trkpt lat="43.08929" lon="0.11586">
        <ele>589.40002441406</ele>
        <time>2021-10-07T10:02:28.000Z</time>
      </trkpt>
      <trkpt lat="43.08927" lon="0.11588">
        <ele>589.59997558594</ele>
        <time>2021-10-07T10:02:30.000Z</time>
      </trkpt>
      <trkpt lat="43.08922" lon="0.11593">
        <ele>590.79998779297</ele>
        <time>2021-10-07T10:02:34.000Z</time>
      </trkpt>
      <trkpt lat="43.08918" lon="0.11597">
        <ele>591.40002441406</ele>
        <time>2021-10-07T10:02:37.000Z</time>
      </trkpt>
      <trkpt lat="43.08915" lon="0.11602">
        <ele>591.79998779297</ele>
        <time>2021-10-07T10:02:40.000Z</time>
      </trkpt>
      <trkpt lat="43.08912" lon="0.11608">
        <ele>592.79998779297</ele>
        <time>2021-10-07T10:02:44.000Z</time>
      </trkpt>
      <trkpt lat="43.08912" lon="0.11611">
        <ele>593</ele>
        <time>2021-10-07T10:02:45.000Z</time>
      </trkpt>
      <trkpt lat="43.08912" lon="0.11613">
        <ele>593.20001220703</ele>
        <time>2021-10-07T10:02:46.000Z</time>
      </trkpt>
      <trkpt lat="43.08915" lon="0.11618">
        <ele>594</ele>
        <time>2021-10-07T10:02:49.000Z</time>
      </trkpt>
      <trkpt lat="43.08916" lon="0.1162">
        <ele>594.40002441406</ele>
        <time>2021-10-07T10:02:50.000Z</time>
      </trkpt>
      <trkpt lat="43.08917" lon="0.1162">
        <ele>594.59997558594</ele>
        <time>2021-10-07T10:02:51.000Z</time>
      </trkpt>
      <trkpt lat="43.0892" lon="0.1162">
        <ele>595.20001220703</ele>
        <time>2021-10-07T10:02:53.000Z</time>
      </trkpt>
      <trkpt lat="43.08924" lon="0.11621">
        <ele>595.40002441406</ele>
        <time>2021-10-07T10:02:55.000Z</time>
      </trkpt>
      <trkpt lat="43.08929" lon="0.11624">
        <ele>596.20001220703</ele>
        <time>2021-10-07T10:02:58.000Z</time>
      </trkpt>
      <trkpt lat="43.0893" lon="0.11624">
        <ele>596.40002441406</ele>
        <time>2021-10-07T10:02:59.000Z</time>
      </trkpt>
      <trkpt lat="43.08933" lon="0.11625">
        <ele>596.79998779297</ele>
        <time>2021-10-07T10:03:01.000Z</time>
      </trkpt>
      <trkpt lat="43.08936" lon="0.11627">
        <ele>597.20001220703</ele>
        <time>2021-10-07T10:03:03.000Z</time>
      </trkpt>
      <trkpt lat="43.08942" lon="0.11632">
        <ele>597.79998779297</ele>
        <time>2021-10-07T10:03:07.000Z</time>
      </trkpt>
      <trkpt lat="43.08944" lon="0.11633">
        <ele>598</ele>
        <time>2021-10-07T10:03:09.000Z</time>
      </trkpt>
      <trkpt lat="43.08945" lon="0.11634">
        <ele>598.40002441406</ele>
        <time>2021-10-07T10:03:10.000Z</time>
      </trkpt>
      <trkpt lat="43.08947" lon="0.11637">
        <ele>598.79998779297</ele>
        <time>2021-10-07T10:03:12.000Z</time>
      </trkpt>
      <trkpt lat="43.08952" lon="0.11644">
        <ele>599.40002441406</ele>
        <time>2021-10-07T10:03:16.000Z</time>
      </trkpt>
      <trkpt lat="43.08953" lon="0.11646">
        <ele>599.59997558594</ele>
        <time>2021-10-07T10:03:17.000Z</time>
      </trkpt>
      <trkpt lat="43.08956" lon="0.1165">
        <ele>600.20001220703</ele>
        <time>2021-10-07T10:03:20.000Z</time>
      </trkpt>
      <trkpt lat="43.08957" lon="0.11653">
        <ele>600.59997558594</ele>
        <time>2021-10-07T10:03:22.000Z</time>
      </trkpt>
      <trkpt lat="43.08958" lon="0.1166">
        <ele>601.79998779297</ele>
        <time>2021-10-07T10:03:25.000Z</time>
      </trkpt>
      <trkpt lat="43.0896" lon="0.11665">
        <ele>602.20001220703</ele>
        <time>2021-10-07T10:03:28.000Z</time>
      </trkpt>
      <trkpt lat="43.0896" lon="0.11669">
        <ele>602.79998779297</ele>
        <time>2021-10-07T10:03:30.000Z</time>
      </trkpt>
      <trkpt lat="43.0896" lon="0.11671">
        <ele>603.20001220703</ele>
        <time>2021-10-07T10:03:31.000Z</time>
      </trkpt>
      <trkpt lat="43.08958" lon="0.11675">
        <ele>604</ele>
        <time>2021-10-07T10:03:33.000Z</time>
      </trkpt>
      <trkpt lat="43.08957" lon="0.11677">
        <ele>604.40002441406</ele>
        <time>2021-10-07T10:03:34.000Z</time>
      </trkpt>
      <trkpt lat="43.08956" lon="0.11682">
        <ele>604.79998779297</ele>
        <time>2021-10-07T10:03:36.000Z</time>
      </trkpt>
      <trkpt lat="43.08955" lon="0.11685">
        <ele>605.20001220703</ele>
        <time>2021-10-07T10:03:38.000Z</time>
      </trkpt>
      <trkpt lat="43.08953" lon="0.11688">
        <ele>606</ele>
        <time>2021-10-07T10:03:40.000Z</time>
      </trkpt>
      <trkpt lat="43.08953" lon="0.1169">
        <ele>606.40002441406</ele>
        <time>2021-10-07T10:03:41.000Z</time>
      </trkpt>
      <trkpt lat="43.08949" lon="0.11697">
        <ele>607.59997558594</ele>
        <time>2021-10-07T10:03:45.000Z</time>
      </trkpt>
      <trkpt lat="43.08944" lon="0.11704">
        <ele>608.20001220703</ele>
        <time>2021-10-07T10:03:49.000Z</time>
      </trkpt>
      <trkpt lat="43.08941" lon="0.11708">
        <ele>608.79998779297</ele>
        <time>2021-10-07T10:03:51.000Z</time>
      </trkpt>
      <trkpt lat="43.0894" lon="0.1171">
        <ele>609</ele>
        <time>2021-10-07T10:03:52.000Z</time>
      </trkpt>
      <trkpt lat="43.08935" lon="0.1172">
        <ele>609.79998779297</ele>
        <time>2021-10-07T10:03:57.000Z</time>
      </trkpt>
      <trkpt lat="43.08932" lon="0.11726">
        <ele>610.59997558594</ele>
        <time>2021-10-07T10:04:00.000Z</time>
      </trkpt>
      <trkpt lat="43.0893" lon="0.11731">
        <ele>610.79998779297</ele>
        <time>2021-10-07T10:04:03.000Z</time>
      </trkpt>
      <trkpt lat="43.0893" lon="0.11732">
        <ele>611.20001220703</ele>
        <time>2021-10-07T10:04:04.000Z</time>
      </trkpt>
      <trkpt lat="43.08927" lon="0.11738">
        <ele>612</ele>
        <time>2021-10-07T10:04:07.000Z</time>
      </trkpt>
      <trkpt lat="43.08926" lon="0.1174">
        <ele>612</ele>
        <time>2021-10-07T10:04:08.000Z</time>
      </trkpt>
      <trkpt lat="43.0892" lon="0.11757">
        <ele>613.20001220703</ele>
        <time>2021-10-07T10:04:16.000Z</time>
      </trkpt>
      <trkpt lat="43.08915" lon="0.1177">
        <ele>614.20001220703</ele>
        <time>2021-10-07T10:04:21.000Z</time>
      </trkpt>
      <trkpt lat="43.08913" lon="0.11775">
        <ele>614.59997558594</ele>
        <time>2021-10-07T10:04:23.000Z</time>
      </trkpt>
      <trkpt lat="43.0891" lon="0.11783">
        <ele>615.59997558594</ele>
        <time>2021-10-07T10:04:27.000Z</time>
      </trkpt>
      <trkpt lat="43.08903" lon="0.11799">
        <ele>616.59997558594</ele>
        <time>2021-10-07T10:04:34.000Z</time>
      </trkpt>
      <trkpt lat="43.08897" lon="0.11813">
        <ele>617.79998779297</ele>
        <time>2021-10-07T10:04:40.000Z</time>
      </trkpt>
      <trkpt lat="43.08894" lon="0.11821">
        <ele>618.79998779297</ele>
        <time>2021-10-07T10:04:44.000Z</time>
      </trkpt>
      <trkpt lat="43.08891" lon="0.11831">
        <ele>619.79998779297</ele>
        <time>2021-10-07T10:04:48.000Z</time>
      </trkpt>
      <trkpt lat="43.0889" lon="0.11833">
        <ele>620</ele>
        <time>2021-10-07T10:04:49.000Z</time>
      </trkpt>
      <trkpt lat="43.08884" lon="0.11849">
        <ele>621.20001220703</ele>
        <time>2021-10-07T10:04:56.000Z</time>
      </trkpt>
      <trkpt lat="43.08883" lon="0.11852">
        <ele>621.40002441406</ele>
        <time>2021-10-07T10:04:57.000Z</time>
      </trkpt>
      <trkpt lat="43.08879" lon="0.1186">
        <ele>622.59997558594</ele>
        <time>2021-10-07T10:05:01.000Z</time>
      </trkpt>
      <trkpt lat="43.08876" lon="0.11865">
        <ele>623.20001220703</ele>
        <time>2021-10-07T10:05:04.000Z</time>
      </trkpt>
      <trkpt lat="43.08875" lon="0.11868">
        <ele>623.59997558594</ele>
        <time>2021-10-07T10:05:05.000Z</time>
      </trkpt>
      <trkpt lat="43.08871" lon="0.11875">
        <ele>624.40002441406</ele>
        <time>2021-10-07T10:05:09.000Z</time>
      </trkpt>
      <trkpt lat="43.0887" lon="0.11877">
        <ele>624.59997558594</ele>
        <time>2021-10-07T10:05:10.000Z</time>
      </trkpt>
      <trkpt lat="43.08869" lon="0.11882">
        <ele>624.79998779297</ele>
        <time>2021-10-07T10:05:13.000Z</time>
      </trkpt>
      <trkpt lat="43.08866" lon="0.11889">
        <ele>625.79998779297</ele>
        <time>2021-10-07T10:05:17.000Z</time>
      </trkpt>
      <trkpt lat="43.08865" lon="0.11891">
        <ele>625.79998779297</ele>
        <time>2021-10-07T10:05:18.000Z</time>
      </trkpt>
      <trkpt lat="43.08861" lon="0.119">
        <ele>626.79998779297</ele>
        <time>2021-10-07T10:05:22.000Z</time>
      </trkpt>
      <trkpt lat="43.08857" lon="0.11908">
        <ele>627.59997558594</ele>
        <time>2021-10-07T10:05:26.000Z</time>
      </trkpt>
      <trkpt lat="43.08856" lon="0.11909">
        <ele>627.79998779297</ele>
        <time>2021-10-07T10:05:27.000Z</time>
      </trkpt>
      <trkpt lat="43.08855" lon="0.11911">
        <ele>628</ele>
        <time>2021-10-07T10:05:28.000Z</time>
      </trkpt>
      <trkpt lat="43.08849" lon="0.11923">
        <ele>629</ele>
        <time>2021-10-07T10:05:33.000Z</time>
      </trkpt>
      <trkpt lat="43.08847" lon="0.11925">
        <ele>629.20001220703</ele>
        <time>2021-10-07T10:05:34.000Z</time>
      </trkpt>
      <trkpt lat="43.08842" lon="0.1194">
        <ele>630.40002441406</ele>
        <time>2021-10-07T10:05:40.000Z</time>
      </trkpt>
      <trkpt lat="43.08841" lon="0.11946">
        <ele>630.59997558594</ele>
        <time>2021-10-07T10:05:42.000Z</time>
      </trkpt>
      <trkpt lat="43.08838" lon="0.11955">
        <ele>631.59997558594</ele>
        <time>2021-10-07T10:05:45.000Z</time>
      </trkpt>
      <trkpt lat="43.08834" lon="0.11961">
        <ele>632.40002441406</ele>
        <time>2021-10-07T10:05:50.000Z</time>
      </trkpt>
      <trkpt lat="43.08834" lon="0.11963">
        <ele>632.59997558594</ele>
        <time>2021-10-07T10:05:51.000Z</time>
      </trkpt>
      <trkpt lat="43.08831" lon="0.11972">
        <ele>633.79998779297</ele>
        <time>2021-10-07T10:05:56.000Z</time>
      </trkpt>
      <trkpt lat="43.0883" lon="0.11974">
        <ele>634</ele>
        <time>2021-10-07T10:05:57.000Z</time>
      </trkpt>
      <trkpt lat="43.08828" lon="0.11977">
        <ele>634.59997558594</ele>
        <time>2021-10-07T10:06:00.000Z</time>
      </trkpt>
      <trkpt lat="43.08828" lon="0.11977">
        <ele>635</ele>
        <time>2021-10-07T10:06:03.000Z</time>
      </trkpt>
      <trkpt lat="43.08828" lon="0.11977">
        <ele>635.59997558594</ele>
        <time>2021-10-07T10:06:22.000Z</time>
      </trkpt>
      <trkpt lat="43.08828" lon="0.11977">
        <ele>635.20001220703</ele>
        <time>2021-10-07T10:06:30.000Z</time>
      </trkpt>
      <trkpt lat="43.08829" lon="0.11975">
        <ele>635.20001220703</ele>
        <time>2021-10-07T10:06:32.000Z</time>
      </trkpt>
      <trkpt lat="43.08831" lon="0.11971">
        <ele>635</ele>
        <time>2021-10-07T10:06:34.000Z</time>
      </trkpt>
      <trkpt lat="43.08832" lon="0.11969">
        <ele>635</ele>
        <time>2021-10-07T10:06:35.000Z</time>
      </trkpt>
      <trkpt lat="43.08835" lon="0.11963">
        <ele>635</ele>
        <time>2021-10-07T10:06:39.000Z</time>
      </trkpt>
      <trkpt lat="43.08835" lon="0.11963">
        <ele>634</ele>
        <time>2021-10-07T10:06:43.000Z</time>
      </trkpt>
      <trkpt lat="43.08835" lon="0.11963">
        <ele>634</ele>
        <time>2021-10-07T10:06:46.000Z</time>
      </trkpt>
      <trkpt lat="43.08831" lon="0.11974">
        <ele>634</ele>
        <time>2021-10-07T10:07:40.000Z</time>
      </trkpt>
      <trkpt lat="43.08824" lon="0.11988">
        <ele>635</ele>
        <time>2021-10-07T10:07:47.000Z</time>
      </trkpt>
      <trkpt lat="43.08823" lon="0.1199">
        <ele>635</ele>
        <time>2021-10-07T10:07:48.000Z</time>
      </trkpt>
      <trkpt lat="43.0882" lon="0.12001">
        <ele>636.40002441406</ele>
        <time>2021-10-07T10:07:53.000Z</time>
      </trkpt>
      <trkpt lat="43.08817" lon="0.12007">
        <ele>636.59997558594</ele>
        <time>2021-10-07T10:07:57.000Z</time>
      </trkpt>
      <trkpt lat="43.08815" lon="0.12013">
        <ele>637.20001220703</ele>
        <time>2021-10-07T10:07:59.000Z</time>
      </trkpt>
      <trkpt lat="43.08811" lon="0.12023">
        <ele>638.20001220703</ele>
        <time>2021-10-07T10:08:04.000Z</time>
      </trkpt>
      <trkpt lat="43.0881" lon="0.12025">
        <ele>638.79998779297</ele>
        <time>2021-10-07T10:08:05.000Z</time>
      </trkpt>
      <trkpt lat="43.08807" lon="0.1203">
        <ele>639.59997558594</ele>
        <time>2021-10-07T10:08:08.000Z</time>
      </trkpt>
      <trkpt lat="43.08805" lon="0.12039">
        <ele>640.79998779297</ele>
        <time>2021-10-07T10:08:12.000Z</time>
      </trkpt>
      <trkpt lat="43.08802" lon="0.12044">
        <ele>641</ele>
        <time>2021-10-07T10:08:14.000Z</time>
      </trkpt>
      <trkpt lat="43.08802" lon="0.12046">
        <ele>641.40002441406</ele>
        <time>2021-10-07T10:08:15.000Z</time>
      </trkpt>
      <trkpt lat="43.08799" lon="0.12049">
        <ele>641.59997558594</ele>
        <time>2021-10-07T10:08:17.000Z</time>
      </trkpt>
      <trkpt lat="43.08798" lon="0.1205">
        <ele>641.79998779297</ele>
        <time>2021-10-07T10:08:18.000Z</time>
      </trkpt>
      <trkpt lat="43.08798" lon="0.12053">
        <ele>642.20001220703</ele>
        <time>2021-10-07T10:08:19.000Z</time>
      </trkpt>
      <trkpt lat="43.08797" lon="0.12055">
        <ele>642.20001220703</ele>
        <time>2021-10-07T10:08:20.000Z</time>
      </trkpt>
      <trkpt lat="43.08795" lon="0.12059">
        <ele>642.79998779297</ele>
        <time>2021-10-07T10:08:22.000Z</time>
      </trkpt>
      <trkpt lat="43.08795" lon="0.12068">
        <ele>644</ele>
        <time>2021-10-07T10:08:26.000Z</time>
      </trkpt>
      <trkpt lat="43.08793" lon="0.12074">
        <ele>644.79998779297</ele>
        <time>2021-10-07T10:08:28.000Z</time>
      </trkpt>
      <trkpt lat="43.0879" lon="0.12076">
        <ele>645.40002441406</ele>
        <time>2021-10-07T10:08:30.000Z</time>
      </trkpt>
      <trkpt lat="43.08788" lon="0.12082">
        <ele>646.20001220703</ele>
        <time>2021-10-07T10:08:34.000Z</time>
      </trkpt>
      <trkpt lat="43.08786" lon="0.12083">
        <ele>646.59997558594</ele>
        <time>2021-10-07T10:08:35.000Z</time>
      </trkpt>
      <trkpt lat="43.08784" lon="0.12086">
        <ele>648</ele>
        <time>2021-10-07T10:08:39.000Z</time>
      </trkpt>
      <trkpt lat="43.08782" lon="0.12089">
        <ele>648.79998779297</ele>
        <time>2021-10-07T10:08:42.000Z</time>
      </trkpt>
      <trkpt lat="43.0878" lon="0.12098">
        <ele>650</ele>
        <time>2021-10-07T10:08:47.000Z</time>
      </trkpt>
      <trkpt lat="43.0878" lon="0.121">
        <ele>650.20001220703</ele>
        <time>2021-10-07T10:08:48.000Z</time>
      </trkpt>
      <trkpt lat="43.08779" lon="0.12106">
        <ele>651.20001220703</ele>
        <time>2021-10-07T10:08:51.000Z</time>
      </trkpt>
      <trkpt lat="43.08778" lon="0.1211">
        <ele>651.79998779297</ele>
        <time>2021-10-07T10:08:54.000Z</time>
      </trkpt>
      <trkpt lat="43.08777" lon="0.12115">
        <ele>652</ele>
        <time>2021-10-07T10:08:57.000Z</time>
      </trkpt>
      <trkpt lat="43.08777" lon="0.12117">
        <ele>652.59997558594</ele>
        <time>2021-10-07T10:08:58.000Z</time>
      </trkpt>
      <trkpt lat="43.08773" lon="0.12123">
        <ele>653.40002441406</ele>
        <time>2021-10-07T10:09:01.000Z</time>
      </trkpt>
      <trkpt lat="43.08772" lon="0.12126">
        <ele>653.79998779297</ele>
        <time>2021-10-07T10:09:02.000Z</time>
      </trkpt>
      <trkpt lat="43.0877" lon="0.12132">
        <ele>654.40002441406</ele>
        <time>2021-10-07T10:09:04.000Z</time>
      </trkpt>
      <trkpt lat="43.0877" lon="0.12137">
        <ele>655</ele>
        <time>2021-10-07T10:09:06.000Z</time>
      </trkpt>
      <trkpt lat="43.08769" lon="0.12146">
        <ele>655.79998779297</ele>
        <time>2021-10-07T10:09:10.000Z</time>
      </trkpt>
      <trkpt lat="43.08764" lon="0.12152">
        <ele>656.40002441406</ele>
        <time>2021-10-07T10:09:14.000Z</time>
      </trkpt>
      <trkpt lat="43.08763" lon="0.12153">
        <ele>656.59997558594</ele>
        <time>2021-10-07T10:09:15.000Z</time>
      </trkpt>
      <trkpt lat="43.08761" lon="0.12157">
        <ele>657.20001220703</ele>
        <time>2021-10-07T10:09:17.000Z</time>
      </trkpt>
      <trkpt lat="43.0876" lon="0.1216">
        <ele>657.59997558594</ele>
        <time>2021-10-07T10:09:18.000Z</time>
      </trkpt>
      <trkpt lat="43.08759" lon="0.12163">
        <ele>657.79998779297</ele>
        <time>2021-10-07T10:09:20.000Z</time>
      </trkpt>
      <trkpt lat="43.08759" lon="0.12165">
        <ele>658.20001220703</ele>
        <time>2021-10-07T10:09:21.000Z</time>
      </trkpt>
      <trkpt lat="43.08757" lon="0.12176">
        <ele>659.40002441406</ele>
        <time>2021-10-07T10:09:26.000Z</time>
      </trkpt>
      <trkpt lat="43.08757" lon="0.12176">
        <ele>659.59997558594</ele>
        <time>2021-10-07T10:09:27.000Z</time>
      </trkpt>
      <trkpt lat="43.08753" lon="0.12185">
        <ele>660.40002441406</ele>
        <time>2021-10-07T10:09:31.000Z</time>
      </trkpt>
      <trkpt lat="43.08753" lon="0.12188">
        <ele>660.79998779297</ele>
        <time>2021-10-07T10:09:32.000Z</time>
      </trkpt>
      <trkpt lat="43.08746" lon="0.12204">
        <ele>661.59997558594</ele>
        <time>2021-10-07T10:09:37.000Z</time>
      </trkpt>
      <trkpt lat="43.08745" lon="0.12215">
        <ele>662.20001220703</ele>
        <time>2021-10-07T10:09:41.000Z</time>
      </trkpt>
      <trkpt lat="43.08743" lon="0.12219">
        <ele>662.79998779297</ele>
        <time>2021-10-07T10:09:43.000Z</time>
      </trkpt>
      <trkpt lat="43.08738" lon="0.12226">
        <ele>664</ele>
        <time>2021-10-07T10:09:48.000Z</time>
      </trkpt>
      <trkpt lat="43.08736" lon="0.12227">
        <ele>664.79998779297</ele>
        <time>2021-10-07T10:09:50.000Z</time>
      </trkpt>
      <trkpt lat="43.08734" lon="0.12227">
        <ele>665.40002441406</ele>
        <time>2021-10-07T10:09:51.000Z</time>
      </trkpt>
      <trkpt lat="43.08731" lon="0.12226">
        <ele>666.59997558594</ele>
        <time>2021-10-07T10:09:54.000Z</time>
      </trkpt>
      <trkpt lat="43.08727" lon="0.12223">
        <ele>667.79998779297</ele>
        <time>2021-10-07T10:09:58.000Z</time>
      </trkpt>
      <trkpt lat="43.08726" lon="0.12222">
        <ele>668.40002441406</ele>
        <time>2021-10-07T10:09:59.000Z</time>
      </trkpt>
      <trkpt lat="43.08724" lon="0.1222">
        <ele>669</ele>
        <time>2021-10-07T10:10:01.000Z</time>
      </trkpt>
      <trkpt lat="43.08721" lon="0.12217">
        <ele>669.79998779297</ele>
        <time>2021-10-07T10:10:05.000Z</time>
      </trkpt>
      <trkpt lat="43.0872" lon="0.12216">
        <ele>670</ele>
        <time>2021-10-07T10:10:06.000Z</time>
      </trkpt>
      <trkpt lat="43.08715" lon="0.12212">
        <ele>671.20001220703</ele>
        <time>2021-10-07T10:10:10.000Z</time>
      </trkpt>
      <trkpt lat="43.08712" lon="0.12209">
        <ele>671.79998779297</ele>
        <time>2021-10-07T10:10:13.000Z</time>
      </trkpt>
      <trkpt lat="43.08707" lon="0.12205">
        <ele>672.40002441406</ele>
        <time>2021-10-07T10:10:17.000Z</time>
      </trkpt>
      <trkpt lat="43.08705" lon="0.12203">
        <ele>673.20001220703</ele>
        <time>2021-10-07T10:10:19.000Z</time>
      </trkpt>
      <trkpt lat="43.08703" lon="0.12201">
        <ele>673.59997558594</ele>
        <time>2021-10-07T10:10:21.000Z</time>
      </trkpt>
      <trkpt lat="43.08696" lon="0.12189">
        <ele>674.79998779297</ele>
        <time>2021-10-07T10:10:27.000Z</time>
      </trkpt>
      <trkpt lat="43.08685" lon="0.12178">
        <ele>675.79998779297</ele>
        <time>2021-10-07T10:10:33.000Z</time>
      </trkpt>
      <trkpt lat="43.08683" lon="0.12176">
        <ele>676</ele>
        <time>2021-10-07T10:10:34.000Z</time>
      </trkpt>
      <trkpt lat="43.08678" lon="0.12172">
        <ele>677</ele>
        <time>2021-10-07T10:10:38.000Z</time>
      </trkpt>
      <trkpt lat="43.08675" lon="0.1217">
        <ele>678</ele>
        <time>2021-10-07T10:10:41.000Z</time>
      </trkpt>
      <trkpt lat="43.08674" lon="0.12169">
        <ele>678.40002441406</ele>
        <time>2021-10-07T10:10:42.000Z</time>
      </trkpt>
      <trkpt lat="43.0867" lon="0.12167">
        <ele>679</ele>
        <time>2021-10-07T10:10:46.000Z</time>
      </trkpt>
      <trkpt lat="43.08666" lon="0.12165">
        <ele>679.59997558594</ele>
        <time>2021-10-07T10:10:49.000Z</time>
      </trkpt>
      <trkpt lat="43.08662" lon="0.12164">
        <ele>680.20001220703</ele>
        <time>2021-10-07T10:10:52.000Z</time>
      </trkpt>
      <trkpt lat="43.08653" lon="0.12161">
        <ele>681</ele>
        <time>2021-10-07T10:10:58.000Z</time>
      </trkpt>
      <trkpt lat="43.08651" lon="0.1216">
        <ele>681.59997558594</ele>
        <time>2021-10-07T10:10:59.000Z</time>
      </trkpt>
      <trkpt lat="43.08646" lon="0.12159">
        <ele>682.79998779297</ele>
        <time>2021-10-07T10:11:03.000Z</time>
      </trkpt>
      <trkpt lat="43.08644" lon="0.12158">
        <ele>683.20001220703</ele>
        <time>2021-10-07T10:11:05.000Z</time>
      </trkpt>
      <trkpt lat="43.0864" lon="0.12158">
        <ele>683.79998779297</ele>
        <time>2021-10-07T10:11:07.000Z</time>
      </trkpt>
      <trkpt lat="43.08634" lon="0.12157">
        <ele>685.20001220703</ele>
        <time>2021-10-07T10:11:11.000Z</time>
      </trkpt>
      <trkpt lat="43.08633" lon="0.12157">
        <ele>685.40002441406</ele>
        <time>2021-10-07T10:11:12.000Z</time>
      </trkpt>
      <trkpt lat="43.08632" lon="0.12156">
        <ele>685.59997558594</ele>
        <time>2021-10-07T10:11:13.000Z</time>
      </trkpt>
      <trkpt lat="43.08628" lon="0.12155">
        <ele>686.59997558594</ele>
        <time>2021-10-07T10:11:17.000Z</time>
      </trkpt>
      <trkpt lat="43.08626" lon="0.12154">
        <ele>687</ele>
        <time>2021-10-07T10:11:19.000Z</time>
      </trkpt>
      <trkpt lat="43.08622" lon="0.12153">
        <ele>687.20001220703</ele>
        <time>2021-10-07T10:11:21.000Z</time>
      </trkpt>
      <trkpt lat="43.08619" lon="0.12153">
        <ele>687.59997558594</ele>
        <time>2021-10-07T10:11:23.000Z</time>
      </trkpt>
      <trkpt lat="43.08612" lon="0.12154">
        <ele>688.40002441406</ele>
        <time>2021-10-07T10:11:26.000Z</time>
      </trkpt>
      <trkpt lat="43.08606" lon="0.12155">
        <ele>688.79998779297</ele>
        <time>2021-10-07T10:11:28.000Z</time>
      </trkpt>
      <trkpt lat="43.08604" lon="0.12156">
        <ele>689</ele>
        <time>2021-10-07T10:11:29.000Z</time>
      </trkpt>
      <trkpt lat="43.08598" lon="0.12157">
        <ele>689.79998779297</ele>
        <time>2021-10-07T10:11:32.000Z</time>
      </trkpt>
      <trkpt lat="43.0859" lon="0.12156">
        <ele>690.59997558594</ele>
        <time>2021-10-07T10:11:37.000Z</time>
      </trkpt>
      <trkpt lat="43.08587" lon="0.12157">
        <ele>691.20001220703</ele>
        <time>2021-10-07T10:11:38.000Z</time>
      </trkpt>
      <trkpt lat="43.08582" lon="0.12158">
        <ele>692</ele>
        <time>2021-10-07T10:11:42.000Z</time>
      </trkpt>
      <trkpt lat="43.08581" lon="0.12159">
        <ele>692.40002441406</ele>
        <time>2021-10-07T10:11:43.000Z</time>
      </trkpt>
      <trkpt lat="43.08579" lon="0.12159">
        <ele>692.40002441406</ele>
        <time>2021-10-07T10:11:44.000Z</time>
      </trkpt>
      <trkpt lat="43.08576" lon="0.12159">
        <ele>693.40002441406</ele>
        <time>2021-10-07T10:11:47.000Z</time>
      </trkpt>
      <trkpt lat="43.08572" lon="0.12159">
        <ele>694.59997558594</ele>
        <time>2021-10-07T10:11:50.000Z</time>
      </trkpt>
      <trkpt lat="43.0857" lon="0.12159">
        <ele>694.59997558594</ele>
        <time>2021-10-07T10:11:51.000Z</time>
      </trkpt>
      <trkpt lat="43.08569" lon="0.12159">
        <ele>695.20001220703</ele>
        <time>2021-10-07T10:11:52.000Z</time>
      </trkpt>
      <trkpt lat="43.08565" lon="0.12158">
        <ele>695.59997558594</ele>
        <time>2021-10-07T10:11:54.000Z</time>
      </trkpt>
      <trkpt lat="43.08561" lon="0.12158">
        <ele>697</ele>
        <time>2021-10-07T10:11:57.000Z</time>
      </trkpt>
      <trkpt lat="43.0856" lon="0.12157">
        <ele>697.20001220703</ele>
        <time>2021-10-07T10:11:58.000Z</time>
      </trkpt>
      <trkpt lat="43.08555" lon="0.12157">
        <ele>698</ele>
        <time>2021-10-07T10:12:02.000Z</time>
      </trkpt>
      <trkpt lat="43.08546" lon="0.12154">
        <ele>698.59997558594</ele>
        <time>2021-10-07T10:12:07.000Z</time>
      </trkpt>
      <trkpt lat="43.08545" lon="0.12154">
        <ele>698.79998779297</ele>
        <time>2021-10-07T10:12:08.000Z</time>
      </trkpt>
      <trkpt lat="43.08537" lon="0.12151">
        <ele>699.79998779297</ele>
        <time>2021-10-07T10:12:13.000Z</time>
      </trkpt>
      <trkpt lat="43.08534" lon="0.1215">
        <ele>700</ele>
        <time>2021-10-07T10:12:15.000Z</time>
      </trkpt>
      <trkpt lat="43.08528" lon="0.12149">
        <ele>700.59997558594</ele>
        <time>2021-10-07T10:12:19.000Z</time>
      </trkpt>
      <trkpt lat="43.08527" lon="0.12148">
        <ele>701.20001220703</ele>
        <time>2021-10-07T10:12:20.000Z</time>
      </trkpt>
      <trkpt lat="43.08521" lon="0.12143">
        <ele>702.40002441406</ele>
        <time>2021-10-07T10:12:25.000Z</time>
      </trkpt>
      <trkpt lat="43.08519" lon="0.12141">
        <ele>702.59997558594</ele>
        <time>2021-10-07T10:12:26.000Z</time>
      </trkpt>
      <trkpt lat="43.08515" lon="0.12133">
        <ele>703.40002441406</ele>
        <time>2021-10-07T10:12:30.000Z</time>
      </trkpt>
      <trkpt lat="43.0851" lon="0.12124">
        <ele>704</ele>
        <time>2021-10-07T10:12:35.000Z</time>
      </trkpt>
      <trkpt lat="43.08507" lon="0.12118">
        <ele>704.20001220703</ele>
        <time>2021-10-07T10:12:38.000Z</time>
      </trkpt>
      <trkpt lat="43.08506" lon="0.12114">
        <ele>704.40002441406</ele>
        <time>2021-10-07T10:12:40.000Z</time>
      </trkpt>
      <trkpt lat="43.08506" lon="0.12106">
        <ele>704.79998779297</ele>
        <time>2021-10-07T10:12:43.000Z</time>
      </trkpt>
      <trkpt lat="43.085" lon="0.12087">
        <ele>705.40002441406</ele>
        <time>2021-10-07T10:12:49.000Z</time>
      </trkpt>
      <trkpt lat="43.08499" lon="0.12084">
        <ele>705.40002441406</ele>
        <time>2021-10-07T10:12:50.000Z</time>
      </trkpt>
      <trkpt lat="43.08493" lon="0.12066">
        <ele>705.79998779297</ele>
        <time>2021-10-07T10:12:55.000Z</time>
      </trkpt>
      <trkpt lat="43.0849" lon="0.12055">
        <ele>706.40002441406</ele>
        <time>2021-10-07T10:12:58.000Z</time>
      </trkpt>
      <trkpt lat="43.08488" lon="0.12044">
        <ele>706.79998779297</ele>
        <time>2021-10-07T10:13:01.000Z</time>
      </trkpt>
      <trkpt lat="43.08488" lon="0.12031">
        <ele>707.40002441406</ele>
        <time>2021-10-07T10:13:05.000Z</time>
      </trkpt>
      <trkpt lat="43.08488" lon="0.12027">
        <ele>707.59997558594</ele>
        <time>2021-10-07T10:13:06.000Z</time>
      </trkpt>
      <trkpt lat="43.08489" lon="0.12024">
        <ele>707.79998779297</ele>
        <time>2021-10-07T10:13:07.000Z</time>
      </trkpt>
      <trkpt lat="43.08489" lon="0.12018">
        <ele>708.20001220703</ele>
        <time>2021-10-07T10:13:09.000Z</time>
      </trkpt>
      <trkpt lat="43.0849" lon="0.12015">
        <ele>708.20001220703</ele>
        <time>2021-10-07T10:13:10.000Z</time>
      </trkpt>
      <trkpt lat="43.0849" lon="0.1201">
        <ele>708.40002441406</ele>
        <time>2021-10-07T10:13:12.000Z</time>
      </trkpt>
      <trkpt lat="43.0849" lon="0.12004">
        <ele>709</ele>
        <time>2021-10-07T10:13:15.000Z</time>
      </trkpt>
      <trkpt lat="43.08491" lon="0.11999">
        <ele>709.59997558594</ele>
        <time>2021-10-07T10:13:18.000Z</time>
      </trkpt>
      <trkpt lat="43.08491" lon="0.11999">
        <ele>710</ele>
        <time>2021-10-07T10:13:21.000Z</time>
      </trkpt>
      <trkpt lat="43.08491" lon="0.12">
        <ele>710.40002441406</ele>
        <time>2021-10-07T10:13:30.000Z</time>
      </trkpt>
      <trkpt lat="43.08491" lon="0.12">
        <ele>709.40002441406</ele>
        <time>2021-10-07T10:14:27.000Z</time>
      </trkpt>
      <trkpt lat="43.08491" lon="0.12">
        <ele>710</ele>
        <time>2021-10-07T10:16:54.000Z</time>
      </trkpt>
      <trkpt lat="43.0849" lon="0.12">
        <ele>710.40002441406</ele>
        <time>2021-10-07T10:17:09.000Z</time>
      </trkpt>
      <trkpt lat="43.08488" lon="0.11993">
        <ele>710.59997558594</ele>
        <time>2021-10-07T10:17:14.000Z</time>
      </trkpt>
      <trkpt lat="43.08486" lon="0.11988">
        <ele>711.20001220703</ele>
        <time>2021-10-07T10:17:16.000Z</time>
      </trkpt>
      <trkpt lat="43.08477" lon="0.11977">
        <ele>711.79998779297</ele>
        <time>2021-10-07T10:17:20.000Z</time>
      </trkpt>
      <trkpt lat="43.08475" lon="0.11976">
        <ele>711.79998779297</ele>
        <time>2021-10-07T10:17:21.000Z</time>
      </trkpt>
      <trkpt lat="43.0847" lon="0.1197">
        <ele>712.40002441406</ele>
        <time>2021-10-07T10:17:24.000Z</time>
      </trkpt>
      <trkpt lat="43.08465" lon="0.11965">
        <ele>713.20001220703</ele>
        <time>2021-10-07T10:17:28.000Z</time>
      </trkpt>
      <trkpt lat="43.0846" lon="0.11962">
        <ele>713.59997558594</ele>
        <time>2021-10-07T10:17:30.000Z</time>
      </trkpt>
      <trkpt lat="43.08457" lon="0.11961">
        <ele>713.59997558594</ele>
        <time>2021-10-07T10:17:31.000Z</time>
      </trkpt>
      <trkpt lat="43.08454" lon="0.1196">
        <ele>714.20001220703</ele>
        <time>2021-10-07T10:17:33.000Z</time>
      </trkpt>
      <trkpt lat="43.08451" lon="0.1196">
        <ele>714.59997558594</ele>
        <time>2021-10-07T10:17:35.000Z</time>
      </trkpt>
      <trkpt lat="43.08445" lon="0.11958">
        <ele>715.20001220703</ele>
        <time>2021-10-07T10:17:38.000Z</time>
      </trkpt>
      <trkpt lat="43.08443" lon="0.11958">
        <ele>715.59997558594</ele>
        <time>2021-10-07T10:17:39.000Z</time>
      </trkpt>
      <trkpt lat="43.0844" lon="0.11957">
        <ele>716.20001220703</ele>
        <time>2021-10-07T10:17:41.000Z</time>
      </trkpt>
      <trkpt lat="43.08439" lon="0.11958">
        <ele>716.40002441406</ele>
        <time>2021-10-07T10:17:42.000Z</time>
      </trkpt>
      <trkpt lat="43.08437" lon="0.11959">
        <ele>716.59997558594</ele>
        <time>2021-10-07T10:17:43.000Z</time>
      </trkpt>
      <trkpt lat="43.08436" lon="0.1196">
        <ele>717</ele>
        <time>2021-10-07T10:17:44.000Z</time>
      </trkpt>
      <trkpt lat="43.08428" lon="0.11963">
        <ele>718.20001220703</ele>
        <time>2021-10-07T10:17:49.000Z</time>
      </trkpt>
      <trkpt lat="43.0842" lon="0.11964">
        <ele>719.20001220703</ele>
        <time>2021-10-07T10:17:54.000Z</time>
      </trkpt>
      <trkpt lat="43.08419" lon="0.11965">
        <ele>719.20001220703</ele>
        <time>2021-10-07T10:17:55.000Z</time>
      </trkpt>
      <trkpt lat="43.08418" lon="0.11966">
        <ele>719.40002441406</ele>
        <time>2021-10-07T10:17:56.000Z</time>
      </trkpt>
      <trkpt lat="43.08407" lon="0.11969">
        <ele>720</ele>
        <time>2021-10-07T10:18:02.000Z</time>
      </trkpt>
      <trkpt lat="43.08395" lon="0.11975">
        <ele>720.20001220703</ele>
        <time>2021-10-07T10:18:07.000Z</time>
      </trkpt>
      <trkpt lat="43.08388" lon="0.11977">
        <ele>720.40002441406</ele>
        <time>2021-10-07T10:18:10.000Z</time>
      </trkpt>
      <trkpt lat="43.08386" lon="0.11978">
        <ele>720.40002441406</ele>
        <time>2021-10-07T10:18:11.000Z</time>
      </trkpt>
      <trkpt lat="43.08383" lon="0.11979">
        <ele>720.59997558594</ele>
        <time>2021-10-07T10:18:12.000Z</time>
      </trkpt>
      <trkpt lat="43.08378" lon="0.11983">
        <ele>720.59997558594</ele>
        <time>2021-10-07T10:18:15.000Z</time>
      </trkpt>
      <trkpt lat="43.08373" lon="0.11986">
        <ele>720.79998779297</ele>
        <time>2021-10-07T10:18:17.000Z</time>
      </trkpt>
      <trkpt lat="43.08372" lon="0.11988">
        <ele>720.79998779297</ele>
        <time>2021-10-07T10:18:18.000Z</time>
      </trkpt>
      <trkpt lat="43.08367" lon="0.11993">
        <ele>721</ele>
        <time>2021-10-07T10:18:21.000Z</time>
      </trkpt>
      <trkpt lat="43.08357" lon="0.12008">
        <ele>721.40002441406</ele>
        <time>2021-10-07T10:18:27.000Z</time>
      </trkpt>
      <trkpt lat="43.08353" lon="0.12014">
        <ele>721.59997558594</ele>
        <time>2021-10-07T10:18:29.000Z</time>
      </trkpt>
      <trkpt lat="43.08342" lon="0.12029">
        <ele>722</ele>
        <time>2021-10-07T10:18:34.000Z</time>
      </trkpt>
      <trkpt lat="43.08339" lon="0.12033">
        <ele>722.20001220703</ele>
        <time>2021-10-07T10:18:36.000Z</time>
      </trkpt>
      <trkpt lat="43.08334" lon="0.12038">
        <ele>722.20001220703</ele>
        <time>2021-10-07T10:18:39.000Z</time>
      </trkpt>
      <trkpt lat="43.08323" lon="0.12052">
        <ele>722.40002441406</ele>
        <time>2021-10-07T10:18:46.000Z</time>
      </trkpt>
      <trkpt lat="43.08322" lon="0.12055">
        <ele>722.40002441406</ele>
        <time>2021-10-07T10:18:47.000Z</time>
      </trkpt>
      <trkpt lat="43.08318" lon="0.12063">
        <ele>722.40002441406</ele>
        <time>2021-10-07T10:18:50.000Z</time>
      </trkpt>
      <trkpt lat="43.08316" lon="0.12065">
        <ele>722.40002441406</ele>
        <time>2021-10-07T10:18:51.000Z</time>
      </trkpt>
      <trkpt lat="43.08308" lon="0.12081">
        <ele>722.40002441406</ele>
        <time>2021-10-07T10:18:57.000Z</time>
      </trkpt>
      <trkpt lat="43.08307" lon="0.12085">
        <ele>722.40002441406</ele>
        <time>2021-10-07T10:18:58.000Z</time>
      </trkpt>
      <trkpt lat="43.08306" lon="0.12087">
        <ele>722.59997558594</ele>
        <time>2021-10-07T10:18:59.000Z</time>
      </trkpt>
      <trkpt lat="43.08297" lon="0.12098">
        <ele>722.59997558594</ele>
        <time>2021-10-07T10:19:03.000Z</time>
      </trkpt>
      <trkpt lat="43.08295" lon="0.12099">
        <ele>722.20001220703</ele>
        <time>2021-10-07T10:19:04.000Z</time>
      </trkpt>
      <trkpt lat="43.08291" lon="0.12099">
        <ele>722.20001220703</ele>
        <time>2021-10-07T10:19:05.000Z</time>
      </trkpt>
      <trkpt lat="43.08277" lon="0.12095">
        <ele>721.79998779297</ele>
        <time>2021-10-07T10:19:10.000Z</time>
      </trkpt>
      <trkpt lat="43.08263" lon="0.1209">
        <ele>721.59997558594</ele>
        <time>2021-10-07T10:19:17.000Z</time>
      </trkpt>
      <trkpt lat="43.08257" lon="0.12088">
        <ele>722</ele>
        <time>2021-10-07T10:25:13.000Z</time>
      </trkpt>
      <trkpt lat="43.08244" lon="0.12083">
        <ele>722.40002441406</ele>
        <time>2021-10-07T10:25:20.000Z</time>
      </trkpt>
      <trkpt lat="43.08239" lon="0.12081">
        <ele>722.79998779297</ele>
        <time>2021-10-07T10:25:23.000Z</time>
      </trkpt>
      <trkpt lat="43.08231" lon="0.12077">
        <ele>723.40002441406</ele>
        <time>2021-10-07T10:25:28.000Z</time>
      </trkpt>
      <trkpt lat="43.08227" lon="0.12075">
        <ele>723.79998779297</ele>
        <time>2021-10-07T10:25:30.000Z</time>
      </trkpt>
      <trkpt lat="43.0822" lon="0.12071">
        <ele>724.79998779297</ele>
        <time>2021-10-07T10:25:36.000Z</time>
      </trkpt>
      <trkpt lat="43.0822" lon="0.12071">
        <ele>724.79998779297</ele>
        <time>2021-10-07T10:25:38.000Z</time>
      </trkpt>
      <trkpt lat="43.0822" lon="0.12071">
        <ele>725.40002441406</ele>
        <time>2021-10-07T10:25:41.000Z</time>
      </trkpt>
      <trkpt lat="43.0822" lon="0.12071">
        <ele>726</ele>
        <time>2021-10-07T10:25:48.000Z</time>
      </trkpt>
      <trkpt lat="43.08218" lon="0.1207">
        <ele>726</ele>
        <time>2021-10-07T10:26:01.000Z</time>
      </trkpt>
      <trkpt lat="43.08214" lon="0.12068">
        <ele>726</ele>
        <time>2021-10-07T10:26:04.000Z</time>
      </trkpt>
      <trkpt lat="43.08208" lon="0.12066">
        <ele>726.40002441406</ele>
        <time>2021-10-07T10:26:08.000Z</time>
      </trkpt>
      <trkpt lat="43.08208" lon="0.12066">
        <ele>726.59997558594</ele>
        <time>2021-10-07T10:26:10.000Z</time>
      </trkpt>
      <trkpt lat="43.08208" lon="0.12067">
        <ele>726.79998779297</ele>
        <time>2021-10-07T10:26:15.000Z</time>
      </trkpt>
      <trkpt lat="43.08208" lon="0.12066">
        <ele>726.79998779297</ele>
        <time>2021-10-07T10:26:48.000Z</time>
      </trkpt>
      <trkpt lat="43.08206" lon="0.12066">
        <ele>727</ele>
        <time>2021-10-07T10:26:50.000Z</time>
      </trkpt>
      <trkpt lat="43.08204" lon="0.12065">
        <ele>727</ele>
        <time>2021-10-07T10:26:52.000Z</time>
      </trkpt>
      <trkpt lat="43.08197" lon="0.12061">
        <ele>727.40002441406</ele>
        <time>2021-10-07T10:26:59.000Z</time>
      </trkpt>
      <trkpt lat="43.08197" lon="0.1206">
        <ele>727.40002441406</ele>
        <time>2021-10-07T10:27:01.000Z</time>
      </trkpt>
      <trkpt lat="43.08197" lon="0.12061">
        <ele>728</ele>
        <time>2021-10-07T10:27:05.000Z</time>
      </trkpt>
      <trkpt lat="43.08192" lon="0.12058">
        <ele>728.20001220703</ele>
        <time>2021-10-07T10:27:09.000Z</time>
      </trkpt>
      <trkpt lat="43.08185" lon="0.12053">
        <ele>728.20001220703</ele>
        <time>2021-10-07T10:27:14.000Z</time>
      </trkpt>
      <trkpt lat="43.08179" lon="0.12045">
        <ele>728.79998779297</ele>
        <time>2021-10-07T10:27:18.000Z</time>
      </trkpt>
      <trkpt lat="43.08177" lon="0.12041">
        <ele>729</ele>
        <time>2021-10-07T10:27:20.000Z</time>
      </trkpt>
      <trkpt lat="43.08167" lon="0.1202">
        <ele>729.59997558594</ele>
        <time>2021-10-07T10:27:27.000Z</time>
      </trkpt>
      <trkpt lat="43.08159" lon="0.12005">
        <ele>730</ele>
        <time>2021-10-07T10:27:32.000Z</time>
      </trkpt>
      <trkpt lat="43.08155" lon="0.11998">
        <ele>730.20001220703</ele>
        <time>2021-10-07T10:27:35.000Z</time>
      </trkpt>
      <trkpt lat="43.0814" lon="0.11976">
        <ele>730.20001220703</ele>
        <time>2021-10-07T10:27:42.000Z</time>
      </trkpt>
      <trkpt lat="43.08123" lon="0.11952">
        <ele>730.40002441406</ele>
        <time>2021-10-07T10:27:50.000Z</time>
      </trkpt>
      <trkpt lat="43.08109" lon="0.11932">
        <ele>730.40002441406</ele>
        <time>2021-10-07T10:27:57.000Z</time>
      </trkpt>
      <trkpt lat="43.08091" lon="0.11906">
        <ele>731.20001220703</ele>
        <time>2021-10-07T10:28:06.000Z</time>
      </trkpt>
      <trkpt lat="43.08084" lon="0.11894">
        <ele>732.20001220703</ele>
        <time>2021-10-07T10:28:11.000Z</time>
      </trkpt>
      <trkpt lat="43.08083" lon="0.11892">
        <ele>732.40002441406</ele>
        <time>2021-10-07T10:28:12.000Z</time>
      </trkpt>
      <trkpt lat="43.08076" lon="0.11878">
        <ele>733.40002441406</ele>
        <time>2021-10-07T10:28:17.000Z</time>
      </trkpt>
      <trkpt lat="43.08075" lon="0.11875">
        <ele>733.59997558594</ele>
        <time>2021-10-07T10:28:18.000Z</time>
      </trkpt>
      <trkpt lat="43.0807" lon="0.11865">
        <ele>734.40002441406</ele>
        <time>2021-10-07T10:28:21.000Z</time>
      </trkpt>
      <trkpt lat="43.08066" lon="0.11854">
        <ele>735</ele>
        <time>2021-10-07T10:28:25.000Z</time>
      </trkpt>
      <trkpt lat="43.0806" lon="0.11838">
        <ele>735.59997558594</ele>
        <time>2021-10-07T10:28:30.000Z</time>
      </trkpt>
      <trkpt lat="43.08058" lon="0.11831">
        <ele>736.20001220703</ele>
        <time>2021-10-07T10:28:33.000Z</time>
      </trkpt>
      <trkpt lat="43.08055" lon="0.11815">
        <ele>736.40002441406</ele>
        <time>2021-10-07T10:28:38.000Z</time>
      </trkpt>
      <trkpt lat="43.08052" lon="0.11806">
        <ele>736.59997558594</ele>
        <time>2021-10-07T10:28:40.000Z</time>
      </trkpt>
      <trkpt lat="43.08046" lon="0.11785">
        <ele>737</ele>
        <time>2021-10-07T10:28:46.000Z</time>
      </trkpt>
      <trkpt lat="43.08037" lon="0.11764">
        <ele>737.79998779297</ele>
        <time>2021-10-07T10:28:53.000Z</time>
      </trkpt>
      <trkpt lat="43.08036" lon="0.11762">
        <ele>737.79998779297</ele>
        <time>2021-10-07T10:28:54.000Z</time>
      </trkpt>
      <trkpt lat="43.08032" lon="0.11753">
        <ele>738.79998779297</ele>
        <time>2021-10-07T10:28:58.000Z</time>
      </trkpt>
      <trkpt lat="43.0803" lon="0.11746">
        <ele>739.79998779297</ele>
        <time>2021-10-07T10:29:01.000Z</time>
      </trkpt>
      <trkpt lat="43.08029" lon="0.11735">
        <ele>741.40002441406</ele>
        <time>2021-10-07T10:29:05.000Z</time>
      </trkpt>
      <trkpt lat="43.08028" lon="0.11724">
        <ele>742.40002441406</ele>
        <time>2021-10-07T10:29:09.000Z</time>
      </trkpt>
      <trkpt lat="43.08027" lon="0.11709">
        <ele>743.59997558594</ele>
        <time>2021-10-07T10:29:15.000Z</time>
      </trkpt>
      <trkpt lat="43.08027" lon="0.11707">
        <ele>743.79998779297</ele>
        <time>2021-10-07T10:29:16.000Z</time>
      </trkpt>
      <trkpt lat="43.08027" lon="0.11704">
        <ele>743.79998779297</ele>
        <time>2021-10-07T10:29:17.000Z</time>
      </trkpt>
      <trkpt lat="43.08027" lon="0.11684">
        <ele>744.40002441406</ele>
        <time>2021-10-07T10:29:25.000Z</time>
      </trkpt>
      <trkpt lat="43.08027" lon="0.11666">
        <ele>744.59997558594</ele>
        <time>2021-10-07T10:29:32.000Z</time>
      </trkpt>
      <trkpt lat="43.08024" lon="0.11646">
        <ele>745</ele>
        <time>2021-10-07T10:29:39.000Z</time>
      </trkpt>
      <trkpt lat="43.08021" lon="0.11618">
        <ele>744.59997558594</ele>
        <time>2021-10-07T10:29:45.000Z</time>
      </trkpt>
      <trkpt lat="43.08013" lon="0.11594">
        <ele>743.79998779297</ele>
        <time>2021-10-07T10:29:51.000Z</time>
      </trkpt>
      <trkpt lat="43.08009" lon="0.11578">
        <ele>743.79998779297</ele>
        <time>2021-10-07T10:29:56.000Z</time>
      </trkpt>
      <trkpt lat="43.08008" lon="0.11574">
        <ele>743.79998779297</ele>
        <time>2021-10-07T10:29:57.000Z</time>
      </trkpt>
      <trkpt lat="43.08004" lon="0.11557">
        <ele>744.20001220703</ele>
        <time>2021-10-07T10:30:01.000Z</time>
      </trkpt>
      <trkpt lat="43.08001" lon="0.11524">
        <ele>745.79998779297</ele>
        <time>2021-10-07T10:30:10.000Z</time>
      </trkpt>
      <trkpt lat="43.07996" lon="0.11503">
        <ele>746.79998779297</ele>
        <time>2021-10-07T10:30:17.000Z</time>
      </trkpt>
      <trkpt lat="43.07994" lon="0.11487">
        <ele>748.40002441406</ele>
        <time>2021-10-07T10:30:23.000Z</time>
      </trkpt>
      <trkpt lat="43.07994" lon="0.11479">
        <ele>749.40002441406</ele>
        <time>2021-10-07T10:30:26.000Z</time>
      </trkpt>
      <trkpt lat="43.07995" lon="0.1147">
        <ele>750.20001220703</ele>
        <time>2021-10-07T10:30:30.000Z</time>
      </trkpt>
      <trkpt lat="43.07995" lon="0.11468">
        <ele>750.40002441406</ele>
        <time>2021-10-07T10:30:31.000Z</time>
      </trkpt>
      <trkpt lat="43.07996" lon="0.11456">
        <ele>751.59997558594</ele>
        <time>2021-10-07T10:30:36.000Z</time>
      </trkpt>
      <trkpt lat="43.07996" lon="0.11453">
        <ele>751.59997558594</ele>
        <time>2021-10-07T10:30:37.000Z</time>
      </trkpt>
      <trkpt lat="43.07996" lon="0.11445">
        <ele>752.59997558594</ele>
        <time>2021-10-07T10:30:41.000Z</time>
      </trkpt>
      <trkpt lat="43.07995" lon="0.11438">
        <ele>753.20001220703</ele>
        <time>2021-10-07T10:30:44.000Z</time>
      </trkpt>
      <trkpt lat="43.07995" lon="0.11427">
        <ele>753.79998779297</ele>
        <time>2021-10-07T10:30:48.000Z</time>
      </trkpt>
      <trkpt lat="43.07995" lon="0.1142">
        <ele>754.40002441406</ele>
        <time>2021-10-07T10:30:51.000Z</time>
      </trkpt>
      <trkpt lat="43.07995" lon="0.11412">
        <ele>754.79998779297</ele>
        <time>2021-10-07T10:30:54.000Z</time>
      </trkpt>
      <trkpt lat="43.07995" lon="0.11404">
        <ele>755.59997558594</ele>
        <time>2021-10-07T10:30:57.000Z</time>
      </trkpt>
      <trkpt lat="43.07995" lon="0.11396">
        <ele>756</ele>
        <time>2021-10-07T10:31:00.000Z</time>
      </trkpt>
      <trkpt lat="43.07995" lon="0.11385">
        <ele>756.40002441406</ele>
        <time>2021-10-07T10:31:04.000Z</time>
      </trkpt>
      <trkpt lat="43.07995" lon="0.11384">
        <ele>757</ele>
        <time>2021-10-07T10:31:08.000Z</time>
      </trkpt>
      <trkpt lat="43.07995" lon="0.11384">
        <ele>757.20001220703</ele>
        <time>2021-10-07T10:31:09.000Z</time>
      </trkpt>
      <trkpt lat="43.07995" lon="0.11383">
        <ele>756.79998779297</ele>
        <time>2021-10-07T10:31:27.000Z</time>
      </trkpt>
      <trkpt lat="43.07995" lon="0.11373">
        <ele>757.40002441406</ele>
        <time>2021-10-07T10:31:31.000Z</time>
      </trkpt>
      <trkpt lat="43.07994" lon="0.11356">
        <ele>757.59997558594</ele>
        <time>2021-10-07T10:31:36.000Z</time>
      </trkpt>
      <trkpt lat="43.07995" lon="0.11337">
        <ele>758.40002441406</ele>
        <time>2021-10-07T10:31:42.000Z</time>
      </trkpt>
      <trkpt lat="43.07995" lon="0.11333">
        <ele>758.40002441406</ele>
        <time>2021-10-07T10:31:43.000Z</time>
      </trkpt>
      <trkpt lat="43.07996" lon="0.11301">
        <ele>759.20001220703</ele>
        <time>2021-10-07T10:31:52.000Z</time>
      </trkpt>
      <trkpt lat="43.07996" lon="0.11297">
        <ele>759.59997558594</ele>
        <time>2021-10-07T10:31:53.000Z</time>
      </trkpt>
      <trkpt lat="43.07998" lon="0.11268">
        <ele>760.40002441406</ele>
        <time>2021-10-07T10:32:00.000Z</time>
      </trkpt>
      <trkpt lat="43.07999" lon="0.11261">
        <ele>760.59997558594</ele>
        <time>2021-10-07T10:32:02.000Z</time>
      </trkpt>
      <trkpt lat="43.08" lon="0.11224">
        <ele>761.79998779297</ele>
        <time>2021-10-07T10:32:11.000Z</time>
      </trkpt>
      <trkpt lat="43.07998" lon="0.11205">
        <ele>762.79998779297</ele>
        <time>2021-10-07T10:32:16.000Z</time>
      </trkpt>
      <trkpt lat="43.07998" lon="0.11201">
        <ele>762.79998779297</ele>
        <time>2021-10-07T10:32:17.000Z</time>
      </trkpt>
      <trkpt lat="43.07995" lon="0.11167">
        <ele>763.79998779297</ele>
        <time>2021-10-07T10:32:25.000Z</time>
      </trkpt>
      <trkpt lat="43.07995" lon="0.11158">
        <ele>764.20001220703</ele>
        <time>2021-10-07T10:32:27.000Z</time>
      </trkpt>
      <trkpt lat="43.07994" lon="0.11122">
        <ele>764.59997558594</ele>
        <time>2021-10-07T10:32:36.000Z</time>
      </trkpt>
      <trkpt lat="43.07992" lon="0.11086">
        <ele>764.59997558594</ele>
        <time>2021-10-07T10:32:44.000Z</time>
      </trkpt>
      <trkpt lat="43.0799" lon="0.11053">
        <ele>764.20001220703</ele>
        <time>2021-10-07T10:32:50.000Z</time>
      </trkpt>
      <trkpt lat="43.07989" lon="0.11013">
        <ele>763.59997558594</ele>
        <time>2021-10-07T10:32:56.000Z</time>
      </trkpt>
      <trkpt lat="43.07989" lon="0.11">
        <ele>763.40002441406</ele>
        <time>2021-10-07T10:32:58.000Z</time>
      </trkpt>
      <trkpt lat="43.0799" lon="0.10989">
        <ele>763.20001220703</ele>
        <time>2021-10-07T10:33:00.000Z</time>
      </trkpt>
      <trkpt lat="43.0799" lon="0.10978">
        <ele>763</ele>
        <time>2021-10-07T10:33:02.000Z</time>
      </trkpt>
      <trkpt lat="43.07992" lon="0.10956">
        <ele>762.59997558594</ele>
        <time>2021-10-07T10:33:06.000Z</time>
      </trkpt>
      <trkpt lat="43.07994" lon="0.10939">
        <ele>762.20001220703</ele>
        <time>2021-10-07T10:33:09.000Z</time>
      </trkpt>
      <trkpt lat="43.07998" lon="0.10922">
        <ele>762</ele>
        <time>2021-10-07T10:33:12.000Z</time>
      </trkpt>
      <trkpt lat="43.08004" lon="0.10892">
        <ele>761.59997558594</ele>
        <time>2021-10-07T10:33:17.000Z</time>
      </trkpt>
      <trkpt lat="43.08019" lon="0.10833">
        <ele>761</ele>
        <time>2021-10-07T10:33:28.000Z</time>
      </trkpt>
      <trkpt lat="43.08022" lon="0.10823">
        <ele>761</ele>
        <time>2021-10-07T10:33:30.000Z</time>
      </trkpt>
      <trkpt lat="43.08033" lon="0.10786">
        <ele>760.79998779297</ele>
        <time>2021-10-07T10:33:36.000Z</time>
      </trkpt>
      <trkpt lat="43.08041" lon="0.10762">
        <ele>760.20001220703</ele>
        <time>2021-10-07T10:33:41.000Z</time>
      </trkpt>
      <trkpt lat="43.08056" lon="0.10724">
        <ele>759</ele>
        <time>2021-10-07T10:33:48.000Z</time>
      </trkpt>
      <trkpt lat="43.08064" lon="0.10701">
        <ele>758</ele>
        <time>2021-10-07T10:33:52.000Z</time>
      </trkpt>
      <trkpt lat="43.0807" lon="0.10681">
        <ele>756.79998779297</ele>
        <time>2021-10-07T10:33:55.000Z</time>
      </trkpt>
      <trkpt lat="43.08073" lon="0.10668">
        <ele>755.40002441406</ele>
        <time>2021-10-07T10:33:58.000Z</time>
      </trkpt>
      <trkpt lat="43.08074" lon="0.10642">
        <ele>754.40002441406</ele>
        <time>2021-10-07T10:34:03.000Z</time>
      </trkpt>
      <trkpt lat="43.08074" lon="0.10637">
        <ele>754.20001220703</ele>
        <time>2021-10-07T10:34:04.000Z</time>
      </trkpt>
      <trkpt lat="43.08073" lon="0.10621">
        <ele>753.20001220703</ele>
        <time>2021-10-07T10:34:08.000Z</time>
      </trkpt>
      <trkpt lat="43.08073" lon="0.10619">
        <ele>752.79998779297</ele>
        <time>2021-10-07T10:34:09.000Z</time>
      </trkpt>
      <trkpt lat="43.08073" lon="0.10618">
        <ele>752.59997558594</ele>
        <time>2021-10-07T10:34:12.000Z</time>
      </trkpt>
      <trkpt lat="43.08073" lon="0.10618">
        <ele>752.20001220703</ele>
        <time>2021-10-07T10:34:22.000Z</time>
      </trkpt>
      <trkpt lat="43.08071" lon="0.10615">
        <ele>752.40002441406</ele>
        <time>2021-10-07T10:34:30.000Z</time>
      </trkpt>
      <trkpt lat="43.08069" lon="0.10606">
        <ele>752</ele>
        <time>2021-10-07T10:34:35.000Z</time>
      </trkpt>
      <trkpt lat="43.08069" lon="0.10606">
        <ele>752</ele>
        <time>2021-10-07T10:34:36.000Z</time>
      </trkpt>
      <trkpt lat="43.08069" lon="0.10605">
        <ele>751.59997558594</ele>
        <time>2021-10-07T10:34:45.000Z</time>
      </trkpt>
      <trkpt lat="43.08069" lon="0.10605">
        <ele>751.79998779297</ele>
        <time>2021-10-07T10:34:49.000Z</time>
      </trkpt>
      <trkpt lat="43.08069" lon="0.10605">
        <ele>751.79998779297</ele>
        <time>2021-10-07T10:35:15.000Z</time>
      </trkpt>
      <trkpt lat="43.08069" lon="0.10605">
        <ele>751.59997558594</ele>
        <time>2021-10-07T10:36:34.000Z</time>
      </trkpt>
      <trkpt lat="43.08071" lon="0.10595">
        <ele>751.59997558594</ele>
        <time>2021-10-07T10:36:37.000Z</time>
      </trkpt>
      <trkpt lat="43.08075" lon="0.10571">
        <ele>751.79998779297</ele>
        <time>2021-10-07T10:36:44.000Z</time>
      </trkpt>
      <trkpt lat="43.08077" lon="0.10545">
        <ele>752.20001220703</ele>
        <time>2021-10-07T10:36:52.000Z</time>
      </trkpt>
      <trkpt lat="43.08079" lon="0.10526">
        <ele>753</ele>
        <time>2021-10-07T10:36:58.000Z</time>
      </trkpt>
      <trkpt lat="43.08081" lon="0.10497">
        <ele>753.20001220703</ele>
        <time>2021-10-07T10:37:06.000Z</time>
      </trkpt>
      <trkpt lat="43.08079" lon="0.1049">
        <ele>753.79998779297</ele>
        <time>2021-10-07T10:37:09.000Z</time>
      </trkpt>
      <trkpt lat="43.08078" lon="0.10486">
        <ele>754.40002441406</ele>
        <time>2021-10-07T10:37:11.000Z</time>
      </trkpt>
      <trkpt lat="43.08077" lon="0.10483">
        <ele>755</ele>
        <time>2021-10-07T10:37:14.000Z</time>
      </trkpt>
      <trkpt lat="43.08077" lon="0.10483">
        <ele>754.79998779297</ele>
        <time>2021-10-07T10:37:15.000Z</time>
      </trkpt>
      <trkpt lat="43.08077" lon="0.10483">
        <ele>754.79998779297</ele>
        <time>2021-10-07T10:37:59.000Z</time>
      </trkpt>
      <trkpt lat="43.08077" lon="0.10483">
        <ele>754.59997558594</ele>
        <time>2021-10-07T10:38:36.000Z</time>
      </trkpt>
      <trkpt lat="43.08077" lon="0.10483">
        <ele>754.40002441406</ele>
        <time>2021-10-07T10:38:43.000Z</time>
      </trkpt>
      <trkpt lat="43.08077" lon="0.10483">
        <ele>754.59997558594</ele>
        <time>2021-10-07T10:39:04.000Z</time>
      </trkpt>
      <trkpt lat="43.08077" lon="0.10483">
        <ele>754.79998779297</ele>
        <time>2021-10-07T10:39:11.000Z</time>
      </trkpt>
      <trkpt lat="43.08076" lon="0.10475">
        <ele>754.79998779297</ele>
        <time>2021-10-07T10:39:14.000Z</time>
      </trkpt>
      <trkpt lat="43.08074" lon="0.10454">
        <ele>754.20001220703</ele>
        <time>2021-10-07T10:39:19.000Z</time>
      </trkpt>
      <trkpt lat="43.08071" lon="0.10429">
        <ele>753.59997558594</ele>
        <time>2021-10-07T10:39:24.000Z</time>
      </trkpt>
      <trkpt lat="43.08061" lon="0.10399">
        <ele>753</ele>
        <time>2021-10-07T10:39:31.000Z</time>
      </trkpt>
      <trkpt lat="43.08056" lon="0.10376">
        <ele>753.20001220703</ele>
        <time>2021-10-07T10:39:36.000Z</time>
      </trkpt>
      <trkpt lat="43.08053" lon="0.10365">
        <ele>753.20001220703</ele>
        <time>2021-10-07T10:39:39.000Z</time>
      </trkpt>
      <trkpt lat="43.08048" lon="0.10345">
        <ele>752.79998779297</ele>
        <time>2021-10-07T10:39:45.000Z</time>
      </trkpt>
      <trkpt lat="43.0804" lon="0.10317">
        <ele>753</ele>
        <time>2021-10-07T10:39:52.000Z</time>
      </trkpt>
      <trkpt lat="43.08032" lon="0.10286">
        <ele>752.79998779297</ele>
        <time>2021-10-07T10:39:59.000Z</time>
      </trkpt>
      <trkpt lat="43.08026" lon="0.10264">
        <ele>752.59997558594</ele>
        <time>2021-10-07T10:40:04.000Z</time>
      </trkpt>
      <trkpt lat="43.0802" lon="0.10229">
        <ele>752.20001220703</ele>
        <time>2021-10-07T10:40:10.000Z</time>
      </trkpt>
      <trkpt lat="43.08018" lon="0.10208">
        <ele>751.79998779297</ele>
        <time>2021-10-07T10:40:14.000Z</time>
      </trkpt>
      <trkpt lat="43.08017" lon="0.10192">
        <ele>751.59997558594</ele>
        <time>2021-10-07T10:40:17.000Z</time>
      </trkpt>
      <trkpt lat="43.08013" lon="0.10162">
        <ele>751.40002441406</ele>
        <time>2021-10-07T10:40:23.000Z</time>
      </trkpt>
      <trkpt lat="43.08006" lon="0.10147">
        <ele>751.20001220703</ele>
        <time>2021-10-07T10:40:28.000Z</time>
      </trkpt>
      <trkpt lat="43.07996" lon="0.10134">
        <ele>751.20001220703</ele>
        <time>2021-10-07T10:40:35.000Z</time>
      </trkpt>
      <trkpt lat="43.07983" lon="0.10118">
        <ele>751.20001220703</ele>
        <time>2021-10-07T10:40:40.000Z</time>
      </trkpt>
      <trkpt lat="43.07982" lon="0.10104">
        <ele>751.20001220703</ele>
        <time>2021-10-07T10:40:44.000Z</time>
      </trkpt>
      <trkpt lat="43.07975" lon="0.10073">
        <ele>752.79998779297</ele>
        <time>2021-10-07T10:40:51.000Z</time>
      </trkpt>
      <trkpt lat="43.07973" lon="0.10069">
        <ele>753</ele>
        <time>2021-10-07T10:40:52.000Z</time>
      </trkpt>
      <trkpt lat="43.07967" lon="0.10052">
        <ele>754</ele>
        <time>2021-10-07T10:40:56.000Z</time>
      </trkpt>
      <trkpt lat="43.0796" lon="0.10041">
        <ele>754.40002441406</ele>
        <time>2021-10-07T10:40:59.000Z</time>
      </trkpt>
      <trkpt lat="43.07936" lon="0.1002">
        <ele>754.40002441406</ele>
        <time>2021-10-07T10:41:06.000Z</time>
      </trkpt>
      <trkpt lat="43.07918" lon="0.1001">
        <ele>752.79998779297</ele>
        <time>2021-10-07T10:41:10.000Z</time>
      </trkpt>
      <trkpt lat="43.0791" lon="0.10006">
        <ele>751.79998779297</ele>
        <time>2021-10-07T10:41:12.000Z</time>
      </trkpt>
      <trkpt lat="43.07906" lon="0.10005">
        <ele>751</ele>
        <time>2021-10-07T10:41:13.000Z</time>
      </trkpt>
      <trkpt lat="43.07902" lon="0.10005">
        <ele>750.59997558594</ele>
        <time>2021-10-07T10:41:14.000Z</time>
      </trkpt>
      <trkpt lat="43.07898" lon="0.10005">
        <ele>750</ele>
        <time>2021-10-07T10:41:15.000Z</time>
      </trkpt>
      <trkpt lat="43.07889" lon="0.10007">
        <ele>748.79998779297</ele>
        <time>2021-10-07T10:41:17.000Z</time>
      </trkpt>
      <trkpt lat="43.07882" lon="0.10009">
        <ele>747.40002441406</ele>
        <time>2021-10-07T10:41:19.000Z</time>
      </trkpt>
      <trkpt lat="43.07871" lon="0.10009">
        <ele>746</ele>
        <time>2021-10-07T10:41:22.000Z</time>
      </trkpt>
      <trkpt lat="43.07867" lon="0.10009">
        <ele>746</ele>
        <time>2021-10-07T10:41:23.000Z</time>
      </trkpt>
      <trkpt lat="43.07859" lon="0.10006">
        <ele>744.59997558594</ele>
        <time>2021-10-07T10:41:25.000Z</time>
      </trkpt>
      <trkpt lat="43.07855" lon="0.10003">
        <ele>743.79998779297</ele>
        <time>2021-10-07T10:41:26.000Z</time>
      </trkpt>
      <trkpt lat="43.07851" lon="0.09999">
        <ele>743.20001220703</ele>
        <time>2021-10-07T10:41:27.000Z</time>
      </trkpt>
      <trkpt lat="43.07847" lon="0.09996">
        <ele>742.79998779297</ele>
        <time>2021-10-07T10:41:28.000Z</time>
      </trkpt>
      <trkpt lat="43.07843" lon="0.09993">
        <ele>742</ele>
        <time>2021-10-07T10:41:29.000Z</time>
      </trkpt>
      <trkpt lat="43.07832" lon="0.09987">
        <ele>741</ele>
        <time>2021-10-07T10:41:31.000Z</time>
      </trkpt>
      <trkpt lat="43.07822" lon="0.09982">
        <ele>740.20001220703</ele>
        <time>2021-10-07T10:41:33.000Z</time>
      </trkpt>
      <trkpt lat="43.07817" lon="0.0998">
        <ele>739.79998779297</ele>
        <time>2021-10-07T10:41:34.000Z</time>
      </trkpt>
      <trkpt lat="43.07797" lon="0.09967">
        <ele>738.59997558594</ele>
        <time>2021-10-07T10:41:38.000Z</time>
      </trkpt>
      <trkpt lat="43.07791" lon="0.09963">
        <ele>738.40002441406</ele>
        <time>2021-10-07T10:41:39.000Z</time>
      </trkpt>
      <trkpt lat="43.07785" lon="0.09958">
        <ele>737.59997558594</ele>
        <time>2021-10-07T10:41:40.000Z</time>
      </trkpt>
      <trkpt lat="43.07764" lon="0.09943">
        <ele>736</ele>
        <time>2021-10-07T10:41:43.000Z</time>
      </trkpt>
      <trkpt lat="43.07756" lon="0.09938">
        <ele>735.59997558594</ele>
        <time>2021-10-07T10:41:44.000Z</time>
      </trkpt>
      <trkpt lat="43.07748" lon="0.09933">
        <ele>734.79998779297</ele>
        <time>2021-10-07T10:41:45.000Z</time>
      </trkpt>
      <trkpt lat="43.07723" lon="0.09917">
        <ele>733.40002441406</ele>
        <time>2021-10-07T10:41:48.000Z</time>
      </trkpt>
      <trkpt lat="43.07702" lon="0.09899">
        <ele>732.59997558594</ele>
        <time>2021-10-07T10:41:51.000Z</time>
      </trkpt>
      <trkpt lat="43.07691" lon="0.09886">
        <ele>732.20001220703</ele>
        <time>2021-10-07T10:41:53.000Z</time>
      </trkpt>
      <trkpt lat="43.07686" lon="0.09879">
        <ele>732</ele>
        <time>2021-10-07T10:41:54.000Z</time>
      </trkpt>
      <trkpt lat="43.07682" lon="0.09872">
        <ele>731.79998779297</ele>
        <time>2021-10-07T10:41:55.000Z</time>
      </trkpt>
      <trkpt lat="43.07679" lon="0.09864">
        <ele>731.79998779297</ele>
        <time>2021-10-07T10:41:56.000Z</time>
      </trkpt>
      <trkpt lat="43.07672" lon="0.09841">
        <ele>731.59997558594</ele>
        <time>2021-10-07T10:41:59.000Z</time>
      </trkpt>
      <trkpt lat="43.07658" lon="0.09793">
        <ele>732.20001220703</ele>
        <time>2021-10-07T10:42:06.000Z</time>
      </trkpt>
      <trkpt lat="43.07645" lon="0.09749">
        <ele>733.20001220703</ele>
        <time>2021-10-07T10:42:13.000Z</time>
      </trkpt>
      <trkpt lat="43.07636" lon="0.09724">
        <ele>734.59997558594</ele>
        <time>2021-10-07T10:42:18.000Z</time>
      </trkpt>
      <trkpt lat="43.07632" lon="0.09715">
        <ele>735</ele>
        <time>2021-10-07T10:42:20.000Z</time>
      </trkpt>
      <trkpt lat="43.0762" lon="0.09697">
        <ele>735.79998779297</ele>
        <time>2021-10-07T10:42:25.000Z</time>
      </trkpt>
      <trkpt lat="43.07612" lon="0.09687">
        <ele>736.20001220703</ele>
        <time>2021-10-07T10:42:28.000Z</time>
      </trkpt>
      <trkpt lat="43.07587" lon="0.09672">
        <ele>736.59997558594</ele>
        <time>2021-10-07T10:42:34.000Z</time>
      </trkpt>
      <trkpt lat="43.0757" lon="0.09669">
        <ele>736.40002441406</ele>
        <time>2021-10-07T10:42:37.000Z</time>
      </trkpt>
      <trkpt lat="43.07556" lon="0.09668">
        <ele>735.79998779297</ele>
        <time>2021-10-07T10:42:39.000Z</time>
      </trkpt>
      <trkpt lat="43.07533" lon="0.09669">
        <ele>734.40002441406</ele>
        <time>2021-10-07T10:42:42.000Z</time>
      </trkpt>
      <trkpt lat="43.07518" lon="0.09672">
        <ele>733.59997558594</ele>
        <time>2021-10-07T10:42:44.000Z</time>
      </trkpt>
      <trkpt lat="43.07508" lon="0.09675">
        <ele>733.20001220703</ele>
        <time>2021-10-07T10:42:45.000Z</time>
      </trkpt>
      <trkpt lat="43.07501" lon="0.09677">
        <ele>732.20001220703</ele>
        <time>2021-10-07T10:42:46.000Z</time>
      </trkpt>
      <trkpt lat="43.07484" lon="0.09677">
        <ele>730</ele>
        <time>2021-10-07T10:42:48.000Z</time>
      </trkpt>
      <trkpt lat="43.07468" lon="0.0967">
        <ele>728.59997558594</ele>
        <time>2021-10-07T10:42:50.000Z</time>
      </trkpt>
      <trkpt lat="43.07453" lon="0.09664">
        <ele>727.40002441406</ele>
        <time>2021-10-07T10:42:52.000Z</time>
      </trkpt>
      <trkpt lat="43.07432" lon="0.09658">
        <ele>726.20001220703</ele>
        <time>2021-10-07T10:42:55.000Z</time>
      </trkpt>
      <trkpt lat="43.07412" lon="0.09649">
        <ele>725.59997558594</ele>
        <time>2021-10-07T10:42:58.000Z</time>
      </trkpt>
      <trkpt lat="43.074" lon="0.09645">
        <ele>725.20001220703</ele>
        <time>2021-10-07T10:43:00.000Z</time>
      </trkpt>
      <trkpt lat="43.07383" lon="0.09641">
        <ele>724.20001220703</ele>
        <time>2021-10-07T10:43:03.000Z</time>
      </trkpt>
      <trkpt lat="43.07376" lon="0.0964">
        <ele>723.40002441406</ele>
        <time>2021-10-07T10:43:04.000Z</time>
      </trkpt>
      <trkpt lat="43.07356" lon="0.09642">
        <ele>722.59997558594</ele>
        <time>2021-10-07T10:43:07.000Z</time>
      </trkpt>
      <trkpt lat="43.07348" lon="0.09644">
        <ele>722.40002441406</ele>
        <time>2021-10-07T10:43:08.000Z</time>
      </trkpt>
      <trkpt lat="43.07327" lon="0.09648">
        <ele>721.20001220703</ele>
        <time>2021-10-07T10:43:11.000Z</time>
      </trkpt>
      <trkpt lat="43.07319" lon="0.09648">
        <ele>719.79998779297</ele>
        <time>2021-10-07T10:43:12.000Z</time>
      </trkpt>
      <trkpt lat="43.07312" lon="0.09647">
        <ele>719.40002441406</ele>
        <time>2021-10-07T10:43:13.000Z</time>
      </trkpt>
      <trkpt lat="43.07304" lon="0.09645">
        <ele>718.20001220703</ele>
        <time>2021-10-07T10:43:14.000Z</time>
      </trkpt>
      <trkpt lat="43.07291" lon="0.09639">
        <ele>716.40002441406</ele>
        <time>2021-10-07T10:43:16.000Z</time>
      </trkpt>
      <trkpt lat="43.07285" lon="0.09635">
        <ele>715.59997558594</ele>
        <time>2021-10-07T10:43:17.000Z</time>
      </trkpt>
      <trkpt lat="43.07279" lon="0.09631">
        <ele>715.20001220703</ele>
        <time>2021-10-07T10:43:18.000Z</time>
      </trkpt>
      <trkpt lat="43.07275" lon="0.09627">
        <ele>714.59997558594</ele>
        <time>2021-10-07T10:43:19.000Z</time>
      </trkpt>
      <trkpt lat="43.07268" lon="0.09619">
        <ele>713.40002441406</ele>
        <time>2021-10-07T10:43:21.000Z</time>
      </trkpt>
      <trkpt lat="43.0726" lon="0.0961">
        <ele>712.20001220703</ele>
        <time>2021-10-07T10:43:24.000Z</time>
      </trkpt>
      <trkpt lat="43.07259" lon="0.09609">
        <ele>711.79998779297</ele>
        <time>2021-10-07T10:43:25.000Z</time>
      </trkpt>
      <trkpt lat="43.07259" lon="0.09609">
        <ele>711.40002441406</ele>
        <time>2021-10-07T10:43:28.000Z</time>
      </trkpt>
      <trkpt lat="43.07259" lon="0.09609">
        <ele>711.20001220703</ele>
        <time>2021-10-07T10:43:35.000Z</time>
      </trkpt>
      <trkpt lat="43.07258" lon="0.096">
        <ele>710.59997558594</ele>
        <time>2021-10-07T10:43:44.000Z</time>
      </trkpt>
      <trkpt lat="43.07257" lon="0.09576">
        <ele>710.59997558594</ele>
        <time>2021-10-07T10:43:50.000Z</time>
      </trkpt>
      <trkpt lat="43.07256" lon="0.09545">
        <ele>711</ele>
        <time>2021-10-07T10:43:56.000Z</time>
      </trkpt>
      <trkpt lat="43.07255" lon="0.09506">
        <ele>712.20001220703</ele>
        <time>2021-10-07T10:44:03.000Z</time>
      </trkpt>
      <trkpt lat="43.07254" lon="0.09501">
        <ele>712.20001220703</ele>
        <time>2021-10-07T10:44:04.000Z</time>
      </trkpt>
      <trkpt lat="43.07251" lon="0.09482">
        <ele>713.40002441406</ele>
        <time>2021-10-07T10:44:08.000Z</time>
      </trkpt>
      <trkpt lat="43.07245" lon="0.09467">
        <ele>714.20001220703</ele>
        <time>2021-10-07T10:44:12.000Z</time>
      </trkpt>
      <trkpt lat="43.07241" lon="0.09461">
        <ele>714.59997558594</ele>
        <time>2021-10-07T10:44:14.000Z</time>
      </trkpt>
      <trkpt lat="43.07235" lon="0.09453">
        <ele>715.79998779297</ele>
        <time>2021-10-07T10:44:17.000Z</time>
      </trkpt>
      <trkpt lat="43.07233" lon="0.09451">
        <ele>716</ele>
        <time>2021-10-07T10:44:18.000Z</time>
      </trkpt>
      <trkpt lat="43.07225" lon="0.09441">
        <ele>717</ele>
        <time>2021-10-07T10:44:21.000Z</time>
      </trkpt>
      <trkpt lat="43.07211" lon="0.09427">
        <ele>718</ele>
        <time>2021-10-07T10:44:25.000Z</time>
      </trkpt>
      <trkpt lat="43.07207" lon="0.09423">
        <ele>718</ele>
        <time>2021-10-07T10:44:26.000Z</time>
      </trkpt>
      <trkpt lat="43.07191" lon="0.09407">
        <ele>718.20001220703</ele>
        <time>2021-10-07T10:44:30.000Z</time>
      </trkpt>
      <trkpt lat="43.07181" lon="0.09402">
        <ele>718.20001220703</ele>
        <time>2021-10-07T10:44:32.000Z</time>
      </trkpt>
      <trkpt lat="43.07172" lon="0.09402">
        <ele>718.20001220703</ele>
        <time>2021-10-07T10:44:34.000Z</time>
      </trkpt>
      <trkpt lat="43.07163" lon="0.09405">
        <ele>718.20001220703</ele>
        <time>2021-10-07T10:44:36.000Z</time>
      </trkpt>
      <trkpt lat="43.07155" lon="0.0941">
        <ele>718.20001220703</ele>
        <time>2021-10-07T10:44:38.000Z</time>
      </trkpt>
      <trkpt lat="43.07148" lon="0.09415">
        <ele>718.40002441406</ele>
        <time>2021-10-07T10:44:40.000Z</time>
      </trkpt>
      <trkpt lat="43.07141" lon="0.09417">
        <ele>718.40002441406</ele>
        <time>2021-10-07T10:44:42.000Z</time>
      </trkpt>
      <trkpt lat="43.07123" lon="0.09416">
        <ele>719.20001220703</ele>
        <time>2021-10-07T10:44:47.000Z</time>
      </trkpt>
      <trkpt lat="43.07109" lon="0.094">
        <ele>720.20001220703</ele>
        <time>2021-10-07T10:44:52.000Z</time>
      </trkpt>
      <trkpt lat="43.07092" lon="0.09375">
        <ele>721.20001220703</ele>
        <time>2021-10-07T10:44:58.000Z</time>
      </trkpt>
      <trkpt lat="43.07088" lon="0.09372">
        <ele>721.40002441406</ele>
        <time>2021-10-07T10:44:59.000Z</time>
      </trkpt>
      <trkpt lat="43.0708" lon="0.09367">
        <ele>721.79998779297</ele>
        <time>2021-10-07T10:45:01.000Z</time>
      </trkpt>
      <trkpt lat="43.07063" lon="0.09361">
        <ele>722.20001220703</ele>
        <time>2021-10-07T10:45:05.000Z</time>
      </trkpt>
      <trkpt lat="43.07056" lon="0.0936">
        <ele>722.40002441406</ele>
        <time>2021-10-07T10:45:07.000Z</time>
      </trkpt>
      <trkpt lat="43.07042" lon="0.0936">
        <ele>723.40002441406</ele>
        <time>2021-10-07T10:45:11.000Z</time>
      </trkpt>
      <trkpt lat="43.07039" lon="0.09361">
        <ele>723.59997558594</ele>
        <time>2021-10-07T10:45:12.000Z</time>
      </trkpt>
      <trkpt lat="43.07031" lon="0.09362">
        <ele>724.79998779297</ele>
        <time>2021-10-07T10:45:15.000Z</time>
      </trkpt>
      <trkpt lat="43.07025" lon="0.09363">
        <ele>725.40002441406</ele>
        <time>2021-10-07T10:45:17.000Z</time>
      </trkpt>
      <trkpt lat="43.07022" lon="0.09363">
        <ele>726</ele>
        <time>2021-10-07T10:45:18.000Z</time>
      </trkpt>
      <trkpt lat="43.07011" lon="0.09366">
        <ele>727</ele>
        <time>2021-10-07T10:45:22.000Z</time>
      </trkpt>
      <trkpt lat="43.07003" lon="0.09367">
        <ele>728.20001220703</ele>
        <time>2021-10-07T10:45:25.000Z</time>
      </trkpt>
      <trkpt lat="43.06992" lon="0.09367">
        <ele>729.59997558594</ele>
        <time>2021-10-07T10:45:29.000Z</time>
      </trkpt>
      <trkpt lat="43.06985" lon="0.09365">
        <ele>731</ele>
        <time>2021-10-07T10:45:32.000Z</time>
      </trkpt>
      <trkpt lat="43.0698" lon="0.09364">
        <ele>731.79998779297</ele>
        <time>2021-10-07T10:45:34.000Z</time>
      </trkpt>
      <trkpt lat="43.06978" lon="0.09363">
        <ele>732</ele>
        <time>2021-10-07T10:45:35.000Z</time>
      </trkpt>
      <trkpt lat="43.06971" lon="0.09361">
        <ele>733.40002441406</ele>
        <time>2021-10-07T10:45:38.000Z</time>
      </trkpt>
      <trkpt lat="43.06967" lon="0.09359">
        <ele>734</ele>
        <time>2021-10-07T10:45:40.000Z</time>
      </trkpt>
      <trkpt lat="43.06965" lon="0.09358">
        <ele>734.40002441406</ele>
        <time>2021-10-07T10:45:41.000Z</time>
      </trkpt>
      <trkpt lat="43.06953" lon="0.09352">
        <ele>735.79998779297</ele>
        <time>2021-10-07T10:45:47.000Z</time>
      </trkpt>
      <trkpt lat="43.0695" lon="0.0935">
        <ele>736</ele>
        <time>2021-10-07T10:45:48.000Z</time>
      </trkpt>
      <trkpt lat="43.06941" lon="0.09344">
        <ele>737</ele>
        <time>2021-10-07T10:45:52.000Z</time>
      </trkpt>
      <trkpt lat="43.06934" lon="0.09341">
        <ele>737.20001220703</ele>
        <time>2021-10-07T10:45:54.000Z</time>
      </trkpt>
      <trkpt lat="43.06918" lon="0.09331">
        <ele>738</ele>
        <time>2021-10-07T10:45:59.000Z</time>
      </trkpt>
      <trkpt lat="43.06914" lon="0.09329">
        <ele>738</ele>
        <time>2021-10-07T10:46:00.000Z</time>
      </trkpt>
      <trkpt lat="43.06902" lon="0.09319">
        <ele>738.79998779297</ele>
        <time>2021-10-07T10:46:05.000Z</time>
      </trkpt>
      <trkpt lat="43.06894" lon="0.09312">
        <ele>739.20001220703</ele>
        <time>2021-10-07T10:46:08.000Z</time>
      </trkpt>
      <trkpt lat="43.06884" lon="0.09301">
        <ele>739.79998779297</ele>
        <time>2021-10-07T10:46:12.000Z</time>
      </trkpt>
      <trkpt lat="43.0688" lon="0.09295">
        <ele>740.20001220703</ele>
        <time>2021-10-07T10:46:14.000Z</time>
      </trkpt>
      <trkpt lat="43.06872" lon="0.0928">
        <ele>741.20001220703</ele>
        <time>2021-10-07T10:46:19.000Z</time>
      </trkpt>
      <trkpt lat="43.06871" lon="0.09277">
        <ele>741.59997558594</ele>
        <time>2021-10-07T10:46:20.000Z</time>
      </trkpt>
      <trkpt lat="43.06865" lon="0.09265">
        <ele>742.20001220703</ele>
        <time>2021-10-07T10:46:24.000Z</time>
      </trkpt>
      <trkpt lat="43.06857" lon="0.0925">
        <ele>743.79998779297</ele>
        <time>2021-10-07T10:46:29.000Z</time>
      </trkpt>
      <trkpt lat="43.06855" lon="0.09247">
        <ele>744.20001220703</ele>
        <time>2021-10-07T10:46:30.000Z</time>
      </trkpt>
      <trkpt lat="43.0685" lon="0.09238">
        <ele>744.79998779297</ele>
        <time>2021-10-07T10:46:33.000Z</time>
      </trkpt>
      <trkpt lat="43.06846" lon="0.09229">
        <ele>745.59997558594</ele>
        <time>2021-10-07T10:46:36.000Z</time>
      </trkpt>
      <trkpt lat="43.06844" lon="0.09226">
        <ele>746</ele>
        <time>2021-10-07T10:46:37.000Z</time>
      </trkpt>
      <trkpt lat="43.0684" lon="0.09214">
        <ele>747.20001220703</ele>
        <time>2021-10-07T10:46:41.000Z</time>
      </trkpt>
      <trkpt lat="43.06837" lon="0.09208">
        <ele>747.59997558594</ele>
        <time>2021-10-07T10:46:43.000Z</time>
      </trkpt>
      <trkpt lat="43.06834" lon="0.09199">
        <ele>748.59997558594</ele>
        <time>2021-10-07T10:46:46.000Z</time>
      </trkpt>
      <trkpt lat="43.06829" lon="0.09186">
        <ele>749.59997558594</ele>
        <time>2021-10-07T10:46:50.000Z</time>
      </trkpt>
      <trkpt lat="43.06828" lon="0.09183">
        <ele>750</ele>
        <time>2021-10-07T10:46:51.000Z</time>
      </trkpt>
      <trkpt lat="43.06824" lon="0.09171">
        <ele>750.79998779297</ele>
        <time>2021-10-07T10:46:55.000Z</time>
      </trkpt>
      <trkpt lat="43.0682" lon="0.09159">
        <ele>751.79998779297</ele>
        <time>2021-10-07T10:46:59.000Z</time>
      </trkpt>
      <trkpt lat="43.06815" lon="0.09147">
        <ele>753</ele>
        <time>2021-10-07T10:47:03.000Z</time>
      </trkpt>
      <trkpt lat="43.0681" lon="0.09135">
        <ele>754.40002441406</ele>
        <time>2021-10-07T10:47:07.000Z</time>
      </trkpt>
      <trkpt lat="43.06808" lon="0.09129">
        <ele>754.79998779297</ele>
        <time>2021-10-07T10:47:09.000Z</time>
      </trkpt>
      <trkpt lat="43.06805" lon="0.09119">
        <ele>755.59997558594</ele>
        <time>2021-10-07T10:47:12.000Z</time>
      </trkpt>
      <trkpt lat="43.068" lon="0.09107">
        <ele>756.59997558594</ele>
        <time>2021-10-07T10:47:16.000Z</time>
      </trkpt>
      <trkpt lat="43.06799" lon="0.09104">
        <ele>756.79998779297</ele>
        <time>2021-10-07T10:47:17.000Z</time>
      </trkpt>
      <trkpt lat="43.06795" lon="0.09093">
        <ele>757.79998779297</ele>
        <time>2021-10-07T10:47:21.000Z</time>
      </trkpt>
      <trkpt lat="43.06789" lon="0.09079">
        <ele>759</ele>
        <time>2021-10-07T10:47:26.000Z</time>
      </trkpt>
      <trkpt lat="43.06788" lon="0.09075">
        <ele>759.20001220703</ele>
        <time>2021-10-07T10:47:27.000Z</time>
      </trkpt>
      <trkpt lat="43.06784" lon="0.09067">
        <ele>760.20001220703</ele>
        <time>2021-10-07T10:47:30.000Z</time>
      </trkpt>
      <trkpt lat="43.06779" lon="0.09051">
        <ele>761.59997558594</ele>
        <time>2021-10-07T10:47:35.000Z</time>
      </trkpt>
      <trkpt lat="43.06775" lon="0.09036">
        <ele>762.59997558594</ele>
        <time>2021-10-07T10:47:40.000Z</time>
      </trkpt>
      <trkpt lat="43.06772" lon="0.09024">
        <ele>763.40002441406</ele>
        <time>2021-10-07T10:47:44.000Z</time>
      </trkpt>
      <trkpt lat="43.0677" lon="0.09018">
        <ele>764</ele>
        <time>2021-10-07T10:47:46.000Z</time>
      </trkpt>
      <trkpt lat="43.06766" lon="0.09003">
        <ele>765.40002441406</ele>
        <time>2021-10-07T10:47:51.000Z</time>
      </trkpt>
      <trkpt lat="43.06765" lon="0.09">
        <ele>765.59997558594</ele>
        <time>2021-10-07T10:47:52.000Z</time>
      </trkpt>
      <trkpt lat="43.06762" lon="0.08988">
        <ele>766.59997558594</ele>
        <time>2021-10-07T10:47:56.000Z</time>
      </trkpt>
      <trkpt lat="43.06759" lon="0.08977">
        <ele>767.79998779297</ele>
        <time>2021-10-07T10:48:00.000Z</time>
      </trkpt>
      <trkpt lat="43.06755" lon="0.08964">
        <ele>769</ele>
        <time>2021-10-07T10:48:05.000Z</time>
      </trkpt>
      <trkpt lat="43.0675" lon="0.08955">
        <ele>770.20001220703</ele>
        <time>2021-10-07T10:48:09.000Z</time>
      </trkpt>
      <trkpt lat="43.06743" lon="0.08943">
        <ele>771.40002441406</ele>
        <time>2021-10-07T10:48:14.000Z</time>
      </trkpt>
      <trkpt lat="43.06738" lon="0.08936">
        <ele>772.59997558594</ele>
        <time>2021-10-07T10:48:17.000Z</time>
      </trkpt>
      <trkpt lat="43.06736" lon="0.08934">
        <ele>772.79998779297</ele>
        <time>2021-10-07T10:48:18.000Z</time>
      </trkpt>
      <trkpt lat="43.0673" lon="0.08929">
        <ele>773.79998779297</ele>
        <time>2021-10-07T10:48:21.000Z</time>
      </trkpt>
      <trkpt lat="43.06718" lon="0.08924">
        <ele>775</ele>
        <time>2021-10-07T10:48:26.000Z</time>
      </trkpt>
      <trkpt lat="43.06715" lon="0.08924">
        <ele>775.20001220703</ele>
        <time>2021-10-07T10:48:27.000Z</time>
      </trkpt>
      <trkpt lat="43.06707" lon="0.08924">
        <ele>776</ele>
        <time>2021-10-07T10:48:30.000Z</time>
      </trkpt>
      <trkpt lat="43.06698" lon="0.08927">
        <ele>776.59997558594</ele>
        <time>2021-10-07T10:48:34.000Z</time>
      </trkpt>
      <trkpt lat="43.06694" lon="0.08927">
        <ele>777</ele>
        <time>2021-10-07T10:48:36.000Z</time>
      </trkpt>
      <trkpt lat="43.06686" lon="0.0893">
        <ele>778</ele>
        <time>2021-10-07T10:48:40.000Z</time>
      </trkpt>
      <trkpt lat="43.06678" lon="0.08934">
        <ele>779.40002441406</ele>
        <time>2021-10-07T10:48:44.000Z</time>
      </trkpt>
      <trkpt lat="43.06665" lon="0.08942">
        <ele>780.59997558594</ele>
        <time>2021-10-07T10:48:50.000Z</time>
      </trkpt>
      <trkpt lat="43.06656" lon="0.08946">
        <ele>781.40002441406</ele>
        <time>2021-10-07T10:48:54.000Z</time>
      </trkpt>
      <trkpt lat="43.06654" lon="0.08947">
        <ele>781.59997558594</ele>
        <time>2021-10-07T10:48:55.000Z</time>
      </trkpt>
      <trkpt lat="43.06645" lon="0.08952">
        <ele>782.79998779297</ele>
        <time>2021-10-07T10:48:59.000Z</time>
      </trkpt>
      <trkpt lat="43.06642" lon="0.08954">
        <ele>783</ele>
        <time>2021-10-07T10:49:01.000Z</time>
      </trkpt>
      <trkpt lat="43.06631" lon="0.08961">
        <ele>784.20001220703</ele>
        <time>2021-10-07T10:49:06.000Z</time>
      </trkpt>
      <trkpt lat="43.06627" lon="0.08963">
        <ele>784.59997558594</ele>
        <time>2021-10-07T10:49:08.000Z</time>
      </trkpt>
      <trkpt lat="43.06618" lon="0.08966">
        <ele>785.40002441406</ele>
        <time>2021-10-07T10:49:12.000Z</time>
      </trkpt>
      <trkpt lat="43.06611" lon="0.0897">
        <ele>786.40002441406</ele>
        <time>2021-10-07T10:49:15.000Z</time>
      </trkpt>
      <trkpt lat="43.06609" lon="0.08971">
        <ele>786.40002441406</ele>
        <time>2021-10-07T10:49:16.000Z</time>
      </trkpt>
      <trkpt lat="43.066" lon="0.08974">
        <ele>787.40002441406</ele>
        <time>2021-10-07T10:49:20.000Z</time>
      </trkpt>
      <trkpt lat="43.06592" lon="0.08979">
        <ele>788.79998779297</ele>
        <time>2021-10-07T10:49:24.000Z</time>
      </trkpt>
      <trkpt lat="43.06589" lon="0.0898">
        <ele>788.79998779297</ele>
        <time>2021-10-07T10:49:25.000Z</time>
      </trkpt>
      <trkpt lat="43.06585" lon="0.08983">
        <ele>789.79998779297</ele>
        <time>2021-10-07T10:49:27.000Z</time>
      </trkpt>
      <trkpt lat="43.06575" lon="0.08987">
        <ele>790.79998779297</ele>
        <time>2021-10-07T10:49:31.000Z</time>
      </trkpt>
      <trkpt lat="43.06562" lon="0.08992">
        <ele>791.79998779297</ele>
        <time>2021-10-07T10:49:36.000Z</time>
      </trkpt>
      <trkpt lat="43.06537" lon="0.08997">
        <ele>792.59997558594</ele>
        <time>2021-10-07T10:49:44.000Z</time>
      </trkpt>
      <trkpt lat="43.06526" lon="0.08997">
        <ele>792.79998779297</ele>
        <time>2021-10-07T10:49:47.000Z</time>
      </trkpt>
      <trkpt lat="43.06496" lon="0.08994">
        <ele>793.20001220703</ele>
        <time>2021-10-07T10:49:54.000Z</time>
      </trkpt>
      <trkpt lat="43.06458" lon="0.08994">
        <ele>793.20001220703</ele>
        <time>2021-10-07T10:50:02.000Z</time>
      </trkpt>
      <trkpt lat="43.06435" lon="0.09005">
        <ele>793</ele>
        <time>2021-10-07T10:50:07.000Z</time>
      </trkpt>
      <trkpt lat="43.0641" lon="0.09014">
        <ele>793.40002441406</ele>
        <time>2021-10-07T10:50:13.000Z</time>
      </trkpt>
      <trkpt lat="43.06395" lon="0.09018">
        <ele>794</ele>
        <time>2021-10-07T10:50:17.000Z</time>
      </trkpt>
      <trkpt lat="43.06384" lon="0.09021">
        <ele>794.79998779297</ele>
        <time>2021-10-07T10:50:20.000Z</time>
      </trkpt>
      <trkpt lat="43.06378" lon="0.09023">
        <ele>795.40002441406</ele>
        <time>2021-10-07T10:50:22.000Z</time>
      </trkpt>
      <trkpt lat="43.06369" lon="0.09026">
        <ele>796.20001220703</ele>
        <time>2021-10-07T10:50:25.000Z</time>
      </trkpt>
      <trkpt lat="43.06366" lon="0.09027">
        <ele>796.40002441406</ele>
        <time>2021-10-07T10:50:26.000Z</time>
      </trkpt>
      <trkpt lat="43.06353" lon="0.09037">
        <ele>797.79998779297</ele>
        <time>2021-10-07T10:50:30.000Z</time>
      </trkpt>
      <trkpt lat="43.0635" lon="0.09039">
        <ele>798</ele>
        <time>2021-10-07T10:50:31.000Z</time>
      </trkpt>
      <trkpt lat="43.06341" lon="0.09041">
        <ele>799.20001220703</ele>
        <time>2021-10-07T10:50:34.000Z</time>
      </trkpt>
      <trkpt lat="43.06335" lon="0.09039">
        <ele>799.59997558594</ele>
        <time>2021-10-07T10:50:36.000Z</time>
      </trkpt>
      <trkpt lat="43.06321" lon="0.09028">
        <ele>800.20001220703</ele>
        <time>2021-10-07T10:50:40.000Z</time>
      </trkpt>
      <trkpt lat="43.06316" lon="0.09025">
        <ele>800.20001220703</ele>
        <time>2021-10-07T10:50:41.000Z</time>
      </trkpt>
      <trkpt lat="43.06307" lon="0.0902">
        <ele>800.20001220703</ele>
        <time>2021-10-07T10:50:43.000Z</time>
      </trkpt>
      <trkpt lat="43.06281" lon="0.09003">
        <ele>799.40002441406</ele>
        <time>2021-10-07T10:50:48.000Z</time>
      </trkpt>
      <trkpt lat="43.06275" lon="0.09001">
        <ele>799.20001220703</ele>
        <time>2021-10-07T10:50:49.000Z</time>
      </trkpt>
      <trkpt lat="43.06256" lon="0.08998">
        <ele>798.20001220703</ele>
        <time>2021-10-07T10:50:52.000Z</time>
      </trkpt>
      <trkpt lat="43.0625" lon="0.08998">
        <ele>798</ele>
        <time>2021-10-07T10:50:53.000Z</time>
      </trkpt>
      <trkpt lat="43.06225" lon="0.09002">
        <ele>797</ele>
        <time>2021-10-07T10:50:57.000Z</time>
      </trkpt>
      <trkpt lat="43.06219" lon="0.09004">
        <ele>796.40002441406</ele>
        <time>2021-10-07T10:50:58.000Z</time>
      </trkpt>
      <trkpt lat="43.06206" lon="0.09008">
        <ele>795.40002441406</ele>
        <time>2021-10-07T10:51:00.000Z</time>
      </trkpt>
      <trkpt lat="43.06199" lon="0.09011">
        <ele>794.79998779297</ele>
        <time>2021-10-07T10:51:01.000Z</time>
      </trkpt>
      <trkpt lat="43.06194" lon="0.09015">
        <ele>794</ele>
        <time>2021-10-07T10:51:02.000Z</time>
      </trkpt>
      <trkpt lat="43.06188" lon="0.09021">
        <ele>793.79998779297</ele>
        <time>2021-10-07T10:51:03.000Z</time>
      </trkpt>
      <trkpt lat="43.06183" lon="0.09029">
        <ele>793</ele>
        <time>2021-10-07T10:51:04.000Z</time>
      </trkpt>
      <trkpt lat="43.06169" lon="0.09055">
        <ele>791</ele>
        <time>2021-10-07T10:51:07.000Z</time>
      </trkpt>
      <trkpt lat="43.06159" lon="0.09075">
        <ele>789.59997558594</ele>
        <time>2021-10-07T10:51:09.000Z</time>
      </trkpt>
      <trkpt lat="43.06145" lon="0.09104">
        <ele>788.40002441406</ele>
        <time>2021-10-07T10:51:12.000Z</time>
      </trkpt>
      <trkpt lat="43.06141" lon="0.09114">
        <ele>788</ele>
        <time>2021-10-07T10:51:13.000Z</time>
      </trkpt>
      <trkpt lat="43.06132" lon="0.09132">
        <ele>787.20001220703</ele>
        <time>2021-10-07T10:51:15.000Z</time>
      </trkpt>
      <trkpt lat="43.06119" lon="0.09159">
        <ele>785.59997558594</ele>
        <time>2021-10-07T10:51:18.000Z</time>
      </trkpt>
      <trkpt lat="43.06106" lon="0.09184">
        <ele>785</ele>
        <time>2021-10-07T10:51:21.000Z</time>
      </trkpt>
      <trkpt lat="43.06093" lon="0.09208">
        <ele>784.59997558594</ele>
        <time>2021-10-07T10:51:24.000Z</time>
      </trkpt>
      <trkpt lat="43.06078" lon="0.09238">
        <ele>784</ele>
        <time>2021-10-07T10:51:28.000Z</time>
      </trkpt>
      <trkpt lat="43.06065" lon="0.0927">
        <ele>783.40002441406</ele>
        <time>2021-10-07T10:51:32.000Z</time>
      </trkpt>
      <trkpt lat="43.06055" lon="0.09296">
        <ele>783</ele>
        <time>2021-10-07T10:51:35.000Z</time>
      </trkpt>
      <trkpt lat="43.0605" lon="0.09304">
        <ele>782.79998779297</ele>
        <time>2021-10-07T10:51:36.000Z</time>
      </trkpt>
      <trkpt lat="43.06037" lon="0.09317">
        <ele>782.20001220703</ele>
        <time>2021-10-07T10:51:38.000Z</time>
      </trkpt>
      <trkpt lat="43.06008" lon="0.09337">
        <ele>781.59997558594</ele>
        <time>2021-10-07T10:51:42.000Z</time>
      </trkpt>
      <trkpt lat="43.06002" lon="0.09343">
        <ele>781.59997558594</ele>
        <time>2021-10-07T10:51:43.000Z</time>
      </trkpt>
      <trkpt lat="43.05996" lon="0.0935">
        <ele>781.20001220703</ele>
        <time>2021-10-07T10:51:44.000Z</time>
      </trkpt>
      <trkpt lat="43.05992" lon="0.09358">
        <ele>781.20001220703</ele>
        <time>2021-10-07T10:51:45.000Z</time>
      </trkpt>
      <trkpt lat="43.05984" lon="0.09374">
        <ele>780.79998779297</ele>
        <time>2021-10-07T10:51:47.000Z</time>
      </trkpt>
      <trkpt lat="43.0597" lon="0.09416">
        <ele>780.79998779297</ele>
        <time>2021-10-07T10:51:53.000Z</time>
      </trkpt>
      <trkpt lat="43.05961" lon="0.09441">
        <ele>782.20001220703</ele>
        <time>2021-10-07T10:51:58.000Z</time>
      </trkpt>
      <trkpt lat="43.0596" lon="0.09445">
        <ele>782.20001220703</ele>
        <time>2021-10-07T10:51:59.000Z</time>
      </trkpt>
      <trkpt lat="43.05957" lon="0.09457">
        <ele>783.59997558594</ele>
        <time>2021-10-07T10:52:03.000Z</time>
      </trkpt>
      <trkpt lat="43.05957" lon="0.09459">
        <ele>784.40002441406</ele>
        <time>2021-10-07T10:52:07.000Z</time>
      </trkpt>
      <trkpt lat="43.05957" lon="0.09459">
        <ele>784.59997558594</ele>
        <time>2021-10-07T10:52:08.000Z</time>
      </trkpt>
      <trkpt lat="43.05957" lon="0.09459">
        <ele>784.79998779297</ele>
        <time>2021-10-07T10:54:01.000Z</time>
      </trkpt>
      <trkpt lat="43.05957" lon="0.09459">
        <ele>785</ele>
        <time>2021-10-07T10:54:54.000Z</time>
      </trkpt>
      <trkpt lat="43.05957" lon="0.09459">
        <ele>785</ele>
        <time>2021-10-07T10:54:59.000Z</time>
      </trkpt>
      <trkpt lat="43.05954" lon="0.09467">
        <ele>784.59997558594</ele>
        <time>2021-10-07T10:55:33.000Z</time>
      </trkpt>
      <trkpt lat="43.05947" lon="0.09486">
        <ele>785.20001220703</ele>
        <time>2021-10-07T10:55:39.000Z</time>
      </trkpt>
      <trkpt lat="43.05941" lon="0.09504">
        <ele>785.79998779297</ele>
        <time>2021-10-07T10:55:44.000Z</time>
      </trkpt>
      <trkpt lat="43.05937" lon="0.09512">
        <ele>786</ele>
        <time>2021-10-07T10:55:46.000Z</time>
      </trkpt>
      <trkpt lat="43.0593" lon="0.09525">
        <ele>787</ele>
        <time>2021-10-07T10:55:50.000Z</time>
      </trkpt>
      <trkpt lat="43.05923" lon="0.09537">
        <ele>788</ele>
        <time>2021-10-07T10:55:54.000Z</time>
      </trkpt>
      <trkpt lat="43.05915" lon="0.09545">
        <ele>789.20001220703</ele>
        <time>2021-10-07T10:55:58.000Z</time>
      </trkpt>
      <trkpt lat="43.05907" lon="0.09553">
        <ele>790.59997558594</ele>
        <time>2021-10-07T10:56:02.000Z</time>
      </trkpt>
      <trkpt lat="43.05905" lon="0.09554">
        <ele>790.79998779297</ele>
        <time>2021-10-07T10:56:03.000Z</time>
      </trkpt>
      <trkpt lat="43.05901" lon="0.09557">
        <ele>791.59997558594</ele>
        <time>2021-10-07T10:56:05.000Z</time>
      </trkpt>
      <trkpt lat="43.05895" lon="0.09564">
        <ele>792.59997558594</ele>
        <time>2021-10-07T10:56:09.000Z</time>
      </trkpt>
      <trkpt lat="43.05893" lon="0.09567">
        <ele>792.79998779297</ele>
        <time>2021-10-07T10:56:10.000Z</time>
      </trkpt>
      <trkpt lat="43.05884" lon="0.09583">
        <ele>793.20001220703</ele>
        <time>2021-10-07T10:56:15.000Z</time>
      </trkpt>
      <trkpt lat="43.05866" lon="0.09596">
        <ele>793.59997558594</ele>
        <time>2021-10-07T10:56:21.000Z</time>
      </trkpt>
      <trkpt lat="43.05859" lon="0.09599">
        <ele>793.79998779297</ele>
        <time>2021-10-07T10:56:23.000Z</time>
      </trkpt>
      <trkpt lat="43.05837" lon="0.09618">
        <ele>794.40002441406</ele>
        <time>2021-10-07T10:56:30.000Z</time>
      </trkpt>
      <trkpt lat="43.05833" lon="0.0964">
        <ele>794.40002441406</ele>
        <time>2021-10-07T10:56:34.000Z</time>
      </trkpt>
      <trkpt lat="43.05832" lon="0.09667">
        <ele>794.20001220703</ele>
        <time>2021-10-07T10:56:38.000Z</time>
      </trkpt>
      <trkpt lat="43.05831" lon="0.09673">
        <ele>794</ele>
        <time>2021-10-07T10:56:39.000Z</time>
      </trkpt>
      <trkpt lat="43.05829" lon="0.09696">
        <ele>793.79998779297</ele>
        <time>2021-10-07T10:56:43.000Z</time>
      </trkpt>
      <trkpt lat="43.05827" lon="0.09706">
        <ele>793.79998779297</ele>
        <time>2021-10-07T10:56:45.000Z</time>
      </trkpt>
      <trkpt lat="43.05819" lon="0.09726">
        <ele>794.59997558594</ele>
        <time>2021-10-07T10:56:50.000Z</time>
      </trkpt>
      <trkpt lat="43.05815" lon="0.09731">
        <ele>795</ele>
        <time>2021-10-07T10:56:52.000Z</time>
      </trkpt>
      <trkpt lat="43.05807" lon="0.09736">
        <ele>795.79998779297</ele>
        <time>2021-10-07T10:56:55.000Z</time>
      </trkpt>
      <trkpt lat="43.05804" lon="0.09737">
        <ele>796</ele>
        <time>2021-10-07T10:56:56.000Z</time>
      </trkpt>
      <trkpt lat="43.0579" lon="0.0974">
        <ele>797.20001220703</ele>
        <time>2021-10-07T10:57:01.000Z</time>
      </trkpt>
      <trkpt lat="43.05781" lon="0.0974">
        <ele>798.40002441406</ele>
        <time>2021-10-07T10:57:04.000Z</time>
      </trkpt>
      <trkpt lat="43.05778" lon="0.09741">
        <ele>799</ele>
        <time>2021-10-07T10:57:05.000Z</time>
      </trkpt>
      <trkpt lat="43.05772" lon="0.09741">
        <ele>799.40002441406</ele>
        <time>2021-10-07T10:57:07.000Z</time>
      </trkpt>
      <trkpt lat="43.05755" lon="0.09739">
        <ele>800.40002441406</ele>
        <time>2021-10-07T10:57:13.000Z</time>
      </trkpt>
      <trkpt lat="43.05752" lon="0.09738">
        <ele>800.59997558594</ele>
        <time>2021-10-07T10:57:14.000Z</time>
      </trkpt>
      <trkpt lat="43.0573" lon="0.09734">
        <ele>801.59997558594</ele>
        <time>2021-10-07T10:57:21.000Z</time>
      </trkpt>
      <trkpt lat="43.05727" lon="0.09732">
        <ele>801.79998779297</ele>
        <time>2021-10-07T10:57:22.000Z</time>
      </trkpt>
      <trkpt lat="43.05716" lon="0.09725">
        <ele>802.79998779297</ele>
        <time>2021-10-07T10:57:26.000Z</time>
      </trkpt>
      <trkpt lat="43.0571" lon="0.09718">
        <ele>803.79998779297</ele>
        <time>2021-10-07T10:57:29.000Z</time>
      </trkpt>
      <trkpt lat="43.05708" lon="0.09716">
        <ele>804</ele>
        <time>2021-10-07T10:57:30.000Z</time>
      </trkpt>
      <trkpt lat="43.05698" lon="0.09708">
        <ele>805.20001220703</ele>
        <time>2021-10-07T10:57:34.000Z</time>
      </trkpt>
      <trkpt lat="43.05693" lon="0.09706">
        <ele>806.59997558594</ele>
        <time>2021-10-07T10:57:36.000Z</time>
      </trkpt>
      <trkpt lat="43.05681" lon="0.09706">
        <ele>807.79998779297</ele>
        <time>2021-10-07T10:57:40.000Z</time>
      </trkpt>
      <trkpt lat="43.05671" lon="0.09709">
        <ele>808.59997558594</ele>
        <time>2021-10-07T10:57:43.000Z</time>
      </trkpt>
      <trkpt lat="43.05665" lon="0.09711">
        <ele>808.79998779297</ele>
        <time>2021-10-07T10:57:45.000Z</time>
      </trkpt>
      <trkpt lat="43.05646" lon="0.09721">
        <ele>809.79998779297</ele>
        <time>2021-10-07T10:57:51.000Z</time>
      </trkpt>
      <trkpt lat="43.05643" lon="0.09725">
        <ele>810.20001220703</ele>
        <time>2021-10-07T10:57:52.000Z</time>
      </trkpt>
      <trkpt lat="43.05625" lon="0.09741">
        <ele>810.40002441406</ele>
        <time>2021-10-07T10:57:57.000Z</time>
      </trkpt>
      <trkpt lat="43.05621" lon="0.09744">
        <ele>810.40002441406</ele>
        <time>2021-10-07T10:57:58.000Z</time>
      </trkpt>
      <trkpt lat="43.05612" lon="0.09748">
        <ele>810.40002441406</ele>
        <time>2021-10-07T10:58:00.000Z</time>
      </trkpt>
      <trkpt lat="43.05603" lon="0.0975">
        <ele>810.40002441406</ele>
        <time>2021-10-07T10:58:02.000Z</time>
      </trkpt>
      <trkpt lat="43.05564" lon="0.09749">
        <ele>810.79998779297</ele>
        <time>2021-10-07T10:58:10.000Z</time>
      </trkpt>
      <trkpt lat="43.05545" lon="0.09747">
        <ele>811.20001220703</ele>
        <time>2021-10-07T10:58:14.000Z</time>
      </trkpt>
      <trkpt lat="43.05531" lon="0.09746">
        <ele>811.59997558594</ele>
        <time>2021-10-07T10:58:17.000Z</time>
      </trkpt>
      <trkpt lat="43.05522" lon="0.09746">
        <ele>812.20001220703</ele>
        <time>2021-10-07T10:58:19.000Z</time>
      </trkpt>
      <trkpt lat="43.05483" lon="0.09742">
        <ele>813.20001220703</ele>
        <time>2021-10-07T10:58:27.000Z</time>
      </trkpt>
      <trkpt lat="43.05474" lon="0.09738">
        <ele>813.20001220703</ele>
        <time>2021-10-07T10:58:29.000Z</time>
      </trkpt>
      <trkpt lat="43.05452" lon="0.09726">
        <ele>813.79998779297</ele>
        <time>2021-10-07T10:58:34.000Z</time>
      </trkpt>
      <trkpt lat="43.05445" lon="0.09721">
        <ele>814.20001220703</ele>
        <time>2021-10-07T10:58:36.000Z</time>
      </trkpt>
      <trkpt lat="43.05424" lon="0.09713">
        <ele>815.40002441406</ele>
        <time>2021-10-07T10:58:41.000Z</time>
      </trkpt>
      <trkpt lat="43.0542" lon="0.09712">
        <ele>815.79998779297</ele>
        <time>2021-10-07T10:58:42.000Z</time>
      </trkpt>
      <trkpt lat="43.05411" lon="0.09711">
        <ele>816.59997558594</ele>
        <time>2021-10-07T10:58:44.000Z</time>
      </trkpt>
      <trkpt lat="43.05383" lon="0.0971">
        <ele>817.79998779297</ele>
        <time>2021-10-07T10:58:50.000Z</time>
      </trkpt>
      <trkpt lat="43.05344" lon="0.09707">
        <ele>818.79998779297</ele>
        <time>2021-10-07T10:58:58.000Z</time>
      </trkpt>
      <trkpt lat="43.05338" lon="0.09706">
        <ele>818.79998779297</ele>
        <time>2021-10-07T10:58:59.000Z</time>
      </trkpt>
      <trkpt lat="43.05297" lon="0.09702">
        <ele>818.79998779297</ele>
        <time>2021-10-07T10:59:06.000Z</time>
      </trkpt>
      <trkpt lat="43.05277" lon="0.09698">
        <ele>818.40002441406</ele>
        <time>2021-10-07T10:59:09.000Z</time>
      </trkpt>
      <trkpt lat="43.05265" lon="0.09692">
        <ele>818.20001220703</ele>
        <time>2021-10-07T10:59:11.000Z</time>
      </trkpt>
      <trkpt lat="43.05253" lon="0.09683">
        <ele>818</ele>
        <time>2021-10-07T10:59:13.000Z</time>
      </trkpt>
      <trkpt lat="43.05243" lon="0.09671">
        <ele>818</ele>
        <time>2021-10-07T10:59:15.000Z</time>
      </trkpt>
      <trkpt lat="43.05239" lon="0.09665">
        <ele>818</ele>
        <time>2021-10-07T10:59:16.000Z</time>
      </trkpt>
      <trkpt lat="43.0522" lon="0.09631">
        <ele>818</ele>
        <time>2021-10-07T10:59:21.000Z</time>
      </trkpt>
      <trkpt lat="43.05216" lon="0.09616">
        <ele>818</ele>
        <time>2021-10-07T10:59:23.000Z</time>
      </trkpt>
      <trkpt lat="43.05215" lon="0.09601">
        <ele>818.40002441406</ele>
        <time>2021-10-07T10:59:25.000Z</time>
      </trkpt>
      <trkpt lat="43.05215" lon="0.09586">
        <ele>819.20001220703</ele>
        <time>2021-10-07T10:59:27.000Z</time>
      </trkpt>
      <trkpt lat="43.05217" lon="0.0957">
        <ele>819.79998779297</ele>
        <time>2021-10-07T10:59:29.000Z</time>
      </trkpt>
      <trkpt lat="43.05222" lon="0.0954">
        <ele>820.79998779297</ele>
        <time>2021-10-07T10:59:33.000Z</time>
      </trkpt>
      <trkpt lat="43.05224" lon="0.09532">
        <ele>821</ele>
        <time>2021-10-07T10:59:34.000Z</time>
      </trkpt>
      <trkpt lat="43.05237" lon="0.09496">
        <ele>821.40002441406</ele>
        <time>2021-10-07T10:59:39.000Z</time>
      </trkpt>
      <trkpt lat="43.0524" lon="0.0949">
        <ele>821.59997558594</ele>
        <time>2021-10-07T10:59:40.000Z</time>
      </trkpt>
      <trkpt lat="43.05246" lon="0.09471">
        <ele>821.79998779297</ele>
        <time>2021-10-07T10:59:43.000Z</time>
      </trkpt>
      <trkpt lat="43.05246" lon="0.09464">
        <ele>822.20001220703</ele>
        <time>2021-10-07T10:59:44.000Z</time>
      </trkpt>
      <trkpt lat="43.05246" lon="0.09456">
        <ele>822.40002441406</ele>
        <time>2021-10-07T10:59:45.000Z</time>
      </trkpt>
      <trkpt lat="43.05243" lon="0.09446">
        <ele>823.40002441406</ele>
        <time>2021-10-07T10:59:47.000Z</time>
      </trkpt>
      <trkpt lat="43.05231" lon="0.09424">
        <ele>824.79998779297</ele>
        <time>2021-10-07T10:59:51.000Z</time>
      </trkpt>
      <trkpt lat="43.05228" lon="0.0942">
        <ele>824.79998779297</ele>
        <time>2021-10-07T10:59:52.000Z</time>
      </trkpt>
      <trkpt lat="43.05225" lon="0.09415">
        <ele>825</ele>
        <time>2021-10-07T10:59:53.000Z</time>
      </trkpt>
      <trkpt lat="43.0521" lon="0.09386">
        <ele>825.20001220703</ele>
        <time>2021-10-07T10:59:58.000Z</time>
      </trkpt>
      <trkpt lat="43.05193" lon="0.09353">
        <ele>824.59997558594</ele>
        <time>2021-10-07T11:00:03.000Z</time>
      </trkpt>
      <trkpt lat="43.05175" lon="0.0932">
        <ele>823.79998779297</ele>
        <time>2021-10-07T11:00:08.000Z</time>
      </trkpt>
      <trkpt lat="43.05168" lon="0.09306">
        <ele>823.40002441406</ele>
        <time>2021-10-07T11:00:10.000Z</time>
      </trkpt>
      <trkpt lat="43.05161" lon="0.09292">
        <ele>823</ele>
        <time>2021-10-07T11:00:12.000Z</time>
      </trkpt>
      <trkpt lat="43.05146" lon="0.09264">
        <ele>822.79998779297</ele>
        <time>2021-10-07T11:00:16.000Z</time>
      </trkpt>
      <trkpt lat="43.05142" lon="0.09257">
        <ele>822.59997558594</ele>
        <time>2021-10-07T11:00:17.000Z</time>
      </trkpt>
      <trkpt lat="43.0512" lon="0.09225">
        <ele>821.59997558594</ele>
        <time>2021-10-07T11:00:22.000Z</time>
      </trkpt>
      <trkpt lat="43.05111" lon="0.09213">
        <ele>821.40002441406</ele>
        <time>2021-10-07T11:00:24.000Z</time>
      </trkpt>
      <trkpt lat="43.05076" lon="0.09172">
        <ele>820.40002441406</ele>
        <time>2021-10-07T11:00:31.000Z</time>
      </trkpt>
      <trkpt lat="43.05072" lon="0.09167">
        <ele>820.40002441406</ele>
        <time>2021-10-07T11:00:32.000Z</time>
      </trkpt>
      <trkpt lat="43.05052" lon="0.09145">
        <ele>820</ele>
        <time>2021-10-07T11:00:36.000Z</time>
      </trkpt>
      <trkpt lat="43.05046" lon="0.09138">
        <ele>820</ele>
        <time>2021-10-07T11:00:37.000Z</time>
      </trkpt>
      <trkpt lat="43.05031" lon="0.09126">
        <ele>819.79998779297</ele>
        <time>2021-10-07T11:00:39.000Z</time>
      </trkpt>
      <trkpt lat="43.05023" lon="0.0912">
        <ele>819.20001220703</ele>
        <time>2021-10-07T11:00:40.000Z</time>
      </trkpt>
      <trkpt lat="43.05016" lon="0.09113">
        <ele>818.79998779297</ele>
        <time>2021-10-07T11:00:41.000Z</time>
      </trkpt>
      <trkpt lat="43.05005" lon="0.09094">
        <ele>818.20001220703</ele>
        <time>2021-10-07T11:00:43.000Z</time>
      </trkpt>
      <trkpt lat="43.05003" lon="0.09074">
        <ele>817.20001220703</ele>
        <time>2021-10-07T11:00:45.000Z</time>
      </trkpt>
      <trkpt lat="43.05012" lon="0.09041">
        <ele>816</ele>
        <time>2021-10-07T11:00:48.000Z</time>
      </trkpt>
      <trkpt lat="43.05016" lon="0.09031">
        <ele>815.79998779297</ele>
        <time>2021-10-07T11:00:49.000Z</time>
      </trkpt>
      <trkpt lat="43.0504" lon="0.08988">
        <ele>815.20001220703</ele>
        <time>2021-10-07T11:00:54.000Z</time>
      </trkpt>
      <trkpt lat="43.05044" lon="0.08983">
        <ele>815</ele>
        <time>2021-10-07T11:00:55.000Z</time>
      </trkpt>
      <trkpt lat="43.05064" lon="0.08969">
        <ele>815</ele>
        <time>2021-10-07T11:00:58.000Z</time>
      </trkpt>
      <trkpt lat="43.05081" lon="0.08959">
        <ele>815</ele>
        <time>2021-10-07T11:01:01.000Z</time>
      </trkpt>
      <trkpt lat="43.05085" lon="0.08955">
        <ele>815.20001220703</ele>
        <time>2021-10-07T11:01:02.000Z</time>
      </trkpt>
      <trkpt lat="43.05087" lon="0.0895">
        <ele>815.20001220703</ele>
        <time>2021-10-07T11:01:03.000Z</time>
      </trkpt>
      <trkpt lat="43.05089" lon="0.08937">
        <ele>816</ele>
        <time>2021-10-07T11:01:05.000Z</time>
      </trkpt>
      <trkpt lat="43.05084" lon="0.08921">
        <ele>817</ele>
        <time>2021-10-07T11:01:08.000Z</time>
      </trkpt>
      <trkpt lat="43.05083" lon="0.08916">
        <ele>817.59997558594</ele>
        <time>2021-10-07T11:01:09.000Z</time>
      </trkpt>
      <trkpt lat="43.05079" lon="0.08907">
        <ele>818.40002441406</ele>
        <time>2021-10-07T11:01:11.000Z</time>
      </trkpt>
      <trkpt lat="43.05076" lon="0.08898">
        <ele>819.59997558594</ele>
        <time>2021-10-07T11:01:13.000Z</time>
      </trkpt>
      <trkpt lat="43.05069" lon="0.08881">
        <ele>820.59997558594</ele>
        <time>2021-10-07T11:01:17.000Z</time>
      </trkpt>
      <trkpt lat="43.05063" lon="0.08864">
        <ele>821.59997558594</ele>
        <time>2021-10-07T11:01:21.000Z</time>
      </trkpt>
      <trkpt lat="43.05056" lon="0.08843">
        <ele>822.20001220703</ele>
        <time>2021-10-07T11:01:25.000Z</time>
      </trkpt>
      <trkpt lat="43.05051" lon="0.08831">
        <ele>822.20001220703</ele>
        <time>2021-10-07T11:01:27.000Z</time>
      </trkpt>
      <trkpt lat="43.05046" lon="0.08818">
        <ele>822</ele>
        <time>2021-10-07T11:01:29.000Z</time>
      </trkpt>
      <trkpt lat="43.05039" lon="0.08805">
        <ele>821.79998779297</ele>
        <time>2021-10-07T11:01:31.000Z</time>
      </trkpt>
      <trkpt lat="43.05014" lon="0.08773">
        <ele>821</ele>
        <time>2021-10-07T11:01:37.000Z</time>
      </trkpt>
      <trkpt lat="43.05006" lon="0.08761">
        <ele>820.79998779297</ele>
        <time>2021-10-07T11:01:39.000Z</time>
      </trkpt>
      <trkpt lat="43.05001" lon="0.08745">
        <ele>820.79998779297</ele>
        <time>2021-10-07T11:01:41.000Z</time>
      </trkpt>
      <trkpt lat="43.05001" lon="0.08729">
        <ele>820.79998779297</ele>
        <time>2021-10-07T11:01:43.000Z</time>
      </trkpt>
      <trkpt lat="43.05003" lon="0.08714">
        <ele>820.79998779297</ele>
        <time>2021-10-07T11:01:45.000Z</time>
      </trkpt>
      <trkpt lat="43.05004" lon="0.08705">
        <ele>820.79998779297</ele>
        <time>2021-10-07T11:01:46.000Z</time>
      </trkpt>
      <trkpt lat="43.05005" lon="0.08682">
        <ele>821</ele>
        <time>2021-10-07T11:01:49.000Z</time>
      </trkpt>
      <trkpt lat="43.04996" lon="0.08634">
        <ele>821.59997558594</ele>
        <time>2021-10-07T11:01:55.000Z</time>
      </trkpt>
      <trkpt lat="43.0498" lon="0.08578">
        <ele>823.20001220703</ele>
        <time>2021-10-07T11:02:03.000Z</time>
      </trkpt>
      <trkpt lat="43.04972" lon="0.08552">
        <ele>824.20001220703</ele>
        <time>2021-10-07T11:02:07.000Z</time>
      </trkpt>
      <trkpt lat="43.04967" lon="0.08532">
        <ele>825.20001220703</ele>
        <time>2021-10-07T11:02:10.000Z</time>
      </trkpt>
      <trkpt lat="43.04959" lon="0.08499">
        <ele>826.20001220703</ele>
        <time>2021-10-07T11:02:15.000Z</time>
      </trkpt>
      <trkpt lat="43.04956" lon="0.08481">
        <ele>826.59997558594</ele>
        <time>2021-10-07T11:02:18.000Z</time>
      </trkpt>
      <trkpt lat="43.04953" lon="0.08469">
        <ele>827.20001220703</ele>
        <time>2021-10-07T11:02:20.000Z</time>
      </trkpt>
      <trkpt lat="43.04948" lon="0.08445">
        <ele>828.20001220703</ele>
        <time>2021-10-07T11:02:24.000Z</time>
      </trkpt>
      <trkpt lat="43.04947" lon="0.08439">
        <ele>828.40002441406</ele>
        <time>2021-10-07T11:02:25.000Z</time>
      </trkpt>
      <trkpt lat="43.04942" lon="0.08409">
        <ele>829.40002441406</ele>
        <time>2021-10-07T11:02:30.000Z</time>
      </trkpt>
      <trkpt lat="43.04941" lon="0.08396">
        <ele>830</ele>
        <time>2021-10-07T11:02:32.000Z</time>
      </trkpt>
      <trkpt lat="43.0494" lon="0.08384">
        <ele>830.40002441406</ele>
        <time>2021-10-07T11:02:34.000Z</time>
      </trkpt>
      <trkpt lat="43.0494" lon="0.08379">
        <ele>830.59997558594</ele>
        <time>2021-10-07T11:02:35.000Z</time>
      </trkpt>
      <trkpt lat="43.0494" lon="0.08355">
        <ele>831.40002441406</ele>
        <time>2021-10-07T11:02:39.000Z</time>
      </trkpt>
      <trkpt lat="43.0494" lon="0.08348">
        <ele>831.79998779297</ele>
        <time>2021-10-07T11:02:40.000Z</time>
      </trkpt>
      <trkpt lat="43.04942" lon="0.08318">
        <ele>833</ele>
        <time>2021-10-07T11:02:45.000Z</time>
      </trkpt>
      <trkpt lat="43.04945" lon="0.08311">
        <ele>833</ele>
        <time>2021-10-07T11:02:46.000Z</time>
      </trkpt>
      <trkpt lat="43.04947" lon="0.08307">
        <ele>833.40002441406</ele>
        <time>2021-10-07T11:02:47.000Z</time>
      </trkpt>
      <trkpt lat="43.04954" lon="0.08298">
        <ele>834</ele>
        <time>2021-10-07T11:02:49.000Z</time>
      </trkpt>
      <trkpt lat="43.04958" lon="0.08295">
        <ele>834</ele>
        <time>2021-10-07T11:02:50.000Z</time>
      </trkpt>
      <trkpt lat="43.04963" lon="0.08292">
        <ele>834.59997558594</ele>
        <time>2021-10-07T11:02:51.000Z</time>
      </trkpt>
      <trkpt lat="43.04972" lon="0.08291">
        <ele>835.20001220703</ele>
        <time>2021-10-07T11:02:53.000Z</time>
      </trkpt>
      <trkpt lat="43.04976" lon="0.08292">
        <ele>835.59997558594</ele>
        <time>2021-10-07T11:02:54.000Z</time>
      </trkpt>
      <trkpt lat="43.04985" lon="0.08295">
        <ele>836</ele>
        <time>2021-10-07T11:02:56.000Z</time>
      </trkpt>
      <trkpt lat="43.04988" lon="0.08297">
        <ele>836.20001220703</ele>
        <time>2021-10-07T11:02:57.000Z</time>
      </trkpt>
      <trkpt lat="43.04995" lon="0.08301">
        <ele>836.59997558594</ele>
        <time>2021-10-07T11:02:59.000Z</time>
      </trkpt>
      <trkpt lat="43.05001" lon="0.08307">
        <ele>837.40002441406</ele>
        <time>2021-10-07T11:03:01.000Z</time>
      </trkpt>
      <trkpt lat="43.05011" lon="0.08316">
        <ele>838.40002441406</ele>
        <time>2021-10-07T11:03:05.000Z</time>
      </trkpt>
      <trkpt lat="43.05017" lon="0.08318">
        <ele>839</ele>
        <time>2021-10-07T11:03:07.000Z</time>
      </trkpt>
      <trkpt lat="43.05026" lon="0.08313">
        <ele>839.59997558594</ele>
        <time>2021-10-07T11:03:10.000Z</time>
      </trkpt>
      <trkpt lat="43.05033" lon="0.08305">
        <ele>840.59997558594</ele>
        <time>2021-10-07T11:03:13.000Z</time>
      </trkpt>
      <trkpt lat="43.0504" lon="0.08292">
        <ele>841.20001220703</ele>
        <time>2021-10-07T11:03:16.000Z</time>
      </trkpt>
      <trkpt lat="43.05047" lon="0.08276">
        <ele>841.79998779297</ele>
        <time>2021-10-07T11:03:20.000Z</time>
      </trkpt>
      <trkpt lat="43.05049" lon="0.08267">
        <ele>841.79998779297</ele>
        <time>2021-10-07T11:03:22.000Z</time>
      </trkpt>
      <trkpt lat="43.05052" lon="0.08246">
        <ele>841.79998779297</ele>
        <time>2021-10-07T11:03:28.000Z</time>
      </trkpt>
      <trkpt lat="43.05052" lon="0.08246">
        <ele>841.59997558594</ele>
        <time>2021-10-07T11:03:32.000Z</time>
      </trkpt>
      <trkpt lat="43.05052" lon="0.08245">
        <ele>841.59997558594</ele>
        <time>2021-10-07T11:04:26.000Z</time>
      </trkpt>
      <trkpt lat="43.0505" lon="0.08233">
        <ele>841.79998779297</ele>
        <time>2021-10-07T11:05:06.000Z</time>
      </trkpt>
      <trkpt lat="43.05042" lon="0.08207">
        <ele>841.40002441406</ele>
        <time>2021-10-07T11:05:11.000Z</time>
      </trkpt>
      <trkpt lat="43.05026" lon="0.0817">
        <ele>840.40002441406</ele>
        <time>2021-10-07T11:05:17.000Z</time>
      </trkpt>
      <trkpt lat="43.05023" lon="0.08163">
        <ele>840.40002441406</ele>
        <time>2021-10-07T11:05:18.000Z</time>
      </trkpt>
      <trkpt lat="43.05006" lon="0.08125">
        <ele>839.59997558594</ele>
        <time>2021-10-07T11:05:23.000Z</time>
      </trkpt>
      <trkpt lat="43.04999" lon="0.08107">
        <ele>838.59997558594</ele>
        <time>2021-10-07T11:05:25.000Z</time>
      </trkpt>
      <trkpt lat="43.04996" lon="0.08098">
        <ele>838</ele>
        <time>2021-10-07T11:05:26.000Z</time>
      </trkpt>
      <trkpt lat="43.04986" lon="0.08067">
        <ele>836.79998779297</ele>
        <time>2021-10-07T11:05:29.000Z</time>
      </trkpt>
      <trkpt lat="43.0498" lon="0.08048">
        <ele>836</ele>
        <time>2021-10-07T11:05:31.000Z</time>
      </trkpt>
      <trkpt lat="43.04975" lon="0.08031">
        <ele>835.40002441406</ele>
        <time>2021-10-07T11:05:33.000Z</time>
      </trkpt>
      <trkpt lat="43.04972" lon="0.08021">
        <ele>835</ele>
        <time>2021-10-07T11:05:35.000Z</time>
      </trkpt>
      <trkpt lat="43.04968" lon="0.08006">
        <ele>834.59997558594</ele>
        <time>2021-10-07T11:05:39.000Z</time>
      </trkpt>
      <trkpt lat="43.04962" lon="0.07987">
        <ele>833.79998779297</ele>
        <time>2021-10-07T11:05:44.000Z</time>
      </trkpt>
      <trkpt lat="43.04962" lon="0.07986">
        <ele>833.59997558594</ele>
        <time>2021-10-07T11:05:46.000Z</time>
      </trkpt>
      <trkpt lat="43.04962" lon="0.07986">
        <ele>833.20001220703</ele>
        <time>2021-10-07T11:05:48.000Z</time>
      </trkpt>
      <trkpt lat="43.04962" lon="0.07986">
        <ele>832.79998779297</ele>
        <time>2021-10-07T11:05:59.000Z</time>
      </trkpt>
      <trkpt lat="43.04961" lon="0.07987">
        <ele>832.79998779297</ele>
        <time>2021-10-07T11:06:00.000Z</time>
      </trkpt>
      <trkpt lat="43.04959" lon="0.07985">
        <ele>833.40002441406</ele>
        <time>2021-10-07T11:06:05.000Z</time>
      </trkpt>
      <trkpt lat="43.04958" lon="0.07985">
        <ele>833.79998779297</ele>
        <time>2021-10-07T11:06:14.000Z</time>
      </trkpt>
      <trkpt lat="43.04957" lon="0.07985">
        <ele>833.79998779297</ele>
        <time>2021-10-07T11:06:22.000Z</time>
      </trkpt>
      <trkpt lat="43.04956" lon="0.07984">
        <ele>833.79998779297</ele>
        <time>2021-10-07T11:06:25.000Z</time>
      </trkpt>
      <trkpt lat="43.04954" lon="0.07979">
        <ele>834</ele>
        <time>2021-10-07T11:06:27.000Z</time>
      </trkpt>
      <trkpt lat="43.04947" lon="0.07958">
        <ele>833.59997558594</ele>
        <time>2021-10-07T11:06:33.000Z</time>
      </trkpt>
      <trkpt lat="43.04937" lon="0.07935">
        <ele>833.40002441406</ele>
        <time>2021-10-07T11:06:39.000Z</time>
      </trkpt>
      <trkpt lat="43.04929" lon="0.07915">
        <ele>833.20001220703</ele>
        <time>2021-10-07T11:06:44.000Z</time>
      </trkpt>
      <trkpt lat="43.04925" lon="0.07904">
        <ele>833.20001220703</ele>
        <time>2021-10-07T11:06:47.000Z</time>
      </trkpt>
      <trkpt lat="43.04913" lon="0.07876">
        <ele>833.40002441406</ele>
        <time>2021-10-07T11:06:55.000Z</time>
      </trkpt>
      <trkpt lat="43.04899" lon="0.07847">
        <ele>833.40002441406</ele>
        <time>2021-10-07T11:07:03.000Z</time>
      </trkpt>
      <trkpt lat="43.0488" lon="0.07812">
        <ele>833.40002441406</ele>
        <time>2021-10-07T11:07:13.000Z</time>
      </trkpt>
      <trkpt lat="43.04864" lon="0.07785">
        <ele>832.79998779297</ele>
        <time>2021-10-07T11:07:21.000Z</time>
      </trkpt>
      <trkpt lat="43.0486" lon="0.07778">
        <ele>832.59997558594</ele>
        <time>2021-10-07T11:07:23.000Z</time>
      </trkpt>
      <trkpt lat="43.04846" lon="0.07754">
        <ele>832.79998779297</ele>
        <time>2021-10-07T11:07:30.000Z</time>
      </trkpt>
      <trkpt lat="43.04834" lon="0.07717">
        <ele>833</ele>
        <time>2021-10-07T11:07:39.000Z</time>
      </trkpt>
      <trkpt lat="43.04829" lon="0.07692">
        <ele>832.79998779297</ele>
        <time>2021-10-07T11:07:44.000Z</time>
      </trkpt>
      <trkpt lat="43.04827" lon="0.07679">
        <ele>832.59997558594</ele>
        <time>2021-10-07T11:07:47.000Z</time>
      </trkpt>
      <trkpt lat="43.04831" lon="0.07662">
        <ele>831.79998779297</ele>
        <time>2021-10-07T11:07:51.000Z</time>
      </trkpt>
      <trkpt lat="43.04843" lon="0.07649">
        <ele>832.40002441406</ele>
        <time>2021-10-07T11:07:57.000Z</time>
      </trkpt>
      <trkpt lat="43.04851" lon="0.07634">
        <ele>834.20001220703</ele>
        <time>2021-10-07T11:08:03.000Z</time>
      </trkpt>
      <trkpt lat="43.04852" lon="0.07631">
        <ele>834.20001220703</ele>
        <time>2021-10-07T11:08:04.000Z</time>
      </trkpt>
      <trkpt lat="43.04854" lon="0.07608">
        <ele>835</ele>
        <time>2021-10-07T11:08:10.000Z</time>
      </trkpt>
      <trkpt lat="43.0485" lon="0.07591">
        <ele>834.59997558594</ele>
        <time>2021-10-07T11:08:16.000Z</time>
      </trkpt>
      <trkpt lat="43.04844" lon="0.07574">
        <ele>834.59997558594</ele>
        <time>2021-10-07T11:08:22.000Z</time>
      </trkpt>
      <trkpt lat="43.04834" lon="0.07552">
        <ele>834</ele>
        <time>2021-10-07T11:08:30.000Z</time>
      </trkpt>
      <trkpt lat="43.04821" lon="0.07528">
        <ele>833.59997558594</ele>
        <time>2021-10-07T11:08:38.000Z</time>
      </trkpt>
      <trkpt lat="43.04809" lon="0.07508">
        <ele>833.20001220703</ele>
        <time>2021-10-07T11:08:45.000Z</time>
      </trkpt>
      <trkpt lat="43.04806" lon="0.07501">
        <ele>833</ele>
        <time>2021-10-07T11:08:47.000Z</time>
      </trkpt>
      <trkpt lat="43.04798" lon="0.07488">
        <ele>832.79998779297</ele>
        <time>2021-10-07T11:08:51.000Z</time>
      </trkpt>
      <trkpt lat="43.04781" lon="0.0746">
        <ele>833</ele>
        <time>2021-10-07T11:09:01.000Z</time>
      </trkpt>
      <trkpt lat="43.04779" lon="0.07458">
        <ele>833</ele>
        <time>2021-10-07T11:09:02.000Z</time>
      </trkpt>
      <trkpt lat="43.04768" lon="0.07446">
        <ele>833.40002441406</ele>
        <time>2021-10-07T11:09:07.000Z</time>
      </trkpt>
      <trkpt lat="43.04753" lon="0.0743">
        <ele>834</ele>
        <time>2021-10-07T11:09:14.000Z</time>
      </trkpt>
      <trkpt lat="43.04747" lon="0.07423">
        <ele>834.40002441406</ele>
        <time>2021-10-07T11:09:17.000Z</time>
      </trkpt>
      <trkpt lat="43.04741" lon="0.07417">
        <ele>834.40002441406</ele>
        <time>2021-10-07T11:09:20.000Z</time>
      </trkpt>
      <trkpt lat="43.04724" lon="0.07405">
        <ele>835</ele>
        <time>2021-10-07T11:09:28.000Z</time>
      </trkpt>
      <trkpt lat="43.04717" lon="0.07403">
        <ele>835.40002441406</ele>
        <time>2021-10-07T11:09:31.000Z</time>
      </trkpt>
      <trkpt lat="43.04706" lon="0.07398">
        <ele>836.20001220703</ele>
        <time>2021-10-07T11:09:36.000Z</time>
      </trkpt>
      <trkpt lat="43.04689" lon="0.07395">
        <ele>836.20001220703</ele>
        <time>2021-10-07T11:09:43.000Z</time>
      </trkpt>
      <trkpt lat="43.04663" lon="0.07401">
        <ele>835.20001220703</ele>
        <time>2021-10-07T11:09:52.000Z</time>
      </trkpt>
      <trkpt lat="43.04649" lon="0.07407">
        <ele>834.59997558594</ele>
        <time>2021-10-07T11:09:57.000Z</time>
      </trkpt>
      <trkpt lat="43.04641" lon="0.07409">
        <ele>834.40002441406</ele>
        <time>2021-10-07T11:10:00.000Z</time>
      </trkpt>
      <trkpt lat="43.04638" lon="0.0741">
        <ele>834.20001220703</ele>
        <time>2021-10-07T11:10:01.000Z</time>
      </trkpt>
      <trkpt lat="43.04623" lon="0.07418">
        <ele>833.79998779297</ele>
        <time>2021-10-07T11:10:07.000Z</time>
      </trkpt>
      <trkpt lat="43.04619" lon="0.07419">
        <ele>833.59997558594</ele>
        <time>2021-10-07T11:10:11.000Z</time>
      </trkpt>
      <trkpt lat="43.04619" lon="0.0742">
        <ele>833.59997558594</ele>
        <time>2021-10-07T11:10:21.000Z</time>
      </trkpt>
      <trkpt lat="43.04616" lon="0.07421">
        <ele>833.20001220703</ele>
        <time>2021-10-07T11:10:36.000Z</time>
      </trkpt>
      <trkpt lat="43.04616" lon="0.07421">
        <ele>833.20001220703</ele>
        <time>2021-10-07T11:10:45.000Z</time>
      </trkpt>
      <trkpt lat="43.04614" lon="0.07423">
        <ele>833.59997558594</ele>
        <time>2021-10-07T11:10:52.000Z</time>
      </trkpt>
      <trkpt lat="43.04609" lon="0.07428">
        <ele>833.59997558594</ele>
        <time>2021-10-07T11:10:55.000Z</time>
      </trkpt>
      <trkpt lat="43.04592" lon="0.07443">
        <ele>833.59997558594</ele>
        <time>2021-10-07T11:11:01.000Z</time>
      </trkpt>
      <trkpt lat="43.04584" lon="0.07451">
        <ele>833.20001220703</ele>
        <time>2021-10-07T11:11:04.000Z</time>
      </trkpt>
      <trkpt lat="43.04578" lon="0.07458">
        <ele>832.79998779297</ele>
        <time>2021-10-07T11:11:06.000Z</time>
      </trkpt>
      <trkpt lat="43.04572" lon="0.07464">
        <ele>832.20001220703</ele>
        <time>2021-10-07T11:11:08.000Z</time>
      </trkpt>
      <trkpt lat="43.0457" lon="0.07466">
        <ele>831.59997558594</ele>
        <time>2021-10-07T11:11:09.000Z</time>
      </trkpt>
      <trkpt lat="43.04559" lon="0.07475">
        <ele>830.20001220703</ele>
        <time>2021-10-07T11:11:12.000Z</time>
      </trkpt>
      <trkpt lat="43.04552" lon="0.07486">
        <ele>829</ele>
        <time>2021-10-07T11:11:15.000Z</time>
      </trkpt>
      <trkpt lat="43.0455" lon="0.07491">
        <ele>828.20001220703</ele>
        <time>2021-10-07T11:11:16.000Z</time>
      </trkpt>
      <trkpt lat="43.04548" lon="0.07497">
        <ele>827.79998779297</ele>
        <time>2021-10-07T11:11:17.000Z</time>
      </trkpt>
      <trkpt lat="43.04542" lon="0.0751">
        <ele>826.59997558594</ele>
        <time>2021-10-07T11:11:19.000Z</time>
      </trkpt>
      <trkpt lat="43.04537" lon="0.07521">
        <ele>825.59997558594</ele>
        <time>2021-10-07T11:11:21.000Z</time>
      </trkpt>
      <trkpt lat="43.04533" lon="0.07529">
        <ele>824.40002441406</ele>
        <time>2021-10-07T11:11:23.000Z</time>
      </trkpt>
      <trkpt lat="43.0453" lon="0.07537">
        <ele>823.20001220703</ele>
        <time>2021-10-07T11:11:25.000Z</time>
      </trkpt>
      <trkpt lat="43.04529" lon="0.07541">
        <ele>822.59997558594</ele>
        <time>2021-10-07T11:11:26.000Z</time>
      </trkpt>
      <trkpt lat="43.04527" lon="0.07547">
        <ele>821.79998779297</ele>
        <time>2021-10-07T11:11:28.000Z</time>
      </trkpt>
      <trkpt lat="43.04525" lon="0.07552">
        <ele>820.59997558594</ele>
        <time>2021-10-07T11:11:30.000Z</time>
      </trkpt>
      <trkpt lat="43.04523" lon="0.07554">
        <ele>820.20001220703</ele>
        <time>2021-10-07T11:11:31.000Z</time>
      </trkpt>
      <trkpt lat="43.04517" lon="0.07557">
        <ele>819.40002441406</ele>
        <time>2021-10-07T11:11:33.000Z</time>
      </trkpt>
      <trkpt lat="43.04511" lon="0.07558">
        <ele>818.40002441406</ele>
        <time>2021-10-07T11:11:35.000Z</time>
      </trkpt>
      <trkpt lat="43.04503" lon="0.07558">
        <ele>817.59997558594</ele>
        <time>2021-10-07T11:11:37.000Z</time>
      </trkpt>
      <trkpt lat="43.04492" lon="0.07552">
        <ele>816.40002441406</ele>
        <time>2021-10-07T11:11:40.000Z</time>
      </trkpt>
      <trkpt lat="43.04484" lon="0.07543">
        <ele>815.20001220703</ele>
        <time>2021-10-07T11:11:43.000Z</time>
      </trkpt>
      <trkpt lat="43.04482" lon="0.07539">
        <ele>814.59997558594</ele>
        <time>2021-10-07T11:11:44.000Z</time>
      </trkpt>
      <trkpt lat="43.04479" lon="0.07536">
        <ele>814.20001220703</ele>
        <time>2021-10-07T11:11:45.000Z</time>
      </trkpt>
      <trkpt lat="43.04469" lon="0.07521">
        <ele>813.59997558594</ele>
        <time>2021-10-07T11:11:49.000Z</time>
      </trkpt>
      <trkpt lat="43.04456" lon="0.07504">
        <ele>813.59997558594</ele>
        <time>2021-10-07T11:11:53.000Z</time>
      </trkpt>
      <trkpt lat="43.04431" lon="0.0748">
        <ele>813.40002441406</ele>
        <time>2021-10-07T11:11:59.000Z</time>
      </trkpt>
      <trkpt lat="43.04422" lon="0.07471">
        <ele>812.79998779297</ele>
        <time>2021-10-07T11:12:01.000Z</time>
      </trkpt>
      <trkpt lat="43.04413" lon="0.07461">
        <ele>812.40002441406</ele>
        <time>2021-10-07T11:12:03.000Z</time>
      </trkpt>
      <trkpt lat="43.04404" lon="0.07455">
        <ele>811.79998779297</ele>
        <time>2021-10-07T11:12:05.000Z</time>
      </trkpt>
      <trkpt lat="43.04399" lon="0.0745">
        <ele>811.20001220703</ele>
        <time>2021-10-07T11:12:06.000Z</time>
      </trkpt>
      <trkpt lat="43.04389" lon="0.07441">
        <ele>810.59997558594</ele>
        <time>2021-10-07T11:12:08.000Z</time>
      </trkpt>
      <trkpt lat="43.04384" lon="0.07437">
        <ele>810.20001220703</ele>
        <time>2021-10-07T11:12:09.000Z</time>
      </trkpt>
      <trkpt lat="43.04371" lon="0.07429">
        <ele>809.20001220703</ele>
        <time>2021-10-07T11:12:12.000Z</time>
      </trkpt>
      <trkpt lat="43.04366" lon="0.07425">
        <ele>808.79998779297</ele>
        <time>2021-10-07T11:12:13.000Z</time>
      </trkpt>
      <trkpt lat="43.04347" lon="0.07422">
        <ele>808.40002441406</ele>
        <time>2021-10-07T11:12:17.000Z</time>
      </trkpt>
      <trkpt lat="43.04341" lon="0.0742">
        <ele>808</ele>
        <time>2021-10-07T11:12:18.000Z</time>
      </trkpt>
      <trkpt lat="43.04324" lon="0.07419">
        <ele>807</ele>
        <time>2021-10-07T11:12:22.000Z</time>
      </trkpt>
      <trkpt lat="43.04317" lon="0.07417">
        <ele>806.59997558594</ele>
        <time>2021-10-07T11:12:24.000Z</time>
      </trkpt>
      <trkpt lat="43.04309" lon="0.07419">
        <ele>806</ele>
        <time>2021-10-07T11:12:26.000Z</time>
      </trkpt>
      <trkpt lat="43.04303" lon="0.07423">
        <ele>805.59997558594</ele>
        <time>2021-10-07T11:12:27.000Z</time>
      </trkpt>
      <trkpt lat="43.04289" lon="0.07434">
        <ele>805</ele>
        <time>2021-10-07T11:12:30.000Z</time>
      </trkpt>
      <trkpt lat="43.04275" lon="0.07457">
        <ele>803.59997558594</ele>
        <time>2021-10-07T11:12:33.000Z</time>
      </trkpt>
      <trkpt lat="43.04268" lon="0.0747">
        <ele>802.79998779297</ele>
        <time>2021-10-07T11:12:35.000Z</time>
      </trkpt>
      <trkpt lat="43.04264" lon="0.07477">
        <ele>802.40002441406</ele>
        <time>2021-10-07T11:12:36.000Z</time>
      </trkpt>
      <trkpt lat="43.04259" lon="0.07483">
        <ele>801.79998779297</ele>
        <time>2021-10-07T11:12:37.000Z</time>
      </trkpt>
      <trkpt lat="43.04255" lon="0.07489">
        <ele>801.20001220703</ele>
        <time>2021-10-07T11:12:38.000Z</time>
      </trkpt>
      <trkpt lat="43.04243" lon="0.07508">
        <ele>799.79998779297</ele>
        <time>2021-10-07T11:12:41.000Z</time>
      </trkpt>
      <trkpt lat="43.04225" lon="0.07534">
        <ele>798.20001220703</ele>
        <time>2021-10-07T11:12:45.000Z</time>
      </trkpt>
      <trkpt lat="43.04216" lon="0.07547">
        <ele>797.40002441406</ele>
        <time>2021-10-07T11:12:47.000Z</time>
      </trkpt>
      <trkpt lat="43.04213" lon="0.07552">
        <ele>797</ele>
        <time>2021-10-07T11:12:48.000Z</time>
      </trkpt>
      <trkpt lat="43.04212" lon="0.07557">
        <ele>797</ele>
        <time>2021-10-07T11:12:49.000Z</time>
      </trkpt>
      <trkpt lat="43.0421" lon="0.07562">
        <ele>796.20001220703</ele>
        <time>2021-10-07T11:12:52.000Z</time>
      </trkpt>
      <trkpt lat="43.0421" lon="0.07562">
        <ele>796</ele>
        <time>2021-10-07T11:12:54.000Z</time>
      </trkpt>
      <trkpt lat="43.0421" lon="0.07562">
        <ele>795.79998779297</ele>
        <time>2021-10-07T11:13:01.000Z</time>
      </trkpt>
      <trkpt lat="43.0421" lon="0.07562">
        <ele>795.40002441406</ele>
        <time>2021-10-07T11:13:12.000Z</time>
      </trkpt>
      <trkpt lat="43.0421" lon="0.07562">
        <ele>795.40002441406</ele>
        <time>2021-10-07T11:13:13.000Z</time>
      </trkpt>
      <trkpt lat="43.04208" lon="0.07568">
        <ele>795.40002441406</ele>
        <time>2021-10-07T11:13:17.000Z</time>
      </trkpt>
      <trkpt lat="43.04207" lon="0.0757">
        <ele>795.40002441406</ele>
        <time>2021-10-07T11:13:18.000Z</time>
      </trkpt>
      <trkpt lat="43.04206" lon="0.07572">
        <ele>795.40002441406</ele>
        <time>2021-10-07T11:13:19.000Z</time>
      </trkpt>
      <trkpt lat="43.04197" lon="0.07593">
        <ele>795.20001220703</ele>
        <time>2021-10-07T11:13:24.000Z</time>
      </trkpt>
      <trkpt lat="43.04182" lon="0.07626">
        <ele>795.20001220703</ele>
        <time>2021-10-07T11:13:31.000Z</time>
      </trkpt>
      <trkpt lat="43.04175" lon="0.07654">
        <ele>795.59997558594</ele>
        <time>2021-10-07T11:13:37.000Z</time>
      </trkpt>
      <trkpt lat="43.04171" lon="0.07663">
        <ele>795.59997558594</ele>
        <time>2021-10-07T11:13:38.000Z</time>
      </trkpt>
      <trkpt lat="43.04165" lon="0.0769">
        <ele>795.79998779297</ele>
        <time>2021-10-07T11:13:43.000Z</time>
      </trkpt>
      <trkpt lat="43.04161" lon="0.07708">
        <ele>796</ele>
        <time>2021-10-07T11:13:47.000Z</time>
      </trkpt>
      <trkpt lat="43.04161" lon="0.07713">
        <ele>796</ele>
        <time>2021-10-07T11:13:48.000Z</time>
      </trkpt>
      <trkpt lat="43.04156" lon="0.07733">
        <ele>796</ele>
        <time>2021-10-07T11:13:52.000Z</time>
      </trkpt>
      <trkpt lat="43.0415" lon="0.0776">
        <ele>796</ele>
        <time>2021-10-07T11:13:57.000Z</time>
      </trkpt>
      <trkpt lat="43.0415" lon="0.07765">
        <ele>795.79998779297</ele>
        <time>2021-10-07T11:13:58.000Z</time>
      </trkpt>
      <trkpt lat="43.04143" lon="0.07785">
        <ele>795.59997558594</ele>
        <time>2021-10-07T11:14:02.000Z</time>
      </trkpt>
      <trkpt lat="43.04132" lon="0.07822">
        <ele>796</ele>
        <time>2021-10-07T11:14:08.000Z</time>
      </trkpt>
      <trkpt lat="43.04125" lon="0.07848">
        <ele>795.79998779297</ele>
        <time>2021-10-07T11:14:14.000Z</time>
      </trkpt>
      <trkpt lat="43.0412" lon="0.07871">
        <ele>794.79998779297</ele>
        <time>2021-10-07T11:14:19.000Z</time>
      </trkpt>
      <trkpt lat="43.04121" lon="0.07873">
        <ele>793.79998779297</ele>
        <time>2021-10-07T11:14:21.000Z</time>
      </trkpt>
      <trkpt lat="43.04119" lon="0.07875">
        <ele>792.79998779297</ele>
        <time>2021-10-07T11:14:23.000Z</time>
      </trkpt>
      <trkpt lat="43.04121" lon="0.07877">
        <ele>791.59997558594</ele>
        <time>2021-10-07T11:14:26.000Z</time>
      </trkpt>
      <trkpt lat="43.04121" lon="0.07878">
        <ele>791.20001220703</ele>
        <time>2021-10-07T11:14:28.000Z</time>
      </trkpt>
      <trkpt lat="43.04121" lon="0.07878">
        <ele>790.40002441406</ele>
        <time>2021-10-07T11:14:32.000Z</time>
      </trkpt>
      <trkpt lat="43.04121" lon="0.07878">
        <ele>790</ele>
        <time>2021-10-07T11:14:39.000Z</time>
      </trkpt>
      <trkpt lat="43.04119" lon="0.07884">
        <ele>789.79998779297</ele>
        <time>2021-10-07T11:14:42.000Z</time>
      </trkpt>
      <trkpt lat="43.04111" lon="0.079">
        <ele>789.79998779297</ele>
        <time>2021-10-07T11:14:48.000Z</time>
      </trkpt>
      <trkpt lat="43.04102" lon="0.07918">
        <ele>791.40002441406</ele>
        <time>2021-10-07T11:14:54.000Z</time>
      </trkpt>
      <trkpt lat="43.04093" lon="0.07933">
        <ele>792.59997558594</ele>
        <time>2021-10-07T11:14:59.000Z</time>
      </trkpt>
      <trkpt lat="43.04089" lon="0.0794">
        <ele>793.59997558594</ele>
        <time>2021-10-07T11:15:01.000Z</time>
      </trkpt>
      <trkpt lat="43.04087" lon="0.07943">
        <ele>793.79998779297</ele>
        <time>2021-10-07T11:15:02.000Z</time>
      </trkpt>
      <trkpt lat="43.04079" lon="0.07959">
        <ele>795.20001220703</ele>
        <time>2021-10-07T11:15:07.000Z</time>
      </trkpt>
      <trkpt lat="43.04077" lon="0.07962">
        <ele>795.59997558594</ele>
        <time>2021-10-07T11:15:08.000Z</time>
      </trkpt>
      <trkpt lat="43.04068" lon="0.07976">
        <ele>796.40002441406</ele>
        <time>2021-10-07T11:15:12.000Z</time>
      </trkpt>
      <trkpt lat="43.04058" lon="0.07992">
        <ele>797.20001220703</ele>
        <time>2021-10-07T11:15:17.000Z</time>
      </trkpt>
      <trkpt lat="43.04054" lon="0.07999">
        <ele>797.59997558594</ele>
        <time>2021-10-07T11:15:19.000Z</time>
      </trkpt>
      <trkpt lat="43.04046" lon="0.08018">
        <ele>798.59997558594</ele>
        <time>2021-10-07T11:15:24.000Z</time>
      </trkpt>
      <trkpt lat="43.04044" lon="0.08021">
        <ele>798.79998779297</ele>
        <time>2021-10-07T11:15:25.000Z</time>
      </trkpt>
      <trkpt lat="43.04035" lon="0.0804">
        <ele>799.79998779297</ele>
        <time>2021-10-07T11:15:30.000Z</time>
      </trkpt>
      <trkpt lat="43.04029" lon="0.08054">
        <ele>800.20001220703</ele>
        <time>2021-10-07T11:15:34.000Z</time>
      </trkpt>
      <trkpt lat="43.04026" lon="0.08061">
        <ele>800.79998779297</ele>
        <time>2021-10-07T11:15:36.000Z</time>
      </trkpt>
      <trkpt lat="43.0402" lon="0.08075">
        <ele>801.79998779297</ele>
        <time>2021-10-07T11:15:40.000Z</time>
      </trkpt>
      <trkpt lat="43.04016" lon="0.08085">
        <ele>802.79998779297</ele>
        <time>2021-10-07T11:15:43.000Z</time>
      </trkpt>
      <trkpt lat="43.04015" lon="0.08088">
        <ele>802.79998779297</ele>
        <time>2021-10-07T11:15:44.000Z</time>
      </trkpt>
      <trkpt lat="43.04008" lon="0.08104">
        <ele>804.20001220703</ele>
        <time>2021-10-07T11:15:49.000Z</time>
      </trkpt>
      <trkpt lat="43.04005" lon="0.08113">
        <ele>805.40002441406</ele>
        <time>2021-10-07T11:15:52.000Z</time>
      </trkpt>
      <trkpt lat="43.04004" lon="0.08116">
        <ele>805.59997558594</ele>
        <time>2021-10-07T11:15:53.000Z</time>
      </trkpt>
      <trkpt lat="43.04" lon="0.08126">
        <ele>806.40002441406</ele>
        <time>2021-10-07T11:15:56.000Z</time>
      </trkpt>
      <trkpt lat="43.03995" lon="0.08139">
        <ele>807.40002441406</ele>
        <time>2021-10-07T11:16:00.000Z</time>
      </trkpt>
      <trkpt lat="43.03992" lon="0.08147">
        <ele>808</ele>
        <time>2021-10-07T11:16:03.000Z</time>
      </trkpt>
      <trkpt lat="43.03991" lon="0.0815">
        <ele>808.40002441406</ele>
        <time>2021-10-07T11:16:04.000Z</time>
      </trkpt>
      <trkpt lat="43.0399" lon="0.08154">
        <ele>808.59997558594</ele>
        <time>2021-10-07T11:16:05.000Z</time>
      </trkpt>
      <trkpt lat="43.03986" lon="0.08166">
        <ele>809.59997558594</ele>
        <time>2021-10-07T11:16:09.000Z</time>
      </trkpt>
      <trkpt lat="43.03984" lon="0.08173">
        <ele>810.40002441406</ele>
        <time>2021-10-07T11:16:11.000Z</time>
      </trkpt>
      <trkpt lat="43.03982" lon="0.08179">
        <ele>810.79998779297</ele>
        <time>2021-10-07T11:16:13.000Z</time>
      </trkpt>
      <trkpt lat="43.03977" lon="0.08193">
        <ele>812.20001220703</ele>
        <time>2021-10-07T11:16:18.000Z</time>
      </trkpt>
      <trkpt lat="43.03977" lon="0.08196">
        <ele>812.40002441406</ele>
        <time>2021-10-07T11:16:19.000Z</time>
      </trkpt>
      <trkpt lat="43.03974" lon="0.08208">
        <ele>813.20001220703</ele>
        <time>2021-10-07T11:16:23.000Z</time>
      </trkpt>
      <trkpt lat="43.03971" lon="0.08216">
        <ele>814.40002441406</ele>
        <time>2021-10-07T11:16:26.000Z</time>
      </trkpt>
      <trkpt lat="43.03969" lon="0.08222">
        <ele>814.79998779297</ele>
        <time>2021-10-07T11:16:28.000Z</time>
      </trkpt>
      <trkpt lat="43.03968" lon="0.08227">
        <ele>815.79998779297</ele>
        <time>2021-10-07T11:16:30.000Z</time>
      </trkpt>
      <trkpt lat="43.03965" lon="0.08238">
        <ele>817</ele>
        <time>2021-10-07T11:16:34.000Z</time>
      </trkpt>
      <trkpt lat="43.03962" lon="0.08244">
        <ele>817.40002441406</ele>
        <time>2021-10-07T11:16:36.000Z</time>
      </trkpt>
      <trkpt lat="43.0396" lon="0.08249">
        <ele>818</ele>
        <time>2021-10-07T11:16:38.000Z</time>
      </trkpt>
      <trkpt lat="43.03956" lon="0.08263">
        <ele>819.20001220703</ele>
        <time>2021-10-07T11:16:43.000Z</time>
      </trkpt>
      <trkpt lat="43.03954" lon="0.08271">
        <ele>820</ele>
        <time>2021-10-07T11:16:46.000Z</time>
      </trkpt>
      <trkpt lat="43.03953" lon="0.08274">
        <ele>820.20001220703</ele>
        <time>2021-10-07T11:16:47.000Z</time>
      </trkpt>
      <trkpt lat="43.03952" lon="0.08277">
        <ele>820.59997558594</ele>
        <time>2021-10-07T11:16:48.000Z</time>
      </trkpt>
      <trkpt lat="43.0395" lon="0.08287">
        <ele>821.79998779297</ele>
        <time>2021-10-07T11:16:52.000Z</time>
      </trkpt>
      <trkpt lat="43.03947" lon="0.08299">
        <ele>822.59997558594</ele>
        <time>2021-10-07T11:16:56.000Z</time>
      </trkpt>
      <trkpt lat="43.03946" lon="0.08301">
        <ele>822.79998779297</ele>
        <time>2021-10-07T11:16:57.000Z</time>
      </trkpt>
      <trkpt lat="43.03944" lon="0.08312">
        <ele>824</ele>
        <time>2021-10-07T11:17:01.000Z</time>
      </trkpt>
      <trkpt lat="43.03943" lon="0.08316">
        <ele>824.59997558594</ele>
        <time>2021-10-07T11:17:03.000Z</time>
      </trkpt>
      <trkpt lat="43.03941" lon="0.08322">
        <ele>825.20001220703</ele>
        <time>2021-10-07T11:17:05.000Z</time>
      </trkpt>
      <trkpt lat="43.03937" lon="0.08333">
        <ele>826.59997558594</ele>
        <time>2021-10-07T11:17:09.000Z</time>
      </trkpt>
      <trkpt lat="43.03935" lon="0.08339">
        <ele>827.20001220703</ele>
        <time>2021-10-07T11:17:11.000Z</time>
      </trkpt>
      <trkpt lat="43.03934" lon="0.08345">
        <ele>827.59997558594</ele>
        <time>2021-10-07T11:17:13.000Z</time>
      </trkpt>
      <trkpt lat="43.03931" lon="0.08356">
        <ele>828.79998779297</ele>
        <time>2021-10-07T11:17:17.000Z</time>
      </trkpt>
      <trkpt lat="43.03928" lon="0.08365">
        <ele>829.20001220703</ele>
        <time>2021-10-07T11:17:20.000Z</time>
      </trkpt>
      <trkpt lat="43.03924" lon="0.08374">
        <ele>830</ele>
        <time>2021-10-07T11:17:23.000Z</time>
      </trkpt>
      <trkpt lat="43.0392" lon="0.0839">
        <ele>831.20001220703</ele>
        <time>2021-10-07T11:17:28.000Z</time>
      </trkpt>
      <trkpt lat="43.0392" lon="0.08392">
        <ele>831.20001220703</ele>
        <time>2021-10-07T11:17:29.000Z</time>
      </trkpt>
      <trkpt lat="43.03918" lon="0.08399">
        <ele>832.20001220703</ele>
        <time>2021-10-07T11:17:32.000Z</time>
      </trkpt>
      <trkpt lat="43.03914" lon="0.08413">
        <ele>833.40002441406</ele>
        <time>2021-10-07T11:17:37.000Z</time>
      </trkpt>
      <trkpt lat="43.03913" lon="0.08416">
        <ele>833.59997558594</ele>
        <time>2021-10-07T11:17:38.000Z</time>
      </trkpt>
      <trkpt lat="43.03911" lon="0.08425">
        <ele>834.40002441406</ele>
        <time>2021-10-07T11:17:41.000Z</time>
      </trkpt>
      <trkpt lat="43.03908" lon="0.08435">
        <ele>835.40002441406</ele>
        <time>2021-10-07T11:17:44.000Z</time>
      </trkpt>
      <trkpt lat="43.03905" lon="0.08448">
        <ele>836.40002441406</ele>
        <time>2021-10-07T11:17:48.000Z</time>
      </trkpt>
      <trkpt lat="43.03905" lon="0.08451">
        <ele>836.79998779297</ele>
        <time>2021-10-07T11:17:49.000Z</time>
      </trkpt>
      <trkpt lat="43.03902" lon="0.08466">
        <ele>837.79998779297</ele>
        <time>2021-10-07T11:17:54.000Z</time>
      </trkpt>
      <trkpt lat="43.039" lon="0.08476">
        <ele>838.20001220703</ele>
        <time>2021-10-07T11:17:57.000Z</time>
      </trkpt>
      <trkpt lat="43.03898" lon="0.08482">
        <ele>838.79998779297</ele>
        <time>2021-10-07T11:17:59.000Z</time>
      </trkpt>
      <trkpt lat="43.03893" lon="0.08498">
        <ele>839.79998779297</ele>
        <time>2021-10-07T11:18:04.000Z</time>
      </trkpt>
      <trkpt lat="43.03892" lon="0.08501">
        <ele>840.40002441406</ele>
        <time>2021-10-07T11:18:05.000Z</time>
      </trkpt>
      <trkpt lat="43.03889" lon="0.08513">
        <ele>841.40002441406</ele>
        <time>2021-10-07T11:18:09.000Z</time>
      </trkpt>
      <trkpt lat="43.03888" lon="0.08526">
        <ele>842.59997558594</ele>
        <time>2021-10-07T11:18:14.000Z</time>
      </trkpt>
      <trkpt lat="43.03888" lon="0.08528">
        <ele>842.79998779297</ele>
        <time>2021-10-07T11:18:15.000Z</time>
      </trkpt>
      <trkpt lat="43.03886" lon="0.08539">
        <ele>843.79998779297</ele>
        <time>2021-10-07T11:18:19.000Z</time>
      </trkpt>
      <trkpt lat="43.03885" lon="0.08548">
        <ele>845</ele>
        <time>2021-10-07T11:18:22.000Z</time>
      </trkpt>
      <trkpt lat="43.03884" lon="0.08554">
        <ele>845.59997558594</ele>
        <time>2021-10-07T11:18:24.000Z</time>
      </trkpt>
      <trkpt lat="43.03883" lon="0.0856">
        <ele>846</ele>
        <time>2021-10-07T11:18:26.000Z</time>
      </trkpt>
      <trkpt lat="43.03881" lon="0.08574">
        <ele>847</ele>
        <time>2021-10-07T11:18:31.000Z</time>
      </trkpt>
      <trkpt lat="43.03881" lon="0.08577">
        <ele>847.20001220703</ele>
        <time>2021-10-07T11:18:32.000Z</time>
      </trkpt>
      <trkpt lat="43.03879" lon="0.08589">
        <ele>848.20001220703</ele>
        <time>2021-10-07T11:18:36.000Z</time>
      </trkpt>
      <trkpt lat="43.03877" lon="0.08604">
        <ele>849.20001220703</ele>
        <time>2021-10-07T11:18:41.000Z</time>
      </trkpt>
      <trkpt lat="43.03877" lon="0.08606">
        <ele>849.40002441406</ele>
        <time>2021-10-07T11:18:42.000Z</time>
      </trkpt>
      <trkpt lat="43.03875" lon="0.08622">
        <ele>850.59997558594</ele>
        <time>2021-10-07T11:18:47.000Z</time>
      </trkpt>
      <trkpt lat="43.03875" lon="0.08625">
        <ele>851</ele>
        <time>2021-10-07T11:18:48.000Z</time>
      </trkpt>
      <trkpt lat="43.03873" lon="0.08637">
        <ele>851.79998779297</ele>
        <time>2021-10-07T11:18:52.000Z</time>
      </trkpt>
      <trkpt lat="43.03873" lon="0.08653">
        <ele>853.20001220703</ele>
        <time>2021-10-07T11:18:57.000Z</time>
      </trkpt>
      <trkpt lat="43.03872" lon="0.08668">
        <ele>854.40002441406</ele>
        <time>2021-10-07T11:19:02.000Z</time>
      </trkpt>
      <trkpt lat="43.03872" lon="0.0868">
        <ele>855.40002441406</ele>
        <time>2021-10-07T11:19:06.000Z</time>
      </trkpt>
      <trkpt lat="43.03872" lon="0.08683">
        <ele>855.40002441406</ele>
        <time>2021-10-07T11:19:07.000Z</time>
      </trkpt>
      <trkpt lat="43.03872" lon="0.08695">
        <ele>856.40002441406</ele>
        <time>2021-10-07T11:19:11.000Z</time>
      </trkpt>
      <trkpt lat="43.03872" lon="0.08707">
        <ele>857.79998779297</ele>
        <time>2021-10-07T11:19:15.000Z</time>
      </trkpt>
      <trkpt lat="43.03874" lon="0.08721">
        <ele>858.79998779297</ele>
        <time>2021-10-07T11:19:20.000Z</time>
      </trkpt>
      <trkpt lat="43.03876" lon="0.08727">
        <ele>859</ele>
        <time>2021-10-07T11:19:22.000Z</time>
      </trkpt>
      <trkpt lat="43.03883" lon="0.08736">
        <ele>860.20001220703</ele>
        <time>2021-10-07T11:19:27.000Z</time>
      </trkpt>
      <trkpt lat="43.03885" lon="0.08738">
        <ele>860.20001220703</ele>
        <time>2021-10-07T11:19:28.000Z</time>
      </trkpt>
      <trkpt lat="43.03896" lon="0.08744">
        <ele>861.40002441406</ele>
        <time>2021-10-07T11:19:33.000Z</time>
      </trkpt>
      <trkpt lat="43.03899" lon="0.08747">
        <ele>862</ele>
        <time>2021-10-07T11:19:35.000Z</time>
      </trkpt>
      <trkpt lat="43.03902" lon="0.0875">
        <ele>862.59997558594</ele>
        <time>2021-10-07T11:19:37.000Z</time>
      </trkpt>
      <trkpt lat="43.0391" lon="0.08755">
        <ele>863.59997558594</ele>
        <time>2021-10-07T11:19:41.000Z</time>
      </trkpt>
      <trkpt lat="43.03918" lon="0.08761">
        <ele>864.59997558594</ele>
        <time>2021-10-07T11:19:45.000Z</time>
      </trkpt>
      <trkpt lat="43.03923" lon="0.08765">
        <ele>865.40002441406</ele>
        <time>2021-10-07T11:19:48.000Z</time>
      </trkpt>
      <trkpt lat="43.03924" lon="0.08767">
        <ele>865.79998779297</ele>
        <time>2021-10-07T11:19:49.000Z</time>
      </trkpt>
      <trkpt lat="43.03926" lon="0.08768">
        <ele>866</ele>
        <time>2021-10-07T11:19:50.000Z</time>
      </trkpt>
      <trkpt lat="43.03928" lon="0.08772">
        <ele>866.40002441406</ele>
        <time>2021-10-07T11:19:52.000Z</time>
      </trkpt>
      <trkpt lat="43.03929" lon="0.08773">
        <ele>867</ele>
        <time>2021-10-07T11:19:53.000Z</time>
      </trkpt>
      <trkpt lat="43.03934" lon="0.08779">
        <ele>868</ele>
        <time>2021-10-07T11:19:56.000Z</time>
      </trkpt>
      <trkpt lat="43.03936" lon="0.08781">
        <ele>868.20001220703</ele>
        <time>2021-10-07T11:19:57.000Z</time>
      </trkpt>
      <trkpt lat="43.03938" lon="0.08783">
        <ele>868.59997558594</ele>
        <time>2021-10-07T11:19:58.000Z</time>
      </trkpt>
      <trkpt lat="43.03942" lon="0.08786">
        <ele>869.20001220703</ele>
        <time>2021-10-07T11:20:00.000Z</time>
      </trkpt>
      <trkpt lat="43.03951" lon="0.08791">
        <ele>870</ele>
        <time>2021-10-07T11:20:04.000Z</time>
      </trkpt>
      <trkpt lat="43.03953" lon="0.08792">
        <ele>870.20001220703</ele>
        <time>2021-10-07T11:20:05.000Z</time>
      </trkpt>
      <trkpt lat="43.03959" lon="0.08801">
        <ele>871.20001220703</ele>
        <time>2021-10-07T11:20:09.000Z</time>
      </trkpt>
      <trkpt lat="43.03961" lon="0.08804">
        <ele>871.79998779297</ele>
        <time>2021-10-07T11:20:10.000Z</time>
      </trkpt>
      <trkpt lat="43.03963" lon="0.0881">
        <ele>872.40002441406</ele>
        <time>2021-10-07T11:20:12.000Z</time>
      </trkpt>
      <trkpt lat="43.03966" lon="0.0882">
        <ele>873.40002441406</ele>
        <time>2021-10-07T11:20:16.000Z</time>
      </trkpt>
      <trkpt lat="43.03967" lon="0.08822">
        <ele>873.79998779297</ele>
        <time>2021-10-07T11:20:17.000Z</time>
      </trkpt>
      <trkpt lat="43.0397" lon="0.08833">
        <ele>875</ele>
        <time>2021-10-07T11:20:21.000Z</time>
      </trkpt>
      <trkpt lat="43.03972" lon="0.08838">
        <ele>875.40002441406</ele>
        <time>2021-10-07T11:20:23.000Z</time>
      </trkpt>
      <trkpt lat="43.03974" lon="0.08845">
        <ele>876.20001220703</ele>
        <time>2021-10-07T11:20:26.000Z</time>
      </trkpt>
      <trkpt lat="43.03977" lon="0.08854">
        <ele>877.20001220703</ele>
        <time>2021-10-07T11:20:30.000Z</time>
      </trkpt>
      <trkpt lat="43.03981" lon="0.08862">
        <ele>878.20001220703</ele>
        <time>2021-10-07T11:20:34.000Z</time>
      </trkpt>
      <trkpt lat="43.03982" lon="0.08863">
        <ele>878.59997558594</ele>
        <time>2021-10-07T11:20:35.000Z</time>
      </trkpt>
      <trkpt lat="43.03982" lon="0.08865">
        <ele>878.79998779297</ele>
        <time>2021-10-07T11:20:36.000Z</time>
      </trkpt>
      <trkpt lat="43.03982" lon="0.08868">
        <ele>879.40002441406</ele>
        <time>2021-10-07T11:20:38.000Z</time>
      </trkpt>
      <trkpt lat="43.03986" lon="0.08876">
        <ele>880</ele>
        <time>2021-10-07T11:20:41.000Z</time>
      </trkpt>
      <trkpt lat="43.03986" lon="0.08878">
        <ele>880.20001220703</ele>
        <time>2021-10-07T11:20:42.000Z</time>
      </trkpt>
      <trkpt lat="43.03988" lon="0.08881">
        <ele>880.40002441406</ele>
        <time>2021-10-07T11:20:44.000Z</time>
      </trkpt>
      <trkpt lat="43.03989" lon="0.08883">
        <ele>880.79998779297</ele>
        <time>2021-10-07T11:20:45.000Z</time>
      </trkpt>
      <trkpt lat="43.0399" lon="0.08885">
        <ele>880.79998779297</ele>
        <time>2021-10-07T11:20:46.000Z</time>
      </trkpt>
      <trkpt lat="43.03991" lon="0.08886">
        <ele>881.20001220703</ele>
        <time>2021-10-07T11:20:47.000Z</time>
      </trkpt>
      <trkpt lat="43.03991" lon="0.08887">
        <ele>881.20001220703</ele>
        <time>2021-10-07T11:20:48.000Z</time>
      </trkpt>
      <trkpt lat="43.03993" lon="0.08889">
        <ele>881.59997558594</ele>
        <time>2021-10-07T11:20:49.000Z</time>
      </trkpt>
      <trkpt lat="43.03993" lon="0.08891">
        <ele>881.79998779297</ele>
        <time>2021-10-07T11:20:50.000Z</time>
      </trkpt>
      <trkpt lat="43.03993" lon="0.08895">
        <ele>882</ele>
        <time>2021-10-07T11:20:51.000Z</time>
      </trkpt>
      <trkpt lat="43.03994" lon="0.08907">
        <ele>882.79998779297</ele>
        <time>2021-10-07T11:20:54.000Z</time>
      </trkpt>
      <trkpt lat="43.03991" lon="0.08913">
        <ele>883.40002441406</ele>
        <time>2021-10-07T11:20:57.000Z</time>
      </trkpt>
      <trkpt lat="43.03984" lon="0.08927">
        <ele>884</ele>
        <time>2021-10-07T11:21:01.000Z</time>
      </trkpt>
      <trkpt lat="43.03979" lon="0.08937">
        <ele>884.59997558594</ele>
        <time>2021-10-07T11:21:03.000Z</time>
      </trkpt>
      <trkpt lat="43.0397" lon="0.08958">
        <ele>885.20001220703</ele>
        <time>2021-10-07T11:21:08.000Z</time>
      </trkpt>
      <trkpt lat="43.03965" lon="0.08983">
        <ele>885.79998779297</ele>
        <time>2021-10-07T11:21:13.000Z</time>
      </trkpt>
      <trkpt lat="43.03963" lon="0.09004">
        <ele>886.40002441406</ele>
        <time>2021-10-07T11:21:18.000Z</time>
      </trkpt>
      <trkpt lat="43.03958" lon="0.09025">
        <ele>887.59997558594</ele>
        <time>2021-10-07T11:21:24.000Z</time>
      </trkpt>
      <trkpt lat="43.03957" lon="0.09029">
        <ele>887.79998779297</ele>
        <time>2021-10-07T11:21:25.000Z</time>
      </trkpt>
      <trkpt lat="43.03952" lon="0.0904">
        <ele>889</ele>
        <time>2021-10-07T11:21:29.000Z</time>
      </trkpt>
      <trkpt lat="43.03949" lon="0.09044">
        <ele>889.20001220703</ele>
        <time>2021-10-07T11:21:31.000Z</time>
      </trkpt>
      <trkpt lat="43.03945" lon="0.0905">
        <ele>890.40002441406</ele>
        <time>2021-10-07T11:21:34.000Z</time>
      </trkpt>
      <trkpt lat="43.03941" lon="0.09053">
        <ele>891</ele>
        <time>2021-10-07T11:21:36.000Z</time>
      </trkpt>
      <trkpt lat="43.03937" lon="0.09056">
        <ele>891.59997558594</ele>
        <time>2021-10-07T11:21:38.000Z</time>
      </trkpt>
      <trkpt lat="43.03931" lon="0.0906">
        <ele>892.59997558594</ele>
        <time>2021-10-07T11:21:41.000Z</time>
      </trkpt>
      <trkpt lat="43.03926" lon="0.09064">
        <ele>893</ele>
        <time>2021-10-07T11:21:43.000Z</time>
      </trkpt>
      <trkpt lat="43.03922" lon="0.09066">
        <ele>893.79998779297</ele>
        <time>2021-10-07T11:21:45.000Z</time>
      </trkpt>
      <trkpt lat="43.0391" lon="0.0907">
        <ele>895.20001220703</ele>
        <time>2021-10-07T11:21:50.000Z</time>
      </trkpt>
      <trkpt lat="43.03904" lon="0.0907">
        <ele>895.79998779297</ele>
        <time>2021-10-07T11:21:52.000Z</time>
      </trkpt>
      <trkpt lat="43.03898" lon="0.0907">
        <ele>896.40002441406</ele>
        <time>2021-10-07T11:21:54.000Z</time>
      </trkpt>
      <trkpt lat="43.03884" lon="0.09072">
        <ele>897.59997558594</ele>
        <time>2021-10-07T11:22:00.000Z</time>
      </trkpt>
      <trkpt lat="43.03875" lon="0.09076">
        <ele>898.59997558594</ele>
        <time>2021-10-07T11:22:04.000Z</time>
      </trkpt>
      <trkpt lat="43.0387" lon="0.09077">
        <ele>898.79998779297</ele>
        <time>2021-10-07T11:22:06.000Z</time>
      </trkpt>
      <trkpt lat="43.03858" lon="0.09079">
        <ele>899.79998779297</ele>
        <time>2021-10-07T11:22:11.000Z</time>
      </trkpt>
      <trkpt lat="43.03849" lon="0.09078">
        <ele>900.40002441406</ele>
        <time>2021-10-07T11:22:15.000Z</time>
      </trkpt>
      <trkpt lat="43.03847" lon="0.09078">
        <ele>901</ele>
        <time>2021-10-07T11:22:16.000Z</time>
      </trkpt>
      <trkpt lat="43.03838" lon="0.09075">
        <ele>902</ele>
        <time>2021-10-07T11:22:20.000Z</time>
      </trkpt>
      <trkpt lat="43.03833" lon="0.09071">
        <ele>903</ele>
        <time>2021-10-07T11:22:23.000Z</time>
      </trkpt>
      <trkpt lat="43.03831" lon="0.0907">
        <ele>903.20001220703</ele>
        <time>2021-10-07T11:22:24.000Z</time>
      </trkpt>
      <trkpt lat="43.03825" lon="0.09067">
        <ele>904.40002441406</ele>
        <time>2021-10-07T11:22:27.000Z</time>
      </trkpt>
      <trkpt lat="43.03819" lon="0.09064">
        <ele>905.20001220703</ele>
        <time>2021-10-07T11:22:30.000Z</time>
      </trkpt>
      <trkpt lat="43.03816" lon="0.09062">
        <ele>905.40002441406</ele>
        <time>2021-10-07T11:22:32.000Z</time>
      </trkpt>
      <trkpt lat="43.03809" lon="0.09058">
        <ele>906.59997558594</ele>
        <time>2021-10-07T11:22:35.000Z</time>
      </trkpt>
      <trkpt lat="43.03807" lon="0.09057">
        <ele>907</ele>
        <time>2021-10-07T11:22:36.000Z</time>
      </trkpt>
      <trkpt lat="43.03801" lon="0.09054">
        <ele>908</ele>
        <time>2021-10-07T11:22:39.000Z</time>
      </trkpt>
      <trkpt lat="43.03796" lon="0.09051">
        <ele>909</ele>
        <time>2021-10-07T11:22:42.000Z</time>
      </trkpt>
      <trkpt lat="43.03789" lon="0.09049">
        <ele>909.59997558594</ele>
        <time>2021-10-07T11:22:45.000Z</time>
      </trkpt>
      <trkpt lat="43.03785" lon="0.09049">
        <ele>910.20001220703</ele>
        <time>2021-10-07T11:22:47.000Z</time>
      </trkpt>
      <trkpt lat="43.03774" lon="0.0905">
        <ele>911.40002441406</ele>
        <time>2021-10-07T11:22:52.000Z</time>
      </trkpt>
      <trkpt lat="43.03772" lon="0.09051">
        <ele>911.40002441406</ele>
        <time>2021-10-07T11:22:53.000Z</time>
      </trkpt>
      <trkpt lat="43.03766" lon="0.09053">
        <ele>912.40002441406</ele>
        <time>2021-10-07T11:22:56.000Z</time>
      </trkpt>
      <trkpt lat="43.03757" lon="0.09055">
        <ele>913.59997558594</ele>
        <time>2021-10-07T11:23:01.000Z</time>
      </trkpt>
      <trkpt lat="43.03756" lon="0.09056">
        <ele>914</ele>
        <time>2021-10-07T11:23:02.000Z</time>
      </trkpt>
      <trkpt lat="43.03753" lon="0.09056">
        <ele>914.59997558594</ele>
        <time>2021-10-07T11:23:04.000Z</time>
      </trkpt>
      <trkpt lat="43.03748" lon="0.09057">
        <ele>915.59997558594</ele>
        <time>2021-10-07T11:23:07.000Z</time>
      </trkpt>
      <trkpt lat="43.03745" lon="0.09057">
        <ele>916.20001220703</ele>
        <time>2021-10-07T11:23:09.000Z</time>
      </trkpt>
      <trkpt lat="43.03743" lon="0.09057">
        <ele>916.79998779297</ele>
        <time>2021-10-07T11:23:11.000Z</time>
      </trkpt>
      <trkpt lat="43.03736" lon="0.09058">
        <ele>917.79998779297</ele>
        <time>2021-10-07T11:23:15.000Z</time>
      </trkpt>
      <trkpt lat="43.0373" lon="0.09059">
        <ele>918.59997558594</ele>
        <time>2021-10-07T11:23:18.000Z</time>
      </trkpt>
      <trkpt lat="43.03727" lon="0.0906">
        <ele>918.79998779297</ele>
        <time>2021-10-07T11:23:19.000Z</time>
      </trkpt>
      <trkpt lat="43.03714" lon="0.09061">
        <ele>920</ele>
        <time>2021-10-07T11:23:25.000Z</time>
      </trkpt>
      <trkpt lat="43.03709" lon="0.09061">
        <ele>920.59997558594</ele>
        <time>2021-10-07T11:23:27.000Z</time>
      </trkpt>
      <trkpt lat="43.03707" lon="0.09062">
        <ele>921.20001220703</ele>
        <time>2021-10-07T11:23:29.000Z</time>
      </trkpt>
      <trkpt lat="43.03703" lon="0.09063">
        <ele>922</ele>
        <time>2021-10-07T11:23:31.000Z</time>
      </trkpt>
      <trkpt lat="43.037" lon="0.09063">
        <ele>922.40002441406</ele>
        <time>2021-10-07T11:23:33.000Z</time>
      </trkpt>
      <trkpt lat="43.03698" lon="0.09063">
        <ele>922.40002441406</ele>
        <time>2021-10-07T11:23:34.000Z</time>
      </trkpt>
      <trkpt lat="43.0369" lon="0.09061">
        <ele>923.59997558594</ele>
        <time>2021-10-07T11:23:38.000Z</time>
      </trkpt>
      <trkpt lat="43.03683" lon="0.09059">
        <ele>924.40002441406</ele>
        <time>2021-10-07T11:23:41.000Z</time>
      </trkpt>
      <trkpt lat="43.03672" lon="0.09057">
        <ele>925.59997558594</ele>
        <time>2021-10-07T11:23:46.000Z</time>
      </trkpt>
      <trkpt lat="43.03665" lon="0.09055">
        <ele>926.40002441406</ele>
        <time>2021-10-07T11:23:49.000Z</time>
      </trkpt>
      <trkpt lat="43.03659" lon="0.09055">
        <ele>926.59997558594</ele>
        <time>2021-10-07T11:23:51.000Z</time>
      </trkpt>
      <trkpt lat="43.03648" lon="0.09051">
        <ele>928.20001220703</ele>
        <time>2021-10-07T11:23:56.000Z</time>
      </trkpt>
      <trkpt lat="43.03647" lon="0.09051">
        <ele>928.20001220703</ele>
        <time>2021-10-07T11:23:57.000Z</time>
      </trkpt>
      <trkpt lat="43.03638" lon="0.09048">
        <ele>929</ele>
        <time>2021-10-07T11:24:01.000Z</time>
      </trkpt>
      <trkpt lat="43.03633" lon="0.09047">
        <ele>929.59997558594</ele>
        <time>2021-10-07T11:24:03.000Z</time>
      </trkpt>
      <trkpt lat="43.03628" lon="0.09047">
        <ele>930.20001220703</ele>
        <time>2021-10-07T11:24:05.000Z</time>
      </trkpt>
      <trkpt lat="43.03622" lon="0.09047">
        <ele>931.40002441406</ele>
        <time>2021-10-07T11:24:08.000Z</time>
      </trkpt>
      <trkpt lat="43.03618" lon="0.09049">
        <ele>931.79998779297</ele>
        <time>2021-10-07T11:24:10.000Z</time>
      </trkpt>
      <trkpt lat="43.03608" lon="0.09055">
        <ele>932.40002441406</ele>
        <time>2021-10-07T11:24:14.000Z</time>
      </trkpt>
      <trkpt lat="43.03597" lon="0.09061">
        <ele>933.59997558594</ele>
        <time>2021-10-07T11:24:19.000Z</time>
      </trkpt>
      <trkpt lat="43.0359" lon="0.09066">
        <ele>934.40002441406</ele>
        <time>2021-10-07T11:24:23.000Z</time>
      </trkpt>
      <trkpt lat="43.03587" lon="0.09068">
        <ele>935</ele>
        <time>2021-10-07T11:24:25.000Z</time>
      </trkpt>
      <trkpt lat="43.03583" lon="0.09071">
        <ele>936.20001220703</ele>
        <time>2021-10-07T11:24:27.000Z</time>
      </trkpt>
      <trkpt lat="43.03579" lon="0.09074">
        <ele>936.79998779297</ele>
        <time>2021-10-07T11:24:29.000Z</time>
      </trkpt>
      <trkpt lat="43.03575" lon="0.09078">
        <ele>937.20001220703</ele>
        <time>2021-10-07T11:24:32.000Z</time>
      </trkpt>
      <trkpt lat="43.03568" lon="0.09083">
        <ele>938.59997558594</ele>
        <time>2021-10-07T11:24:36.000Z</time>
      </trkpt>
      <trkpt lat="43.03564" lon="0.09085">
        <ele>939.20001220703</ele>
        <time>2021-10-07T11:24:38.000Z</time>
      </trkpt>
      <trkpt lat="43.03559" lon="0.09089">
        <ele>939.79998779297</ele>
        <time>2021-10-07T11:24:41.000Z</time>
      </trkpt>
      <trkpt lat="43.03552" lon="0.09092">
        <ele>940.79998779297</ele>
        <time>2021-10-07T11:24:45.000Z</time>
      </trkpt>
      <trkpt lat="43.0355" lon="0.09093">
        <ele>941</ele>
        <time>2021-10-07T11:24:46.000Z</time>
      </trkpt>
      <trkpt lat="43.03546" lon="0.09095">
        <ele>941.79998779297</ele>
        <time>2021-10-07T11:24:48.000Z</time>
      </trkpt>
      <trkpt lat="43.03541" lon="0.09102">
        <ele>942.79998779297</ele>
        <time>2021-10-07T11:24:52.000Z</time>
      </trkpt>
      <trkpt lat="43.0354" lon="0.09104">
        <ele>943</ele>
        <time>2021-10-07T11:24:53.000Z</time>
      </trkpt>
      <trkpt lat="43.0354" lon="0.09107">
        <ele>943.20001220703</ele>
        <time>2021-10-07T11:24:54.000Z</time>
      </trkpt>
      <trkpt lat="43.03539" lon="0.09115">
        <ele>944</ele>
        <time>2021-10-07T11:24:57.000Z</time>
      </trkpt>
      <trkpt lat="43.03539" lon="0.09119">
        <ele>944.40002441406</ele>
        <time>2021-10-07T11:24:58.000Z</time>
      </trkpt>
      <trkpt lat="43.03539" lon="0.09131">
        <ele>945.40002441406</ele>
        <time>2021-10-07T11:25:02.000Z</time>
      </trkpt>
      <trkpt lat="43.0354" lon="0.09138">
        <ele>946</ele>
        <time>2021-10-07T11:25:04.000Z</time>
      </trkpt>
      <trkpt lat="43.03541" lon="0.09141">
        <ele>946</ele>
        <time>2021-10-07T11:25:05.000Z</time>
      </trkpt>
      <trkpt lat="43.03544" lon="0.09147">
        <ele>946.59997558594</ele>
        <time>2021-10-07T11:25:07.000Z</time>
      </trkpt>
      <trkpt lat="43.03551" lon="0.09161">
        <ele>947.59997558594</ele>
        <time>2021-10-07T11:25:11.000Z</time>
      </trkpt>
      <trkpt lat="43.03553" lon="0.09164">
        <ele>947.59997558594</ele>
        <time>2021-10-07T11:25:12.000Z</time>
      </trkpt>
      <trkpt lat="43.03563" lon="0.09186">
        <ele>948.20001220703</ele>
        <time>2021-10-07T11:25:18.000Z</time>
      </trkpt>
      <trkpt lat="43.03567" lon="0.09195">
        <ele>948.20001220703</ele>
        <time>2021-10-07T11:25:20.000Z</time>
      </trkpt>
      <trkpt lat="43.03572" lon="0.09205">
        <ele>948.59997558594</ele>
        <time>2021-10-07T11:25:23.000Z</time>
      </trkpt>
      <trkpt lat="43.03574" lon="0.0921">
        <ele>948.79998779297</ele>
        <time>2021-10-07T11:25:24.000Z</time>
      </trkpt>
      <trkpt lat="43.03584" lon="0.09238">
        <ele>949.40002441406</ele>
        <time>2021-10-07T11:25:30.000Z</time>
      </trkpt>
      <trkpt lat="43.03593" lon="0.09263">
        <ele>949.79998779297</ele>
        <time>2021-10-07T11:25:35.000Z</time>
      </trkpt>
      <trkpt lat="43.03597" lon="0.09273">
        <ele>949.79998779297</ele>
        <time>2021-10-07T11:25:37.000Z</time>
      </trkpt>
      <trkpt lat="43.03605" lon="0.09299">
        <ele>950</ele>
        <time>2021-10-07T11:25:42.000Z</time>
      </trkpt>
      <trkpt lat="43.03617" lon="0.09336">
        <ele>950.20001220703</ele>
        <time>2021-10-07T11:25:49.000Z</time>
      </trkpt>
      <trkpt lat="43.03629" lon="0.09372">
        <ele>951</ele>
        <time>2021-10-07T11:25:56.000Z</time>
      </trkpt>
      <trkpt lat="43.03634" lon="0.09381">
        <ele>951.59997558594</ele>
        <time>2021-10-07T11:25:58.000Z</time>
      </trkpt>
      <trkpt lat="43.03654" lon="0.0941">
        <ele>952.20001220703</ele>
        <time>2021-10-07T11:26:05.000Z</time>
      </trkpt>
      <trkpt lat="43.03673" lon="0.09435">
        <ele>953.20001220703</ele>
        <time>2021-10-07T11:26:11.000Z</time>
      </trkpt>
      <trkpt lat="43.03695" lon="0.09459">
        <ele>954.40002441406</ele>
        <time>2021-10-07T11:26:18.000Z</time>
      </trkpt>
      <trkpt lat="43.03698" lon="0.09462">
        <ele>954.59997558594</ele>
        <time>2021-10-07T11:26:19.000Z</time>
      </trkpt>
      <trkpt lat="43.03715" lon="0.09476">
        <ele>955.40002441406</ele>
        <time>2021-10-07T11:26:24.000Z</time>
      </trkpt>
      <trkpt lat="43.03728" lon="0.09487">
        <ele>956</ele>
        <time>2021-10-07T11:26:28.000Z</time>
      </trkpt>
      <trkpt lat="43.03734" lon="0.09492">
        <ele>956.59997558594</ele>
        <time>2021-10-07T11:26:30.000Z</time>
      </trkpt>
      <trkpt lat="43.0375" lon="0.09509">
        <ele>957.40002441406</ele>
        <time>2021-10-07T11:26:36.000Z</time>
      </trkpt>
      <trkpt lat="43.03752" lon="0.09512">
        <ele>957.79998779297</ele>
        <time>2021-10-07T11:26:37.000Z</time>
      </trkpt>
      <trkpt lat="43.03759" lon="0.09522">
        <ele>958.79998779297</ele>
        <time>2021-10-07T11:26:40.000Z</time>
      </trkpt>
      <trkpt lat="43.03768" lon="0.09532">
        <ele>959.59997558594</ele>
        <time>2021-10-07T11:26:44.000Z</time>
      </trkpt>
      <trkpt lat="43.0377" lon="0.09534">
        <ele>960</ele>
        <time>2021-10-07T11:26:45.000Z</time>
      </trkpt>
      <trkpt lat="43.03779" lon="0.0954">
        <ele>961</ele>
        <time>2021-10-07T11:26:49.000Z</time>
      </trkpt>
      <trkpt lat="43.03781" lon="0.09541">
        <ele>961.20001220703</ele>
        <time>2021-10-07T11:26:50.000Z</time>
      </trkpt>
      <trkpt lat="43.03791" lon="0.09544">
        <ele>962.40002441406</ele>
        <time>2021-10-07T11:26:54.000Z</time>
      </trkpt>
      <trkpt lat="43.03799" lon="0.09545">
        <ele>962.59997558594</ele>
        <time>2021-10-07T11:26:57.000Z</time>
      </trkpt>
      <trkpt lat="43.03805" lon="0.09546">
        <ele>963.59997558594</ele>
        <time>2021-10-07T11:26:59.000Z</time>
      </trkpt>
      <trkpt lat="43.03812" lon="0.09549">
        <ele>964.40002441406</ele>
        <time>2021-10-07T11:27:02.000Z</time>
      </trkpt>
      <trkpt lat="43.03815" lon="0.09551">
        <ele>964.79998779297</ele>
        <time>2021-10-07T11:27:05.000Z</time>
      </trkpt>
      <trkpt lat="43.03817" lon="0.09555">
        <ele>965.40002441406</ele>
        <time>2021-10-07T11:27:07.000Z</time>
      </trkpt>
      <trkpt lat="43.03821" lon="0.09561">
        <ele>966.20001220703</ele>
        <time>2021-10-07T11:27:10.000Z</time>
      </trkpt>
      <trkpt lat="43.03824" lon="0.09567">
        <ele>966.79998779297</ele>
        <time>2021-10-07T11:27:12.000Z</time>
      </trkpt>
      <trkpt lat="43.03827" lon="0.09574">
        <ele>968.40002441406</ele>
        <time>2021-10-07T11:27:15.000Z</time>
      </trkpt>
      <trkpt lat="43.03828" lon="0.09576">
        <ele>968.59997558594</ele>
        <time>2021-10-07T11:27:16.000Z</time>
      </trkpt>
      <trkpt lat="43.0383" lon="0.09585">
        <ele>969.79998779297</ele>
        <time>2021-10-07T11:27:19.000Z</time>
      </trkpt>
      <trkpt lat="43.03831" lon="0.09595">
        <ele>970.79998779297</ele>
        <time>2021-10-07T11:27:23.000Z</time>
      </trkpt>
      <trkpt lat="43.03831" lon="0.09597">
        <ele>971.20001220703</ele>
        <time>2021-10-07T11:27:24.000Z</time>
      </trkpt>
      <trkpt lat="43.03831" lon="0.09604">
        <ele>971.79998779297</ele>
        <time>2021-10-07T11:27:27.000Z</time>
      </trkpt>
      <trkpt lat="43.03832" lon="0.09613">
        <ele>973</ele>
        <time>2021-10-07T11:27:31.000Z</time>
      </trkpt>
      <trkpt lat="43.03833" lon="0.09618">
        <ele>973.59997558594</ele>
        <time>2021-10-07T11:27:33.000Z</time>
      </trkpt>
      <trkpt lat="43.03833" lon="0.0962">
        <ele>974.20001220703</ele>
        <time>2021-10-07T11:27:34.000Z</time>
      </trkpt>
      <trkpt lat="43.03833" lon="0.09625">
        <ele>974.79998779297</ele>
        <time>2021-10-07T11:27:36.000Z</time>
      </trkpt>
      <trkpt lat="43.03833" lon="0.09627">
        <ele>975</ele>
        <time>2021-10-07T11:27:37.000Z</time>
      </trkpt>
      <trkpt lat="43.03832" lon="0.0963">
        <ele>975.20001220703</ele>
        <time>2021-10-07T11:27:38.000Z</time>
      </trkpt>
      <trkpt lat="43.03832" lon="0.09636">
        <ele>975.79998779297</ele>
        <time>2021-10-07T11:27:40.000Z</time>
      </trkpt>
      <trkpt lat="43.03832" lon="0.09638">
        <ele>976</ele>
        <time>2021-10-07T11:27:41.000Z</time>
      </trkpt>
      <trkpt lat="43.03831" lon="0.09644">
        <ele>976.40002441406</ele>
        <time>2021-10-07T11:27:43.000Z</time>
      </trkpt>
      <trkpt lat="43.03831" lon="0.09649">
        <ele>977</ele>
        <time>2021-10-07T11:27:45.000Z</time>
      </trkpt>
      <trkpt lat="43.03831" lon="0.09651">
        <ele>977.20001220703</ele>
        <time>2021-10-07T11:27:46.000Z</time>
      </trkpt>
      <trkpt lat="43.0383" lon="0.09654">
        <ele>977.79998779297</ele>
        <time>2021-10-07T11:27:47.000Z</time>
      </trkpt>
      <trkpt lat="43.0383" lon="0.09668">
        <ele>979</ele>
        <time>2021-10-07T11:27:52.000Z</time>
      </trkpt>
      <trkpt lat="43.03829" lon="0.09675">
        <ele>979.40002441406</ele>
        <time>2021-10-07T11:27:54.000Z</time>
      </trkpt>
      <trkpt lat="43.0383" lon="0.09688">
        <ele>980</ele>
        <time>2021-10-07T11:27:58.000Z</time>
      </trkpt>
      <trkpt lat="43.03831" lon="0.09698">
        <ele>981.20001220703</ele>
        <time>2021-10-07T11:28:02.000Z</time>
      </trkpt>
      <trkpt lat="43.03831" lon="0.09704">
        <ele>982</ele>
        <time>2021-10-07T11:28:04.000Z</time>
      </trkpt>
      <trkpt lat="43.0383" lon="0.09707">
        <ele>982.59997558594</ele>
        <time>2021-10-07T11:28:06.000Z</time>
      </trkpt>
      <trkpt lat="43.03829" lon="0.09717">
        <ele>983.59997558594</ele>
        <time>2021-10-07T11:28:10.000Z</time>
      </trkpt>
      <trkpt lat="43.03829" lon="0.09719">
        <ele>984</ele>
        <time>2021-10-07T11:28:11.000Z</time>
      </trkpt>
      <trkpt lat="43.03829" lon="0.09721">
        <ele>984.20001220703</ele>
        <time>2021-10-07T11:28:12.000Z</time>
      </trkpt>
      <trkpt lat="43.03831" lon="0.09726">
        <ele>984.79998779297</ele>
        <time>2021-10-07T11:28:14.000Z</time>
      </trkpt>
      <trkpt lat="43.03831" lon="0.09731">
        <ele>985.20001220703</ele>
        <time>2021-10-07T11:28:16.000Z</time>
      </trkpt>
      <trkpt lat="43.03832" lon="0.09736">
        <ele>985.59997558594</ele>
        <time>2021-10-07T11:28:18.000Z</time>
      </trkpt>
      <trkpt lat="43.03831" lon="0.09752">
        <ele>986.79998779297</ele>
        <time>2021-10-07T11:28:23.000Z</time>
      </trkpt>
      <trkpt lat="43.03831" lon="0.09758">
        <ele>987.20001220703</ele>
        <time>2021-10-07T11:28:25.000Z</time>
      </trkpt>
      <trkpt lat="43.03832" lon="0.0977">
        <ele>987.79998779297</ele>
        <time>2021-10-07T11:28:29.000Z</time>
      </trkpt>
      <trkpt lat="43.03833" lon="0.09781">
        <ele>988.79998779297</ele>
        <time>2021-10-07T11:28:33.000Z</time>
      </trkpt>
      <trkpt lat="43.03834" lon="0.09785">
        <ele>989</ele>
        <time>2021-10-07T11:28:34.000Z</time>
      </trkpt>
      <trkpt lat="43.03834" lon="0.09799">
        <ele>990.40002441406</ele>
        <time>2021-10-07T11:28:39.000Z</time>
      </trkpt>
      <trkpt lat="43.03835" lon="0.09802">
        <ele>990.40002441406</ele>
        <time>2021-10-07T11:28:40.000Z</time>
      </trkpt>
      <trkpt lat="43.03836" lon="0.09813">
        <ele>991.59997558594</ele>
        <time>2021-10-07T11:28:44.000Z</time>
      </trkpt>
      <trkpt lat="43.03835" lon="0.0982">
        <ele>992.40002441406</ele>
        <time>2021-10-07T11:28:47.000Z</time>
      </trkpt>
      <trkpt lat="43.03835" lon="0.09823">
        <ele>992.59997558594</ele>
        <time>2021-10-07T11:28:48.000Z</time>
      </trkpt>
      <trkpt lat="43.03834" lon="0.09837">
        <ele>993.79998779297</ele>
        <time>2021-10-07T11:28:53.000Z</time>
      </trkpt>
      <trkpt lat="43.03835" lon="0.09842">
        <ele>994.20001220703</ele>
        <time>2021-10-07T11:28:55.000Z</time>
      </trkpt>
      <trkpt lat="43.03836" lon="0.0985">
        <ele>995.20001220703</ele>
        <time>2021-10-07T11:28:58.000Z</time>
      </trkpt>
      <trkpt lat="43.03836" lon="0.09864">
        <ele>996.20001220703</ele>
        <time>2021-10-07T11:29:03.000Z</time>
      </trkpt>
      <trkpt lat="43.03836" lon="0.09866">
        <ele>996.40002441406</ele>
        <time>2021-10-07T11:29:04.000Z</time>
      </trkpt>
      <trkpt lat="43.03837" lon="0.09876">
        <ele>997.40002441406</ele>
        <time>2021-10-07T11:29:08.000Z</time>
      </trkpt>
      <trkpt lat="43.03837" lon="0.09887">
        <ele>998.59997558594</ele>
        <time>2021-10-07T11:29:12.000Z</time>
      </trkpt>
      <trkpt lat="43.03837" lon="0.0989">
        <ele>998.59997558594</ele>
        <time>2021-10-07T11:29:13.000Z</time>
      </trkpt>
      <trkpt lat="43.03838" lon="0.099">
        <ele>999.59997558594</ele>
        <time>2021-10-07T11:29:17.000Z</time>
      </trkpt>
      <trkpt lat="43.03839" lon="0.09911">
        <ele>1000.799987793</ele>
        <time>2021-10-07T11:29:21.000Z</time>
      </trkpt>
      <trkpt lat="43.0384" lon="0.09921">
        <ele>1002</ele>
        <time>2021-10-07T11:29:25.000Z</time>
      </trkpt>
      <trkpt lat="43.03841" lon="0.09935">
        <ele>1003.200012207</ele>
        <time>2021-10-07T11:29:30.000Z</time>
      </trkpt>
      <trkpt lat="43.03841" lon="0.09937">
        <ele>1003.200012207</ele>
        <time>2021-10-07T11:29:31.000Z</time>
      </trkpt>
      <trkpt lat="43.03841" lon="0.09948">
        <ele>1004.200012207</ele>
        <time>2021-10-07T11:29:35.000Z</time>
      </trkpt>
      <trkpt lat="43.03842" lon="0.09959">
        <ele>1005.200012207</ele>
        <time>2021-10-07T11:29:39.000Z</time>
      </trkpt>
      <trkpt lat="43.03842" lon="0.09964">
        <ele>1005.5999755859</ele>
        <time>2021-10-07T11:29:41.000Z</time>
      </trkpt>
      <trkpt lat="43.03842" lon="0.09972">
        <ele>1006.4000244141</ele>
        <time>2021-10-07T11:29:44.000Z</time>
      </trkpt>
      <trkpt lat="43.03842" lon="0.0998">
        <ele>1007.4000244141</ele>
        <time>2021-10-07T11:29:47.000Z</time>
      </trkpt>
      <trkpt lat="43.03843" lon="0.09988">
        <ele>1008.200012207</ele>
        <time>2021-10-07T11:29:50.000Z</time>
      </trkpt>
      <trkpt lat="43.03843" lon="0.09991">
        <ele>1008.4000244141</ele>
        <time>2021-10-07T11:29:51.000Z</time>
      </trkpt>
      <trkpt lat="43.03844" lon="0.10004">
        <ele>1009.5999755859</ele>
        <time>2021-10-07T11:29:56.000Z</time>
      </trkpt>
      <trkpt lat="43.03844" lon="0.10012">
        <ele>1010</ele>
        <time>2021-10-07T11:29:59.000Z</time>
      </trkpt>
      <trkpt lat="43.03845" lon="0.10017">
        <ele>1010.799987793</ele>
        <time>2021-10-07T11:30:01.000Z</time>
      </trkpt>
      <trkpt lat="43.03846" lon="0.10027">
        <ele>1012</ele>
        <time>2021-10-07T11:30:05.000Z</time>
      </trkpt>
      <trkpt lat="43.03846" lon="0.10035">
        <ele>1013</ele>
        <time>2021-10-07T11:30:08.000Z</time>
      </trkpt>
      <trkpt lat="43.03846" lon="0.10051">
        <ele>1014.4000244141</ele>
        <time>2021-10-07T11:30:14.000Z</time>
      </trkpt>
      <trkpt lat="43.03846" lon="0.10059">
        <ele>1015.4000244141</ele>
        <time>2021-10-07T11:30:17.000Z</time>
      </trkpt>
      <trkpt lat="43.03846" lon="0.10062">
        <ele>1015.799987793</ele>
        <time>2021-10-07T11:30:18.000Z</time>
      </trkpt>
      <trkpt lat="43.03846" lon="0.1007">
        <ele>1016.799987793</ele>
        <time>2021-10-07T11:30:21.000Z</time>
      </trkpt>
      <trkpt lat="43.03845" lon="0.10083">
        <ele>1018</ele>
        <time>2021-10-07T11:30:26.000Z</time>
      </trkpt>
      <trkpt lat="43.03845" lon="0.10088">
        <ele>1018.5999755859</ele>
        <time>2021-10-07T11:30:28.000Z</time>
      </trkpt>
      <trkpt lat="43.03845" lon="0.10091">
        <ele>1019</ele>
        <time>2021-10-07T11:30:29.000Z</time>
      </trkpt>
      <trkpt lat="43.03845" lon="0.10093">
        <ele>1019.200012207</ele>
        <time>2021-10-07T11:30:30.000Z</time>
      </trkpt>
      <trkpt lat="43.03844" lon="0.10107">
        <ele>1020.200012207</ele>
        <time>2021-10-07T11:30:35.000Z</time>
      </trkpt>
      <trkpt lat="43.03843" lon="0.10115">
        <ele>1021.5999755859</ele>
        <time>2021-10-07T11:30:38.000Z</time>
      </trkpt>
      <trkpt lat="43.03842" lon="0.10126">
        <ele>1022.799987793</ele>
        <time>2021-10-07T11:30:42.000Z</time>
      </trkpt>
      <trkpt lat="43.03841" lon="0.10139">
        <ele>1023.799987793</ele>
        <time>2021-10-07T11:30:47.000Z</time>
      </trkpt>
      <trkpt lat="43.0384" lon="0.1015">
        <ele>1024.8000488281</ele>
        <time>2021-10-07T11:30:51.000Z</time>
      </trkpt>
      <trkpt lat="43.03839" lon="0.10152">
        <ele>1025.1999511719</ele>
        <time>2021-10-07T11:30:52.000Z</time>
      </trkpt>
      <trkpt lat="43.03839" lon="0.10163">
        <ele>1026.1999511719</ele>
        <time>2021-10-07T11:30:56.000Z</time>
      </trkpt>
      <trkpt lat="43.03839" lon="0.1017">
        <ele>1027.4000244141</ele>
        <time>2021-10-07T11:30:59.000Z</time>
      </trkpt>
      <trkpt lat="43.03837" lon="0.10175">
        <ele>1027.8000488281</ele>
        <time>2021-10-07T11:31:01.000Z</time>
      </trkpt>
      <trkpt lat="43.03836" lon="0.10185">
        <ele>1028.5999755859</ele>
        <time>2021-10-07T11:31:05.000Z</time>
      </trkpt>
      <trkpt lat="43.03835" lon="0.10195">
        <ele>1029.8000488281</ele>
        <time>2021-10-07T11:31:09.000Z</time>
      </trkpt>
      <trkpt lat="43.03834" lon="0.10205">
        <ele>1031.1999511719</ele>
        <time>2021-10-07T11:31:13.000Z</time>
      </trkpt>
      <trkpt lat="43.03833" lon="0.10218">
        <ele>1032.4000244141</ele>
        <time>2021-10-07T11:31:18.000Z</time>
      </trkpt>
      <trkpt lat="43.03832" lon="0.10234">
        <ele>1033.8000488281</ele>
        <time>2021-10-07T11:31:24.000Z</time>
      </trkpt>
      <trkpt lat="43.0383" lon="0.10242">
        <ele>1034.8000488281</ele>
        <time>2021-10-07T11:31:27.000Z</time>
      </trkpt>
      <trkpt lat="43.0383" lon="0.10244">
        <ele>1035</ele>
        <time>2021-10-07T11:31:28.000Z</time>
      </trkpt>
      <trkpt lat="43.03829" lon="0.10247">
        <ele>1035.4000244141</ele>
        <time>2021-10-07T11:31:29.000Z</time>
      </trkpt>
      <trkpt lat="43.03828" lon="0.10252">
        <ele>1035.8000488281</ele>
        <time>2021-10-07T11:31:31.000Z</time>
      </trkpt>
      <trkpt lat="43.03827" lon="0.10263">
        <ele>1037</ele>
        <time>2021-10-07T11:31:35.000Z</time>
      </trkpt>
      <trkpt lat="43.03825" lon="0.10268">
        <ele>1037.4000244141</ele>
        <time>2021-10-07T11:31:37.000Z</time>
      </trkpt>
      <trkpt lat="43.03824" lon="0.10274">
        <ele>1038.1999511719</ele>
        <time>2021-10-07T11:31:39.000Z</time>
      </trkpt>
      <trkpt lat="43.0382" lon="0.10288">
        <ele>1039.4000244141</ele>
        <time>2021-10-07T11:31:44.000Z</time>
      </trkpt>
      <trkpt lat="43.03819" lon="0.10291">
        <ele>1039.4000244141</ele>
        <time>2021-10-07T11:31:45.000Z</time>
      </trkpt>
      <trkpt lat="43.03814" lon="0.10305">
        <ele>1040.5999755859</ele>
        <time>2021-10-07T11:31:50.000Z</time>
      </trkpt>
      <trkpt lat="43.03811" lon="0.10312">
        <ele>1041</ele>
        <time>2021-10-07T11:31:52.000Z</time>
      </trkpt>
      <trkpt lat="43.03806" lon="0.10324">
        <ele>1041.5999755859</ele>
        <time>2021-10-07T11:31:56.000Z</time>
      </trkpt>
      <trkpt lat="43.03802" lon="0.1033">
        <ele>1042</ele>
        <time>2021-10-07T11:31:58.000Z</time>
      </trkpt>
      <trkpt lat="43.03789" lon="0.10348">
        <ele>1042.5999755859</ele>
        <time>2021-10-07T11:32:04.000Z</time>
      </trkpt>
      <trkpt lat="43.03785" lon="0.10354">
        <ele>1043</ele>
        <time>2021-10-07T11:32:06.000Z</time>
      </trkpt>
      <trkpt lat="43.0378" lon="0.10363">
        <ele>1044</ele>
        <time>2021-10-07T11:32:09.000Z</time>
      </trkpt>
      <trkpt lat="43.03772" lon="0.10375">
        <ele>1045.1999511719</ele>
        <time>2021-10-07T11:32:13.000Z</time>
      </trkpt>
      <trkpt lat="43.03766" lon="0.10388">
        <ele>1046.1999511719</ele>
        <time>2021-10-07T11:32:17.000Z</time>
      </trkpt>
      <trkpt lat="43.03764" lon="0.10392">
        <ele>1046.4000244141</ele>
        <time>2021-10-07T11:32:18.000Z</time>
      </trkpt>
      <trkpt lat="43.03755" lon="0.10417">
        <ele>1047</ele>
        <time>2021-10-07T11:32:24.000Z</time>
      </trkpt>
      <trkpt lat="43.03752" lon="0.10424">
        <ele>1047.4000244141</ele>
        <time>2021-10-07T11:32:26.000Z</time>
      </trkpt>
      <trkpt lat="43.03747" lon="0.10444">
        <ele>1048.4000244141</ele>
        <time>2021-10-07T11:32:31.000Z</time>
      </trkpt>
      <trkpt lat="43.03744" lon="0.10452">
        <ele>1048.5999755859</ele>
        <time>2021-10-07T11:32:33.000Z</time>
      </trkpt>
      <trkpt lat="43.03738" lon="0.10477">
        <ele>1049.4000244141</ele>
        <time>2021-10-07T11:32:39.000Z</time>
      </trkpt>
      <trkpt lat="43.03736" lon="0.10483">
        <ele>1049.5999755859</ele>
        <time>2021-10-07T11:32:41.000Z</time>
      </trkpt>
      <trkpt lat="43.03732" lon="0.10509">
        <ele>1050.4000244141</ele>
        <time>2021-10-07T11:32:47.000Z</time>
      </trkpt>
      <trkpt lat="43.03725" lon="0.10537">
        <ele>1050.5999755859</ele>
        <time>2021-10-07T11:32:53.000Z</time>
      </trkpt>
      <trkpt lat="43.03724" lon="0.10542">
        <ele>1050.8000488281</ele>
        <time>2021-10-07T11:32:54.000Z</time>
      </trkpt>
      <trkpt lat="43.03716" lon="0.10583">
        <ele>1051.5999755859</ele>
        <time>2021-10-07T11:33:02.000Z</time>
      </trkpt>
      <trkpt lat="43.03712" lon="0.10598">
        <ele>1052.1999511719</ele>
        <time>2021-10-07T11:33:05.000Z</time>
      </trkpt>
      <trkpt lat="43.03705" lon="0.10623">
        <ele>1052.8000488281</ele>
        <time>2021-10-07T11:33:10.000Z</time>
      </trkpt>
      <trkpt lat="43.03696" lon="0.10643">
        <ele>1052.8000488281</ele>
        <time>2021-10-07T11:33:14.000Z</time>
      </trkpt>
      <trkpt lat="43.03682" lon="0.10662">
        <ele>1053.4000244141</ele>
        <time>2021-10-07T11:33:20.000Z</time>
      </trkpt>
      <trkpt lat="43.03676" lon="0.10668">
        <ele>1053.8000488281</ele>
        <time>2021-10-07T11:33:25.000Z</time>
      </trkpt>
      <trkpt lat="43.03676" lon="0.10668">
        <ele>1054</ele>
        <time>2021-10-07T11:33:26.000Z</time>
      </trkpt>
      <trkpt lat="43.03669" lon="0.1067">
        <ele>1053.5999755859</ele>
        <time>2021-10-07T11:34:52.000Z</time>
      </trkpt>
      <trkpt lat="43.03652" lon="0.10675">
        <ele>1053.5999755859</ele>
        <time>2021-10-07T11:34:57.000Z</time>
      </trkpt>
      <trkpt lat="43.03635" lon="0.10691">
        <ele>1053.8000488281</ele>
        <time>2021-10-07T11:35:02.000Z</time>
      </trkpt>
      <trkpt lat="43.03632" lon="0.10695">
        <ele>1054</ele>
        <time>2021-10-07T11:35:03.000Z</time>
      </trkpt>
      <trkpt lat="43.03627" lon="0.10705">
        <ele>1054.1999511719</ele>
        <time>2021-10-07T11:35:05.000Z</time>
      </trkpt>
      <trkpt lat="43.03624" lon="0.10717">
        <ele>1054.4000244141</ele>
        <time>2021-10-07T11:35:07.000Z</time>
      </trkpt>
      <trkpt lat="43.0362" lon="0.10741">
        <ele>1054.4000244141</ele>
        <time>2021-10-07T11:35:11.000Z</time>
      </trkpt>
      <trkpt lat="43.03616" lon="0.10753">
        <ele>1054.4000244141</ele>
        <time>2021-10-07T11:35:13.000Z</time>
      </trkpt>
      <trkpt lat="43.03595" lon="0.10801">
        <ele>1055</ele>
        <time>2021-10-07T11:35:22.000Z</time>
      </trkpt>
      <trkpt lat="43.03592" lon="0.10811">
        <ele>1055.1999511719</ele>
        <time>2021-10-07T11:35:24.000Z</time>
      </trkpt>
      <trkpt lat="43.03577" lon="0.10848">
        <ele>1056</ele>
        <time>2021-10-07T11:35:31.000Z</time>
      </trkpt>
      <trkpt lat="43.03565" lon="0.10895">
        <ele>1056</ele>
        <time>2021-10-07T11:35:38.000Z</time>
      </trkpt>
      <trkpt lat="43.03559" lon="0.10946">
        <ele>1055.4000244141</ele>
        <time>2021-10-07T11:35:44.000Z</time>
      </trkpt>
      <trkpt lat="43.03557" lon="0.10977">
        <ele>1054.1999511719</ele>
        <time>2021-10-07T11:35:48.000Z</time>
      </trkpt>
      <trkpt lat="43.03556" lon="0.10983">
        <ele>1053.8000488281</ele>
        <time>2021-10-07T11:35:49.000Z</time>
      </trkpt>
      <trkpt lat="43.03555" lon="0.10986">
        <ele>1053.5999755859</ele>
        <time>2021-10-07T11:35:50.000Z</time>
      </trkpt>
      <trkpt lat="43.03555" lon="0.10987">
        <ele>1052.5999755859</ele>
        <time>2021-10-07T11:35:52.000Z</time>
      </trkpt>
      <trkpt lat="43.03555" lon="0.10987">
        <ele>1052.5999755859</ele>
        <time>2021-10-07T11:35:53.000Z</time>
      </trkpt>
      <trkpt lat="43.03555" lon="0.10987">
        <ele>1051.5999755859</ele>
        <time>2021-10-07T11:35:58.000Z</time>
      </trkpt>
      <trkpt lat="43.03555" lon="0.10987">
        <ele>1050.5999755859</ele>
        <time>2021-10-07T11:36:23.000Z</time>
      </trkpt>
      <trkpt lat="43.03555" lon="0.10995">
        <ele>1050.4000244141</ele>
        <time>2021-10-07T11:36:37.000Z</time>
      </trkpt>
      <trkpt lat="43.03552" lon="0.1102">
        <ele>1050.1999511719</ele>
        <time>2021-10-07T11:36:42.000Z</time>
      </trkpt>
      <trkpt lat="43.0354" lon="0.1105">
        <ele>1049.5999755859</ele>
        <time>2021-10-07T11:36:48.000Z</time>
      </trkpt>
      <trkpt lat="43.03534" lon="0.1107">
        <ele>1048.8000488281</ele>
        <time>2021-10-07T11:36:52.000Z</time>
      </trkpt>
      <trkpt lat="43.03533" lon="0.11078">
        <ele>1048.4000244141</ele>
        <time>2021-10-07T11:36:54.000Z</time>
      </trkpt>
      <trkpt lat="43.03532" lon="0.11083">
        <ele>1047.5999755859</ele>
        <time>2021-10-07T11:36:58.000Z</time>
      </trkpt>
      <trkpt lat="43.03532" lon="0.11083">
        <ele>1047.5999755859</ele>
        <time>2021-10-07T11:36:59.000Z</time>
      </trkpt>
      <trkpt lat="43.03532" lon="0.11083">
        <ele>1046.5999755859</ele>
        <time>2021-10-07T11:37:14.000Z</time>
      </trkpt>
      <trkpt lat="43.03532" lon="0.11083">
        <ele>1046.8000488281</ele>
        <time>2021-10-07T11:37:49.000Z</time>
      </trkpt>
      <trkpt lat="43.03535" lon="0.11091">
        <ele>1046.4000244141</ele>
        <time>2021-10-07T11:38:33.000Z</time>
      </trkpt>
      <trkpt lat="43.03547" lon="0.11107">
        <ele>1046</ele>
        <time>2021-10-07T11:38:37.000Z</time>
      </trkpt>
      <trkpt lat="43.03558" lon="0.11129">
        <ele>1045.4000244141</ele>
        <time>2021-10-07T11:38:40.000Z</time>
      </trkpt>
      <trkpt lat="43.03563" lon="0.11135">
        <ele>1045.1999511719</ele>
        <time>2021-10-07T11:38:41.000Z</time>
      </trkpt>
      <trkpt lat="43.03567" lon="0.11138">
        <ele>1044.8000488281</ele>
        <time>2021-10-07T11:38:42.000Z</time>
      </trkpt>
      <trkpt lat="43.03577" lon="0.11144">
        <ele>1044.4000244141</ele>
        <time>2021-10-07T11:38:44.000Z</time>
      </trkpt>
      <trkpt lat="43.03582" lon="0.11149">
        <ele>1044.4000244141</ele>
        <time>2021-10-07T11:38:45.000Z</time>
      </trkpt>
      <trkpt lat="43.03593" lon="0.11161">
        <ele>1044</ele>
        <time>2021-10-07T11:38:48.000Z</time>
      </trkpt>
      <trkpt lat="43.03597" lon="0.11164">
        <ele>1043.8000488281</ele>
        <time>2021-10-07T11:38:49.000Z</time>
      </trkpt>
      <trkpt lat="43.03605" lon="0.1117">
        <ele>1043.8000488281</ele>
        <time>2021-10-07T11:38:51.000Z</time>
      </trkpt>
      <trkpt lat="43.03623" lon="0.11181">
        <ele>1044</ele>
        <time>2021-10-07T11:38:55.000Z</time>
      </trkpt>
      <trkpt lat="43.03633" lon="0.11184">
        <ele>1044.1999511719</ele>
        <time>2021-10-07T11:38:57.000Z</time>
      </trkpt>
      <trkpt lat="43.03672" lon="0.1119">
        <ele>1045.1999511719</ele>
        <time>2021-10-07T11:39:05.000Z</time>
      </trkpt>
      <trkpt lat="43.03678" lon="0.11191">
        <ele>1045.1999511719</ele>
        <time>2021-10-07T11:39:06.000Z</time>
      </trkpt>
      <trkpt lat="43.03686" lon="0.11193">
        <ele>1045.5999755859</ele>
        <time>2021-10-07T11:39:08.000Z</time>
      </trkpt>
      <trkpt lat="43.03691" lon="0.11195">
        <ele>1045.8000488281</ele>
        <time>2021-10-07T11:39:09.000Z</time>
      </trkpt>
      <trkpt lat="43.03701" lon="0.11199">
        <ele>1046</ele>
        <time>2021-10-07T11:39:11.000Z</time>
      </trkpt>
      <trkpt lat="43.03718" lon="0.11213">
        <ele>1046.4000244141</ele>
        <time>2021-10-07T11:39:15.000Z</time>
      </trkpt>
      <trkpt lat="43.03729" lon="0.11225">
        <ele>1046.5999755859</ele>
        <time>2021-10-07T11:39:18.000Z</time>
      </trkpt>
      <trkpt lat="43.03733" lon="0.1123">
        <ele>1046.5999755859</ele>
        <time>2021-10-07T11:39:19.000Z</time>
      </trkpt>
      <trkpt lat="43.03748" lon="0.1125">
        <ele>1046.8000488281</ele>
        <time>2021-10-07T11:39:23.000Z</time>
      </trkpt>
      <trkpt lat="43.03754" lon="0.11264">
        <ele>1046.8000488281</ele>
        <time>2021-10-07T11:39:25.000Z</time>
      </trkpt>
      <trkpt lat="43.03756" lon="0.1127">
        <ele>1046.8000488281</ele>
        <time>2021-10-07T11:39:26.000Z</time>
      </trkpt>
      <trkpt lat="43.03759" lon="0.11285">
        <ele>1046.8000488281</ele>
        <time>2021-10-07T11:39:28.000Z</time>
      </trkpt>
      <trkpt lat="43.0376" lon="0.11295">
        <ele>1046.5999755859</ele>
        <time>2021-10-07T11:39:29.000Z</time>
      </trkpt>
      <trkpt lat="43.03763" lon="0.11329">
        <ele>1045.8000488281</ele>
        <time>2021-10-07T11:39:33.000Z</time>
      </trkpt>
      <trkpt lat="43.03766" lon="0.11339">
        <ele>1045.1999511719</ele>
        <time>2021-10-07T11:39:34.000Z</time>
      </trkpt>
      <trkpt lat="43.03769" lon="0.11348">
        <ele>1044.8000488281</ele>
        <time>2021-10-07T11:39:35.000Z</time>
      </trkpt>
      <trkpt lat="43.03773" lon="0.11358">
        <ele>1044.1999511719</ele>
        <time>2021-10-07T11:39:36.000Z</time>
      </trkpt>
      <trkpt lat="43.0378" lon="0.11374">
        <ele>1043.5999755859</ele>
        <time>2021-10-07T11:39:38.000Z</time>
      </trkpt>
      <trkpt lat="43.03787" lon="0.11383">
        <ele>1043</ele>
        <time>2021-10-07T11:39:39.000Z</time>
      </trkpt>
      <trkpt lat="43.03792" lon="0.11391">
        <ele>1042.5999755859</ele>
        <time>2021-10-07T11:39:40.000Z</time>
      </trkpt>
      <trkpt lat="43.03801" lon="0.11402">
        <ele>1042</ele>
        <time>2021-10-07T11:39:42.000Z</time>
      </trkpt>
      <trkpt lat="43.03807" lon="0.11406">
        <ele>1041.5999755859</ele>
        <time>2021-10-07T11:39:43.000Z</time>
      </trkpt>
      <trkpt lat="43.03813" lon="0.11408">
        <ele>1041</ele>
        <time>2021-10-07T11:39:44.000Z</time>
      </trkpt>
      <trkpt lat="43.03819" lon="0.11408">
        <ele>1040.5999755859</ele>
        <time>2021-10-07T11:39:45.000Z</time>
      </trkpt>
      <trkpt lat="43.03831" lon="0.11403">
        <ele>1039.4000244141</ele>
        <time>2021-10-07T11:39:47.000Z</time>
      </trkpt>
      <trkpt lat="43.03839" lon="0.11398">
        <ele>1038.4000244141</ele>
        <time>2021-10-07T11:39:48.000Z</time>
      </trkpt>
      <trkpt lat="43.03845" lon="0.11393">
        <ele>1038.1999511719</ele>
        <time>2021-10-07T11:39:49.000Z</time>
      </trkpt>
      <trkpt lat="43.03859" lon="0.11385">
        <ele>1036.4000244141</ele>
        <time>2021-10-07T11:39:51.000Z</time>
      </trkpt>
      <trkpt lat="43.03867" lon="0.1138">
        <ele>1036.1999511719</ele>
        <time>2021-10-07T11:39:52.000Z</time>
      </trkpt>
      <trkpt lat="43.03877" lon="0.11375">
        <ele>1035.1999511719</ele>
        <time>2021-10-07T11:39:53.000Z</time>
      </trkpt>
      <trkpt lat="43.03893" lon="0.11368">
        <ele>1034</ele>
        <time>2021-10-07T11:39:55.000Z</time>
      </trkpt>
      <trkpt lat="43.03903" lon="0.11364">
        <ele>1033.4000244141</ele>
        <time>2021-10-07T11:39:56.000Z</time>
      </trkpt>
      <trkpt lat="43.03915" lon="0.11361">
        <ele>1032.1999511719</ele>
        <time>2021-10-07T11:39:57.000Z</time>
      </trkpt>
      <trkpt lat="43.03924" lon="0.11358">
        <ele>1030.8000488281</ele>
        <time>2021-10-07T11:39:58.000Z</time>
      </trkpt>
      <trkpt lat="43.03942" lon="0.11352">
        <ele>1029.4000244141</ele>
        <time>2021-10-07T11:40:00.000Z</time>
      </trkpt>
      <trkpt lat="43.03961" lon="0.11348">
        <ele>1027.8000488281</ele>
        <time>2021-10-07T11:40:02.000Z</time>
      </trkpt>
      <trkpt lat="43.03977" lon="0.11345">
        <ele>1026.5999755859</ele>
        <time>2021-10-07T11:40:04.000Z</time>
      </trkpt>
      <trkpt lat="43.0399" lon="0.11345">
        <ele>1025.4000244141</ele>
        <time>2021-10-07T11:40:06.000Z</time>
      </trkpt>
      <trkpt lat="43.04002" lon="0.11354">
        <ele>1024.5999755859</ele>
        <time>2021-10-07T11:40:08.000Z</time>
      </trkpt>
      <trkpt lat="43.04005" lon="0.11359">
        <ele>1023.799987793</ele>
        <time>2021-10-07T11:40:09.000Z</time>
      </trkpt>
      <trkpt lat="43.04008" lon="0.11368">
        <ele>1023.4000244141</ele>
        <time>2021-10-07T11:40:10.000Z</time>
      </trkpt>
      <trkpt lat="43.04011" lon="0.11388">
        <ele>1022.4000244141</ele>
        <time>2021-10-07T11:40:12.000Z</time>
      </trkpt>
      <trkpt lat="43.04011" lon="0.11408">
        <ele>1021</ele>
        <time>2021-10-07T11:40:14.000Z</time>
      </trkpt>
      <trkpt lat="43.04011" lon="0.11429">
        <ele>1020.4000244141</ele>
        <time>2021-10-07T11:40:16.000Z</time>
      </trkpt>
      <trkpt lat="43.0401" lon="0.11441">
        <ele>1020</ele>
        <time>2021-10-07T11:40:17.000Z</time>
      </trkpt>
      <trkpt lat="43.04009" lon="0.11452">
        <ele>1019.5999755859</ele>
        <time>2021-10-07T11:40:18.000Z</time>
      </trkpt>
      <trkpt lat="43.04007" lon="0.11461">
        <ele>1019</ele>
        <time>2021-10-07T11:40:19.000Z</time>
      </trkpt>
      <trkpt lat="43.04005" lon="0.1148">
        <ele>1018.4000244141</ele>
        <time>2021-10-07T11:40:21.000Z</time>
      </trkpt>
      <trkpt lat="43.04006" lon="0.11487">
        <ele>1018.200012207</ele>
        <time>2021-10-07T11:40:22.000Z</time>
      </trkpt>
      <trkpt lat="43.04009" lon="0.11491">
        <ele>1017.5999755859</ele>
        <time>2021-10-07T11:40:23.000Z</time>
      </trkpt>
      <trkpt lat="43.04012" lon="0.11492">
        <ele>1016.799987793</ele>
        <time>2021-10-07T11:40:24.000Z</time>
      </trkpt>
      <trkpt lat="43.04017" lon="0.1149">
        <ele>1016.4000244141</ele>
        <time>2021-10-07T11:40:25.000Z</time>
      </trkpt>
      <trkpt lat="43.04026" lon="0.1148">
        <ele>1016.200012207</ele>
        <time>2021-10-07T11:40:26.000Z</time>
      </trkpt>
      <trkpt lat="43.04029" lon="0.11477">
        <ele>1015.5999755859</ele>
        <time>2021-10-07T11:40:28.000Z</time>
      </trkpt>
      <trkpt lat="43.04039" lon="0.11468">
        <ele>1015.4000244141</ele>
        <time>2021-10-07T11:40:30.000Z</time>
      </trkpt>
      <trkpt lat="43.04058" lon="0.1146">
        <ele>1014.799987793</ele>
        <time>2021-10-07T11:40:33.000Z</time>
      </trkpt>
      <trkpt lat="43.04065" lon="0.11459">
        <ele>1014.799987793</ele>
        <time>2021-10-07T11:40:34.000Z</time>
      </trkpt>
      <trkpt lat="43.04083" lon="0.11458">
        <ele>1014.5999755859</ele>
        <time>2021-10-07T11:40:35.000Z</time>
      </trkpt>
      <trkpt lat="43.04083" lon="0.11458">
        <ele>1014.4000244141</ele>
        <time>2021-10-07T11:40:36.000Z</time>
      </trkpt>
      <trkpt lat="43.04095" lon="0.11461">
        <ele>1014.200012207</ele>
        <time>2021-10-07T11:40:37.000Z</time>
      </trkpt>
      <trkpt lat="43.04095" lon="0.11461">
        <ele>1013.799987793</ele>
        <time>2021-10-07T11:40:38.000Z</time>
      </trkpt>
      <trkpt lat="43.04101" lon="0.11464">
        <ele>1013.200012207</ele>
        <time>2021-10-07T11:40:39.000Z</time>
      </trkpt>
      <trkpt lat="43.04107" lon="0.11469">
        <ele>1012.5999755859</ele>
        <time>2021-10-07T11:40:40.000Z</time>
      </trkpt>
      <trkpt lat="43.04119" lon="0.1148">
        <ele>1012.200012207</ele>
        <time>2021-10-07T11:40:41.000Z</time>
      </trkpt>
      <trkpt lat="43.04119" lon="0.1148">
        <ele>1012</ele>
        <time>2021-10-07T11:40:42.000Z</time>
      </trkpt>
      <trkpt lat="43.04135" lon="0.11497">
        <ele>1011</ele>
        <time>2021-10-07T11:40:44.000Z</time>
      </trkpt>
      <trkpt lat="43.04141" lon="0.11504">
        <ele>1010.4000244141</ele>
        <time>2021-10-07T11:40:45.000Z</time>
      </trkpt>
      <trkpt lat="43.04151" lon="0.11518">
        <ele>1009.4000244141</ele>
        <time>2021-10-07T11:40:47.000Z</time>
      </trkpt>
      <trkpt lat="43.04157" lon="0.11526">
        <ele>1007.799987793</ele>
        <time>2021-10-07T11:40:49.000Z</time>
      </trkpt>
      <trkpt lat="43.04168" lon="0.11541">
        <ele>1007.200012207</ele>
        <time>2021-10-07T11:40:50.000Z</time>
      </trkpt>
      <trkpt lat="43.04175" lon="0.11548">
        <ele>1006.4000244141</ele>
        <time>2021-10-07T11:40:52.000Z</time>
      </trkpt>
      <trkpt lat="43.04182" lon="0.11555">
        <ele>1006.200012207</ele>
        <time>2021-10-07T11:40:53.000Z</time>
      </trkpt>
      <trkpt lat="43.04204" lon="0.11577">
        <ele>1005.4000244141</ele>
        <time>2021-10-07T11:40:55.000Z</time>
      </trkpt>
      <trkpt lat="43.04219" lon="0.11592">
        <ele>1003.5999755859</ele>
        <time>2021-10-07T11:40:57.000Z</time>
      </trkpt>
      <trkpt lat="43.04235" lon="0.11607">
        <ele>1002.4000244141</ele>
        <time>2021-10-07T11:40:59.000Z</time>
      </trkpt>
      <trkpt lat="43.04243" lon="0.11614">
        <ele>1001</ele>
        <time>2021-10-07T11:41:01.000Z</time>
      </trkpt>
      <trkpt lat="43.04267" lon="0.11639">
        <ele>999.79998779297</ele>
        <time>2021-10-07T11:41:03.000Z</time>
      </trkpt>
      <trkpt lat="43.04282" lon="0.11658">
        <ele>998.79998779297</ele>
        <time>2021-10-07T11:41:05.000Z</time>
      </trkpt>
      <trkpt lat="43.04288" lon="0.11666">
        <ele>997.59997558594</ele>
        <time>2021-10-07T11:41:06.000Z</time>
      </trkpt>
      <trkpt lat="43.04298" lon="0.11684">
        <ele>996.79998779297</ele>
        <time>2021-10-07T11:41:08.000Z</time>
      </trkpt>
      <trkpt lat="43.04298" lon="0.11684">
        <ele>996.40002441406</ele>
        <time>2021-10-07T11:41:09.000Z</time>
      </trkpt>
      <trkpt lat="43.0431" lon="0.11713">
        <ele>995</ele>
        <time>2021-10-07T11:41:11.000Z</time>
      </trkpt>
      <trkpt lat="43.04313" lon="0.11721">
        <ele>994.40002441406</ele>
        <time>2021-10-07T11:41:12.000Z</time>
      </trkpt>
      <trkpt lat="43.04313" lon="0.11721">
        <ele>993.40002441406</ele>
        <time>2021-10-07T11:41:13.000Z</time>
      </trkpt>
      <trkpt lat="43.0432" lon="0.11744">
        <ele>992.79998779297</ele>
        <time>2021-10-07T11:41:14.000Z</time>
      </trkpt>
      <trkpt lat="43.04324" lon="0.11755">
        <ele>992.20001220703</ele>
        <time>2021-10-07T11:41:15.000Z</time>
      </trkpt>
      <trkpt lat="43.04329" lon="0.11774">
        <ele>991.40002441406</ele>
        <time>2021-10-07T11:41:18.000Z</time>
      </trkpt>
      <trkpt lat="43.04338" lon="0.1181">
        <ele>991</ele>
        <time>2021-10-07T11:41:20.000Z</time>
      </trkpt>
      <trkpt lat="43.04347" lon="0.11848">
        <ele>989.59997558594</ele>
        <time>2021-10-07T11:41:23.000Z</time>
      </trkpt>
      <trkpt lat="43.0435" lon="0.11857">
        <ele>987.79998779297</ele>
        <time>2021-10-07T11:41:25.000Z</time>
      </trkpt>
      <trkpt lat="43.04357" lon="0.11882">
        <ele>987.40002441406</ele>
        <time>2021-10-07T11:41:26.000Z</time>
      </trkpt>
      <trkpt lat="43.04359" lon="0.11891">
        <ele>986.40002441406</ele>
        <time>2021-10-07T11:41:27.000Z</time>
      </trkpt>
      <trkpt lat="43.04363" lon="0.11902">
        <ele>985.79998779297</ele>
        <time>2021-10-07T11:41:29.000Z</time>
      </trkpt>
      <trkpt lat="43.04368" lon="0.11913">
        <ele>985</ele>
        <time>2021-10-07T11:41:30.000Z</time>
      </trkpt>
      <trkpt lat="43.04385" lon="0.11946">
        <ele>983</ele>
        <time>2021-10-07T11:41:32.000Z</time>
      </trkpt>
      <trkpt lat="43.04385" lon="0.11946">
        <ele>982.40002441406</ele>
        <time>2021-10-07T11:41:33.000Z</time>
      </trkpt>
      <trkpt lat="43.04396" lon="0.11961">
        <ele>980.79998779297</ele>
        <time>2021-10-07T11:41:34.000Z</time>
      </trkpt>
      <trkpt lat="43.04401" lon="0.11966">
        <ele>979.40002441406</ele>
        <time>2021-10-07T11:41:36.000Z</time>
      </trkpt>
      <trkpt lat="43.04412" lon="0.11971">
        <ele>979</ele>
        <time>2021-10-07T11:41:37.000Z</time>
      </trkpt>
      <trkpt lat="43.04418" lon="0.1197">
        <ele>979</ele>
        <time>2021-10-07T11:41:38.000Z</time>
      </trkpt>
      <trkpt lat="43.04424" lon="0.11966">
        <ele>978.59997558594</ele>
        <time>2021-10-07T11:41:40.000Z</time>
      </trkpt>
      <trkpt lat="43.04429" lon="0.1196">
        <ele>978.40002441406</ele>
        <time>2021-10-07T11:41:41.000Z</time>
      </trkpt>
      <trkpt lat="43.04438" lon="0.11949">
        <ele>977.59997558594</ele>
        <time>2021-10-07T11:41:42.000Z</time>
      </trkpt>
      <trkpt lat="43.04444" lon="0.1194">
        <ele>976.40002441406</ele>
        <time>2021-10-07T11:41:43.000Z</time>
      </trkpt>
      <trkpt lat="43.04456" lon="0.11928">
        <ele>975</ele>
        <time>2021-10-07T11:41:45.000Z</time>
      </trkpt>
      <trkpt lat="43.04463" lon="0.11921">
        <ele>974.20001220703</ele>
        <time>2021-10-07T11:41:46.000Z</time>
      </trkpt>
      <trkpt lat="43.0447" lon="0.11914">
        <ele>973.79998779297</ele>
        <time>2021-10-07T11:41:47.000Z</time>
      </trkpt>
      <trkpt lat="43.04496" lon="0.11894">
        <ele>972.40002441406</ele>
        <time>2021-10-07T11:41:50.000Z</time>
      </trkpt>
      <trkpt lat="43.04505" lon="0.11887">
        <ele>971.79998779297</ele>
        <time>2021-10-07T11:41:51.000Z</time>
      </trkpt>
      <trkpt lat="43.04519" lon="0.11873">
        <ele>971</ele>
        <time>2021-10-07T11:41:53.000Z</time>
      </trkpt>
      <trkpt lat="43.04536" lon="0.11855">
        <ele>970</ele>
        <time>2021-10-07T11:41:55.000Z</time>
      </trkpt>
      <trkpt lat="43.04536" lon="0.11855">
        <ele>969.59997558594</ele>
        <time>2021-10-07T11:41:56.000Z</time>
      </trkpt>
      <trkpt lat="43.0455" lon="0.11835">
        <ele>969</ele>
        <time>2021-10-07T11:41:57.000Z</time>
      </trkpt>
      <trkpt lat="43.04554" lon="0.11826">
        <ele>968.40002441406</ele>
        <time>2021-10-07T11:41:58.000Z</time>
      </trkpt>
      <trkpt lat="43.04559" lon="0.11812">
        <ele>968.20001220703</ele>
        <time>2021-10-07T11:41:59.000Z</time>
      </trkpt>
      <trkpt lat="43.04563" lon="0.118">
        <ele>966.79998779297</ele>
        <time>2021-10-07T11:42:01.000Z</time>
      </trkpt>
      <trkpt lat="43.04569" lon="0.11778">
        <ele>965.79998779297</ele>
        <time>2021-10-07T11:42:02.000Z</time>
      </trkpt>
      <trkpt lat="43.04576" lon="0.11765">
        <ele>965.20001220703</ele>
        <time>2021-10-07T11:42:03.000Z</time>
      </trkpt>
      <trkpt lat="43.04584" lon="0.11757">
        <ele>964.40002441406</ele>
        <time>2021-10-07T11:42:04.000Z</time>
      </trkpt>
      <trkpt lat="43.04584" lon="0.11757">
        <ele>963.59997558594</ele>
        <time>2021-10-07T11:42:05.000Z</time>
      </trkpt>
      <trkpt lat="43.04601" lon="0.11745">
        <ele>963</ele>
        <time>2021-10-07T11:42:06.000Z</time>
      </trkpt>
      <trkpt lat="43.04608" lon="0.11741">
        <ele>962.20001220703</ele>
        <time>2021-10-07T11:42:07.000Z</time>
      </trkpt>
      <trkpt lat="43.04617" lon="0.11738">
        <ele>961.79998779297</ele>
        <time>2021-10-07T11:42:08.000Z</time>
      </trkpt>
      <trkpt lat="43.04636" lon="0.11735">
        <ele>960.79998779297</ele>
        <time>2021-10-07T11:42:10.000Z</time>
      </trkpt>
      <trkpt lat="43.04643" lon="0.11736">
        <ele>959.79998779297</ele>
        <time>2021-10-07T11:42:11.000Z</time>
      </trkpt>
      <trkpt lat="43.04652" lon="0.11738">
        <ele>958.59997558594</ele>
        <time>2021-10-07T11:42:12.000Z</time>
      </trkpt>
      <trkpt lat="43.0467" lon="0.11743">
        <ele>957.59997558594</ele>
        <time>2021-10-07T11:42:14.000Z</time>
      </trkpt>
      <trkpt lat="43.0468" lon="0.11745">
        <ele>957.20001220703</ele>
        <time>2021-10-07T11:42:15.000Z</time>
      </trkpt>
      <trkpt lat="43.047" lon="0.11748">
        <ele>956.20001220703</ele>
        <time>2021-10-07T11:42:17.000Z</time>
      </trkpt>
      <trkpt lat="43.04709" lon="0.11747">
        <ele>954.79998779297</ele>
        <time>2021-10-07T11:42:19.000Z</time>
      </trkpt>
      <trkpt lat="43.04744" lon="0.11736">
        <ele>953.20001220703</ele>
        <time>2021-10-07T11:42:22.000Z</time>
      </trkpt>
      <trkpt lat="43.04752" lon="0.11732">
        <ele>952.59997558594</ele>
        <time>2021-10-07T11:42:23.000Z</time>
      </trkpt>
      <trkpt lat="43.04752" lon="0.11732">
        <ele>951.79998779297</ele>
        <time>2021-10-07T11:42:24.000Z</time>
      </trkpt>
      <trkpt lat="43.04772" lon="0.11725">
        <ele>951</ele>
        <time>2021-10-07T11:42:26.000Z</time>
      </trkpt>
      <trkpt lat="43.04779" lon="0.11726">
        <ele>951</ele>
        <time>2021-10-07T11:42:27.000Z</time>
      </trkpt>
      <trkpt lat="43.04785" lon="0.1173">
        <ele>950.20001220703</ele>
        <time>2021-10-07T11:42:28.000Z</time>
      </trkpt>
      <trkpt lat="43.04785" lon="0.1173">
        <ele>949.79998779297</ele>
        <time>2021-10-07T11:42:29.000Z</time>
      </trkpt>
      <trkpt lat="43.0479" lon="0.11738">
        <ele>949</ele>
        <time>2021-10-07T11:42:30.000Z</time>
      </trkpt>
      <trkpt lat="43.04804" lon="0.11764">
        <ele>948.40002441406</ele>
        <time>2021-10-07T11:42:32.000Z</time>
      </trkpt>
      <trkpt lat="43.04812" lon="0.11783">
        <ele>948</ele>
        <time>2021-10-07T11:42:34.000Z</time>
      </trkpt>
      <trkpt lat="43.04822" lon="0.11802">
        <ele>947</ele>
        <time>2021-10-07T11:42:36.000Z</time>
      </trkpt>
      <trkpt lat="43.04826" lon="0.11812">
        <ele>945.79998779297</ele>
        <time>2021-10-07T11:42:37.000Z</time>
      </trkpt>
      <trkpt lat="43.04836" lon="0.11829">
        <ele>944.79998779297</ele>
        <time>2021-10-07T11:42:39.000Z</time>
      </trkpt>
      <trkpt lat="43.0484" lon="0.11848">
        <ele>944.20001220703</ele>
        <time>2021-10-07T11:42:41.000Z</time>
      </trkpt>
      <trkpt lat="43.04841" lon="0.11858">
        <ele>943.59997558594</ele>
        <time>2021-10-07T11:42:42.000Z</time>
      </trkpt>
      <trkpt lat="43.04841" lon="0.11876">
        <ele>943</ele>
        <time>2021-10-07T11:42:44.000Z</time>
      </trkpt>
      <trkpt lat="43.04841" lon="0.11876">
        <ele>942.40002441406</ele>
        <time>2021-10-07T11:42:45.000Z</time>
      </trkpt>
      <trkpt lat="43.04833" lon="0.11893">
        <ele>942.20001220703</ele>
        <time>2021-10-07T11:42:46.000Z</time>
      </trkpt>
      <trkpt lat="43.04829" lon="0.11901">
        <ele>942</ele>
        <time>2021-10-07T11:42:47.000Z</time>
      </trkpt>
      <trkpt lat="43.04818" lon="0.11919">
        <ele>941</ele>
        <time>2021-10-07T11:42:49.000Z</time>
      </trkpt>
      <trkpt lat="43.04808" lon="0.11943">
        <ele>940.40002441406</ele>
        <time>2021-10-07T11:42:51.000Z</time>
      </trkpt>
      <trkpt lat="43.04805" lon="0.11954">
        <ele>939.40002441406</ele>
        <time>2021-10-07T11:42:52.000Z</time>
      </trkpt>
      <trkpt lat="43.04797" lon="0.11975">
        <ele>937.79998779297</ele>
        <time>2021-10-07T11:42:54.000Z</time>
      </trkpt>
      <trkpt lat="43.04791" lon="0.12004">
        <ele>936.20001220703</ele>
        <time>2021-10-07T11:42:56.000Z</time>
      </trkpt>
      <trkpt lat="43.04785" lon="0.12031">
        <ele>934.79998779297</ele>
        <time>2021-10-07T11:42:58.000Z</time>
      </trkpt>
      <trkpt lat="43.04783" lon="0.12041">
        <ele>934</ele>
        <time>2021-10-07T11:42:59.000Z</time>
      </trkpt>
      <trkpt lat="43.04783" lon="0.12041">
        <ele>933.40002441406</ele>
        <time>2021-10-07T11:43:00.000Z</time>
      </trkpt>
      <trkpt lat="43.04777" lon="0.12065">
        <ele>932.20001220703</ele>
        <time>2021-10-07T11:43:01.000Z</time>
      </trkpt>
      <trkpt lat="43.04769" lon="0.12089">
        <ele>930.59997558594</ele>
        <time>2021-10-07T11:43:03.000Z</time>
      </trkpt>
      <trkpt lat="43.04763" lon="0.12101">
        <ele>930</ele>
        <time>2021-10-07T11:43:04.000Z</time>
      </trkpt>
      <trkpt lat="43.04763" lon="0.12101">
        <ele>929.20001220703</ele>
        <time>2021-10-07T11:43:05.000Z</time>
      </trkpt>
      <trkpt lat="43.04752" lon="0.12122">
        <ele>928.59997558594</ele>
        <time>2021-10-07T11:43:06.000Z</time>
      </trkpt>
      <trkpt lat="43.04746" lon="0.1213">
        <ele>927.79998779297</ele>
        <time>2021-10-07T11:43:07.000Z</time>
      </trkpt>
      <trkpt lat="43.04741" lon="0.12138">
        <ele>926.59997558594</ele>
        <time>2021-10-07T11:43:08.000Z</time>
      </trkpt>
      <trkpt lat="43.04736" lon="0.12155">
        <ele>925</ele>
        <time>2021-10-07T11:43:10.000Z</time>
      </trkpt>
      <trkpt lat="43.04739" lon="0.12174">
        <ele>923.79998779297</ele>
        <time>2021-10-07T11:43:12.000Z</time>
      </trkpt>
      <trkpt lat="43.04747" lon="0.12192">
        <ele>923</ele>
        <time>2021-10-07T11:43:14.000Z</time>
      </trkpt>
      <trkpt lat="43.04756" lon="0.12201">
        <ele>922.59997558594</ele>
        <time>2021-10-07T11:43:15.000Z</time>
      </trkpt>
      <trkpt lat="43.04775" lon="0.12219">
        <ele>921.40002441406</ele>
        <time>2021-10-07T11:43:17.000Z</time>
      </trkpt>
      <trkpt lat="43.0478" lon="0.12228">
        <ele>921.20001220703</ele>
        <time>2021-10-07T11:43:18.000Z</time>
      </trkpt>
      <trkpt lat="43.04789" lon="0.1225">
        <ele>920</ele>
        <time>2021-10-07T11:43:20.000Z</time>
      </trkpt>
      <trkpt lat="43.04793" lon="0.12262">
        <ele>919.59997558594</ele>
        <time>2021-10-07T11:43:21.000Z</time>
      </trkpt>
      <trkpt lat="43.04797" lon="0.12274">
        <ele>918.20001220703</ele>
        <time>2021-10-07T11:43:22.000Z</time>
      </trkpt>
      <trkpt lat="43.04809" lon="0.12294">
        <ele>916.79998779297</ele>
        <time>2021-10-07T11:43:24.000Z</time>
      </trkpt>
      <trkpt lat="43.04815" lon="0.12302">
        <ele>915.59997558594</ele>
        <time>2021-10-07T11:43:26.000Z</time>
      </trkpt>
      <trkpt lat="43.04826" lon="0.12315">
        <ele>914.20001220703</ele>
        <time>2021-10-07T11:43:27.000Z</time>
      </trkpt>
      <trkpt lat="43.04838" lon="0.12326">
        <ele>912.79998779297</ele>
        <time>2021-10-07T11:43:29.000Z</time>
      </trkpt>
      <trkpt lat="43.04845" lon="0.1233">
        <ele>911.40002441406</ele>
        <time>2021-10-07T11:43:31.000Z</time>
      </trkpt>
      <trkpt lat="43.04858" lon="0.12335">
        <ele>911</ele>
        <time>2021-10-07T11:43:32.000Z</time>
      </trkpt>
      <trkpt lat="43.04866" lon="0.12336">
        <ele>910.20001220703</ele>
        <time>2021-10-07T11:43:33.000Z</time>
      </trkpt>
      <trkpt lat="43.04873" lon="0.12337">
        <ele>909.20001220703</ele>
        <time>2021-10-07T11:43:34.000Z</time>
      </trkpt>
      <trkpt lat="43.04879" lon="0.1234">
        <ele>908.59997558594</ele>
        <time>2021-10-07T11:43:35.000Z</time>
      </trkpt>
      <trkpt lat="43.04886" lon="0.12345">
        <ele>907.59997558594</ele>
        <time>2021-10-07T11:43:36.000Z</time>
      </trkpt>
      <trkpt lat="43.04893" lon="0.12351">
        <ele>907.20001220703</ele>
        <time>2021-10-07T11:43:37.000Z</time>
      </trkpt>
      <trkpt lat="43.04899" lon="0.12358">
        <ele>906.40002441406</ele>
        <time>2021-10-07T11:43:38.000Z</time>
      </trkpt>
      <trkpt lat="43.0491" lon="0.12372">
        <ele>905.20001220703</ele>
        <time>2021-10-07T11:43:40.000Z</time>
      </trkpt>
      <trkpt lat="43.04914" lon="0.1238">
        <ele>904.59997558594</ele>
        <time>2021-10-07T11:43:41.000Z</time>
      </trkpt>
      <trkpt lat="43.04921" lon="0.12401">
        <ele>904</ele>
        <time>2021-10-07T11:43:43.000Z</time>
      </trkpt>
      <trkpt lat="43.04926" lon="0.12426">
        <ele>903</ele>
        <time>2021-10-07T11:43:45.000Z</time>
      </trkpt>
      <trkpt lat="43.04928" lon="0.12439">
        <ele>902.40002441406</ele>
        <time>2021-10-07T11:43:46.000Z</time>
      </trkpt>
      <trkpt lat="43.04928" lon="0.12439">
        <ele>901.40002441406</ele>
        <time>2021-10-07T11:43:47.000Z</time>
      </trkpt>
      <trkpt lat="43.04934" lon="0.12467">
        <ele>900.40002441406</ele>
        <time>2021-10-07T11:43:48.000Z</time>
      </trkpt>
      <trkpt lat="43.04938" lon="0.12495">
        <ele>898.20001220703</ele>
        <time>2021-10-07T11:43:50.000Z</time>
      </trkpt>
      <trkpt lat="43.0494" lon="0.12508">
        <ele>897.40002441406</ele>
        <time>2021-10-07T11:43:51.000Z</time>
      </trkpt>
      <trkpt lat="43.04941" lon="0.12521">
        <ele>896</ele>
        <time>2021-10-07T11:43:52.000Z</time>
      </trkpt>
      <trkpt lat="43.04943" lon="0.12536">
        <ele>893</ele>
        <time>2021-10-07T11:43:54.000Z</time>
      </trkpt>
      <trkpt lat="43.04945" lon="0.12555">
        <ele>891.20001220703</ele>
        <time>2021-10-07T11:43:55.000Z</time>
      </trkpt>
      <trkpt lat="43.04945" lon="0.12561">
        <ele>890.20001220703</ele>
        <time>2021-10-07T11:43:56.000Z</time>
      </trkpt>
      <trkpt lat="43.04944" lon="0.12569">
        <ele>889</ele>
        <time>2021-10-07T11:43:57.000Z</time>
      </trkpt>
      <trkpt lat="43.04942" lon="0.12576">
        <ele>888.59997558594</ele>
        <time>2021-10-07T11:43:58.000Z</time>
      </trkpt>
      <trkpt lat="43.04939" lon="0.12586">
        <ele>887.40002441406</ele>
        <time>2021-10-07T11:43:59.000Z</time>
      </trkpt>
      <trkpt lat="43.04937" lon="0.12597">
        <ele>887</ele>
        <time>2021-10-07T11:44:00.000Z</time>
      </trkpt>
      <trkpt lat="43.04936" lon="0.12609">
        <ele>885.59997558594</ele>
        <time>2021-10-07T11:44:01.000Z</time>
      </trkpt>
      <trkpt lat="43.04936" lon="0.12622">
        <ele>883.79998779297</ele>
        <time>2021-10-07T11:44:02.000Z</time>
      </trkpt>
      <trkpt lat="43.04937" lon="0.12643">
        <ele>882.40002441406</ele>
        <time>2021-10-07T11:44:04.000Z</time>
      </trkpt>
      <trkpt lat="43.04936" lon="0.12652">
        <ele>880</ele>
        <time>2021-10-07T11:44:06.000Z</time>
      </trkpt>
      <trkpt lat="43.04933" lon="0.12683">
        <ele>878.59997558594</ele>
        <time>2021-10-07T11:44:08.000Z</time>
      </trkpt>
      <trkpt lat="43.0493" lon="0.12693">
        <ele>877.59997558594</ele>
        <time>2021-10-07T11:44:10.000Z</time>
      </trkpt>
      <trkpt lat="43.04924" lon="0.12711">
        <ele>876.40002441406</ele>
        <time>2021-10-07T11:44:11.000Z</time>
      </trkpt>
      <trkpt lat="43.04918" lon="0.12728">
        <ele>874.40002441406</ele>
        <time>2021-10-07T11:44:13.000Z</time>
      </trkpt>
      <trkpt lat="43.04915" lon="0.12737">
        <ele>874</ele>
        <time>2021-10-07T11:44:14.000Z</time>
      </trkpt>
      <trkpt lat="43.04911" lon="0.12749">
        <ele>872.59997558594</ele>
        <time>2021-10-07T11:44:15.000Z</time>
      </trkpt>
      <trkpt lat="43.04909" lon="0.12758">
        <ele>870.59997558594</ele>
        <time>2021-10-07T11:44:16.000Z</time>
      </trkpt>
      <trkpt lat="43.04907" lon="0.12769">
        <ele>869.20001220703</ele>
        <time>2021-10-07T11:44:18.000Z</time>
      </trkpt>
      <trkpt lat="43.04901" lon="0.12808">
        <ele>867.20001220703</ele>
        <time>2021-10-07T11:44:20.000Z</time>
      </trkpt>
      <trkpt lat="43.04897" lon="0.12829">
        <ele>865.40002441406</ele>
        <time>2021-10-07T11:44:22.000Z</time>
      </trkpt>
      <trkpt lat="43.04897" lon="0.12829">
        <ele>864</ele>
        <time>2021-10-07T11:44:23.000Z</time>
      </trkpt>
      <trkpt lat="43.04895" lon="0.12849">
        <ele>863.59997558594</ele>
        <time>2021-10-07T11:44:24.000Z</time>
      </trkpt>
      <trkpt lat="43.04894" lon="0.12858">
        <ele>862.59997558594</ele>
        <time>2021-10-07T11:44:25.000Z</time>
      </trkpt>
      <trkpt lat="43.04891" lon="0.12865">
        <ele>862</ele>
        <time>2021-10-07T11:44:26.000Z</time>
      </trkpt>
      <trkpt lat="43.04889" lon="0.1287">
        <ele>860.59997558594</ele>
        <time>2021-10-07T11:44:27.000Z</time>
      </trkpt>
      <trkpt lat="43.04889" lon="0.1287">
        <ele>859.20001220703</ele>
        <time>2021-10-07T11:44:28.000Z</time>
      </trkpt>
      <trkpt lat="43.04885" lon="0.12876">
        <ele>857.79998779297</ele>
        <time>2021-10-07T11:44:29.000Z</time>
      </trkpt>
      <trkpt lat="43.04871" lon="0.12885">
        <ele>856.59997558594</ele>
        <time>2021-10-07T11:44:30.000Z</time>
      </trkpt>
      <trkpt lat="43.04857" lon="0.12896">
        <ele>855.40002441406</ele>
        <time>2021-10-07T11:44:32.000Z</time>
      </trkpt>
      <trkpt lat="43.04852" lon="0.12904">
        <ele>854.79998779297</ele>
        <time>2021-10-07T11:44:33.000Z</time>
      </trkpt>
      <trkpt lat="43.04845" lon="0.12913">
        <ele>853.79998779297</ele>
        <time>2021-10-07T11:44:34.000Z</time>
      </trkpt>
      <trkpt lat="43.04836" lon="0.12931">
        <ele>851.40002441406</ele>
        <time>2021-10-07T11:44:36.000Z</time>
      </trkpt>
      <trkpt lat="43.04832" lon="0.12939">
        <ele>850</ele>
        <time>2021-10-07T11:44:37.000Z</time>
      </trkpt>
      <trkpt lat="43.04827" lon="0.12946">
        <ele>849.59997558594</ele>
        <time>2021-10-07T11:44:38.000Z</time>
      </trkpt>
      <trkpt lat="43.04819" lon="0.12955">
        <ele>848.40002441406</ele>
        <time>2021-10-07T11:44:39.000Z</time>
      </trkpt>
      <trkpt lat="43.04812" lon="0.12962">
        <ele>848</ele>
        <time>2021-10-07T11:44:40.000Z</time>
      </trkpt>
      <trkpt lat="43.04806" lon="0.12968">
        <ele>847</ele>
        <time>2021-10-07T11:44:41.000Z</time>
      </trkpt>
      <trkpt lat="43.04797" lon="0.12979">
        <ele>845.59997558594</ele>
        <time>2021-10-07T11:44:43.000Z</time>
      </trkpt>
      <trkpt lat="43.04797" lon="0.12985">
        <ele>845</ele>
        <time>2021-10-07T11:44:44.000Z</time>
      </trkpt>
      <trkpt lat="43.04795" lon="0.12997">
        <ele>843.40002441406</ele>
        <time>2021-10-07T11:44:46.000Z</time>
      </trkpt>
      <trkpt lat="43.04788" lon="0.13024">
        <ele>841.79998779297</ele>
        <time>2021-10-07T11:44:48.000Z</time>
      </trkpt>
      <trkpt lat="43.04783" lon="0.13032">
        <ele>838.79998779297</ele>
        <time>2021-10-07T11:44:50.000Z</time>
      </trkpt>
      <trkpt lat="43.04766" lon="0.13053">
        <ele>837.59997558594</ele>
        <time>2021-10-07T11:44:52.000Z</time>
      </trkpt>
      <trkpt lat="43.04766" lon="0.13053">
        <ele>836.59997558594</ele>
        <time>2021-10-07T11:44:53.000Z</time>
      </trkpt>
      <trkpt lat="43.04758" lon="0.1306">
        <ele>836.20001220703</ele>
        <time>2021-10-07T11:44:54.000Z</time>
      </trkpt>
      <trkpt lat="43.04746" lon="0.13071">
        <ele>835.20001220703</ele>
        <time>2021-10-07T11:44:55.000Z</time>
      </trkpt>
      <trkpt lat="43.04741" lon="0.1308">
        <ele>834.59997558594</ele>
        <time>2021-10-07T11:44:56.000Z</time>
      </trkpt>
      <trkpt lat="43.04737" lon="0.13088">
        <ele>833.20001220703</ele>
        <time>2021-10-07T11:44:57.000Z</time>
      </trkpt>
      <trkpt lat="43.04733" lon="0.13096">
        <ele>831.79998779297</ele>
        <time>2021-10-07T11:44:58.000Z</time>
      </trkpt>
      <trkpt lat="43.04718" lon="0.13112">
        <ele>830.20001220703</ele>
        <time>2021-10-07T11:45:00.000Z</time>
      </trkpt>
      <trkpt lat="43.04704" lon="0.13128">
        <ele>828.79998779297</ele>
        <time>2021-10-07T11:45:02.000Z</time>
      </trkpt>
      <trkpt lat="43.04693" lon="0.13144">
        <ele>827.59997558594</ele>
        <time>2021-10-07T11:45:04.000Z</time>
      </trkpt>
      <trkpt lat="43.04681" lon="0.1316">
        <ele>826.40002441406</ele>
        <time>2021-10-07T11:45:06.000Z</time>
      </trkpt>
      <trkpt lat="43.04676" lon="0.13167">
        <ele>825.79998779297</ele>
        <time>2021-10-07T11:45:07.000Z</time>
      </trkpt>
      <trkpt lat="43.0467" lon="0.13175">
        <ele>824.79998779297</ele>
        <time>2021-10-07T11:45:08.000Z</time>
      </trkpt>
      <trkpt lat="43.04664" lon="0.13181">
        <ele>823.40002441406</ele>
        <time>2021-10-07T11:45:09.000Z</time>
      </trkpt>
      <trkpt lat="43.04652" lon="0.13189">
        <ele>822.59997558594</ele>
        <time>2021-10-07T11:45:11.000Z</time>
      </trkpt>
      <trkpt lat="43.04646" lon="0.1319">
        <ele>822.20001220703</ele>
        <time>2021-10-07T11:45:12.000Z</time>
      </trkpt>
      <trkpt lat="43.04623" lon="0.132">
        <ele>820.79998779297</ele>
        <time>2021-10-07T11:45:15.000Z</time>
      </trkpt>
      <trkpt lat="43.04616" lon="0.13206">
        <ele>819.79998779297</ele>
        <time>2021-10-07T11:45:16.000Z</time>
      </trkpt>
      <trkpt lat="43.04609" lon="0.13209">
        <ele>819.59997558594</ele>
        <time>2021-10-07T11:45:17.000Z</time>
      </trkpt>
      <trkpt lat="43.04592" lon="0.13209">
        <ele>819</ele>
        <time>2021-10-07T11:45:19.000Z</time>
      </trkpt>
      <trkpt lat="43.04584" lon="0.13209">
        <ele>819</ele>
        <time>2021-10-07T11:45:20.000Z</time>
      </trkpt>
      <trkpt lat="43.04569" lon="0.1321">
        <ele>818.79998779297</ele>
        <time>2021-10-07T11:45:22.000Z</time>
      </trkpt>
      <trkpt lat="43.04561" lon="0.13209">
        <ele>818.40002441406</ele>
        <time>2021-10-07T11:45:23.000Z</time>
      </trkpt>
      <trkpt lat="43.04545" lon="0.13203">
        <ele>817.40002441406</ele>
        <time>2021-10-07T11:45:25.000Z</time>
      </trkpt>
      <trkpt lat="43.04538" lon="0.13201">
        <ele>816.59997558594</ele>
        <time>2021-10-07T11:45:26.000Z</time>
      </trkpt>
      <trkpt lat="43.04531" lon="0.13199">
        <ele>816.40002441406</ele>
        <time>2021-10-07T11:45:27.000Z</time>
      </trkpt>
      <trkpt lat="43.04517" lon="0.13201">
        <ele>815.40002441406</ele>
        <time>2021-10-07T11:45:29.000Z</time>
      </trkpt>
      <trkpt lat="43.04509" lon="0.13212">
        <ele>814.40002441406</ele>
        <time>2021-10-07T11:45:31.000Z</time>
      </trkpt>
      <trkpt lat="43.04507" lon="0.13218">
        <ele>814.20001220703</ele>
        <time>2021-10-07T11:45:32.000Z</time>
      </trkpt>
      <trkpt lat="43.04506" lon="0.13227">
        <ele>814</ele>
        <time>2021-10-07T11:45:33.000Z</time>
      </trkpt>
      <trkpt lat="43.04497" lon="0.13253">
        <ele>813.59997558594</ele>
        <time>2021-10-07T11:45:36.000Z</time>
      </trkpt>
      <trkpt lat="43.04489" lon="0.13263">
        <ele>813.20001220703</ele>
        <time>2021-10-07T11:45:38.000Z</time>
      </trkpt>
      <trkpt lat="43.04483" lon="0.13267">
        <ele>813.20001220703</ele>
        <time>2021-10-07T11:45:39.000Z</time>
      </trkpt>
      <trkpt lat="43.04449" lon="0.13291">
        <ele>812.40002441406</ele>
        <time>2021-10-07T11:45:44.000Z</time>
      </trkpt>
      <trkpt lat="43.04444" lon="0.13296">
        <ele>811.79998779297</ele>
        <time>2021-10-07T11:45:45.000Z</time>
      </trkpt>
      <trkpt lat="43.04427" lon="0.13303">
        <ele>811.40002441406</ele>
        <time>2021-10-07T11:45:47.000Z</time>
      </trkpt>
      <trkpt lat="43.04427" lon="0.13303">
        <ele>811.40002441406</ele>
        <time>2021-10-07T11:45:48.000Z</time>
      </trkpt>
      <trkpt lat="43.0441" lon="0.13303">
        <ele>811</ele>
        <time>2021-10-07T11:45:49.000Z</time>
      </trkpt>
      <trkpt lat="43.04402" lon="0.13302">
        <ele>810.79998779297</ele>
        <time>2021-10-07T11:45:50.000Z</time>
      </trkpt>
      <trkpt lat="43.04394" lon="0.13303">
        <ele>810.40002441406</ele>
        <time>2021-10-07T11:45:51.000Z</time>
      </trkpt>
      <trkpt lat="43.04377" lon="0.13302">
        <ele>809.79998779297</ele>
        <time>2021-10-07T11:45:53.000Z</time>
      </trkpt>
      <trkpt lat="43.04356" lon="0.13305">
        <ele>808.59997558594</ele>
        <time>2021-10-07T11:45:56.000Z</time>
      </trkpt>
      <trkpt lat="43.04351" lon="0.1332">
        <ele>807.20001220703</ele>
        <time>2021-10-07T11:45:59.000Z</time>
      </trkpt>
      <trkpt lat="43.04357" lon="0.1333">
        <ele>806.59997558594</ele>
        <time>2021-10-07T11:46:01.000Z</time>
      </trkpt>
      <trkpt lat="43.04362" lon="0.13336">
        <ele>806</ele>
        <time>2021-10-07T11:46:03.000Z</time>
      </trkpt>
      <trkpt lat="43.04374" lon="0.13346">
        <ele>806</ele>
        <time>2021-10-07T11:46:04.000Z</time>
      </trkpt>
      <trkpt lat="43.04381" lon="0.13349">
        <ele>805</ele>
        <time>2021-10-07T11:46:06.000Z</time>
      </trkpt>
      <trkpt lat="43.04421" lon="0.13359">
        <ele>803.79998779297</ele>
        <time>2021-10-07T11:46:10.000Z</time>
      </trkpt>
      <trkpt lat="43.04435" lon="0.13362">
        <ele>802.40002441406</ele>
        <time>2021-10-07T11:46:12.000Z</time>
      </trkpt>
      <trkpt lat="43.04443" lon="0.13365">
        <ele>801</ele>
        <time>2021-10-07T11:46:13.000Z</time>
      </trkpt>
      <trkpt lat="43.04452" lon="0.13366">
        <ele>800.59997558594</ele>
        <time>2021-10-07T11:46:14.000Z</time>
      </trkpt>
      <trkpt lat="43.04469" lon="0.13367">
        <ele>799.79998779297</ele>
        <time>2021-10-07T11:46:16.000Z</time>
      </trkpt>
      <trkpt lat="43.04478" lon="0.13365">
        <ele>799.20001220703</ele>
        <time>2021-10-07T11:46:17.000Z</time>
      </trkpt>
      <trkpt lat="43.04487" lon="0.13362">
        <ele>798.79998779297</ele>
        <time>2021-10-07T11:46:18.000Z</time>
      </trkpt>
      <trkpt lat="43.04504" lon="0.13355">
        <ele>797.20001220703</ele>
        <time>2021-10-07T11:46:20.000Z</time>
      </trkpt>
      <trkpt lat="43.0452" lon="0.13351">
        <ele>795.59997558594</ele>
        <time>2021-10-07T11:46:22.000Z</time>
      </trkpt>
      <trkpt lat="43.04529" lon="0.1335">
        <ele>795.20001220703</ele>
        <time>2021-10-07T11:46:23.000Z</time>
      </trkpt>
      <trkpt lat="43.04538" lon="0.13352">
        <ele>795</ele>
        <time>2021-10-07T11:46:24.000Z</time>
      </trkpt>
      <trkpt lat="43.04555" lon="0.13356">
        <ele>793.79998779297</ele>
        <time>2021-10-07T11:46:26.000Z</time>
      </trkpt>
      <trkpt lat="43.04571" lon="0.1336">
        <ele>792.40002441406</ele>
        <time>2021-10-07T11:46:28.000Z</time>
      </trkpt>
      <trkpt lat="43.0458" lon="0.13361">
        <ele>791.59997558594</ele>
        <time>2021-10-07T11:46:29.000Z</time>
      </trkpt>
      <trkpt lat="43.04588" lon="0.1336">
        <ele>791</ele>
        <time>2021-10-07T11:46:30.000Z</time>
      </trkpt>
      <trkpt lat="43.04604" lon="0.13355">
        <ele>789.59997558594</ele>
        <time>2021-10-07T11:46:32.000Z</time>
      </trkpt>
      <trkpt lat="43.0462" lon="0.13349">
        <ele>788</ele>
        <time>2021-10-07T11:46:34.000Z</time>
      </trkpt>
      <trkpt lat="43.04635" lon="0.13346">
        <ele>786.79998779297</ele>
        <time>2021-10-07T11:46:36.000Z</time>
      </trkpt>
      <trkpt lat="43.04643" lon="0.13345">
        <ele>786.59997558594</ele>
        <time>2021-10-07T11:46:37.000Z</time>
      </trkpt>
      <trkpt lat="43.04651" lon="0.13346">
        <ele>786.20001220703</ele>
        <time>2021-10-07T11:46:38.000Z</time>
      </trkpt>
      <trkpt lat="43.04668" lon="0.13347">
        <ele>785.40002441406</ele>
        <time>2021-10-07T11:46:40.000Z</time>
      </trkpt>
      <trkpt lat="43.04678" lon="0.13346">
        <ele>783.79998779297</ele>
        <time>2021-10-07T11:46:41.000Z</time>
      </trkpt>
      <trkpt lat="43.04697" lon="0.13345">
        <ele>782.59997558594</ele>
        <time>2021-10-07T11:46:43.000Z</time>
      </trkpt>
      <trkpt lat="43.04715" lon="0.13342">
        <ele>781</ele>
        <time>2021-10-07T11:46:45.000Z</time>
      </trkpt>
      <trkpt lat="43.04725" lon="0.13339">
        <ele>779.40002441406</ele>
        <time>2021-10-07T11:46:47.000Z</time>
      </trkpt>
      <trkpt lat="43.04743" lon="0.13331">
        <ele>778.20001220703</ele>
        <time>2021-10-07T11:46:48.000Z</time>
      </trkpt>
      <trkpt lat="43.0476" lon="0.13322">
        <ele>777</ele>
        <time>2021-10-07T11:46:50.000Z</time>
      </trkpt>
      <trkpt lat="43.04767" lon="0.13316">
        <ele>776.59997558594</ele>
        <time>2021-10-07T11:46:51.000Z</time>
      </trkpt>
      <trkpt lat="43.04778" lon="0.13302">
        <ele>775.59997558594</ele>
        <time>2021-10-07T11:46:53.000Z</time>
      </trkpt>
      <trkpt lat="43.04786" lon="0.1329">
        <ele>773.79998779297</ele>
        <time>2021-10-07T11:46:55.000Z</time>
      </trkpt>
      <trkpt lat="43.0479" lon="0.13284">
        <ele>772.59997558594</ele>
        <time>2021-10-07T11:46:57.000Z</time>
      </trkpt>
      <trkpt lat="43.04799" lon="0.13274">
        <ele>772.20001220703</ele>
        <time>2021-10-07T11:46:58.000Z</time>
      </trkpt>
      <trkpt lat="43.04816" lon="0.13264">
        <ele>771.20001220703</ele>
        <time>2021-10-07T11:47:01.000Z</time>
      </trkpt>
      <trkpt lat="43.04837" lon="0.13257">
        <ele>770</ele>
        <time>2021-10-07T11:47:04.000Z</time>
      </trkpt>
      <trkpt lat="43.04853" lon="0.13252">
        <ele>769.20001220703</ele>
        <time>2021-10-07T11:47:06.000Z</time>
      </trkpt>
      <trkpt lat="43.04861" lon="0.1325">
        <ele>768.79998779297</ele>
        <time>2021-10-07T11:47:07.000Z</time>
      </trkpt>
      <trkpt lat="43.04869" lon="0.13246">
        <ele>768.20001220703</ele>
        <time>2021-10-07T11:47:08.000Z</time>
      </trkpt>
      <trkpt lat="43.04876" lon="0.13242">
        <ele>767</ele>
        <time>2021-10-07T11:47:09.000Z</time>
      </trkpt>
      <trkpt lat="43.04883" lon="0.13236">
        <ele>766.59997558594</ele>
        <time>2021-10-07T11:47:10.000Z</time>
      </trkpt>
      <trkpt lat="43.04889" lon="0.13231">
        <ele>765.79998779297</ele>
        <time>2021-10-07T11:47:11.000Z</time>
      </trkpt>
      <trkpt lat="43.04902" lon="0.13215">
        <ele>764.59997558594</ele>
        <time>2021-10-07T11:47:13.000Z</time>
      </trkpt>
      <trkpt lat="43.04908" lon="0.13206">
        <ele>764.20001220703</ele>
        <time>2021-10-07T11:47:14.000Z</time>
      </trkpt>
      <trkpt lat="43.04914" lon="0.13197">
        <ele>763.40002441406</ele>
        <time>2021-10-07T11:47:15.000Z</time>
      </trkpt>
      <trkpt lat="43.04931" lon="0.13177">
        <ele>761.59997558594</ele>
        <time>2021-10-07T11:47:18.000Z</time>
      </trkpt>
      <trkpt lat="43.04937" lon="0.13175">
        <ele>761.40002441406</ele>
        <time>2021-10-07T11:47:19.000Z</time>
      </trkpt>
      <trkpt lat="43.04944" lon="0.13175">
        <ele>760.59997558594</ele>
        <time>2021-10-07T11:47:20.000Z</time>
      </trkpt>
      <trkpt lat="43.04956" lon="0.13179">
        <ele>759.59997558594</ele>
        <time>2021-10-07T11:47:22.000Z</time>
      </trkpt>
      <trkpt lat="43.04956" lon="0.13179">
        <ele>759.40002441406</ele>
        <time>2021-10-07T11:47:23.000Z</time>
      </trkpt>
      <trkpt lat="43.04968" lon="0.13181">
        <ele>759.20001220703</ele>
        <time>2021-10-07T11:47:24.000Z</time>
      </trkpt>
      <trkpt lat="43.04993" lon="0.13182">
        <ele>758.40002441406</ele>
        <time>2021-10-07T11:47:28.000Z</time>
      </trkpt>
      <trkpt lat="43.05005" lon="0.13181">
        <ele>758.40002441406</ele>
        <time>2021-10-07T11:47:30.000Z</time>
      </trkpt>
      <trkpt lat="43.05023" lon="0.13175">
        <ele>758.40002441406</ele>
        <time>2021-10-07T11:47:33.000Z</time>
      </trkpt>
      <trkpt lat="43.05028" lon="0.13173">
        <ele>758.40002441406</ele>
        <time>2021-10-07T11:47:34.000Z</time>
      </trkpt>
      <trkpt lat="43.05062" lon="0.1315">
        <ele>758.40002441406</ele>
        <time>2021-10-07T11:47:41.000Z</time>
      </trkpt>
      <trkpt lat="43.05085" lon="0.13129">
        <ele>758.40002441406</ele>
        <time>2021-10-07T11:47:46.000Z</time>
      </trkpt>
      <trkpt lat="43.05085" lon="0.13129">
        <ele>758.59997558594</ele>
        <time>2021-10-07T11:47:47.000Z</time>
      </trkpt>
      <trkpt lat="43.05097" lon="0.13129">
        <ele>758.79998779297</ele>
        <time>2021-10-07T11:47:48.000Z</time>
      </trkpt>
      <trkpt lat="43.05102" lon="0.13132">
        <ele>758.79998779297</ele>
        <time>2021-10-07T11:47:49.000Z</time>
      </trkpt>
      <trkpt lat="43.05107" lon="0.13135">
        <ele>759</ele>
        <time>2021-10-07T11:47:50.000Z</time>
      </trkpt>
      <trkpt lat="43.05123" lon="0.13139">
        <ele>759</ele>
        <time>2021-10-07T11:47:53.000Z</time>
      </trkpt>
      <trkpt lat="43.05129" lon="0.13137">
        <ele>759</ele>
        <time>2021-10-07T11:47:54.000Z</time>
      </trkpt>
      <trkpt lat="43.05151" lon="0.1313">
        <ele>759.40002441406</ele>
        <time>2021-10-07T11:47:58.000Z</time>
      </trkpt>
      <trkpt lat="43.05157" lon="0.1313">
        <ele>759.79998779297</ele>
        <time>2021-10-07T11:48:00.000Z</time>
      </trkpt>
      <trkpt lat="43.05168" lon="0.13129">
        <ele>760.20001220703</ele>
        <time>2021-10-07T11:48:01.000Z</time>
      </trkpt>
      <trkpt lat="43.05184" lon="0.13136">
        <ele>761.20001220703</ele>
        <time>2021-10-07T11:48:04.000Z</time>
      </trkpt>
      <trkpt lat="43.05192" lon="0.13142">
        <ele>762.20001220703</ele>
        <time>2021-10-07T11:48:06.000Z</time>
      </trkpt>
      <trkpt lat="43.05196" lon="0.13146">
        <ele>762.59997558594</ele>
        <time>2021-10-07T11:48:07.000Z</time>
      </trkpt>
      <trkpt lat="43.052" lon="0.1315">
        <ele>762.79998779297</ele>
        <time>2021-10-07T11:48:08.000Z</time>
      </trkpt>
      <trkpt lat="43.05215" lon="0.13169">
        <ele>763.79998779297</ele>
        <time>2021-10-07T11:48:12.000Z</time>
      </trkpt>
      <trkpt lat="43.05218" lon="0.13174">
        <ele>764</ele>
        <time>2021-10-07T11:48:13.000Z</time>
      </trkpt>
      <trkpt lat="43.0522" lon="0.13178">
        <ele>764.40002441406</ele>
        <time>2021-10-07T11:48:14.000Z</time>
      </trkpt>
      <trkpt lat="43.05226" lon="0.13187">
        <ele>765</ele>
        <time>2021-10-07T11:48:16.000Z</time>
      </trkpt>
      <trkpt lat="43.05232" lon="0.13202">
        <ele>766</ele>
        <time>2021-10-07T11:48:20.000Z</time>
      </trkpt>
      <trkpt lat="43.05235" lon="0.13204">
        <ele>766.59997558594</ele>
        <time>2021-10-07T11:48:21.000Z</time>
      </trkpt>
      <trkpt lat="43.05241" lon="0.13211">
        <ele>767.40002441406</ele>
        <time>2021-10-07T11:48:23.000Z</time>
      </trkpt>
      <trkpt lat="43.05247" lon="0.13215">
        <ele>767.59997558594</ele>
        <time>2021-10-07T11:48:24.000Z</time>
      </trkpt>
      <trkpt lat="43.05266" lon="0.13228">
        <ele>768.59997558594</ele>
        <time>2021-10-07T11:48:28.000Z</time>
      </trkpt>
      <trkpt lat="43.05282" lon="0.13233">
        <ele>770</ele>
        <time>2021-10-07T11:48:31.000Z</time>
      </trkpt>
      <trkpt lat="43.0529" lon="0.13237">
        <ele>771</ele>
        <time>2021-10-07T11:48:33.000Z</time>
      </trkpt>
      <trkpt lat="43.05293" lon="0.1324">
        <ele>771.20001220703</ele>
        <time>2021-10-07T11:48:34.000Z</time>
      </trkpt>
      <trkpt lat="43.05306" lon="0.13249">
        <ele>772.40002441406</ele>
        <time>2021-10-07T11:48:37.000Z</time>
      </trkpt>
      <trkpt lat="43.05327" lon="0.13263">
        <ele>773.40002441406</ele>
        <time>2021-10-07T11:48:40.000Z</time>
      </trkpt>
      <trkpt lat="43.05345" lon="0.13282">
        <ele>774.40002441406</ele>
        <time>2021-10-07T11:48:44.000Z</time>
      </trkpt>
      <trkpt lat="43.05348" lon="0.13286">
        <ele>775</ele>
        <time>2021-10-07T11:48:45.000Z</time>
      </trkpt>
      <trkpt lat="43.05356" lon="0.13306">
        <ele>775.40002441406</ele>
        <time>2021-10-07T11:48:50.000Z</time>
      </trkpt>
      <trkpt lat="43.05363" lon="0.13324">
        <ele>775.40002441406</ele>
        <time>2021-10-07T11:48:55.000Z</time>
      </trkpt>
      <trkpt lat="43.05366" lon="0.13335">
        <ele>775.40002441406</ele>
        <time>2021-10-07T11:48:56.000Z</time>
      </trkpt>
      <trkpt lat="43.05371" lon="0.13347">
        <ele>775.20001220703</ele>
        <time>2021-10-07T11:48:58.000Z</time>
      </trkpt>
      <trkpt lat="43.05379" lon="0.13363">
        <ele>775</ele>
        <time>2021-10-07T11:49:01.000Z</time>
      </trkpt>
      <trkpt lat="43.05385" lon="0.13374">
        <ele>775</ele>
        <time>2021-10-07T11:49:03.000Z</time>
      </trkpt>
      <trkpt lat="43.05394" lon="0.1339">
        <ele>775</ele>
        <time>2021-10-07T11:49:06.000Z</time>
      </trkpt>
      <trkpt lat="43.05397" lon="0.13396">
        <ele>774.79998779297</ele>
        <time>2021-10-07T11:49:07.000Z</time>
      </trkpt>
      <trkpt lat="43.054" lon="0.13402">
        <ele>774.59997558594</ele>
        <time>2021-10-07T11:49:08.000Z</time>
      </trkpt>
      <trkpt lat="43.05406" lon="0.13412">
        <ele>774.20001220703</ele>
        <time>2021-10-07T11:49:10.000Z</time>
      </trkpt>
      <trkpt lat="43.05423" lon="0.1343">
        <ele>773.79998779297</ele>
        <time>2021-10-07T11:49:15.000Z</time>
      </trkpt>
      <trkpt lat="43.05423" lon="0.13431">
        <ele>773.59997558594</ele>
        <time>2021-10-07T11:49:17.000Z</time>
      </trkpt>
      <trkpt lat="43.05423" lon="0.13431">
        <ele>773.40002441406</ele>
        <time>2021-10-07T11:49:20.000Z</time>
      </trkpt>
      <trkpt lat="43.05428" lon="0.1344">
        <ele>773</ele>
        <time>2021-10-07T11:49:29.000Z</time>
      </trkpt>
      <trkpt lat="43.05442" lon="0.13456">
        <ele>772.59997558594</ele>
        <time>2021-10-07T11:49:34.000Z</time>
      </trkpt>
      <trkpt lat="43.05456" lon="0.13471">
        <ele>772.40002441406</ele>
        <time>2021-10-07T11:49:38.000Z</time>
      </trkpt>
      <trkpt lat="43.05462" lon="0.1348">
        <ele>772.40002441406</ele>
        <time>2021-10-07T11:49:40.000Z</time>
      </trkpt>
      <trkpt lat="43.05493" lon="0.13518">
        <ele>771.59997558594</ele>
        <time>2021-10-07T11:49:49.000Z</time>
      </trkpt>
      <trkpt lat="43.05503" lon="0.13526">
        <ele>771.40002441406</ele>
        <time>2021-10-07T11:49:51.000Z</time>
      </trkpt>
      <trkpt lat="43.05518" lon="0.13539">
        <ele>770.79998779297</ele>
        <time>2021-10-07T11:49:54.000Z</time>
      </trkpt>
      <trkpt lat="43.05527" lon="0.13547">
        <ele>770</ele>
        <time>2021-10-07T11:49:56.000Z</time>
      </trkpt>
      <trkpt lat="43.05533" lon="0.13557">
        <ele>769</ele>
        <time>2021-10-07T11:49:58.000Z</time>
      </trkpt>
      <trkpt lat="43.05535" lon="0.13564">
        <ele>768.40002441406</ele>
        <time>2021-10-07T11:49:59.000Z</time>
      </trkpt>
      <trkpt lat="43.05536" lon="0.1357">
        <ele>768</ele>
        <time>2021-10-07T11:50:00.000Z</time>
      </trkpt>
      <trkpt lat="43.05538" lon="0.13577">
        <ele>767.59997558594</ele>
        <time>2021-10-07T11:50:01.000Z</time>
      </trkpt>
      <trkpt lat="43.05543" lon="0.13598">
        <ele>766.59997558594</ele>
        <time>2021-10-07T11:50:04.000Z</time>
      </trkpt>
      <trkpt lat="43.05544" lon="0.13606">
        <ele>766.40002441406</ele>
        <time>2021-10-07T11:50:05.000Z</time>
      </trkpt>
      <trkpt lat="43.0555" lon="0.1363">
        <ele>765.20001220703</ele>
        <time>2021-10-07T11:50:08.000Z</time>
      </trkpt>
      <trkpt lat="43.05554" lon="0.13644">
        <ele>764</ele>
        <time>2021-10-07T11:50:10.000Z</time>
      </trkpt>
      <trkpt lat="43.05555" lon="0.13651">
        <ele>762.79998779297</ele>
        <time>2021-10-07T11:50:11.000Z</time>
      </trkpt>
      <trkpt lat="43.05556" lon="0.13658">
        <ele>762.40002441406</ele>
        <time>2021-10-07T11:50:12.000Z</time>
      </trkpt>
      <trkpt lat="43.05554" lon="0.13664">
        <ele>761.59997558594</ele>
        <time>2021-10-07T11:50:13.000Z</time>
      </trkpt>
      <trkpt lat="43.05554" lon="0.13664">
        <ele>761</ele>
        <time>2021-10-07T11:50:14.000Z</time>
      </trkpt>
      <trkpt lat="43.05547" lon="0.13675">
        <ele>760.20001220703</ele>
        <time>2021-10-07T11:50:15.000Z</time>
      </trkpt>
      <trkpt lat="43.05547" lon="0.13675">
        <ele>758.79998779297</ele>
        <time>2021-10-07T11:50:16.000Z</time>
      </trkpt>
      <trkpt lat="43.05538" lon="0.13682">
        <ele>758.40002441406</ele>
        <time>2021-10-07T11:50:17.000Z</time>
      </trkpt>
      <trkpt lat="43.05536" lon="0.13685">
        <ele>757.59997558594</ele>
        <time>2021-10-07T11:50:18.000Z</time>
      </trkpt>
      <trkpt lat="43.05537" lon="0.1369">
        <ele>757.20001220703</ele>
        <time>2021-10-07T11:50:19.000Z</time>
      </trkpt>
      <trkpt lat="43.05539" lon="0.13695">
        <ele>756.40002441406</ele>
        <time>2021-10-07T11:50:20.000Z</time>
      </trkpt>
      <trkpt lat="43.05548" lon="0.13702">
        <ele>755.40002441406</ele>
        <time>2021-10-07T11:50:22.000Z</time>
      </trkpt>
      <trkpt lat="43.05553" lon="0.13704">
        <ele>754.59997558594</ele>
        <time>2021-10-07T11:50:23.000Z</time>
      </trkpt>
      <trkpt lat="43.05564" lon="0.13707">
        <ele>753.20001220703</ele>
        <time>2021-10-07T11:50:25.000Z</time>
      </trkpt>
      <trkpt lat="43.05571" lon="0.13709">
        <ele>752.79998779297</ele>
        <time>2021-10-07T11:50:26.000Z</time>
      </trkpt>
      <trkpt lat="43.05576" lon="0.13713">
        <ele>752</ele>
        <time>2021-10-07T11:50:27.000Z</time>
      </trkpt>
      <trkpt lat="43.0558" lon="0.13719">
        <ele>751.59997558594</ele>
        <time>2021-10-07T11:50:28.000Z</time>
      </trkpt>
      <trkpt lat="43.05583" lon="0.13726">
        <ele>750.59997558594</ele>
        <time>2021-10-07T11:50:29.000Z</time>
      </trkpt>
      <trkpt lat="43.05585" lon="0.13735">
        <ele>749.20001220703</ele>
        <time>2021-10-07T11:50:30.000Z</time>
      </trkpt>
      <trkpt lat="43.05587" lon="0.13756">
        <ele>746.79998779297</ele>
        <time>2021-10-07T11:50:32.000Z</time>
      </trkpt>
      <trkpt lat="43.05589" lon="0.13781">
        <ele>745.20001220703</ele>
        <time>2021-10-07T11:50:34.000Z</time>
      </trkpt>
      <trkpt lat="43.05593" lon="0.13809">
        <ele>743.40002441406</ele>
        <time>2021-10-07T11:50:36.000Z</time>
      </trkpt>
      <trkpt lat="43.05594" lon="0.13822">
        <ele>741.79998779297</ele>
        <time>2021-10-07T11:50:37.000Z</time>
      </trkpt>
      <trkpt lat="43.05598" lon="0.13854">
        <ele>740.40002441406</ele>
        <time>2021-10-07T11:50:39.000Z</time>
      </trkpt>
      <trkpt lat="43.05599" lon="0.13879">
        <ele>737.79998779297</ele>
        <time>2021-10-07T11:50:41.000Z</time>
      </trkpt>
      <trkpt lat="43.05599" lon="0.13891">
        <ele>736.79998779297</ele>
        <time>2021-10-07T11:50:42.000Z</time>
      </trkpt>
      <trkpt lat="43.05599" lon="0.13903">
        <ele>735.40002441406</ele>
        <time>2021-10-07T11:50:43.000Z</time>
      </trkpt>
      <trkpt lat="43.056" lon="0.13914">
        <ele>734.40002441406</ele>
        <time>2021-10-07T11:50:44.000Z</time>
      </trkpt>
      <trkpt lat="43.05601" lon="0.13925">
        <ele>732.59997558594</ele>
        <time>2021-10-07T11:50:45.000Z</time>
      </trkpt>
      <trkpt lat="43.05602" lon="0.13935">
        <ele>730.79998779297</ele>
        <time>2021-10-07T11:50:46.000Z</time>
      </trkpt>
      <trkpt lat="43.05604" lon="0.13942">
        <ele>730.20001220703</ele>
        <time>2021-10-07T11:50:47.000Z</time>
      </trkpt>
      <trkpt lat="43.05606" lon="0.13945">
        <ele>728.79998779297</ele>
        <time>2021-10-07T11:50:48.000Z</time>
      </trkpt>
      <trkpt lat="43.0561" lon="0.13947">
        <ele>728.40002441406</ele>
        <time>2021-10-07T11:50:49.000Z</time>
      </trkpt>
      <trkpt lat="43.05616" lon="0.13947">
        <ele>727.79998779297</ele>
        <time>2021-10-07T11:50:50.000Z</time>
      </trkpt>
      <trkpt lat="43.05632" lon="0.1394">
        <ele>726.40002441406</ele>
        <time>2021-10-07T11:50:53.000Z</time>
      </trkpt>
      <trkpt lat="43.05656" lon="0.13919">
        <ele>725.20001220703</ele>
        <time>2021-10-07T11:50:57.000Z</time>
      </trkpt>
      <trkpt lat="43.05668" lon="0.13918">
        <ele>724.20001220703</ele>
        <time>2021-10-07T11:50:59.000Z</time>
      </trkpt>
      <trkpt lat="43.05673" lon="0.13921">
        <ele>724</ele>
        <time>2021-10-07T11:51:00.000Z</time>
      </trkpt>
      <trkpt lat="43.05677" lon="0.13926">
        <ele>723.79998779297</ele>
        <time>2021-10-07T11:51:01.000Z</time>
      </trkpt>
      <trkpt lat="43.05685" lon="0.13947">
        <ele>723.59997558594</ele>
        <time>2021-10-07T11:51:04.000Z</time>
      </trkpt>
      <trkpt lat="43.0569" lon="0.13952">
        <ele>723.59997558594</ele>
        <time>2021-10-07T11:51:05.000Z</time>
      </trkpt>
      <trkpt lat="43.05703" lon="0.13971">
        <ele>723.40002441406</ele>
        <time>2021-10-07T11:51:08.000Z</time>
      </trkpt>
      <trkpt lat="43.0571" lon="0.13981">
        <ele>723</ele>
        <time>2021-10-07T11:51:10.000Z</time>
      </trkpt>
      <trkpt lat="43.05713" lon="0.13986">
        <ele>723</ele>
        <time>2021-10-07T11:51:11.000Z</time>
      </trkpt>
      <trkpt lat="43.0572" lon="0.13997">
        <ele>722.59997558594</ele>
        <time>2021-10-07T11:51:13.000Z</time>
      </trkpt>
      <trkpt lat="43.05722" lon="0.14001">
        <ele>722.40002441406</ele>
        <time>2021-10-07T11:51:14.000Z</time>
      </trkpt>
      <trkpt lat="43.05724" lon="0.14004">
        <ele>722.20001220703</ele>
        <time>2021-10-07T11:51:15.000Z</time>
      </trkpt>
      <trkpt lat="43.05725" lon="0.14007">
        <ele>721.79998779297</ele>
        <time>2021-10-07T11:51:16.000Z</time>
      </trkpt>
      <trkpt lat="43.05725" lon="0.14009">
        <ele>721.59997558594</ele>
        <time>2021-10-07T11:51:17.000Z</time>
      </trkpt>
      <trkpt lat="43.05725" lon="0.14012">
        <ele>720.79998779297</ele>
        <time>2021-10-07T11:51:20.000Z</time>
      </trkpt>
      <trkpt lat="43.05725" lon="0.14012">
        <ele>720.40002441406</ele>
        <time>2021-10-07T11:51:22.000Z</time>
      </trkpt>
      <trkpt lat="43.05724" lon="0.14006">
        <ele>719.79998779297</ele>
        <time>2021-10-07T11:51:30.000Z</time>
      </trkpt>
      <trkpt lat="43.05725" lon="0.14004">
        <ele>719.79998779297</ele>
        <time>2021-10-07T11:51:31.000Z</time>
      </trkpt>
      <trkpt lat="43.05724" lon="0.14002">
        <ele>719.79998779297</ele>
        <time>2021-10-07T11:51:33.000Z</time>
      </trkpt>
      <trkpt lat="43.05719" lon="0.13998">
        <ele>719.79998779297</ele>
        <time>2021-10-07T11:51:35.000Z</time>
      </trkpt>
      <trkpt lat="43.05713" lon="0.13991">
        <ele>720</ele>
        <time>2021-10-07T11:51:38.000Z</time>
      </trkpt>
      <trkpt lat="43.05703" lon="0.13971">
        <ele>720.40002441406</ele>
        <time>2021-10-07T11:51:44.000Z</time>
      </trkpt>
      <trkpt lat="43.05699" lon="0.13961">
        <ele>721.59997558594</ele>
        <time>2021-10-07T11:51:49.000Z</time>
      </trkpt>
      <trkpt lat="43.057" lon="0.13961">
        <ele>721.79998779297</ele>
        <time>2021-10-07T11:51:50.000Z</time>
      </trkpt>
      <trkpt lat="43.05701" lon="0.13962">
        <ele>722.20001220703</ele>
        <time>2021-10-07T11:51:51.000Z</time>
      </trkpt>
      <trkpt lat="43.05704" lon="0.13966">
        <ele>722.40002441406</ele>
        <time>2021-10-07T11:51:53.000Z</time>
      </trkpt>
      <trkpt lat="43.05708" lon="0.13969">
        <ele>722.79998779297</ele>
        <time>2021-10-07T11:51:55.000Z</time>
      </trkpt>
      <trkpt lat="43.05711" lon="0.13973">
        <ele>723.40002441406</ele>
        <time>2021-10-07T11:51:57.000Z</time>
      </trkpt>
      <trkpt lat="43.05718" lon="0.13976">
        <ele>724</ele>
        <time>2021-10-07T11:52:00.000Z</time>
      </trkpt>
      <trkpt lat="43.05723" lon="0.13979">
        <ele>724.40002441406</ele>
        <time>2021-10-07T11:52:02.000Z</time>
      </trkpt>
      <trkpt lat="43.05728" lon="0.13981">
        <ele>725.20001220703</ele>
        <time>2021-10-07T11:52:04.000Z</time>
      </trkpt>
      <trkpt lat="43.05729" lon="0.13984">
        <ele>725.40002441406</ele>
        <time>2021-10-07T11:52:05.000Z</time>
      </trkpt>
      <trkpt lat="43.05734" lon="0.13988">
        <ele>726</ele>
        <time>2021-10-07T11:52:07.000Z</time>
      </trkpt>
      <trkpt lat="43.05736" lon="0.13991">
        <ele>726.59997558594</ele>
        <time>2021-10-07T11:52:08.000Z</time>
      </trkpt>
      <trkpt lat="43.05737" lon="0.13994">
        <ele>726.59997558594</ele>
        <time>2021-10-07T11:52:09.000Z</time>
      </trkpt>
      <trkpt lat="43.05741" lon="0.14002">
        <ele>727.20001220703</ele>
        <time>2021-10-07T11:52:12.000Z</time>
      </trkpt>
      <trkpt lat="43.05743" lon="0.14008">
        <ele>727.20001220703</ele>
        <time>2021-10-07T11:52:14.000Z</time>
      </trkpt>
      <trkpt lat="43.05745" lon="0.1401">
        <ele>727.79998779297</ele>
        <time>2021-10-07T11:52:15.000Z</time>
      </trkpt>
      <trkpt lat="43.05748" lon="0.14012">
        <ele>728.40002441406</ele>
        <time>2021-10-07T11:52:17.000Z</time>
      </trkpt>
      <trkpt lat="43.05751" lon="0.14017">
        <ele>728.79998779297</ele>
        <time>2021-10-07T11:52:19.000Z</time>
      </trkpt>
      <trkpt lat="43.05755" lon="0.1402">
        <ele>729</ele>
        <time>2021-10-07T11:52:21.000Z</time>
      </trkpt>
      <trkpt lat="43.05758" lon="0.14022">
        <ele>729.40002441406</ele>
        <time>2021-10-07T11:52:23.000Z</time>
      </trkpt>
      <trkpt lat="43.0576" lon="0.14024">
        <ele>729.79998779297</ele>
        <time>2021-10-07T11:52:24.000Z</time>
      </trkpt>
      <trkpt lat="43.05768" lon="0.14031">
        <ele>731</ele>
        <time>2021-10-07T11:52:30.000Z</time>
      </trkpt>
      <trkpt lat="43.05769" lon="0.14032">
        <ele>731.20001220703</ele>
        <time>2021-10-07T11:52:31.000Z</time>
      </trkpt>
      <trkpt lat="43.05775" lon="0.14035">
        <ele>732.20001220703</ele>
        <time>2021-10-07T11:52:35.000Z</time>
      </trkpt>
      <trkpt lat="43.05783" lon="0.14042">
        <ele>732.79998779297</ele>
        <time>2021-10-07T11:52:39.000Z</time>
      </trkpt>
      <trkpt lat="43.05783" lon="0.14044">
        <ele>733.20001220703</ele>
        <time>2021-10-07T11:52:40.000Z</time>
      </trkpt>
      <trkpt lat="43.05784" lon="0.14046">
        <ele>733.40002441406</ele>
        <time>2021-10-07T11:52:41.000Z</time>
      </trkpt>
      <trkpt lat="43.05788" lon="0.14051">
        <ele>734.40002441406</ele>
        <time>2021-10-07T11:52:43.000Z</time>
      </trkpt>
      <trkpt lat="43.05789" lon="0.14053">
        <ele>734.59997558594</ele>
        <time>2021-10-07T11:52:44.000Z</time>
      </trkpt>
      <trkpt lat="43.05795" lon="0.14062">
        <ele>735.40002441406</ele>
        <time>2021-10-07T11:52:49.000Z</time>
      </trkpt>
      <trkpt lat="43.05801" lon="0.14072">
        <ele>735.59997558594</ele>
        <time>2021-10-07T11:52:51.000Z</time>
      </trkpt>
      <trkpt lat="43.05806" lon="0.14081">
        <ele>736.20001220703</ele>
        <time>2021-10-07T11:52:54.000Z</time>
      </trkpt>
      <trkpt lat="43.05809" lon="0.14087">
        <ele>736.40002441406</ele>
        <time>2021-10-07T11:52:56.000Z</time>
      </trkpt>
      <trkpt lat="43.05812" lon="0.14093">
        <ele>736.59997558594</ele>
        <time>2021-10-07T11:52:58.000Z</time>
      </trkpt>
      <trkpt lat="43.05817" lon="0.14101">
        <ele>737</ele>
        <time>2021-10-07T11:53:01.000Z</time>
      </trkpt>
      <trkpt lat="43.0582" lon="0.14108">
        <ele>737.40002441406</ele>
        <time>2021-10-07T11:53:03.000Z</time>
      </trkpt>
      <trkpt lat="43.05821" lon="0.14111">
        <ele>737.59997558594</ele>
        <time>2021-10-07T11:53:04.000Z</time>
      </trkpt>
      <trkpt lat="43.05825" lon="0.14115">
        <ele>737.79998779297</ele>
        <time>2021-10-07T11:53:06.000Z</time>
      </trkpt>
      <trkpt lat="43.05834" lon="0.14122">
        <ele>738.20001220703</ele>
        <time>2021-10-07T11:53:09.000Z</time>
      </trkpt>
      <trkpt lat="43.05838" lon="0.14122">
        <ele>738.59997558594</ele>
        <time>2021-10-07T11:53:11.000Z</time>
      </trkpt>
      <trkpt lat="43.0584" lon="0.14123">
        <ele>738.79998779297</ele>
        <time>2021-10-07T11:53:12.000Z</time>
      </trkpt>
      <trkpt lat="43.05843" lon="0.14125">
        <ele>739.20001220703</ele>
        <time>2021-10-07T11:53:14.000Z</time>
      </trkpt>
      <trkpt lat="43.05846" lon="0.14127">
        <ele>739.59997558594</ele>
        <time>2021-10-07T11:53:16.000Z</time>
      </trkpt>
      <trkpt lat="43.05848" lon="0.14127">
        <ele>739.79998779297</ele>
        <time>2021-10-07T11:53:17.000Z</time>
      </trkpt>
      <trkpt lat="43.05849" lon="0.14127">
        <ele>740.20001220703</ele>
        <time>2021-10-07T11:53:18.000Z</time>
      </trkpt>
      <trkpt lat="43.05852" lon="0.14125">
        <ele>741</ele>
        <time>2021-10-07T11:53:21.000Z</time>
      </trkpt>
      <trkpt lat="43.05856" lon="0.14118">
        <ele>741.40002441406</ele>
        <time>2021-10-07T11:53:23.000Z</time>
      </trkpt>
      <trkpt lat="43.05857" lon="0.14114">
        <ele>742.20001220703</ele>
        <time>2021-10-07T11:53:25.000Z</time>
      </trkpt>
      <trkpt lat="43.05856" lon="0.14113">
        <ele>743</ele>
        <time>2021-10-07T11:53:29.000Z</time>
      </trkpt>
      <trkpt lat="43.05856" lon="0.14112">
        <ele>743.20001220703</ele>
        <time>2021-10-07T11:53:30.000Z</time>
      </trkpt>
      <trkpt lat="43.05856" lon="0.14111">
        <ele>743.40002441406</ele>
        <time>2021-10-07T11:53:31.000Z</time>
      </trkpt>
      <trkpt lat="43.05855" lon="0.1411">
        <ele>743.79998779297</ele>
        <time>2021-10-07T11:53:32.000Z</time>
      </trkpt>
      <trkpt lat="43.05853" lon="0.14106">
        <ele>744</ele>
        <time>2021-10-07T11:53:35.000Z</time>
      </trkpt>
      <trkpt lat="43.05853" lon="0.14105">
        <ele>744.20001220703</ele>
        <time>2021-10-07T11:53:36.000Z</time>
      </trkpt>
      <trkpt lat="43.05851" lon="0.14103">
        <ele>744.59997558594</ele>
        <time>2021-10-07T11:53:38.000Z</time>
      </trkpt>
      <trkpt lat="43.05851" lon="0.14101">
        <ele>744.59997558594</ele>
        <time>2021-10-07T11:53:39.000Z</time>
      </trkpt>
      <trkpt lat="43.0585" lon="0.14099">
        <ele>744.79998779297</ele>
        <time>2021-10-07T11:53:41.000Z</time>
      </trkpt>
      <trkpt lat="43.05849" lon="0.14095">
        <ele>745.59997558594</ele>
        <time>2021-10-07T11:53:46.000Z</time>
      </trkpt>
      <trkpt lat="43.05849" lon="0.14095">
        <ele>746</ele>
        <time>2021-10-07T11:53:48.000Z</time>
      </trkpt>
      <trkpt lat="43.05849" lon="0.14095">
        <ele>746.40002441406</ele>
        <time>2021-10-07T11:53:53.000Z</time>
      </trkpt>
      <trkpt lat="43.05849" lon="0.14095">
        <ele>746.20001220703</ele>
        <time>2021-10-07T11:54:02.000Z</time>
      </trkpt>
      <trkpt lat="43.0585" lon="0.14094">
        <ele>745.40002441406</ele>
        <time>2021-10-07T11:54:26.000Z</time>
      </trkpt>
      <trkpt lat="43.0585" lon="0.14094">
        <ele>745.20001220703</ele>
        <time>2021-10-07T11:54:29.000Z</time>
      </trkpt>
      <trkpt lat="43.05853" lon="0.14098">
        <ele>746.40002441406</ele>
        <time>2021-10-07T11:55:11.000Z</time>
      </trkpt>
      <trkpt lat="43.05857" lon="0.14101">
        <ele>746.59997558594</ele>
        <time>2021-10-07T11:55:13.000Z</time>
      </trkpt>
      <trkpt lat="43.05862" lon="0.14103">
        <ele>746.40002441406</ele>
        <time>2021-10-07T11:55:16.000Z</time>
      </trkpt>
      <trkpt lat="43.05865" lon="0.14104">
        <ele>746</ele>
        <time>2021-10-07T11:55:18.000Z</time>
      </trkpt>
      <trkpt lat="43.05868" lon="0.14103">
        <ele>745.59997558594</ele>
        <time>2021-10-07T11:55:20.000Z</time>
      </trkpt>
      <trkpt lat="43.05871" lon="0.14102">
        <ele>745.20001220703</ele>
        <time>2021-10-07T11:55:22.000Z</time>
      </trkpt>
      <trkpt lat="43.05874" lon="0.14101">
        <ele>745</ele>
        <time>2021-10-07T11:55:24.000Z</time>
      </trkpt>
      <trkpt lat="43.05875" lon="0.141">
        <ele>745</ele>
        <time>2021-10-07T11:55:25.000Z</time>
      </trkpt>
      <trkpt lat="43.05881" lon="0.14099">
        <ele>745.20001220703</ele>
        <time>2021-10-07T11:55:28.000Z</time>
      </trkpt>
      <trkpt lat="43.05885" lon="0.14099">
        <ele>745.20001220703</ele>
        <time>2021-10-07T11:55:30.000Z</time>
      </trkpt>
      <trkpt lat="43.05889" lon="0.14099">
        <ele>745.40002441406</ele>
        <time>2021-10-07T11:55:32.000Z</time>
      </trkpt>
      <trkpt lat="43.05896" lon="0.14098">
        <ele>745.79998779297</ele>
        <time>2021-10-07T11:55:35.000Z</time>
      </trkpt>
      <trkpt lat="43.05898" lon="0.14097">
        <ele>746</ele>
        <time>2021-10-07T11:55:36.000Z</time>
      </trkpt>
      <trkpt lat="43.05902" lon="0.14094">
        <ele>746.40002441406</ele>
        <time>2021-10-07T11:55:38.000Z</time>
      </trkpt>
      <trkpt lat="43.05906" lon="0.1409">
        <ele>746.59997558594</ele>
        <time>2021-10-07T11:55:40.000Z</time>
      </trkpt>
      <trkpt lat="43.05918" lon="0.14075">
        <ele>747.40002441406</ele>
        <time>2021-10-07T11:55:45.000Z</time>
      </trkpt>
      <trkpt lat="43.0592" lon="0.14071">
        <ele>747.40002441406</ele>
        <time>2021-10-07T11:55:46.000Z</time>
      </trkpt>
      <trkpt lat="43.05923" lon="0.14068">
        <ele>747.59997558594</ele>
        <time>2021-10-07T11:55:47.000Z</time>
      </trkpt>
      <trkpt lat="43.05927" lon="0.14058">
        <ele>747.59997558594</ele>
        <time>2021-10-07T11:55:50.000Z</time>
      </trkpt>
      <trkpt lat="43.05942" lon="0.14042">
        <ele>747.59997558594</ele>
        <time>2021-10-07T11:55:54.000Z</time>
      </trkpt>
      <trkpt lat="43.05955" lon="0.14031">
        <ele>747.59997558594</ele>
        <time>2021-10-07T11:55:59.000Z</time>
      </trkpt>
      <trkpt lat="43.05967" lon="0.14025">
        <ele>748.20001220703</ele>
        <time>2021-10-07T11:56:05.000Z</time>
      </trkpt>
      <trkpt lat="43.05969" lon="0.14024">
        <ele>748.59997558594</ele>
        <time>2021-10-07T11:56:06.000Z</time>
      </trkpt>
      <trkpt lat="43.05974" lon="0.14014">
        <ele>749.40002441406</ele>
        <time>2021-10-07T11:56:10.000Z</time>
      </trkpt>
      <trkpt lat="43.05976" lon="0.14008">
        <ele>749.79998779297</ele>
        <time>2021-10-07T11:56:12.000Z</time>
      </trkpt>
      <trkpt lat="43.05981" lon="0.13997">
        <ele>750.40002441406</ele>
        <time>2021-10-07T11:56:16.000Z</time>
      </trkpt>
      <trkpt lat="43.05982" lon="0.13994">
        <ele>750.59997558594</ele>
        <time>2021-10-07T11:56:17.000Z</time>
      </trkpt>
      <trkpt lat="43.05987" lon="0.13988">
        <ele>750.79998779297</ele>
        <time>2021-10-07T11:56:19.000Z</time>
      </trkpt>
      <trkpt lat="43.05989" lon="0.13984">
        <ele>750.79998779297</ele>
        <time>2021-10-07T11:56:20.000Z</time>
      </trkpt>
      <trkpt lat="43.05998" lon="0.13967">
        <ele>751</ele>
        <time>2021-10-07T11:56:25.000Z</time>
      </trkpt>
      <trkpt lat="43.06008" lon="0.13952">
        <ele>751.20001220703</ele>
        <time>2021-10-07T11:56:30.000Z</time>
      </trkpt>
      <trkpt lat="43.06023" lon="0.1394">
        <ele>751.59997558594</ele>
        <time>2021-10-07T11:56:35.000Z</time>
      </trkpt>
      <trkpt lat="43.06025" lon="0.13938">
        <ele>751.79998779297</ele>
        <time>2021-10-07T11:56:36.000Z</time>
      </trkpt>
      <trkpt lat="43.06035" lon="0.13924">
        <ele>752.79998779297</ele>
        <time>2021-10-07T11:56:41.000Z</time>
      </trkpt>
      <trkpt lat="43.06036" lon="0.13921">
        <ele>753</ele>
        <time>2021-10-07T11:56:42.000Z</time>
      </trkpt>
      <trkpt lat="43.06047" lon="0.13904">
        <ele>753.79998779297</ele>
        <time>2021-10-07T11:56:47.000Z</time>
      </trkpt>
      <trkpt lat="43.06061" lon="0.13891">
        <ele>754</ele>
        <time>2021-10-07T11:56:52.000Z</time>
      </trkpt>
      <trkpt lat="43.06063" lon="0.13888">
        <ele>753.79998779297</ele>
        <time>2021-10-07T11:56:53.000Z</time>
      </trkpt>
      <trkpt lat="43.06066" lon="0.13883">
        <ele>754</ele>
        <time>2021-10-07T11:56:55.000Z</time>
      </trkpt>
      <trkpt lat="43.06066" lon="0.13881">
        <ele>754</ele>
        <time>2021-10-07T11:56:56.000Z</time>
      </trkpt>
      <trkpt lat="43.06069" lon="0.13875">
        <ele>754</ele>
        <time>2021-10-07T11:56:58.000Z</time>
      </trkpt>
      <trkpt lat="43.06079" lon="0.1386">
        <ele>754.20001220703</ele>
        <time>2021-10-07T11:57:03.000Z</time>
      </trkpt>
      <trkpt lat="43.06085" lon="0.13847">
        <ele>754.59997558594</ele>
        <time>2021-10-07T11:57:07.000Z</time>
      </trkpt>
      <trkpt lat="43.06088" lon="0.13843">
        <ele>754.79998779297</ele>
        <time>2021-10-07T11:57:08.000Z</time>
      </trkpt>
      <trkpt lat="43.06089" lon="0.13838">
        <ele>755</ele>
        <time>2021-10-07T11:57:10.000Z</time>
      </trkpt>
      <trkpt lat="43.06091" lon="0.13835">
        <ele>755</ele>
        <time>2021-10-07T11:57:11.000Z</time>
      </trkpt>
      <trkpt lat="43.06093" lon="0.13828">
        <ele>755.20001220703</ele>
        <time>2021-10-07T11:57:13.000Z</time>
      </trkpt>
      <trkpt lat="43.06093" lon="0.13824">
        <ele>755.20001220703</ele>
        <time>2021-10-07T11:57:14.000Z</time>
      </trkpt>
      <trkpt lat="43.06101" lon="0.13809">
        <ele>755.40002441406</ele>
        <time>2021-10-07T11:57:17.000Z</time>
      </trkpt>
      <trkpt lat="43.06113" lon="0.13781">
        <ele>755.79998779297</ele>
        <time>2021-10-07T11:57:23.000Z</time>
      </trkpt>
      <trkpt lat="43.06117" lon="0.13772">
        <ele>756</ele>
        <time>2021-10-07T11:57:26.000Z</time>
      </trkpt>
      <trkpt lat="43.06118" lon="0.13768">
        <ele>756.20001220703</ele>
        <time>2021-10-07T11:57:27.000Z</time>
      </trkpt>
      <trkpt lat="43.06117" lon="0.13745">
        <ele>756.59997558594</ele>
        <time>2021-10-07T11:57:32.000Z</time>
      </trkpt>
      <trkpt lat="43.06117" lon="0.1374">
        <ele>756.59997558594</ele>
        <time>2021-10-07T11:57:33.000Z</time>
      </trkpt>
      <trkpt lat="43.06115" lon="0.13734">
        <ele>756.59997558594</ele>
        <time>2021-10-07T11:57:35.000Z</time>
      </trkpt>
      <trkpt lat="43.06115" lon="0.13718">
        <ele>756.79998779297</ele>
        <time>2021-10-07T11:57:40.000Z</time>
      </trkpt>
      <trkpt lat="43.06116" lon="0.13713">
        <ele>757.20001220703</ele>
        <time>2021-10-07T11:57:42.000Z</time>
      </trkpt>
      <trkpt lat="43.06115" lon="0.13708">
        <ele>757.20001220703</ele>
        <time>2021-10-07T11:57:43.000Z</time>
      </trkpt>
      <trkpt lat="43.06121" lon="0.13693">
        <ele>757.59997558594</ele>
        <time>2021-10-07T11:57:46.000Z</time>
      </trkpt>
      <trkpt lat="43.06123" lon="0.13669">
        <ele>757.79998779297</ele>
        <time>2021-10-07T11:57:50.000Z</time>
      </trkpt>
      <trkpt lat="43.0612" lon="0.13665">
        <ele>757.79998779297</ele>
        <time>2021-10-07T11:57:52.000Z</time>
      </trkpt>
      <trkpt lat="43.06119" lon="0.13662">
        <ele>757.79998779297</ele>
        <time>2021-10-07T11:57:53.000Z</time>
      </trkpt>
      <trkpt lat="43.06121" lon="0.13641">
        <ele>757.79998779297</ele>
        <time>2021-10-07T11:57:58.000Z</time>
      </trkpt>
      <trkpt lat="43.06116" lon="0.13619">
        <ele>758.20001220703</ele>
        <time>2021-10-07T11:58:04.000Z</time>
      </trkpt>
      <trkpt lat="43.06113" lon="0.13602">
        <ele>758.40002441406</ele>
        <time>2021-10-07T11:58:08.000Z</time>
      </trkpt>
      <trkpt lat="43.06121" lon="0.13584">
        <ele>758.40002441406</ele>
        <time>2021-10-07T11:58:12.000Z</time>
      </trkpt>
      <trkpt lat="43.06134" lon="0.1356">
        <ele>758.40002441406</ele>
        <time>2021-10-07T11:58:18.000Z</time>
      </trkpt>
      <trkpt lat="43.06145" lon="0.13551">
        <ele>759</ele>
        <time>2021-10-07T11:58:24.000Z</time>
      </trkpt>
      <trkpt lat="43.06158" lon="0.1354">
        <ele>760.20001220703</ele>
        <time>2021-10-07T11:58:29.000Z</time>
      </trkpt>
      <trkpt lat="43.0616" lon="0.13539">
        <ele>760.40002441406</ele>
        <time>2021-10-07T11:58:30.000Z</time>
      </trkpt>
      <trkpt lat="43.06165" lon="0.13532">
        <ele>761.59997558594</ele>
        <time>2021-10-07T11:58:33.000Z</time>
      </trkpt>
      <trkpt lat="43.0617" lon="0.13524">
        <ele>762.59997558594</ele>
        <time>2021-10-07T11:58:36.000Z</time>
      </trkpt>
      <trkpt lat="43.06178" lon="0.13501">
        <ele>763.20001220703</ele>
        <time>2021-10-07T11:58:42.000Z</time>
      </trkpt>
      <trkpt lat="43.06188" lon="0.13474">
        <ele>763.59997558594</ele>
        <time>2021-10-07T11:58:49.000Z</time>
      </trkpt>
      <trkpt lat="43.06192" lon="0.13463">
        <ele>763.79998779297</ele>
        <time>2021-10-07T11:58:52.000Z</time>
      </trkpt>
      <trkpt lat="43.06196" lon="0.13452">
        <ele>763.79998779297</ele>
        <time>2021-10-07T11:58:55.000Z</time>
      </trkpt>
      <trkpt lat="43.06202" lon="0.13445">
        <ele>763.79998779297</ele>
        <time>2021-10-07T11:58:58.000Z</time>
      </trkpt>
      <trkpt lat="43.06213" lon="0.13432">
        <ele>764.20001220703</ele>
        <time>2021-10-07T11:59:04.000Z</time>
      </trkpt>
      <trkpt lat="43.06221" lon="0.13424">
        <ele>764</ele>
        <time>2021-10-07T11:59:10.000Z</time>
      </trkpt>
      <trkpt lat="43.06229" lon="0.13421">
        <ele>764</ele>
        <time>2021-10-07T11:59:15.000Z</time>
      </trkpt>
      <trkpt lat="43.06231" lon="0.1342">
        <ele>764</ele>
        <time>2021-10-07T11:59:16.000Z</time>
      </trkpt>
      <trkpt lat="43.06233" lon="0.13419">
        <ele>764.20001220703</ele>
        <time>2021-10-07T11:59:18.000Z</time>
      </trkpt>
      <trkpt lat="43.06238" lon="0.13414">
        <ele>764.59997558594</ele>
        <time>2021-10-07T11:59:22.000Z</time>
      </trkpt>
      <trkpt lat="43.06238" lon="0.13413">
        <ele>764.59997558594</ele>
        <time>2021-10-07T11:59:23.000Z</time>
      </trkpt>
      <trkpt lat="43.06239" lon="0.13411">
        <ele>764.79998779297</ele>
        <time>2021-10-07T11:59:24.000Z</time>
      </trkpt>
      <trkpt lat="43.06241" lon="0.13408">
        <ele>765</ele>
        <time>2021-10-07T11:59:26.000Z</time>
      </trkpt>
      <trkpt lat="43.06242" lon="0.13406">
        <ele>765.59997558594</ele>
        <time>2021-10-07T11:59:27.000Z</time>
      </trkpt>
      <trkpt lat="43.06242" lon="0.13406">
        <ele>765.79998779297</ele>
        <time>2021-10-07T11:59:28.000Z</time>
      </trkpt>
      <trkpt lat="43.06244" lon="0.13401">
        <ele>766.59997558594</ele>
        <time>2021-10-07T11:59:31.000Z</time>
      </trkpt>
      <trkpt lat="43.06246" lon="0.13396">
        <ele>767.20001220703</ele>
        <time>2021-10-07T11:59:33.000Z</time>
      </trkpt>
      <trkpt lat="43.06249" lon="0.13391">
        <ele>767.59997558594</ele>
        <time>2021-10-07T11:59:35.000Z</time>
      </trkpt>
      <trkpt lat="43.06257" lon="0.13382">
        <ele>768.79998779297</ele>
        <time>2021-10-07T11:59:39.000Z</time>
      </trkpt>
      <trkpt lat="43.06258" lon="0.1338">
        <ele>769.20001220703</ele>
        <time>2021-10-07T11:59:40.000Z</time>
      </trkpt>
      <trkpt lat="43.06261" lon="0.13372">
        <ele>770</ele>
        <time>2021-10-07T11:59:43.000Z</time>
      </trkpt>
      <trkpt lat="43.06262" lon="0.13368">
        <ele>770.40002441406</ele>
        <time>2021-10-07T11:59:44.000Z</time>
      </trkpt>
      <trkpt lat="43.06264" lon="0.13365">
        <ele>770.59997558594</ele>
        <time>2021-10-07T11:59:45.000Z</time>
      </trkpt>
      <trkpt lat="43.06266" lon="0.13362">
        <ele>770.79998779297</ele>
        <time>2021-10-07T11:59:46.000Z</time>
      </trkpt>
      <trkpt lat="43.06267" lon="0.13357">
        <ele>771.20001220703</ele>
        <time>2021-10-07T11:59:48.000Z</time>
      </trkpt>
      <trkpt lat="43.0627" lon="0.13352">
        <ele>772</ele>
        <time>2021-10-07T11:59:50.000Z</time>
      </trkpt>
      <trkpt lat="43.06271" lon="0.13349">
        <ele>772.20001220703</ele>
        <time>2021-10-07T11:59:51.000Z</time>
      </trkpt>
      <trkpt lat="43.06271" lon="0.13347">
        <ele>772.40002441406</ele>
        <time>2021-10-07T11:59:52.000Z</time>
      </trkpt>
      <trkpt lat="43.06274" lon="0.13342">
        <ele>773.40002441406</ele>
        <time>2021-10-07T11:59:55.000Z</time>
      </trkpt>
      <trkpt lat="43.06274" lon="0.1334">
        <ele>773.59997558594</ele>
        <time>2021-10-07T11:59:56.000Z</time>
      </trkpt>
      <trkpt lat="43.06279" lon="0.13325">
        <ele>774.59997558594</ele>
        <time>2021-10-07T12:00:00.000Z</time>
      </trkpt>
      <trkpt lat="43.06281" lon="0.1332">
        <ele>775.79998779297</ele>
        <time>2021-10-07T12:00:03.000Z</time>
      </trkpt>
      <trkpt lat="43.06282" lon="0.13315">
        <ele>776.40002441406</ele>
        <time>2021-10-07T12:00:06.000Z</time>
      </trkpt>
      <trkpt lat="43.06283" lon="0.13312">
        <ele>776.79998779297</ele>
        <time>2021-10-07T12:00:07.000Z</time>
      </trkpt>
      <trkpt lat="43.06285" lon="0.13306">
        <ele>777.59997558594</ele>
        <time>2021-10-07T12:00:09.000Z</time>
      </trkpt>
      <trkpt lat="43.06286" lon="0.13303">
        <ele>777.79998779297</ele>
        <time>2021-10-07T12:00:10.000Z</time>
      </trkpt>
      <trkpt lat="43.06292" lon="0.13291">
        <ele>779.40002441406</ele>
        <time>2021-10-07T12:00:14.000Z</time>
      </trkpt>
      <trkpt lat="43.06295" lon="0.13285">
        <ele>779.79998779297</ele>
        <time>2021-10-07T12:00:16.000Z</time>
      </trkpt>
      <trkpt lat="43.06298" lon="0.13274">
        <ele>780.20001220703</ele>
        <time>2021-10-07T12:00:19.000Z</time>
      </trkpt>
      <trkpt lat="43.06304" lon="0.13261">
        <ele>781.40002441406</ele>
        <time>2021-10-07T12:00:23.000Z</time>
      </trkpt>
      <trkpt lat="43.06305" lon="0.13258">
        <ele>781.59997558594</ele>
        <time>2021-10-07T12:00:24.000Z</time>
      </trkpt>
      <trkpt lat="43.06305" lon="0.13249">
        <ele>782.59997558594</ele>
        <time>2021-10-07T12:00:28.000Z</time>
      </trkpt>
      <trkpt lat="43.06306" lon="0.13245">
        <ele>783</ele>
        <time>2021-10-07T12:00:30.000Z</time>
      </trkpt>
      <trkpt lat="43.06308" lon="0.13235">
        <ele>783.59997558594</ele>
        <time>2021-10-07T12:00:34.000Z</time>
      </trkpt>
      <trkpt lat="43.06309" lon="0.13234">
        <ele>783.79998779297</ele>
        <time>2021-10-07T12:00:35.000Z</time>
      </trkpt>
      <trkpt lat="43.06309" lon="0.13233">
        <ele>784</ele>
        <time>2021-10-07T12:00:36.000Z</time>
      </trkpt>
      <trkpt lat="43.06311" lon="0.13225">
        <ele>784.79998779297</ele>
        <time>2021-10-07T12:00:39.000Z</time>
      </trkpt>
      <trkpt lat="43.06313" lon="0.13219">
        <ele>785.40002441406</ele>
        <time>2021-10-07T12:00:42.000Z</time>
      </trkpt>
      <trkpt lat="43.06314" lon="0.13214">
        <ele>785.79998779297</ele>
        <time>2021-10-07T12:00:44.000Z</time>
      </trkpt>
      <trkpt lat="43.06313" lon="0.13211">
        <ele>786.20001220703</ele>
        <time>2021-10-07T12:00:46.000Z</time>
      </trkpt>
      <trkpt lat="43.06314" lon="0.13203">
        <ele>787</ele>
        <time>2021-10-07T12:00:50.000Z</time>
      </trkpt>
      <trkpt lat="43.06318" lon="0.1319">
        <ele>787.79998779297</ele>
        <time>2021-10-07T12:00:54.000Z</time>
      </trkpt>
      <trkpt lat="43.06321" lon="0.13182">
        <ele>788.79998779297</ele>
        <time>2021-10-07T12:00:58.000Z</time>
      </trkpt>
      <trkpt lat="43.06323" lon="0.13179">
        <ele>789.20001220703</ele>
        <time>2021-10-07T12:00:59.000Z</time>
      </trkpt>
      <trkpt lat="43.06324" lon="0.13177">
        <ele>789.20001220703</ele>
        <time>2021-10-07T12:01:00.000Z</time>
      </trkpt>
      <trkpt lat="43.06328" lon="0.13171">
        <ele>789.59997558594</ele>
        <time>2021-10-07T12:01:02.000Z</time>
      </trkpt>
      <trkpt lat="43.06331" lon="0.13164">
        <ele>789.79998779297</ele>
        <time>2021-10-07T12:01:04.000Z</time>
      </trkpt>
      <trkpt lat="43.06335" lon="0.13154">
        <ele>789.79998779297</ele>
        <time>2021-10-07T12:01:07.000Z</time>
      </trkpt>
      <trkpt lat="43.06336" lon="0.13149">
        <ele>790</ele>
        <time>2021-10-07T12:01:09.000Z</time>
      </trkpt>
      <trkpt lat="43.06336" lon="0.13149">
        <ele>790</ele>
        <time>2021-10-07T12:01:12.000Z</time>
      </trkpt>
      <trkpt lat="43.06336" lon="0.13149">
        <ele>790.20001220703</ele>
        <time>2021-10-07T12:01:19.000Z</time>
      </trkpt>
      <trkpt lat="43.06337" lon="0.13149">
        <ele>790.20001220703</ele>
        <time>2021-10-07T12:01:39.000Z</time>
      </trkpt>
      <trkpt lat="43.06343" lon="0.13143">
        <ele>790.40002441406</ele>
        <time>2021-10-07T12:01:57.000Z</time>
      </trkpt>
      <trkpt lat="43.06359" lon="0.1313">
        <ele>789.79998779297</ele>
        <time>2021-10-07T12:02:03.000Z</time>
      </trkpt>
      <trkpt lat="43.06365" lon="0.13126">
        <ele>789.59997558594</ele>
        <time>2021-10-07T12:02:05.000Z</time>
      </trkpt>
      <trkpt lat="43.0637" lon="0.13121">
        <ele>788.79998779297</ele>
        <time>2021-10-07T12:02:07.000Z</time>
      </trkpt>
      <trkpt lat="43.06383" lon="0.1311">
        <ele>787.40002441406</ele>
        <time>2021-10-07T12:02:11.000Z</time>
      </trkpt>
      <trkpt lat="43.06398" lon="0.13098">
        <ele>786.40002441406</ele>
        <time>2021-10-07T12:02:15.000Z</time>
      </trkpt>
      <trkpt lat="43.06421" lon="0.13077">
        <ele>785.40002441406</ele>
        <time>2021-10-07T12:02:20.000Z</time>
      </trkpt>
      <trkpt lat="43.06424" lon="0.13073">
        <ele>785</ele>
        <time>2021-10-07T12:02:21.000Z</time>
      </trkpt>
      <trkpt lat="43.06432" lon="0.13066">
        <ele>784</ele>
        <time>2021-10-07T12:02:23.000Z</time>
      </trkpt>
      <trkpt lat="43.06443" lon="0.13057">
        <ele>782.79998779297</ele>
        <time>2021-10-07T12:02:27.000Z</time>
      </trkpt>
      <trkpt lat="43.06455" lon="0.13055">
        <ele>781.59997558594</ele>
        <time>2021-10-07T12:02:31.000Z</time>
      </trkpt>
      <trkpt lat="43.06468" lon="0.13067">
        <ele>780.59997558594</ele>
        <time>2021-10-07T12:02:35.000Z</time>
      </trkpt>
      <trkpt lat="43.06472" lon="0.1307">
        <ele>780</ele>
        <time>2021-10-07T12:02:36.000Z</time>
      </trkpt>
      <trkpt lat="43.06475" lon="0.13074">
        <ele>779.59997558594</ele>
        <time>2021-10-07T12:02:37.000Z</time>
      </trkpt>
      <trkpt lat="43.06481" lon="0.13084">
        <ele>779.20001220703</ele>
        <time>2021-10-07T12:02:39.000Z</time>
      </trkpt>
      <trkpt lat="43.06486" lon="0.1309">
        <ele>779.20001220703</ele>
        <time>2021-10-07T12:02:40.000Z</time>
      </trkpt>
      <trkpt lat="43.0649" lon="0.13096">
        <ele>778.59997558594</ele>
        <time>2021-10-07T12:02:41.000Z</time>
      </trkpt>
      <trkpt lat="43.06504" lon="0.13118">
        <ele>776.79998779297</ele>
        <time>2021-10-07T12:02:44.000Z</time>
      </trkpt>
      <trkpt lat="43.06515" lon="0.13132">
        <ele>776</ele>
        <time>2021-10-07T12:02:46.000Z</time>
      </trkpt>
      <trkpt lat="43.0652" lon="0.13139">
        <ele>775.59997558594</ele>
        <time>2021-10-07T12:02:47.000Z</time>
      </trkpt>
      <trkpt lat="43.06524" lon="0.13148">
        <ele>775</ele>
        <time>2021-10-07T12:02:48.000Z</time>
      </trkpt>
      <trkpt lat="43.06532" lon="0.13163">
        <ele>774.20001220703</ele>
        <time>2021-10-07T12:02:50.000Z</time>
      </trkpt>
      <trkpt lat="43.06537" lon="0.1317">
        <ele>773.59997558594</ele>
        <time>2021-10-07T12:02:51.000Z</time>
      </trkpt>
      <trkpt lat="43.06541" lon="0.13178">
        <ele>773.20001220703</ele>
        <time>2021-10-07T12:02:52.000Z</time>
      </trkpt>
      <trkpt lat="43.06547" lon="0.13193">
        <ele>772.40002441406</ele>
        <time>2021-10-07T12:02:54.000Z</time>
      </trkpt>
      <trkpt lat="43.0655" lon="0.132">
        <ele>771.79998779297</ele>
        <time>2021-10-07T12:02:55.000Z</time>
      </trkpt>
      <trkpt lat="43.06558" lon="0.13216">
        <ele>770.79998779297</ele>
        <time>2021-10-07T12:02:57.000Z</time>
      </trkpt>
      <trkpt lat="43.0656" lon="0.13222">
        <ele>769.79998779297</ele>
        <time>2021-10-07T12:02:58.000Z</time>
      </trkpt>
      <trkpt lat="43.06563" lon="0.13231">
        <ele>769.20001220703</ele>
        <time>2021-10-07T12:02:59.000Z</time>
      </trkpt>
      <trkpt lat="43.06564" lon="0.13238">
        <ele>768.40002441406</ele>
        <time>2021-10-07T12:03:00.000Z</time>
      </trkpt>
      <trkpt lat="43.06564" lon="0.13245">
        <ele>768</ele>
        <time>2021-10-07T12:03:01.000Z</time>
      </trkpt>
      <trkpt lat="43.06564" lon="0.13253">
        <ele>767.59997558594</ele>
        <time>2021-10-07T12:03:02.000Z</time>
      </trkpt>
      <trkpt lat="43.06562" lon="0.13268">
        <ele>766.59997558594</ele>
        <time>2021-10-07T12:03:04.000Z</time>
      </trkpt>
      <trkpt lat="43.06558" lon="0.1328">
        <ele>765.40002441406</ele>
        <time>2021-10-07T12:03:06.000Z</time>
      </trkpt>
      <trkpt lat="43.06554" lon="0.13297">
        <ele>764.59997558594</ele>
        <time>2021-10-07T12:03:08.000Z</time>
      </trkpt>
      <trkpt lat="43.06554" lon="0.13307">
        <ele>764.20001220703</ele>
        <time>2021-10-07T12:03:09.000Z</time>
      </trkpt>
      <trkpt lat="43.06552" lon="0.13325">
        <ele>763.20001220703</ele>
        <time>2021-10-07T12:03:11.000Z</time>
      </trkpt>
      <trkpt lat="43.06552" lon="0.13335">
        <ele>762.79998779297</ele>
        <time>2021-10-07T12:03:12.000Z</time>
      </trkpt>
      <trkpt lat="43.06549" lon="0.13346">
        <ele>762.59997558594</ele>
        <time>2021-10-07T12:03:13.000Z</time>
      </trkpt>
      <trkpt lat="43.06545" lon="0.13367">
        <ele>761.79998779297</ele>
        <time>2021-10-07T12:03:15.000Z</time>
      </trkpt>
      <trkpt lat="43.06544" lon="0.13376">
        <ele>760.59997558594</ele>
        <time>2021-10-07T12:03:16.000Z</time>
      </trkpt>
      <trkpt lat="43.06543" lon="0.13386">
        <ele>760</ele>
        <time>2021-10-07T12:03:17.000Z</time>
      </trkpt>
      <trkpt lat="43.06543" lon="0.13394">
        <ele>758.79998779297</ele>
        <time>2021-10-07T12:03:18.000Z</time>
      </trkpt>
      <trkpt lat="43.06544" lon="0.13404">
        <ele>758</ele>
        <time>2021-10-07T12:03:19.000Z</time>
      </trkpt>
      <trkpt lat="43.06545" lon="0.13415">
        <ele>757.59997558594</ele>
        <time>2021-10-07T12:03:20.000Z</time>
      </trkpt>
      <trkpt lat="43.06551" lon="0.13436">
        <ele>756.79998779297</ele>
        <time>2021-10-07T12:03:22.000Z</time>
      </trkpt>
      <trkpt lat="43.06552" lon="0.13447">
        <ele>756.20001220703</ele>
        <time>2021-10-07T12:03:23.000Z</time>
      </trkpt>
      <trkpt lat="43.06553" lon="0.1346">
        <ele>755.40002441406</ele>
        <time>2021-10-07T12:03:24.000Z</time>
      </trkpt>
      <trkpt lat="43.06551" lon="0.13468">
        <ele>754.40002441406</ele>
        <time>2021-10-07T12:03:25.000Z</time>
      </trkpt>
      <trkpt lat="43.06551" lon="0.13478">
        <ele>753.59997558594</ele>
        <time>2021-10-07T12:03:26.000Z</time>
      </trkpt>
      <trkpt lat="43.06549" lon="0.13487">
        <ele>753.20001220703</ele>
        <time>2021-10-07T12:03:27.000Z</time>
      </trkpt>
      <trkpt lat="43.06547" lon="0.135">
        <ele>752.40002441406</ele>
        <time>2021-10-07T12:03:28.000Z</time>
      </trkpt>
      <trkpt lat="43.06548" lon="0.13507">
        <ele>752</ele>
        <time>2021-10-07T12:03:29.000Z</time>
      </trkpt>
      <trkpt lat="43.06541" lon="0.13537">
        <ele>751</ele>
        <time>2021-10-07T12:03:32.000Z</time>
      </trkpt>
      <trkpt lat="43.06538" lon="0.1356">
        <ele>749.79998779297</ele>
        <time>2021-10-07T12:03:34.000Z</time>
      </trkpt>
      <trkpt lat="43.06535" lon="0.13571">
        <ele>749</ele>
        <time>2021-10-07T12:03:35.000Z</time>
      </trkpt>
      <trkpt lat="43.06534" lon="0.13578">
        <ele>748.40002441406</ele>
        <time>2021-10-07T12:03:36.000Z</time>
      </trkpt>
      <trkpt lat="43.06533" lon="0.13586">
        <ele>747.59997558594</ele>
        <time>2021-10-07T12:03:37.000Z</time>
      </trkpt>
      <trkpt lat="43.06533" lon="0.13593">
        <ele>747.20001220703</ele>
        <time>2021-10-07T12:03:38.000Z</time>
      </trkpt>
      <trkpt lat="43.06531" lon="0.13602">
        <ele>746.20001220703</ele>
        <time>2021-10-07T12:03:39.000Z</time>
      </trkpt>
      <trkpt lat="43.06529" lon="0.13615">
        <ele>745.59997558594</ele>
        <time>2021-10-07T12:03:40.000Z</time>
      </trkpt>
      <trkpt lat="43.0653" lon="0.13621">
        <ele>745.59997558594</ele>
        <time>2021-10-07T12:03:41.000Z</time>
      </trkpt>
      <trkpt lat="43.06532" lon="0.1363">
        <ele>744.79998779297</ele>
        <time>2021-10-07T12:03:42.000Z</time>
      </trkpt>
      <trkpt lat="43.06533" lon="0.13638">
        <ele>744.20001220703</ele>
        <time>2021-10-07T12:03:43.000Z</time>
      </trkpt>
      <trkpt lat="43.06533" lon="0.13653">
        <ele>742.59997558594</ele>
        <time>2021-10-07T12:03:45.000Z</time>
      </trkpt>
      <trkpt lat="43.0653" lon="0.13664">
        <ele>741.20001220703</ele>
        <time>2021-10-07T12:03:47.000Z</time>
      </trkpt>
      <trkpt lat="43.06528" lon="0.13668">
        <ele>740.79998779297</ele>
        <time>2021-10-07T12:03:48.000Z</time>
      </trkpt>
      <trkpt lat="43.06528" lon="0.13671">
        <ele>740</ele>
        <time>2021-10-07T12:03:49.000Z</time>
      </trkpt>
      <trkpt lat="43.06528" lon="0.13671">
        <ele>739.40002441406</ele>
        <time>2021-10-07T12:03:51.000Z</time>
      </trkpt>
      <trkpt lat="43.06528" lon="0.13671">
        <ele>739</ele>
        <time>2021-10-07T12:03:52.000Z</time>
      </trkpt>
      <trkpt lat="43.06528" lon="0.13671">
        <ele>738.59997558594</ele>
        <time>2021-10-07T12:04:09.000Z</time>
      </trkpt>
      <trkpt lat="43.06534" lon="0.13672">
        <ele>738.20001220703</ele>
        <time>2021-10-07T12:04:27.000Z</time>
      </trkpt>
      <trkpt lat="43.06549" lon="0.1367">
        <ele>737.79998779297</ele>
        <time>2021-10-07T12:04:31.000Z</time>
      </trkpt>
      <trkpt lat="43.06552" lon="0.13673">
        <ele>737.40002441406</ele>
        <time>2021-10-07T12:04:32.000Z</time>
      </trkpt>
      <trkpt lat="43.06558" lon="0.13681">
        <ele>736.79998779297</ele>
        <time>2021-10-07T12:04:34.000Z</time>
      </trkpt>
      <trkpt lat="43.06559" lon="0.13687">
        <ele>736.59997558594</ele>
        <time>2021-10-07T12:04:35.000Z</time>
      </trkpt>
      <trkpt lat="43.06563" lon="0.13698">
        <ele>735.59997558594</ele>
        <time>2021-10-07T12:04:37.000Z</time>
      </trkpt>
      <trkpt lat="43.06564" lon="0.13707">
        <ele>734.40002441406</ele>
        <time>2021-10-07T12:04:39.000Z</time>
      </trkpt>
      <trkpt lat="43.06566" lon="0.13713">
        <ele>732</ele>
        <time>2021-10-07T12:04:41.000Z</time>
      </trkpt>
      <trkpt lat="43.06567" lon="0.13714">
        <ele>731.59997558594</ele>
        <time>2021-10-07T12:04:42.000Z</time>
      </trkpt>
      <trkpt lat="43.06567" lon="0.13714">
        <ele>730.79998779297</ele>
        <time>2021-10-07T12:04:43.000Z</time>
      </trkpt>
      <trkpt lat="43.06567" lon="0.13714">
        <ele>729.40002441406</ele>
        <time>2021-10-07T12:04:45.000Z</time>
      </trkpt>
      <trkpt lat="43.06567" lon="0.13714">
        <ele>728.79998779297</ele>
        <time>2021-10-07T12:04:46.000Z</time>
      </trkpt>
      <trkpt lat="43.06567" lon="0.13714">
        <ele>728.40002441406</ele>
        <time>2021-10-07T12:04:49.000Z</time>
      </trkpt>
      <trkpt lat="43.06568" lon="0.13714">
        <ele>728</ele>
        <time>2021-10-07T12:04:57.000Z</time>
      </trkpt>
      <trkpt lat="43.06569" lon="0.13716">
        <ele>727.79998779297</ele>
        <time>2021-10-07T12:05:00.000Z</time>
      </trkpt>
      <trkpt lat="43.06569" lon="0.13717">
        <ele>727.79998779297</ele>
        <time>2021-10-07T12:05:02.000Z</time>
      </trkpt>
      <trkpt lat="43.06566" lon="0.13718">
        <ele>727.59997558594</ele>
        <time>2021-10-07T12:05:04.000Z</time>
      </trkpt>
      <trkpt lat="43.06557" lon="0.1372">
        <ele>727.40002441406</ele>
        <time>2021-10-07T12:05:07.000Z</time>
      </trkpt>
      <trkpt lat="43.06551" lon="0.13722">
        <ele>726.59997558594</ele>
        <time>2021-10-07T12:05:09.000Z</time>
      </trkpt>
      <trkpt lat="43.06548" lon="0.13727">
        <ele>726.20001220703</ele>
        <time>2021-10-07T12:05:10.000Z</time>
      </trkpt>
      <trkpt lat="43.06539" lon="0.13734">
        <ele>725</ele>
        <time>2021-10-07T12:05:13.000Z</time>
      </trkpt>
      <trkpt lat="43.06532" lon="0.13743">
        <ele>723.59997558594</ele>
        <time>2021-10-07T12:05:15.000Z</time>
      </trkpt>
      <trkpt lat="43.06529" lon="0.13749">
        <ele>722.40002441406</ele>
        <time>2021-10-07T12:05:16.000Z</time>
      </trkpt>
      <trkpt lat="43.06519" lon="0.13768">
        <ele>721</ele>
        <time>2021-10-07T12:05:19.000Z</time>
      </trkpt>
      <trkpt lat="43.06505" lon="0.13788">
        <ele>720</ele>
        <time>2021-10-07T12:05:22.000Z</time>
      </trkpt>
      <trkpt lat="43.06499" lon="0.13797">
        <ele>719</ele>
        <time>2021-10-07T12:05:23.000Z</time>
      </trkpt>
      <trkpt lat="43.06489" lon="0.13818">
        <ele>717.79998779297</ele>
        <time>2021-10-07T12:05:25.000Z</time>
      </trkpt>
      <trkpt lat="43.06482" lon="0.13834">
        <ele>716.20001220703</ele>
        <time>2021-10-07T12:05:27.000Z</time>
      </trkpt>
      <trkpt lat="43.06481" lon="0.13847">
        <ele>714.79998779297</ele>
        <time>2021-10-07T12:05:28.000Z</time>
      </trkpt>
      <trkpt lat="43.06481" lon="0.13851">
        <ele>714</ele>
        <time>2021-10-07T12:05:29.000Z</time>
      </trkpt>
      <trkpt lat="43.06482" lon="0.13854">
        <ele>712.79998779297</ele>
        <time>2021-10-07T12:05:30.000Z</time>
      </trkpt>
      <trkpt lat="43.06485" lon="0.13862">
        <ele>711.20001220703</ele>
        <time>2021-10-07T12:05:32.000Z</time>
      </trkpt>
      <trkpt lat="43.06485" lon="0.13871">
        <ele>710.59997558594</ele>
        <time>2021-10-07T12:05:34.000Z</time>
      </trkpt>
      <trkpt lat="43.06485" lon="0.13878">
        <ele>710</ele>
        <time>2021-10-07T12:05:35.000Z</time>
      </trkpt>
      <trkpt lat="43.06483" lon="0.13888">
        <ele>709.40002441406</ele>
        <time>2021-10-07T12:05:36.000Z</time>
      </trkpt>
      <trkpt lat="43.06479" lon="0.139">
        <ele>709</ele>
        <time>2021-10-07T12:05:37.000Z</time>
      </trkpt>
      <trkpt lat="43.06476" lon="0.13913">
        <ele>708.40002441406</ele>
        <time>2021-10-07T12:05:38.000Z</time>
      </trkpt>
      <trkpt lat="43.06474" lon="0.13924">
        <ele>708</ele>
        <time>2021-10-07T12:05:39.000Z</time>
      </trkpt>
      <trkpt lat="43.06472" lon="0.13932">
        <ele>707.79998779297</ele>
        <time>2021-10-07T12:05:40.000Z</time>
      </trkpt>
      <trkpt lat="43.06467" lon="0.13946">
        <ele>706.79998779297</ele>
        <time>2021-10-07T12:05:42.000Z</time>
      </trkpt>
      <trkpt lat="43.06464" lon="0.13952">
        <ele>706.59997558594</ele>
        <time>2021-10-07T12:05:43.000Z</time>
      </trkpt>
      <trkpt lat="43.06459" lon="0.13959">
        <ele>705.59997558594</ele>
        <time>2021-10-07T12:05:44.000Z</time>
      </trkpt>
      <trkpt lat="43.06455" lon="0.13966">
        <ele>705.40002441406</ele>
        <time>2021-10-07T12:05:45.000Z</time>
      </trkpt>
      <trkpt lat="43.06454" lon="0.13973">
        <ele>704.40002441406</ele>
        <time>2021-10-07T12:05:46.000Z</time>
      </trkpt>
      <trkpt lat="43.06453" lon="0.1398">
        <ele>702.40002441406</ele>
        <time>2021-10-07T12:05:47.000Z</time>
      </trkpt>
      <trkpt lat="43.0645" lon="0.13992">
        <ele>700.40002441406</ele>
        <time>2021-10-07T12:05:49.000Z</time>
      </trkpt>
      <trkpt lat="43.06448" lon="0.13999">
        <ele>700</ele>
        <time>2021-10-07T12:05:50.000Z</time>
      </trkpt>
      <trkpt lat="43.06444" lon="0.14007">
        <ele>699.40002441406</ele>
        <time>2021-10-07T12:05:51.000Z</time>
      </trkpt>
      <trkpt lat="43.0644" lon="0.14014">
        <ele>699</ele>
        <time>2021-10-07T12:05:52.000Z</time>
      </trkpt>
      <trkpt lat="43.06438" lon="0.14022">
        <ele>697.40002441406</ele>
        <time>2021-10-07T12:05:53.000Z</time>
      </trkpt>
      <trkpt lat="43.06436" lon="0.14029">
        <ele>696.20001220703</ele>
        <time>2021-10-07T12:05:54.000Z</time>
      </trkpt>
      <trkpt lat="43.06429" lon="0.14041">
        <ele>694.79998779297</ele>
        <time>2021-10-07T12:05:56.000Z</time>
      </trkpt>
      <trkpt lat="43.06425" lon="0.1405">
        <ele>693.59997558594</ele>
        <time>2021-10-07T12:05:58.000Z</time>
      </trkpt>
      <trkpt lat="43.06419" lon="0.14062">
        <ele>691.79998779297</ele>
        <time>2021-10-07T12:06:00.000Z</time>
      </trkpt>
      <trkpt lat="43.06417" lon="0.14069">
        <ele>691.20001220703</ele>
        <time>2021-10-07T12:06:01.000Z</time>
      </trkpt>
      <trkpt lat="43.06415" lon="0.14076">
        <ele>690.79998779297</ele>
        <time>2021-10-07T12:06:02.000Z</time>
      </trkpt>
      <trkpt lat="43.06414" lon="0.14078">
        <ele>690</ele>
        <time>2021-10-07T12:06:03.000Z</time>
      </trkpt>
      <trkpt lat="43.06411" lon="0.1408">
        <ele>689.59997558594</ele>
        <time>2021-10-07T12:06:04.000Z</time>
      </trkpt>
      <trkpt lat="43.06403" lon="0.14086">
        <ele>688.59997558594</ele>
        <time>2021-10-07T12:06:06.000Z</time>
      </trkpt>
      <trkpt lat="43.064" lon="0.14089">
        <ele>687.20001220703</ele>
        <time>2021-10-07T12:06:07.000Z</time>
      </trkpt>
      <trkpt lat="43.06397" lon="0.14092">
        <ele>686</ele>
        <time>2021-10-07T12:06:08.000Z</time>
      </trkpt>
      <trkpt lat="43.06394" lon="0.14097">
        <ele>685.59997558594</ele>
        <time>2021-10-07T12:06:09.000Z</time>
      </trkpt>
      <trkpt lat="43.06393" lon="0.14098">
        <ele>684.20001220703</ele>
        <time>2021-10-07T12:06:10.000Z</time>
      </trkpt>
      <trkpt lat="43.06388" lon="0.14101">
        <ele>683</ele>
        <time>2021-10-07T12:06:12.000Z</time>
      </trkpt>
      <trkpt lat="43.06385" lon="0.14111">
        <ele>682.20001220703</ele>
        <time>2021-10-07T12:06:14.000Z</time>
      </trkpt>
      <trkpt lat="43.06383" lon="0.14119">
        <ele>681.59997558594</ele>
        <time>2021-10-07T12:06:15.000Z</time>
      </trkpt>
      <trkpt lat="43.06379" lon="0.14132">
        <ele>680.79998779297</ele>
        <time>2021-10-07T12:06:17.000Z</time>
      </trkpt>
      <trkpt lat="43.06372" lon="0.1415">
        <ele>680.40002441406</ele>
        <time>2021-10-07T12:06:19.000Z</time>
      </trkpt>
      <trkpt lat="43.06364" lon="0.1417">
        <ele>679</ele>
        <time>2021-10-07T12:06:21.000Z</time>
      </trkpt>
      <trkpt lat="43.06359" lon="0.14176">
        <ele>678</ele>
        <time>2021-10-07T12:06:23.000Z</time>
      </trkpt>
      <trkpt lat="43.06356" lon="0.14177">
        <ele>677.20001220703</ele>
        <time>2021-10-07T12:06:24.000Z</time>
      </trkpt>
      <trkpt lat="43.06349" lon="0.14177">
        <ele>675.79998779297</ele>
        <time>2021-10-07T12:06:26.000Z</time>
      </trkpt>
      <trkpt lat="43.06345" lon="0.14181">
        <ele>675.40002441406</ele>
        <time>2021-10-07T12:06:27.000Z</time>
      </trkpt>
      <trkpt lat="43.0634" lon="0.14184">
        <ele>675.20001220703</ele>
        <time>2021-10-07T12:06:28.000Z</time>
      </trkpt>
      <trkpt lat="43.06336" lon="0.14186">
        <ele>674.20001220703</ele>
        <time>2021-10-07T12:06:29.000Z</time>
      </trkpt>
      <trkpt lat="43.06331" lon="0.14188">
        <ele>672.40002441406</ele>
        <time>2021-10-07T12:06:31.000Z</time>
      </trkpt>
      <trkpt lat="43.06327" lon="0.14193">
        <ele>670.79998779297</ele>
        <time>2021-10-07T12:06:33.000Z</time>
      </trkpt>
      <trkpt lat="43.06326" lon="0.14201">
        <ele>670</ele>
        <time>2021-10-07T12:06:34.000Z</time>
      </trkpt>
      <trkpt lat="43.06324" lon="0.14209">
        <ele>669.59997558594</ele>
        <time>2021-10-07T12:06:35.000Z</time>
      </trkpt>
      <trkpt lat="43.0632" lon="0.14224">
        <ele>669</ele>
        <time>2021-10-07T12:06:36.000Z</time>
      </trkpt>
      <trkpt lat="43.06314" lon="0.14235">
        <ele>668.20001220703</ele>
        <time>2021-10-07T12:06:38.000Z</time>
      </trkpt>
      <trkpt lat="43.06312" lon="0.14241">
        <ele>667.79998779297</ele>
        <time>2021-10-07T12:06:39.000Z</time>
      </trkpt>
      <trkpt lat="43.06312" lon="0.14251">
        <ele>667</ele>
        <time>2021-10-07T12:06:40.000Z</time>
      </trkpt>
      <trkpt lat="43.0631" lon="0.14262">
        <ele>665.79998779297</ele>
        <time>2021-10-07T12:06:41.000Z</time>
      </trkpt>
      <trkpt lat="43.06303" lon="0.14276">
        <ele>664.59997558594</ele>
        <time>2021-10-07T12:06:43.000Z</time>
      </trkpt>
      <trkpt lat="43.06299" lon="0.14287">
        <ele>663.20001220703</ele>
        <time>2021-10-07T12:06:45.000Z</time>
      </trkpt>
      <trkpt lat="43.06298" lon="0.14291">
        <ele>660.79998779297</ele>
        <time>2021-10-07T12:06:47.000Z</time>
      </trkpt>
      <trkpt lat="43.06296" lon="0.14302">
        <ele>658.79998779297</ele>
        <time>2021-10-07T12:06:49.000Z</time>
      </trkpt>
      <trkpt lat="43.06296" lon="0.14305">
        <ele>657.59997558594</ele>
        <time>2021-10-07T12:06:50.000Z</time>
      </trkpt>
      <trkpt lat="43.06296" lon="0.14312">
        <ele>656.59997558594</ele>
        <time>2021-10-07T12:06:52.000Z</time>
      </trkpt>
      <trkpt lat="43.06296" lon="0.14319">
        <ele>655.59997558594</ele>
        <time>2021-10-07T12:06:55.000Z</time>
      </trkpt>
      <trkpt lat="43.06297" lon="0.14321">
        <ele>654.79998779297</ele>
        <time>2021-10-07T12:06:57.000Z</time>
      </trkpt>
      <trkpt lat="43.06298" lon="0.14322">
        <ele>654.79998779297</ele>
        <time>2021-10-07T12:06:58.000Z</time>
      </trkpt>
      <trkpt lat="43.06299" lon="0.14321">
        <ele>654.40002441406</ele>
        <time>2021-10-07T12:06:59.000Z</time>
      </trkpt>
      <trkpt lat="43.06306" lon="0.14312">
        <ele>653.79998779297</ele>
        <time>2021-10-07T12:07:03.000Z</time>
      </trkpt>
      <trkpt lat="43.06308" lon="0.1431">
        <ele>653.40002441406</ele>
        <time>2021-10-07T12:07:04.000Z</time>
      </trkpt>
      <trkpt lat="43.06316" lon="0.14298">
        <ele>652.20001220703</ele>
        <time>2021-10-07T12:07:08.000Z</time>
      </trkpt>
      <trkpt lat="43.06326" lon="0.14287">
        <ele>651.59997558594</ele>
        <time>2021-10-07T12:07:11.000Z</time>
      </trkpt>
      <trkpt lat="43.06332" lon="0.14279">
        <ele>650.59997558594</ele>
        <time>2021-10-07T12:07:13.000Z</time>
      </trkpt>
      <trkpt lat="43.06337" lon="0.14269">
        <ele>649.79998779297</ele>
        <time>2021-10-07T12:07:15.000Z</time>
      </trkpt>
      <trkpt lat="43.06339" lon="0.14266">
        <ele>649.20001220703</ele>
        <time>2021-10-07T12:07:16.000Z</time>
      </trkpt>
      <trkpt lat="43.06342" lon="0.14264">
        <ele>649</ele>
        <time>2021-10-07T12:07:17.000Z</time>
      </trkpt>
      <trkpt lat="43.06343" lon="0.14265">
        <ele>648.40002441406</ele>
        <time>2021-10-07T12:07:18.000Z</time>
      </trkpt>
      <trkpt lat="43.06344" lon="0.14266">
        <ele>648.20001220703</ele>
        <time>2021-10-07T12:07:19.000Z</time>
      </trkpt>
      <trkpt lat="43.06344" lon="0.14268">
        <ele>647.79998779297</ele>
        <time>2021-10-07T12:07:20.000Z</time>
      </trkpt>
      <trkpt lat="43.06342" lon="0.14272">
        <ele>647.20001220703</ele>
        <time>2021-10-07T12:07:22.000Z</time>
      </trkpt>
      <trkpt lat="43.06342" lon="0.14274">
        <ele>646.79998779297</ele>
        <time>2021-10-07T12:07:23.000Z</time>
      </trkpt>
      <trkpt lat="43.06338" lon="0.14287">
        <ele>645.59997558594</ele>
        <time>2021-10-07T12:07:26.000Z</time>
      </trkpt>
      <trkpt lat="43.06335" lon="0.14293">
        <ele>645</ele>
        <time>2021-10-07T12:07:27.000Z</time>
      </trkpt>
      <trkpt lat="43.06332" lon="0.14303">
        <ele>644.20001220703</ele>
        <time>2021-10-07T12:07:29.000Z</time>
      </trkpt>
      <trkpt lat="43.06332" lon="0.14316">
        <ele>642.59997558594</ele>
        <time>2021-10-07T12:07:31.000Z</time>
      </trkpt>
      <trkpt lat="43.06331" lon="0.14327">
        <ele>641</ele>
        <time>2021-10-07T12:07:33.000Z</time>
      </trkpt>
      <trkpt lat="43.06333" lon="0.14335">
        <ele>640.20001220703</ele>
        <time>2021-10-07T12:07:35.000Z</time>
      </trkpt>
      <trkpt lat="43.06334" lon="0.14341">
        <ele>638.79998779297</ele>
        <time>2021-10-07T12:07:36.000Z</time>
      </trkpt>
      <trkpt lat="43.06337" lon="0.14347">
        <ele>637.79998779297</ele>
        <time>2021-10-07T12:07:37.000Z</time>
      </trkpt>
      <trkpt lat="43.06341" lon="0.14361">
        <ele>636</ele>
        <time>2021-10-07T12:07:39.000Z</time>
      </trkpt>
      <trkpt lat="43.06339" lon="0.14378">
        <ele>634.59997558594</ele>
        <time>2021-10-07T12:07:41.000Z</time>
      </trkpt>
      <trkpt lat="43.06337" lon="0.14389">
        <ele>633.20001220703</ele>
        <time>2021-10-07T12:07:43.000Z</time>
      </trkpt>
      <trkpt lat="43.06332" lon="0.14394">
        <ele>632.40002441406</ele>
        <time>2021-10-07T12:07:44.000Z</time>
      </trkpt>
      <trkpt lat="43.06329" lon="0.14399">
        <ele>632</ele>
        <time>2021-10-07T12:07:45.000Z</time>
      </trkpt>
      <trkpt lat="43.06324" lon="0.14402">
        <ele>631</ele>
        <time>2021-10-07T12:07:46.000Z</time>
      </trkpt>
      <trkpt lat="43.06319" lon="0.14404">
        <ele>630.59997558594</ele>
        <time>2021-10-07T12:07:47.000Z</time>
      </trkpt>
      <trkpt lat="43.06314" lon="0.14411">
        <ele>629.59997558594</ele>
        <time>2021-10-07T12:07:49.000Z</time>
      </trkpt>
      <trkpt lat="43.0631" lon="0.14416">
        <ele>627</ele>
        <time>2021-10-07T12:07:51.000Z</time>
      </trkpt>
      <trkpt lat="43.06308" lon="0.14425">
        <ele>626.40002441406</ele>
        <time>2021-10-07T12:07:52.000Z</time>
      </trkpt>
      <trkpt lat="43.06306" lon="0.14428">
        <ele>624.79998779297</ele>
        <time>2021-10-07T12:07:53.000Z</time>
      </trkpt>
      <trkpt lat="43.06306" lon="0.14428">
        <ele>623.20001220703</ele>
        <time>2021-10-07T12:07:55.000Z</time>
      </trkpt>
      <trkpt lat="43.06306" lon="0.14428">
        <ele>622</ele>
        <time>2021-10-07T12:07:57.000Z</time>
      </trkpt>
      <trkpt lat="43.06306" lon="0.14428">
        <ele>621</ele>
        <time>2021-10-07T12:08:01.000Z</time>
      </trkpt>
      <trkpt lat="43.06305" lon="0.14429">
        <ele>620.59997558594</ele>
        <time>2021-10-07T12:08:06.000Z</time>
      </trkpt>
      <trkpt lat="43.06306" lon="0.1443">
        <ele>620.40002441406</ele>
        <time>2021-10-07T12:08:14.000Z</time>
      </trkpt>
      <trkpt lat="43.06306" lon="0.1443">
        <ele>620.40002441406</ele>
        <time>2021-10-07T12:08:22.000Z</time>
      </trkpt>
      <trkpt lat="43.0631" lon="0.14428">
        <ele>620.40002441406</ele>
        <time>2021-10-07T12:08:25.000Z</time>
      </trkpt>
      <trkpt lat="43.06311" lon="0.14426">
        <ele>620.40002441406</ele>
        <time>2021-10-07T12:08:26.000Z</time>
      </trkpt>
      <trkpt lat="43.06315" lon="0.1442">
        <ele>620.20001220703</ele>
        <time>2021-10-07T12:08:29.000Z</time>
      </trkpt>
      <trkpt lat="43.06322" lon="0.14413">
        <ele>620.40002441406</ele>
        <time>2021-10-07T12:08:33.000Z</time>
      </trkpt>
      <trkpt lat="43.06326" lon="0.1441">
        <ele>620.40002441406</ele>
        <time>2021-10-07T12:08:35.000Z</time>
      </trkpt>
      <trkpt lat="43.06335" lon="0.14402">
        <ele>620.79998779297</ele>
        <time>2021-10-07T12:08:39.000Z</time>
      </trkpt>
      <trkpt lat="43.06339" lon="0.14397">
        <ele>621.20001220703</ele>
        <time>2021-10-07T12:08:41.000Z</time>
      </trkpt>
      <trkpt lat="43.06347" lon="0.14385">
        <ele>622</ele>
        <time>2021-10-07T12:08:44.000Z</time>
      </trkpt>
      <trkpt lat="43.06351" lon="0.14378">
        <ele>622.20001220703</ele>
        <time>2021-10-07T12:08:46.000Z</time>
      </trkpt>
      <trkpt lat="43.06352" lon="0.14368">
        <ele>622.59997558594</ele>
        <time>2021-10-07T12:08:49.000Z</time>
      </trkpt>
      <trkpt lat="43.06353" lon="0.14365">
        <ele>622.79998779297</ele>
        <time>2021-10-07T12:08:50.000Z</time>
      </trkpt>
      <trkpt lat="43.06354" lon="0.14361">
        <ele>623</ele>
        <time>2021-10-07T12:08:51.000Z</time>
      </trkpt>
      <trkpt lat="43.06357" lon="0.14353">
        <ele>623.40002441406</ele>
        <time>2021-10-07T12:08:53.000Z</time>
      </trkpt>
      <trkpt lat="43.06357" lon="0.14351">
        <ele>623.79998779297</ele>
        <time>2021-10-07T12:08:54.000Z</time>
      </trkpt>
      <trkpt lat="43.06357" lon="0.14349">
        <ele>624.40002441406</ele>
        <time>2021-10-07T12:08:56.000Z</time>
      </trkpt>
      <trkpt lat="43.06358" lon="0.14341">
        <ele>624.59997558594</ele>
        <time>2021-10-07T12:08:58.000Z</time>
      </trkpt>
      <trkpt lat="43.06358" lon="0.14339">
        <ele>624.79998779297</ele>
        <time>2021-10-07T12:08:59.000Z</time>
      </trkpt>
      <trkpt lat="43.0636" lon="0.14335">
        <ele>625</ele>
        <time>2021-10-07T12:09:00.000Z</time>
      </trkpt>
      <trkpt lat="43.06364" lon="0.14326">
        <ele>625.40002441406</ele>
        <time>2021-10-07T12:09:02.000Z</time>
      </trkpt>
      <trkpt lat="43.06366" lon="0.14321">
        <ele>625.40002441406</ele>
        <time>2021-10-07T12:09:03.000Z</time>
      </trkpt>
      <trkpt lat="43.0638" lon="0.14298">
        <ele>625.79998779297</ele>
        <time>2021-10-07T12:09:09.000Z</time>
      </trkpt>
      <trkpt lat="43.06382" lon="0.14294">
        <ele>626</ele>
        <time>2021-10-07T12:09:11.000Z</time>
      </trkpt>
      <trkpt lat="43.0639" lon="0.14293">
        <ele>626.20001220703</ele>
        <time>2021-10-07T12:09:13.000Z</time>
      </trkpt>
      <trkpt lat="43.06397" lon="0.14297">
        <ele>626.20001220703</ele>
        <time>2021-10-07T12:09:15.000Z</time>
      </trkpt>
      <trkpt lat="43.06399" lon="0.143">
        <ele>626.20001220703</ele>
        <time>2021-10-07T12:09:16.000Z</time>
      </trkpt>
      <trkpt lat="43.0641" lon="0.1431">
        <ele>625.79998779297</ele>
        <time>2021-10-07T12:09:20.000Z</time>
      </trkpt>
      <trkpt lat="43.06419" lon="0.14308">
        <ele>625.79998779297</ele>
        <time>2021-10-07T12:09:22.000Z</time>
      </trkpt>
      <trkpt lat="43.06421" lon="0.14306">
        <ele>625.59997558594</ele>
        <time>2021-10-07T12:09:23.000Z</time>
      </trkpt>
      <trkpt lat="43.06437" lon="0.14287">
        <ele>625.20001220703</ele>
        <time>2021-10-07T12:09:28.000Z</time>
      </trkpt>
      <trkpt lat="43.06447" lon="0.14272">
        <ele>624.79998779297</ele>
        <time>2021-10-07T12:09:32.000Z</time>
      </trkpt>
      <trkpt lat="43.06465" lon="0.1426">
        <ele>624.20001220703</ele>
        <time>2021-10-07T12:09:36.000Z</time>
      </trkpt>
      <trkpt lat="43.0647" lon="0.14257">
        <ele>624</ele>
        <time>2021-10-07T12:09:37.000Z</time>
      </trkpt>
      <trkpt lat="43.06476" lon="0.14255">
        <ele>623.79998779297</ele>
        <time>2021-10-07T12:09:38.000Z</time>
      </trkpt>
      <trkpt lat="43.06482" lon="0.14253">
        <ele>623.79998779297</ele>
        <time>2021-10-07T12:09:39.000Z</time>
      </trkpt>
      <trkpt lat="43.06501" lon="0.14248">
        <ele>623.40002441406</ele>
        <time>2021-10-07T12:09:42.000Z</time>
      </trkpt>
      <trkpt lat="43.06508" lon="0.14244">
        <ele>623</ele>
        <time>2021-10-07T12:09:43.000Z</time>
      </trkpt>
      <trkpt lat="43.06513" lon="0.14239">
        <ele>622.79998779297</ele>
        <time>2021-10-07T12:09:44.000Z</time>
      </trkpt>
      <trkpt lat="43.06522" lon="0.14226">
        <ele>622.40002441406</ele>
        <time>2021-10-07T12:09:46.000Z</time>
      </trkpt>
      <trkpt lat="43.06538" lon="0.14204">
        <ele>622.20001220703</ele>
        <time>2021-10-07T12:09:49.000Z</time>
      </trkpt>
      <trkpt lat="43.06543" lon="0.14195">
        <ele>621.79998779297</ele>
        <time>2021-10-07T12:09:50.000Z</time>
      </trkpt>
      <trkpt lat="43.06552" lon="0.14175">
        <ele>620.59997558594</ele>
        <time>2021-10-07T12:09:52.000Z</time>
      </trkpt>
      <trkpt lat="43.06565" lon="0.14148">
        <ele>619.20001220703</ele>
        <time>2021-10-07T12:09:55.000Z</time>
      </trkpt>
      <trkpt lat="43.06583" lon="0.14117">
        <ele>618.20001220703</ele>
        <time>2021-10-07T12:09:59.000Z</time>
      </trkpt>
      <trkpt lat="43.06589" lon="0.14111">
        <ele>618.40002441406</ele>
        <time>2021-10-07T12:10:00.000Z</time>
      </trkpt>
      <trkpt lat="43.06595" lon="0.14104">
        <ele>618.20001220703</ele>
        <time>2021-10-07T12:10:01.000Z</time>
      </trkpt>
      <trkpt lat="43.06605" lon="0.14091">
        <ele>617.59997558594</ele>
        <time>2021-10-07T12:10:03.000Z</time>
      </trkpt>
      <trkpt lat="43.06615" lon="0.14085">
        <ele>617.59997558594</ele>
        <time>2021-10-07T12:10:05.000Z</time>
      </trkpt>
      <trkpt lat="43.06624" lon="0.14089">
        <ele>617.40002441406</ele>
        <time>2021-10-07T12:10:07.000Z</time>
      </trkpt>
      <trkpt lat="43.06628" lon="0.14094">
        <ele>617.20001220703</ele>
        <time>2021-10-07T12:10:08.000Z</time>
      </trkpt>
      <trkpt lat="43.06632" lon="0.14099">
        <ele>617.20001220703</ele>
        <time>2021-10-07T12:10:09.000Z</time>
      </trkpt>
      <trkpt lat="43.06638" lon="0.14112">
        <ele>616.79998779297</ele>
        <time>2021-10-07T12:10:11.000Z</time>
      </trkpt>
      <trkpt lat="43.06645" lon="0.14124">
        <ele>616.40002441406</ele>
        <time>2021-10-07T12:10:13.000Z</time>
      </trkpt>
      <trkpt lat="43.06652" lon="0.14136">
        <ele>616.20001220703</ele>
        <time>2021-10-07T12:10:15.000Z</time>
      </trkpt>
      <trkpt lat="43.06656" lon="0.14141">
        <ele>616</ele>
        <time>2021-10-07T12:10:16.000Z</time>
      </trkpt>
      <trkpt lat="43.06666" lon="0.1415">
        <ele>615</ele>
        <time>2021-10-07T12:10:20.000Z</time>
      </trkpt>
      <trkpt lat="43.06667" lon="0.1415">
        <ele>615</ele>
        <time>2021-10-07T12:10:21.000Z</time>
      </trkpt>
      <trkpt lat="43.06671" lon="0.14148">
        <ele>614.59997558594</ele>
        <time>2021-10-07T12:10:24.000Z</time>
      </trkpt>
      <trkpt lat="43.06672" lon="0.14147">
        <ele>614.59997558594</ele>
        <time>2021-10-07T12:10:25.000Z</time>
      </trkpt>
      <trkpt lat="43.06673" lon="0.14146">
        <ele>614.40002441406</ele>
        <time>2021-10-07T12:10:32.000Z</time>
      </trkpt>
      <trkpt lat="43.06673" lon="0.14144">
        <ele>614.40002441406</ele>
        <time>2021-10-07T12:10:33.000Z</time>
      </trkpt>
      <trkpt lat="43.06676" lon="0.14137">
        <ele>614.20001220703</ele>
        <time>2021-10-07T12:10:36.000Z</time>
      </trkpt>
      <trkpt lat="43.06676" lon="0.14134">
        <ele>614.20001220703</ele>
        <time>2021-10-07T12:10:37.000Z</time>
      </trkpt>
      <trkpt lat="43.06677" lon="0.14129">
        <ele>614.20001220703</ele>
        <time>2021-10-07T12:10:38.000Z</time>
      </trkpt>
      <trkpt lat="43.06683" lon="0.14112">
        <ele>614</ele>
        <time>2021-10-07T12:10:41.000Z</time>
      </trkpt>
      <trkpt lat="43.06684" lon="0.14106">
        <ele>614</ele>
        <time>2021-10-07T12:10:42.000Z</time>
      </trkpt>
      <trkpt lat="43.06686" lon="0.14088">
        <ele>613.59997558594</ele>
        <time>2021-10-07T12:10:46.000Z</time>
      </trkpt>
      <trkpt lat="43.06685" lon="0.14085">
        <ele>613.79998779297</ele>
        <time>2021-10-07T12:10:47.000Z</time>
      </trkpt>
      <trkpt lat="43.06685" lon="0.1408">
        <ele>613.79998779297</ele>
        <time>2021-10-07T12:10:49.000Z</time>
      </trkpt>
      <trkpt lat="43.06686" lon="0.14079">
        <ele>613.79998779297</ele>
        <time>2021-10-07T12:10:51.000Z</time>
      </trkpt>
      <trkpt lat="43.06691" lon="0.14084">
        <ele>613.59997558594</ele>
        <time>2021-10-07T12:10:53.000Z</time>
      </trkpt>
      <trkpt lat="43.06694" lon="0.14095">
        <ele>613.59997558594</ele>
        <time>2021-10-07T12:10:55.000Z</time>
      </trkpt>
      <trkpt lat="43.06696" lon="0.14099">
        <ele>613.40002441406</ele>
        <time>2021-10-07T12:10:56.000Z</time>
      </trkpt>
      <trkpt lat="43.06697" lon="0.14105">
        <ele>613.20001220703</ele>
        <time>2021-10-07T12:10:57.000Z</time>
      </trkpt>
      <trkpt lat="43.067" lon="0.14111">
        <ele>612.79998779297</ele>
        <time>2021-10-07T12:10:58.000Z</time>
      </trkpt>
      <trkpt lat="43.06703" lon="0.14117">
        <ele>612.40002441406</ele>
        <time>2021-10-07T12:10:59.000Z</time>
      </trkpt>
      <trkpt lat="43.06707" lon="0.14123">
        <ele>611</ele>
        <time>2021-10-07T12:11:00.000Z</time>
      </trkpt>
      <trkpt lat="43.0671" lon="0.14129">
        <ele>610.40002441406</ele>
        <time>2021-10-07T12:11:01.000Z</time>
      </trkpt>
      <trkpt lat="43.06714" lon="0.14136">
        <ele>608.79998779297</ele>
        <time>2021-10-07T12:11:02.000Z</time>
      </trkpt>
      <trkpt lat="43.06717" lon="0.14143">
        <ele>607</ele>
        <time>2021-10-07T12:11:03.000Z</time>
      </trkpt>
      <trkpt lat="43.06717" lon="0.14161">
        <ele>605</ele>
        <time>2021-10-07T12:11:05.000Z</time>
      </trkpt>
      <trkpt lat="43.06715" lon="0.14168">
        <ele>604.20001220703</ele>
        <time>2021-10-07T12:11:06.000Z</time>
      </trkpt>
      <trkpt lat="43.06712" lon="0.14176">
        <ele>602.59997558594</ele>
        <time>2021-10-07T12:11:07.000Z</time>
      </trkpt>
      <trkpt lat="43.06705" lon="0.14193">
        <ele>600.59997558594</ele>
        <time>2021-10-07T12:11:09.000Z</time>
      </trkpt>
      <trkpt lat="43.067" lon="0.14199">
        <ele>598.79998779297</ele>
        <time>2021-10-07T12:11:10.000Z</time>
      </trkpt>
      <trkpt lat="43.0669" lon="0.14212">
        <ele>597.20001220703</ele>
        <time>2021-10-07T12:11:12.000Z</time>
      </trkpt>
      <trkpt lat="43.06679" lon="0.14225">
        <ele>594.79998779297</ele>
        <time>2021-10-07T12:11:14.000Z</time>
      </trkpt>
      <trkpt lat="43.06674" lon="0.1423">
        <ele>593.79998779297</ele>
        <time>2021-10-07T12:11:15.000Z</time>
      </trkpt>
      <trkpt lat="43.06668" lon="0.14235">
        <ele>592.20001220703</ele>
        <time>2021-10-07T12:11:16.000Z</time>
      </trkpt>
      <trkpt lat="43.06662" lon="0.14238">
        <ele>591</ele>
        <time>2021-10-07T12:11:17.000Z</time>
      </trkpt>
      <trkpt lat="43.06657" lon="0.14242">
        <ele>590.40002441406</ele>
        <time>2021-10-07T12:11:18.000Z</time>
      </trkpt>
      <trkpt lat="43.06655" lon="0.14247">
        <ele>589.20001220703</ele>
        <time>2021-10-07T12:11:19.000Z</time>
      </trkpt>
      <trkpt lat="43.06656" lon="0.14256">
        <ele>588.40002441406</ele>
        <time>2021-10-07T12:11:20.000Z</time>
      </trkpt>
      <trkpt lat="43.06657" lon="0.14265">
        <ele>586.59997558594</ele>
        <time>2021-10-07T12:11:21.000Z</time>
      </trkpt>
      <trkpt lat="43.06657" lon="0.14274">
        <ele>585.59997558594</ele>
        <time>2021-10-07T12:11:22.000Z</time>
      </trkpt>
      <trkpt lat="43.06657" lon="0.14281">
        <ele>584.79998779297</ele>
        <time>2021-10-07T12:11:23.000Z</time>
      </trkpt>
      <trkpt lat="43.06658" lon="0.14286">
        <ele>583.40002441406</ele>
        <time>2021-10-07T12:11:24.000Z</time>
      </trkpt>
      <trkpt lat="43.0666" lon="0.14299">
        <ele>581.59997558594</ele>
        <time>2021-10-07T12:11:26.000Z</time>
      </trkpt>
      <trkpt lat="43.06661" lon="0.14312">
        <ele>580.40002441406</ele>
        <time>2021-10-07T12:11:28.000Z</time>
      </trkpt>
      <trkpt lat="43.06663" lon="0.14328">
        <ele>579.40002441406</ele>
        <time>2021-10-07T12:11:30.000Z</time>
      </trkpt>
      <trkpt lat="43.06667" lon="0.14346">
        <ele>578</ele>
        <time>2021-10-07T12:11:32.000Z</time>
      </trkpt>
      <trkpt lat="43.06669" lon="0.14355">
        <ele>576.79998779297</ele>
        <time>2021-10-07T12:11:33.000Z</time>
      </trkpt>
      <trkpt lat="43.06673" lon="0.14373">
        <ele>574.79998779297</ele>
        <time>2021-10-07T12:11:35.000Z</time>
      </trkpt>
      <trkpt lat="43.06675" lon="0.1438">
        <ele>573.59997558594</ele>
        <time>2021-10-07T12:11:36.000Z</time>
      </trkpt>
      <trkpt lat="43.06679" lon="0.14394">
        <ele>571</ele>
        <time>2021-10-07T12:11:38.000Z</time>
      </trkpt>
      <trkpt lat="43.06681" lon="0.14399">
        <ele>570.40002441406</ele>
        <time>2021-10-07T12:11:39.000Z</time>
      </trkpt>
      <trkpt lat="43.06684" lon="0.14403">
        <ele>568.59997558594</ele>
        <time>2021-10-07T12:11:40.000Z</time>
      </trkpt>
      <trkpt lat="43.06689" lon="0.14406">
        <ele>567.79998779297</ele>
        <time>2021-10-07T12:11:41.000Z</time>
      </trkpt>
      <trkpt lat="43.06693" lon="0.14406">
        <ele>566</ele>
        <time>2021-10-07T12:11:42.000Z</time>
      </trkpt>
      <trkpt lat="43.06698" lon="0.14404">
        <ele>565</ele>
        <time>2021-10-07T12:11:43.000Z</time>
      </trkpt>
      <trkpt lat="43.06698" lon="0.14404">
        <ele>564.59997558594</ele>
        <time>2021-10-07T12:11:44.000Z</time>
      </trkpt>
      <trkpt lat="43.06707" lon="0.14397">
        <ele>563.59997558594</ele>
        <time>2021-10-07T12:11:45.000Z</time>
      </trkpt>
      <trkpt lat="43.06714" lon="0.14386">
        <ele>562.59997558594</ele>
        <time>2021-10-07T12:11:47.000Z</time>
      </trkpt>
      <trkpt lat="43.06718" lon="0.1438">
        <ele>562.40002441406</ele>
        <time>2021-10-07T12:11:48.000Z</time>
      </trkpt>
      <trkpt lat="43.06748" lon="0.1433">
        <ele>561.40002441406</ele>
        <time>2021-10-07T12:11:56.000Z</time>
      </trkpt>
      <trkpt lat="43.06784" lon="0.14274">
        <ele>561</ele>
        <time>2021-10-07T12:12:05.000Z</time>
      </trkpt>
      <trkpt lat="43.06789" lon="0.14268">
        <ele>561.40002441406</ele>
        <time>2021-10-07T12:12:06.000Z</time>
      </trkpt>
      <trkpt lat="43.06813" lon="0.14228">
        <ele>562.20001220703</ele>
        <time>2021-10-07T12:12:13.000Z</time>
      </trkpt>
      <trkpt lat="43.06819" lon="0.14218">
        <ele>562.40002441406</ele>
        <time>2021-10-07T12:12:15.000Z</time>
      </trkpt>
      <trkpt lat="43.06826" lon="0.14208">
        <ele>562.59997558594</ele>
        <time>2021-10-07T12:12:17.000Z</time>
      </trkpt>
      <trkpt lat="43.06837" lon="0.14189">
        <ele>563.59997558594</ele>
        <time>2021-10-07T12:12:21.000Z</time>
      </trkpt>
      <trkpt lat="43.06846" lon="0.14174">
        <ele>563.79998779297</ele>
        <time>2021-10-07T12:12:24.000Z</time>
      </trkpt>
      <trkpt lat="43.06862" lon="0.14149">
        <ele>564.20001220703</ele>
        <time>2021-10-07T12:12:29.000Z</time>
      </trkpt>
      <trkpt lat="43.06892" lon="0.14105">
        <ele>565</ele>
        <time>2021-10-07T12:12:37.000Z</time>
      </trkpt>
      <trkpt lat="43.06912" lon="0.14072">
        <ele>566.20001220703</ele>
        <time>2021-10-07T12:12:43.000Z</time>
      </trkpt>
      <trkpt lat="43.06919" lon="0.14059">
        <ele>566.59997558594</ele>
        <time>2021-10-07T12:12:45.000Z</time>
      </trkpt>
      <trkpt lat="43.06942" lon="0.14022">
        <ele>567</ele>
        <time>2021-10-07T12:12:51.000Z</time>
      </trkpt>
      <trkpt lat="43.0695" lon="0.1401">
        <ele>567.20001220703</ele>
        <time>2021-10-07T12:12:53.000Z</time>
      </trkpt>
      <trkpt lat="43.06963" lon="0.13988">
        <ele>567.59997558594</ele>
        <time>2021-10-07T12:12:57.000Z</time>
      </trkpt>
      <trkpt lat="43.0697" lon="0.13976">
        <ele>567.79998779297</ele>
        <time>2021-10-07T12:12:59.000Z</time>
      </trkpt>
      <trkpt lat="43.06973" lon="0.1397">
        <ele>568</ele>
        <time>2021-10-07T12:13:00.000Z</time>
      </trkpt>
      <trkpt lat="43.06977" lon="0.13964">
        <ele>568</ele>
        <time>2021-10-07T12:13:01.000Z</time>
      </trkpt>
      <trkpt lat="43.06993" lon="0.13934">
        <ele>568.40002441406</ele>
        <time>2021-10-07T12:13:06.000Z</time>
      </trkpt>
      <trkpt lat="43.07002" lon="0.13916">
        <ele>568.59997558594</ele>
        <time>2021-10-07T12:13:09.000Z</time>
      </trkpt>
      <trkpt lat="43.0701" lon="0.139">
        <ele>568.79998779297</ele>
        <time>2021-10-07T12:13:12.000Z</time>
      </trkpt>
      <trkpt lat="43.07016" lon="0.13894">
        <ele>568.79998779297</ele>
        <time>2021-10-07T12:13:14.000Z</time>
      </trkpt>
      <trkpt lat="43.0702" lon="0.13894">
        <ele>569</ele>
        <time>2021-10-07T12:13:15.000Z</time>
      </trkpt>
      <trkpt lat="43.07023" lon="0.13896">
        <ele>569</ele>
        <time>2021-10-07T12:13:16.000Z</time>
      </trkpt>
      <trkpt lat="43.07031" lon="0.13904">
        <ele>569.20001220703</ele>
        <time>2021-10-07T12:13:18.000Z</time>
      </trkpt>
      <trkpt lat="43.07053" lon="0.13925">
        <ele>569.20001220703</ele>
        <time>2021-10-07T12:13:22.000Z</time>
      </trkpt>
      <trkpt lat="43.07074" lon="0.1394">
        <ele>567.20001220703</ele>
        <time>2021-10-07T12:13:25.000Z</time>
      </trkpt>
      <trkpt lat="43.0709" lon="0.13949">
        <ele>565.79998779297</ele>
        <time>2021-10-07T12:13:27.000Z</time>
      </trkpt>
      <trkpt lat="43.07097" lon="0.13954">
        <ele>564.79998779297</ele>
        <time>2021-10-07T12:13:28.000Z</time>
      </trkpt>
      <trkpt lat="43.07111" lon="0.13964">
        <ele>562.79998779297</ele>
        <time>2021-10-07T12:13:30.000Z</time>
      </trkpt>
      <trkpt lat="43.07126" lon="0.13972">
        <ele>561.40002441406</ele>
        <time>2021-10-07T12:13:32.000Z</time>
      </trkpt>
      <trkpt lat="43.07132" lon="0.13976">
        <ele>560.40002441406</ele>
        <time>2021-10-07T12:13:33.000Z</time>
      </trkpt>
      <trkpt lat="43.07138" lon="0.13981">
        <ele>560</ele>
        <time>2021-10-07T12:13:34.000Z</time>
      </trkpt>
      <trkpt lat="43.07145" lon="0.13982">
        <ele>559.20001220703</ele>
        <time>2021-10-07T12:13:35.000Z</time>
      </trkpt>
      <trkpt lat="43.07152" lon="0.13981">
        <ele>558.59997558594</ele>
        <time>2021-10-07T12:13:36.000Z</time>
      </trkpt>
      <trkpt lat="43.07158" lon="0.13978">
        <ele>557.40002441406</ele>
        <time>2021-10-07T12:13:37.000Z</time>
      </trkpt>
      <trkpt lat="43.07172" lon="0.13967">
        <ele>556.40002441406</ele>
        <time>2021-10-07T12:13:39.000Z</time>
      </trkpt>
      <trkpt lat="43.07179" lon="0.1396">
        <ele>556</ele>
        <time>2021-10-07T12:13:40.000Z</time>
      </trkpt>
      <trkpt lat="43.072" lon="0.1394">
        <ele>554.79998779297</ele>
        <time>2021-10-07T12:13:43.000Z</time>
      </trkpt>
      <trkpt lat="43.07208" lon="0.13933">
        <ele>554.20001220703</ele>
        <time>2021-10-07T12:13:44.000Z</time>
      </trkpt>
      <trkpt lat="43.07222" lon="0.13918">
        <ele>553.40002441406</ele>
        <time>2021-10-07T12:13:46.000Z</time>
      </trkpt>
      <trkpt lat="43.07235" lon="0.13905">
        <ele>552.40002441406</ele>
        <time>2021-10-07T12:13:48.000Z</time>
      </trkpt>
      <trkpt lat="43.07241" lon="0.139">
        <ele>551.79998779297</ele>
        <time>2021-10-07T12:13:49.000Z</time>
      </trkpt>
      <trkpt lat="43.07248" lon="0.13898">
        <ele>551.40002441406</ele>
        <time>2021-10-07T12:13:50.000Z</time>
      </trkpt>
      <trkpt lat="43.07254" lon="0.13899">
        <ele>550.59997558594</ele>
        <time>2021-10-07T12:13:51.000Z</time>
      </trkpt>
      <trkpt lat="43.0726" lon="0.13902">
        <ele>550.40002441406</ele>
        <time>2021-10-07T12:13:52.000Z</time>
      </trkpt>
      <trkpt lat="43.0727" lon="0.13913">
        <ele>549.59997558594</ele>
        <time>2021-10-07T12:13:54.000Z</time>
      </trkpt>
      <trkpt lat="43.07274" lon="0.13919">
        <ele>549.40002441406</ele>
        <time>2021-10-07T12:13:55.000Z</time>
      </trkpt>
      <trkpt lat="43.07284" lon="0.13939">
        <ele>548.79998779297</ele>
        <time>2021-10-07T12:13:58.000Z</time>
      </trkpt>
      <trkpt lat="43.07292" lon="0.13954">
        <ele>548.59997558594</ele>
        <time>2021-10-07T12:14:00.000Z</time>
      </trkpt>
      <trkpt lat="43.07296" lon="0.13962">
        <ele>548.40002441406</ele>
        <time>2021-10-07T12:14:01.000Z</time>
      </trkpt>
      <trkpt lat="43.07304" lon="0.13986">
        <ele>548.20001220703</ele>
        <time>2021-10-07T12:14:04.000Z</time>
      </trkpt>
      <trkpt lat="43.07309" lon="0.1401">
        <ele>547.40002441406</ele>
        <time>2021-10-07T12:14:07.000Z</time>
      </trkpt>
      <trkpt lat="43.07318" lon="0.14079">
        <ele>547.40002441406</ele>
        <time>2021-10-07T12:14:15.000Z</time>
      </trkpt>
      <trkpt lat="43.07319" lon="0.14087">
        <ele>547.40002441406</ele>
        <time>2021-10-07T12:14:16.000Z</time>
      </trkpt>
      <trkpt lat="43.07323" lon="0.14102">
        <ele>547.20001220703</ele>
        <time>2021-10-07T12:14:18.000Z</time>
      </trkpt>
      <trkpt lat="43.07325" lon="0.14109">
        <ele>547.20001220703</ele>
        <time>2021-10-07T12:14:19.000Z</time>
      </trkpt>
      <trkpt lat="43.0734" lon="0.14146">
        <ele>547.20001220703</ele>
        <time>2021-10-07T12:14:25.000Z</time>
      </trkpt>
      <trkpt lat="43.07349" lon="0.14177">
        <ele>547.40002441406</ele>
        <time>2021-10-07T12:14:30.000Z</time>
      </trkpt>
      <trkpt lat="43.07355" lon="0.14193">
        <ele>547.20001220703</ele>
        <time>2021-10-07T12:14:33.000Z</time>
      </trkpt>
      <trkpt lat="43.0736" lon="0.14203">
        <ele>547.20001220703</ele>
        <time>2021-10-07T12:14:35.000Z</time>
      </trkpt>
      <trkpt lat="43.07365" lon="0.14216">
        <ele>547.20001220703</ele>
        <time>2021-10-07T12:14:38.000Z</time>
      </trkpt>
      <trkpt lat="43.07372" lon="0.14225">
        <ele>547.20001220703</ele>
        <time>2021-10-07T12:14:42.000Z</time>
      </trkpt>
      <trkpt lat="43.07382" lon="0.14223">
        <ele>547.20001220703</ele>
        <time>2021-10-07T12:14:46.000Z</time>
      </trkpt>
      <trkpt lat="43.07388" lon="0.14224">
        <ele>547.20001220703</ele>
        <time>2021-10-07T12:14:48.000Z</time>
      </trkpt>
      <trkpt lat="43.07391" lon="0.14229">
        <ele>547</ele>
        <time>2021-10-07T12:14:50.000Z</time>
      </trkpt>
      <trkpt lat="43.07393" lon="0.14231">
        <ele>547.20001220703</ele>
        <time>2021-10-07T12:14:52.000Z</time>
      </trkpt>
      <trkpt lat="43.07393" lon="0.14231">
        <ele>547</ele>
        <time>2021-10-07T12:14:54.000Z</time>
      </trkpt>
    </trkseg>
  </trk>
</gpx>